<?xml version='1.0' encoding='UTF-8'?><gpx version="1.1" creator="JPX - https://github.com/jenetics/jpx" xmlns="http://www.topografix.com/GPX/1/1"><trk><trkseg><trkpt lat="43.71384906236965" lon="10.408647079474916"><ele>9.0</ele><time>2026-03-24T15:41:21Z</time></trkpt><trkpt lat="43.713805088476015" lon="10.408716028872577"><ele>9.0</ele><time>2026-03-24T15:41:47Z</time></trkpt><trkpt lat="43.71373102838151" lon="10.408825559527704"><ele>9.0</ele><time>2026-03-24T15:41:48Z</time></trkpt><trkpt lat="43.7136255213816" lon="10.408958803016718"><ele>9.0</ele><time>2026-03-24T15:41:49Z</time></trkpt><trkpt lat="43.71351888539082" lon="10.409083808309935"><ele>8.0</ele><time>2026-03-24T15:41:50Z</time></trkpt><trkpt lat="43.71342887874344" lon="10.40916462883089"><ele>7.0</ele><time>2026-03-24T15:41:51Z</time></trkpt><trkpt lat="43.713325499239275" lon="10.409240525637975"><ele>6.0</ele><time>2026-03-24T15:41:52Z</time></trkpt><trkpt lat="43.71321065745122" lon="10.409318469155664"><ele>5.0</ele><time>2026-03-24T15:41:53Z</time></trkpt><trkpt lat="43.713107230186935" lon="10.40937845040148"><ele>5.0</ele><time>2026-03-24T15:41:54Z</time></trkpt><trkpt lat="43.71300112584168" lon="10.409421681854427"><ele>5.0</ele><time>2026-03-24T15:41:55Z</time></trkpt><trkpt lat="43.71291246044205" lon="10.409449904368708"><ele>5.0</ele><time>2026-03-24T15:41:56Z</time></trkpt><trkpt lat="43.71281324781117" lon="10.409466510250917"><ele>5.0</ele><time>2026-03-24T15:41:57Z</time></trkpt><trkpt lat="43.71270544701571" lon="10.409482044325348"><ele>5.0</ele><time>2026-03-24T15:41:58Z</time></trkpt><trkpt lat="43.71261080821005" lon="10.409483256634049"><ele>5.0</ele><time>2026-03-24T15:41:59Z</time></trkpt><trkpt lat="43.712509696261804" lon="10.40947557800758"><ele>5.0</ele><time>2026-03-24T15:42:00Z</time></trkpt><trkpt lat="43.712399563688265" lon="10.40947085218686"><ele>5.0</ele><time>2026-03-24T15:42:01Z</time></trkpt><trkpt lat="43.71228826461841" lon="10.409471563015464"><ele>5.0</ele><time>2026-03-24T15:42:02Z</time></trkpt><trkpt lat="43.71216699043127" lon="10.409471125157058"><ele>5.0</ele><time>2026-03-24T15:42:03Z</time></trkpt><trkpt lat="43.71205727497765" lon="10.40946904389231"><ele>5.0</ele><time>2026-03-24T15:42:04Z</time></trkpt><trkpt lat="43.71194830071399" lon="10.4094684374447"><ele>5.0</ele><time>2026-03-24T15:42:05Z</time></trkpt><trkpt lat="43.71184418390987" lon="10.409467933527157"><ele>5.0</ele><time>2026-03-24T15:42:06Z</time></trkpt><trkpt lat="43.71174627402928" lon="10.409466736060756"><ele>5.0</ele><time>2026-03-24T15:42:07Z</time></trkpt><trkpt lat="43.71164617485964" lon="10.409471615037864"><ele>5.0</ele><time>2026-03-24T15:42:08Z</time></trkpt><trkpt lat="43.71154851871837" lon="10.409465671770596"><ele>5.0</ele><time>2026-03-24T15:42:09Z</time></trkpt><trkpt lat="43.711452709176086" lon="10.409461251648727"><ele>5.0</ele><time>2026-03-24T15:42:10Z</time></trkpt><trkpt lat="43.71134487744871" lon="10.409461987146752"><ele>5.0</ele><time>2026-03-24T15:42:11Z</time></trkpt><trkpt lat="43.71123776590118" lon="10.40945280857459"><ele>5.0</ele><time>2026-03-24T15:42:12Z</time></trkpt><trkpt lat="43.711149462791475" lon="10.409445481907962"><ele>5.0</ele><time>2026-03-24T15:42:13Z</time></trkpt><trkpt lat="43.711068947662326" lon="10.40944584673294"><ele>5.0</ele><time>2026-03-24T15:42:14Z</time></trkpt><trkpt lat="43.710994208141294" lon="10.409440987085356"><ele>5.0</ele><time>2026-03-24T15:42:15Z</time></trkpt><trkpt lat="43.7109114826274" lon="10.409441612391511"><ele>5.0</ele><time>2026-03-24T15:42:16Z</time></trkpt><trkpt lat="43.71082734348443" lon="10.40944230091351"><ele>5.0</ele><time>2026-03-24T15:42:17Z</time></trkpt><trkpt lat="43.71071441591983" lon="10.409416146521306"><ele>5.0</ele><time>2026-03-24T15:42:18Z</time></trkpt><trkpt lat="43.71060788593255" lon="10.409410833314634"><ele>5.0</ele><time>2026-03-24T15:42:19Z</time></trkpt><trkpt lat="43.710496012294804" lon="10.40941273494936"><ele>5.0</ele><time>2026-03-24T15:42:20Z</time></trkpt><trkpt lat="43.71040404364205" lon="10.409414088154273"><ele>5.0</ele><time>2026-03-24T15:42:21Z</time></trkpt><trkpt lat="43.71031591396822" lon="10.40940264447731"><ele>5.0</ele><time>2026-03-24T15:42:22Z</time></trkpt><trkpt lat="43.71022722248265" lon="10.409391468159109"><ele>5.0</ele><time>2026-03-24T15:42:23Z</time></trkpt><trkpt lat="43.71015637626859" lon="10.409380393018989"><ele>4.8</ele><time>2026-03-24T15:42:24Z</time></trkpt><trkpt lat="43.71008656457162" lon="10.409316140128391"><ele>4.6</ele><time>2026-03-24T15:42:26Z</time></trkpt><trkpt lat="43.71005742367068" lon="10.40923666330605"><ele>4.4</ele><time>2026-03-24T15:42:29Z</time></trkpt><trkpt lat="43.71004776611206" lon="10.409027772534161"><ele>4.2</ele><time>2026-03-24T15:42:31Z</time></trkpt><trkpt lat="43.710051144225815" lon="10.408868954610432"><ele>4.0</ele><time>2026-03-24T15:42:32Z</time></trkpt><trkpt lat="43.710051676999015" lon="10.408709886720118"><ele>3.4999999999999996</ele><time>2026-03-24T15:42:33Z</time></trkpt><trkpt lat="43.71005880367693" lon="10.408583848825032"><ele>3.0</ele><time>2026-03-24T15:42:34Z</time></trkpt><trkpt lat="43.7100650695928" lon="10.408479134416394"><ele>2.5</ele><time>2026-03-24T15:42:35Z</time></trkpt><trkpt lat="43.71006877201044" lon="10.408371181972045"><ele>2.0</ele><time>2026-03-24T15:42:36Z</time></trkpt><trkpt lat="43.71007246608868" lon="10.408258073961813"><ele>1.5</ele><time>2026-03-24T15:42:37Z</time></trkpt><trkpt lat="43.71007650644904" lon="10.408151339502433"><ele>1.0</ele><time>2026-03-24T15:42:38Z</time></trkpt><trkpt lat="43.71008406244489" lon="10.408062309691044"><ele>2.333333333333333</ele><time>2026-03-24T15:42:39Z</time></trkpt><trkpt lat="43.71009063604924" lon="10.407925414959477"><ele>3.6666666666666665</ele><time>2026-03-24T15:42:41Z</time></trkpt><trkpt lat="43.71010274859996" lon="10.407797512690397"><ele>5.0</ele><time>2026-03-24T15:42:54Z</time></trkpt><trkpt lat="43.710138370933336" lon="10.407699178228288"><ele>6.333333333333333</ele><time>2026-03-24T15:42:55Z</time></trkpt><trkpt lat="43.710192741312646" lon="10.407596565863921"><ele>7.666666666666667</ele><time>2026-03-24T15:42:56Z</time></trkpt><trkpt lat="43.710196940211645" lon="10.407479042372556"><ele>9.0</ele><time>2026-03-24T15:42:57Z</time></trkpt><trkpt lat="43.71013847313692" lon="10.407395119059865"><ele>9.0</ele><time>2026-03-24T15:42:58Z</time></trkpt><trkpt lat="43.710085554378736" lon="10.407299536639309"><ele>9.0</ele><time>2026-03-24T15:42:59Z</time></trkpt><trkpt lat="43.71010197359711" lon="10.407153297634322"><ele>9.0</ele><time>2026-03-24T15:43:01Z</time></trkpt><trkpt lat="43.71011483377978" lon="10.407033356625588"><ele>9.0</ele><time>2026-03-24T15:43:02Z</time></trkpt><trkpt lat="43.71013698198975" lon="10.406948612641205"><ele>9.0</ele><time>2026-03-24T15:43:03Z</time></trkpt><trkpt lat="43.7101557255482" lon="10.406855662189134"><ele>9.0</ele><time>2026-03-24T15:43:04Z</time></trkpt><trkpt lat="43.7101275111526" lon="10.406660861104445"><ele>9.0</ele><time>2026-03-24T15:43:05Z</time></trkpt><trkpt lat="43.71013923797164" lon="10.406517027296731"><ele>9.0</ele><time>2026-03-24T15:43:06Z</time></trkpt><trkpt lat="43.710143374218084" lon="10.406391110591299"><ele>9.0</ele><time>2026-03-24T15:43:07Z</time></trkpt><trkpt lat="43.7101575772618" lon="10.406236993127465"><ele>9.0</ele><time>2026-03-24T15:43:08Z</time></trkpt><trkpt lat="43.71016103888828" lon="10.406114656454973"><ele>9.0</ele><time>2026-03-24T15:43:09Z</time></trkpt><trkpt lat="43.710163887167724" lon="10.406005907861358"><ele>8.666666666666666</ele><time>2026-03-24T15:43:10Z</time></trkpt><trkpt lat="43.71016510895098" lon="10.405893250201734"><ele>8.333333333333334</ele><time>2026-03-24T15:43:11Z</time></trkpt><trkpt lat="43.71016853831692" lon="10.405795449818044"><ele>8.0</ele><time>2026-03-24T15:43:12Z</time></trkpt><trkpt lat="43.71019514327783" lon="10.405706893851375"><ele>7.666666666666667</ele><time>2026-03-24T15:43:14Z</time></trkpt><trkpt lat="43.71025378484563" lon="10.405614351027358"><ele>7.333333333333334</ele><time>2026-03-24T15:43:22Z</time></trkpt><trkpt lat="43.71030338255235" lon="10.40553358734206"><ele>7.0</ele><time>2026-03-24T15:43:23Z</time></trkpt><trkpt lat="43.71036374161452" lon="10.405508107667172"><ele>7.0</ele><time>2026-03-24T15:43:24Z</time></trkpt><trkpt lat="43.71046372311609" lon="10.405405060770446"><ele>7.0</ele><time>2026-03-24T15:43:26Z</time></trkpt><trkpt lat="43.71046748374817" lon="10.405299733300563"><ele>7.0</ele><time>2026-03-24T15:43:27Z</time></trkpt><trkpt lat="43.71044148077697" lon="10.405183013797187"><ele>7.0</ele><time>2026-03-24T15:43:29Z</time></trkpt><trkpt lat="43.7102415607676" lon="10.405229092588703"><ele>6.6</ele><time>2026-03-24T15:43:30Z</time></trkpt><trkpt lat="43.71016979036917" lon="10.405256926206073"><ele>6.199999999999999</ele><time>2026-03-24T15:43:31Z</time></trkpt><trkpt lat="43.710076685446175" lon="10.405257893435476"><ele>5.8</ele><time>2026-03-24T15:43:32Z</time></trkpt><trkpt lat="43.709991747044306" lon="10.405229359468597"><ele>5.4</ele><time>2026-03-24T15:43:33Z</time></trkpt><trkpt lat="43.709886615020814" lon="10.405158815619373"><ele>5.0</ele><time>2026-03-24T15:43:34Z</time></trkpt><trkpt lat="43.709811383786565" lon="10.405117149314888"><ele>5.0</ele><time>2026-03-24T15:43:35Z</time></trkpt><trkpt lat="43.709750877153006" lon="10.405069923412787"><ele>5.0</ele><time>2026-03-24T15:43:36Z</time></trkpt><trkpt lat="43.7096042413276" lon="10.405334113932891"><ele>5.0</ele><time>2026-03-24T15:43:39Z</time></trkpt><trkpt lat="43.70956498856537" lon="10.40548667632198"><ele>5.0</ele><time>2026-03-24T15:43:40Z</time></trkpt><trkpt lat="43.70953839350985" lon="10.40566297414396"><ele>5.166666666666667</ele><time>2026-03-24T15:43:41Z</time></trkpt><trkpt lat="43.70950991586972" lon="10.405840515588238"><ele>5.333333333333334</ele><time>2026-03-24T15:43:42Z</time></trkpt><trkpt lat="43.70947302010238" lon="10.405952632472156"><ele>5.5</ele><time>2026-03-24T15:43:43Z</time></trkpt><trkpt lat="43.709423815848524" lon="10.406035067371196"><ele>5.666666666666667</ele><time>2026-03-24T15:43:44Z</time></trkpt><trkpt lat="43.709367707455954" lon="10.40608642234781"><ele>5.833333333333333</ele><time>2026-03-24T15:43:45Z</time></trkpt><trkpt lat="43.709321964458546" lon="10.40614893251366"><ele>6.0</ele><time>2026-03-24T15:43:47Z</time></trkpt><trkpt lat="43.70944311273627" lon="10.406141532954285"><ele>6.166666666666667</ele><time>2026-03-24T15:43:54Z</time></trkpt><trkpt lat="43.70950296489405" lon="10.406064753550636"><ele>6.333333333333334</ele><time>2026-03-24T15:43:55Z</time></trkpt><trkpt lat="43.709564606800946" lon="10.40599687221267"><ele>6.5</ele><time>2026-03-24T15:43:56Z</time></trkpt><trkpt lat="43.70963521468037" lon="10.405932969106964"><ele>6.666666666666667</ele><time>2026-03-24T15:43:57Z</time></trkpt><trkpt lat="43.70971988786965" lon="10.405873681229782"><ele>6.833333333333334</ele><time>2026-03-24T15:43:58Z</time></trkpt><trkpt lat="43.7098003224171" lon="10.40581717583566"><ele>7.0</ele><time>2026-03-24T15:43:59Z</time></trkpt><trkpt lat="43.70990549201024" lon="10.405753137983067"><ele>7.0</ele><time>2026-03-24T15:44:00Z</time></trkpt><trkpt lat="43.710029860761104" lon="10.405684276288788"><ele>7.0</ele><time>2026-03-24T15:44:01Z</time></trkpt><trkpt lat="43.71014202818756" lon="10.405619357988266"><ele>7.0</ele><time>2026-03-24T15:44:02Z</time></trkpt><trkpt lat="43.7102347862375" lon="10.4055539386946"><ele>7.0</ele><time>2026-03-24T15:44:03Z</time></trkpt><trkpt lat="43.71032957663418" lon="10.405507110536451"><ele>7.0</ele><time>2026-03-24T15:44:04Z</time></trkpt><trkpt lat="43.710404339832664" lon="10.405461802622611"><ele>6.999999999999999</ele><time>2026-03-24T15:44:05Z</time></trkpt><trkpt lat="43.71046005351302" lon="10.405410622193058"><ele>6.999999999999999</ele><time>2026-03-24T15:44:06Z</time></trkpt><trkpt lat="43.71047231632955" lon="10.40529435306798"><ele>7.0</ele><time>2026-03-24T15:44:07Z</time></trkpt><trkpt lat="43.710458599439676" lon="10.405208458691455"><ele>7.0</ele><time>2026-03-24T15:44:08Z</time></trkpt><trkpt lat="43.71020837310569" lon="10.4052221841036"><ele>6.6</ele><time>2026-03-24T15:44:10Z</time></trkpt><trkpt lat="43.71010259098468" lon="10.405261372059266"><ele>6.199999999999999</ele><time>2026-03-24T15:44:11Z</time></trkpt><trkpt lat="43.71000031230672" lon="10.405206933579874"><ele>5.8</ele><time>2026-03-24T15:44:12Z</time></trkpt><trkpt lat="43.7099012138962" lon="10.40515125481213"><ele>5.4</ele><time>2026-03-24T15:44:13Z</time></trkpt><trkpt lat="43.709835584444455" lon="10.405115958490267"><ele>5.0</ele><time>2026-03-24T15:44:14Z</time></trkpt><trkpt lat="43.709767993803226" lon="10.405082696879512"><ele>5.0</ele><time>2026-03-24T15:44:15Z</time></trkpt><trkpt lat="43.7096861520021" lon="10.405032398033592"><ele>5.0</ele><time>2026-03-24T15:44:17Z</time></trkpt><trkpt lat="43.709617540672916" lon="10.405243504271104"><ele>5.0</ele><time>2026-03-24T15:44:18Z</time></trkpt><trkpt lat="43.709577753451754" lon="10.405345573016803"><ele>5.0</ele><time>2026-03-24T15:44:19Z</time></trkpt><trkpt lat="43.709548452510816" lon="10.405462148319465"><ele>5.0</ele><time>2026-03-24T15:44:20Z</time></trkpt><trkpt lat="43.70954656710527" lon="10.405573609093492"><ele>5.25</ele><time>2026-03-24T15:44:21Z</time></trkpt><trkpt lat="43.709404141000746" lon="10.405608793772268"><ele>5.5</ele><time>2026-03-24T15:44:23Z</time></trkpt><trkpt lat="43.70926137287735" lon="10.405546446119445"><ele>5.75</ele><time>2026-03-24T15:44:25Z</time></trkpt><trkpt lat="43.70916748161854" lon="10.405527865500625"><ele>6.0</ele><time>2026-03-24T15:44:26Z</time></trkpt><trkpt lat="43.70903876823842" lon="10.405460581443608"><ele>6.666666666666666</ele><time>2026-03-24T15:44:27Z</time></trkpt><trkpt lat="43.70889502331648" lon="10.405386682250587"><ele>7.333333333333333</ele><time>2026-03-24T15:44:28Z</time></trkpt><trkpt lat="43.70873974018404" lon="10.40530162766153"><ele>8.0</ele><time>2026-03-24T15:44:29Z</time></trkpt><trkpt lat="43.7085971900977" lon="10.405218230031767"><ele>7.5</ele><time>2026-03-24T15:44:30Z</time></trkpt><trkpt lat="43.7084590997688" lon="10.405148227542032"><ele>7.0</ele><time>2026-03-24T15:44:31Z</time></trkpt><trkpt lat="43.70832268200739" lon="10.40507974610204"><ele>6.5</ele><time>2026-03-24T15:44:32Z</time></trkpt><trkpt lat="43.70820024013329" lon="10.405020755392139"><ele>6.0</ele><time>2026-03-24T15:44:33Z</time></trkpt><trkpt lat="43.7080937270964" lon="10.404962089660485"><ele>6.0</ele><time>2026-03-24T15:44:34Z</time></trkpt><trkpt lat="43.70798151109629" lon="10.404893969631681"><ele>6.0</ele><time>2026-03-24T15:44:35Z</time></trkpt><trkpt lat="43.70789392520502" lon="10.404847148519504"><ele>6.0</ele><time>2026-03-24T15:44:36Z</time></trkpt><trkpt lat="43.707823715684164" lon="10.404815302544185"><ele>6.0</ele><time>2026-03-24T15:44:37Z</time></trkpt><trkpt lat="43.70775901824177" lon="10.404802511092116"><ele>6.0</ele><time>2026-03-24T15:44:39Z</time></trkpt><trkpt lat="43.70767692791201" lon="10.404738194832278"><ele>5.8</ele><time>2026-03-24T15:44:41Z</time></trkpt><trkpt lat="43.70768554626019" lon="10.404949126899432"><ele>5.6</ele><time>2026-03-24T15:44:42Z</time></trkpt><trkpt lat="43.70764472166743" lon="10.40506243461241"><ele>5.4</ele><time>2026-03-24T15:44:43Z</time></trkpt><trkpt lat="43.70760891055738" lon="10.405161828272732"><ele>5.2</ele><time>2026-03-24T15:44:44Z</time></trkpt><trkpt lat="43.70757075268477" lon="10.405267245693613"><ele>5.0</ele><time>2026-03-24T15:44:45Z</time></trkpt><trkpt lat="43.70753690449683" lon="10.40536142511474"><ele>5.0</ele><time>2026-03-24T15:44:46Z</time></trkpt><trkpt lat="43.707494588356525" lon="10.405470575439319"><ele>5.0</ele><time>2026-03-24T15:44:48Z</time></trkpt><trkpt lat="43.70748024755483" lon="10.40555625917621"><ele>5.0</ele><time>2026-03-24T15:44:50Z</time></trkpt><trkpt lat="43.70743151979907" lon="10.405667716230857"><ele>5.0</ele><time>2026-03-24T15:44:53Z</time></trkpt><trkpt lat="43.70737855038555" lon="10.405745505936105"><ele>5.0</ele><time>2026-03-24T15:44:57Z</time></trkpt><trkpt lat="43.70728470233373" lon="10.405654908708414"><ele>5.0</ele><time>2026-03-24T15:44:58Z</time></trkpt><trkpt lat="43.70720110766547" lon="10.4055852502872"><ele>5.0</ele><time>2026-03-24T15:45:00Z</time></trkpt><trkpt lat="43.70709477511277" lon="10.405495033258495"><ele>5.0</ele><time>2026-03-24T15:45:02Z</time></trkpt><trkpt lat="43.70701216919307" lon="10.40543032811184"><ele>5.0</ele><time>2026-03-24T15:45:04Z</time></trkpt><trkpt lat="43.70693302711779" lon="10.40538763029955"><ele>5.0</ele><time>2026-03-24T15:45:06Z</time></trkpt><trkpt lat="43.70686270440116" lon="10.405357478906481"><ele>5.0</ele><time>2026-03-24T15:45:09Z</time></trkpt><trkpt lat="43.70679022107192" lon="10.405331445047716"><ele>5.0</ele><time>2026-03-24T15:45:16.999Z</time></trkpt><trkpt lat="43.70672062192107" lon="10.405372245351085"><ele>5.0</ele><time>2026-03-24T15:45:18.999Z</time></trkpt><trkpt lat="43.706658477482335" lon="10.40551698606777"><ele>5.0</ele><time>2026-03-24T15:45:20.999Z</time></trkpt><trkpt lat="43.706610558595656" lon="10.40564744147153"><ele>5.0</ele><time>2026-03-24T15:45:23Z</time></trkpt><trkpt lat="43.70657564642829" lon="10.405758755195576"><ele>5.0</ele><time>2026-03-24T15:45:25Z</time></trkpt><trkpt lat="43.706528709642356" lon="10.405873623173331"><ele>5.0</ele><time>2026-03-24T15:45:26Z</time></trkpt><trkpt lat="43.706449653756614" lon="10.406077693910007"><ele>5.0</ele><time>2026-03-24T15:45:28Z</time></trkpt><trkpt lat="43.706420033061114" lon="10.406175414922954"><ele>5.0</ele><time>2026-03-24T15:45:29Z</time></trkpt><trkpt lat="43.706380636848024" lon="10.406287779902227"><ele>5.0</ele><time>2026-03-24T15:45:30Z</time></trkpt><trkpt lat="43.70633570277882" lon="10.406401039592739"><ele>5.0</ele><time>2026-03-24T15:45:31Z</time></trkpt><trkpt lat="43.706297819081925" lon="10.406515225228828"><ele>5.0</ele><time>2026-03-24T15:45:32Z</time></trkpt><trkpt lat="43.70625802192653" lon="10.406629725870495"><ele>5.0</ele><time>2026-03-24T15:45:33Z</time></trkpt><trkpt lat="43.70621003195016" lon="10.406758517307988"><ele>5.0</ele><time>2026-03-24T15:45:34Z</time></trkpt><trkpt lat="43.70615960684995" lon="10.40689225598447"><ele>5.0</ele><time>2026-03-24T15:45:35Z</time></trkpt><trkpt lat="43.706109222315845" lon="10.40703351216878"><ele>5.0</ele><time>2026-03-24T15:45:36Z</time></trkpt><trkpt lat="43.70605976639597" lon="10.407185698957273"><ele>5.0</ele><time>2026-03-24T15:45:37Z</time></trkpt><trkpt lat="43.70600879544372" lon="10.407339097811361"><ele>5.0</ele><time>2026-03-24T15:45:38Z</time></trkpt><trkpt lat="43.705953750543756" lon="10.407493723272083"><ele>5.0</ele><time>2026-03-24T15:45:39Z</time></trkpt><trkpt lat="43.70590633297662" lon="10.407620256016747"><ele>5.0</ele><time>2026-03-24T15:45:40Z</time></trkpt><trkpt lat="43.705843862562226" lon="10.407745351196798"><ele>5.0</ele><time>2026-03-24T15:45:41Z</time></trkpt><trkpt lat="43.705776882507905" lon="10.407865960844566"><ele>5.0</ele><time>2026-03-24T15:45:42Z</time></trkpt><trkpt lat="43.70569482602775" lon="10.407970060649982"><ele>5.0</ele><time>2026-03-24T15:45:43Z</time></trkpt><trkpt lat="43.705589910116366" lon="10.408056611890732"><ele>5.0</ele><time>2026-03-24T15:45:44Z</time></trkpt><trkpt lat="43.705489703795855" lon="10.408137362151418"><ele>5.25</ele><time>2026-03-24T15:45:45Z</time></trkpt><trkpt lat="43.70539011196844" lon="10.408232244998663"><ele>5.5</ele><time>2026-03-24T15:45:46Z</time></trkpt><trkpt lat="43.70529485696751" lon="10.40833830046126"><ele>5.75</ele><time>2026-03-24T15:45:47Z</time></trkpt><trkpt lat="43.705190893357816" lon="10.408442088988295"><ele>6.0</ele><time>2026-03-24T15:45:48Z</time></trkpt><trkpt lat="43.70508751681648" lon="10.40852353114276"><ele>5.75</ele><time>2026-03-24T15:45:49Z</time></trkpt><trkpt lat="43.704971571870786" lon="10.40862765220253"><ele>5.5</ele><time>2026-03-24T15:45:50Z</time></trkpt><trkpt lat="43.7048604019564" lon="10.408730094817514"><ele>5.25</ele><time>2026-03-24T15:45:51Z</time></trkpt><trkpt lat="43.70476452357487" lon="10.408834179911844"><ele>5.0</ele><time>2026-03-24T15:45:52Z</time></trkpt><trkpt lat="43.70467916358244" lon="10.408955286052247"><ele>5.0</ele><time>2026-03-24T15:45:53Z</time></trkpt><trkpt lat="43.70462833269016" lon="10.409092256045305"><ele>5.0</ele><time>2026-03-24T15:45:54Z</time></trkpt><trkpt lat="43.704598957312584" lon="10.409223513407465"><ele>5.0</ele><time>2026-03-24T15:45:55Z</time></trkpt><trkpt lat="43.70458925280511" lon="10.409342019313726"><ele>5.0</ele><time>2026-03-24T15:45:56Z</time></trkpt><trkpt lat="43.704587964328795" lon="10.409446902450878"><ele>5.0</ele><time>2026-03-24T15:45:57Z</time></trkpt><trkpt lat="43.70459570676609" lon="10.409537702164466"><ele>5.0</ele><time>2026-03-24T15:45:58Z</time></trkpt><trkpt lat="43.70458834046028" lon="10.40966480857701"><ele>5.0</ele><time>2026-03-24T15:46:00Z</time></trkpt><trkpt lat="43.70456704072548" lon="10.409764181678113"><ele>5.0</ele><time>2026-03-24T15:46:03Z</time></trkpt><trkpt lat="43.70460680435573" lon="10.409873322001756"><ele>5.0</ele><time>2026-03-24T15:46:06Z</time></trkpt><trkpt lat="43.70461352183536" lon="10.410003753449026"><ele>5.0</ele><time>2026-03-24T15:46:29Z</time></trkpt><trkpt lat="43.70455595610867" lon="10.410065024389665"><ele>5.0</ele><time>2026-03-24T15:46:30Z</time></trkpt><trkpt lat="43.70447615362624" lon="10.41012385998201"><ele>5.0</ele><time>2026-03-24T15:46:31Z</time></trkpt><trkpt lat="43.704404494198535" lon="10.410190157126697"><ele>5.0</ele><time>2026-03-24T15:46:32Z</time></trkpt><trkpt lat="43.70433686395443" lon="10.410274450127545"><ele>5.0</ele><time>2026-03-24T15:46:33Z</time></trkpt><trkpt lat="43.704286874289785" lon="10.41035475784959"><ele>5.0</ele><time>2026-03-24T15:46:34Z</time></trkpt><trkpt lat="43.70424268129551" lon="10.410439758824099"><ele>5.0</ele><time>2026-03-24T15:46:35Z</time></trkpt><trkpt lat="43.70419279051051" lon="10.410543742232953"><ele>5.0</ele><time>2026-03-24T15:46:36Z</time></trkpt><trkpt lat="43.70414199231577" lon="10.41066157226683"><ele>5.0</ele><time>2026-03-24T15:46:37Z</time></trkpt><trkpt lat="43.704103762221266" lon="10.410782126077937"><ele>5.0</ele><time>2026-03-24T15:46:38Z</time></trkpt><trkpt lat="43.70409505191093" lon="10.41092824125033"><ele>5.0</ele><time>2026-03-24T15:46:39Z</time></trkpt><trkpt lat="43.704059214150966" lon="10.41105605008934"><ele>5.0</ele><time>2026-03-24T15:46:40Z</time></trkpt><trkpt lat="43.70396756928997" lon="10.411162404075078"><ele>5.0</ele><time>2026-03-24T15:46:41Z</time></trkpt><trkpt lat="43.70391019516073" lon="10.411285835422705"><ele>5.0</ele><time>2026-03-24T15:46:42Z</time></trkpt><trkpt lat="43.70384540430988" lon="10.411410615751368"><ele>5.0</ele><time>2026-03-24T15:46:43Z</time></trkpt><trkpt lat="43.703770473584335" lon="10.41153321465264"><ele>5.0</ele><time>2026-03-24T15:46:44Z</time></trkpt><trkpt lat="43.70368243653779" lon="10.411652619467356"><ele>5.0</ele><time>2026-03-24T15:46:45Z</time></trkpt><trkpt lat="43.70358112796293" lon="10.411763392122237"><ele>5.0</ele><time>2026-03-24T15:46:46Z</time></trkpt><trkpt lat="43.703471144731964" lon="10.411864277142953"><ele>5.0</ele><time>2026-03-24T15:46:47Z</time></trkpt><trkpt lat="43.703351601884926" lon="10.411945448590071"><ele>5.0</ele><time>2026-03-24T15:46:48Z</time></trkpt><trkpt lat="43.70322331271122" lon="10.412009687914395"><ele>5.0</ele><time>2026-03-24T15:46:49Z</time></trkpt><trkpt lat="43.703095632804796" lon="10.41205459370239"><ele>5.0</ele><time>2026-03-24T15:46:50Z</time></trkpt><trkpt lat="43.70295946899099" lon="10.412086134600552"><ele>5.0</ele><time>2026-03-24T15:46:51Z</time></trkpt><trkpt lat="43.70282331271947" lon="10.412100263950567"><ele>5.0</ele><time>2026-03-24T15:46:52Z</time></trkpt><trkpt lat="43.70268560726945" lon="10.412100784089413"><ele>5.0</ele><time>2026-03-24T15:46:53Z</time></trkpt><trkpt lat="43.7025524866902" lon="10.41208148874049"><ele>5.0</ele><time>2026-03-24T15:46:54Z</time></trkpt><trkpt lat="43.702420802150854" lon="10.412054232541443"><ele>4.75</ele><time>2026-03-24T15:46:55Z</time></trkpt><trkpt lat="43.70229073374328" lon="10.412035609131646"><ele>4.5</ele><time>2026-03-24T15:46:56Z</time></trkpt><trkpt lat="43.70215765920229" lon="10.412014289869788"><ele>4.25</ele><time>2026-03-24T15:46:57Z</time></trkpt><trkpt lat="43.702021166111315" lon="10.4119943194673"><ele>4.0</ele><time>2026-03-24T15:46:58Z</time></trkpt><trkpt lat="43.701886046250095" lon="10.411972453524003"><ele>4.0</ele><time>2026-03-24T15:46:59Z</time></trkpt><trkpt lat="43.701753889537514" lon="10.411951202599212"><ele>4.0</ele><time>2026-03-24T15:47:00Z</time></trkpt><trkpt lat="43.70162576042897" lon="10.411936412207634"><ele>4.0</ele><time>2026-03-24T15:47:01Z</time></trkpt><trkpt lat="43.70150839213841" lon="10.411937691319988"><ele>4.0</ele><time>2026-03-24T15:47:02Z</time></trkpt><trkpt lat="43.701399949675974" lon="10.41194648625949"><ele>3.9999999999999996</ele><time>2026-03-24T15:47:03Z</time></trkpt><trkpt lat="43.70129753356414" lon="10.411969856449735"><ele>4.0</ele><time>2026-03-24T15:47:04Z</time></trkpt><trkpt lat="43.70120954756064" lon="10.411997062904971"><ele>4.0</ele><time>2026-03-24T15:47:05Z</time></trkpt><trkpt lat="43.70112824501528" lon="10.412025436743944"><ele>4.0</ele><time>2026-03-24T15:47:06Z</time></trkpt><trkpt lat="43.70105481990455" lon="10.41204822286445"><ele>3.9999999999999996</ele><time>2026-03-24T15:47:07Z</time></trkpt><trkpt lat="43.700991689147166" lon="10.41205069547594"><ele>4.0</ele><time>2026-03-24T15:47:08Z</time></trkpt><trkpt lat="43.700871515305984" lon="10.412026587763778"><ele>4.166666666666666</ele><time>2026-03-24T15:47:10Z</time></trkpt><trkpt lat="43.70078023699934" lon="10.412077576995726"><ele>4.333333333333333</ele><time>2026-03-24T15:47:12Z</time></trkpt><trkpt lat="43.700730006316036" lon="10.41213954987278"><ele>4.5</ele><time>2026-03-24T15:47:13Z</time></trkpt><trkpt lat="43.70070592433431" lon="10.412254164174598"><ele>4.666666666666667</ele><time>2026-03-24T15:47:14Z</time></trkpt><trkpt lat="43.700647482375516" lon="10.41234415768262"><ele>4.833333333333334</ele><time>2026-03-24T15:47:15Z</time></trkpt><trkpt lat="43.70058267987687" lon="10.412420591183121"><ele>5.0</ele><time>2026-03-24T15:47:16Z</time></trkpt><trkpt lat="43.700523421632994" lon="10.412484686370439"><ele>5.0</ele><time>2026-03-24T15:47:17Z</time></trkpt><trkpt lat="43.70045519981687" lon="10.412559545844712"><ele>5.0</ele><time>2026-03-24T15:47:18Z</time></trkpt><trkpt lat="43.70038040045767" lon="10.412640445670055"><ele>5.0</ele><time>2026-03-24T15:47:19Z</time></trkpt><trkpt lat="43.700298772153516" lon="10.412734381548955"><ele>5.0</ele><time>2026-03-24T15:47:20Z</time></trkpt><trkpt lat="43.70021651625802" lon="10.412832504798537"><ele>5.0</ele><time>2026-03-24T15:47:20.999Z</time></trkpt><trkpt lat="43.70012917643058" lon="10.412921317637721"><ele>5.0</ele><time>2026-03-24T15:47:21.999Z</time></trkpt><trkpt lat="43.70002942509349" lon="10.413001362506773"><ele>5.0</ele><time>2026-03-24T15:47:22.999Z</time></trkpt><trkpt lat="43.69993099163043" lon="10.413056190977539"><ele>5.0</ele><time>2026-03-24T15:47:23.999Z</time></trkpt><trkpt lat="43.699835034858154" lon="10.413096020491329"><ele>5.0</ele><time>2026-03-24T15:47:24.999Z</time></trkpt><trkpt lat="43.699737815831924" lon="10.413127903263497"><ele>5.0</ele><time>2026-03-24T15:47:25.999Z</time></trkpt><trkpt lat="43.69964147830463" lon="10.413157473383107"><ele>5.0</ele><time>2026-03-24T15:47:26.999Z</time></trkpt><trkpt lat="43.6995451331565" lon="10.413188695794759"><ele>5.0</ele><time>2026-03-24T15:47:27.999Z</time></trkpt><trkpt lat="43.69944589823461" lon="10.413221465537243"><ele>5.0</ele><time>2026-03-24T15:47:28.999Z</time></trkpt><trkpt lat="43.69935385116996" lon="10.413249280111899"><ele>5.0</ele><time>2026-03-24T15:47:29.999Z</time></trkpt><trkpt lat="43.69926919192582" lon="10.413266650548804"><ele>5.0</ele><time>2026-03-24T15:47:30.999Z</time></trkpt><trkpt lat="43.69919365306401" lon="10.413290214738257"><ele>5.0</ele><time>2026-03-24T15:47:31.999Z</time></trkpt><trkpt lat="43.6991071597549" lon="10.4133181832226"><ele>5.0</ele><time>2026-03-24T15:47:32.999Z</time></trkpt><trkpt lat="43.699021567739784" lon="10.413345625582622"><ele>5.0</ele><time>2026-03-24T15:47:33.999Z</time></trkpt><trkpt lat="43.69892912719999" lon="10.41337531170976"><ele>5.0</ele><time>2026-03-24T15:47:35Z</time></trkpt><trkpt lat="43.69883036661656" lon="10.413405353579417"><ele>5.0</ele><time>2026-03-24T15:47:36Z</time></trkpt><trkpt lat="43.69873173590414" lon="10.413441065854402"><ele>5.0</ele><time>2026-03-24T15:47:37Z</time></trkpt><trkpt lat="43.69863182694642" lon="10.413475920403416"><ele>5.0</ele><time>2026-03-24T15:47:38Z</time></trkpt><trkpt lat="43.698530395341194" lon="10.413510250517273"><ele>5.0</ele><time>2026-03-24T15:47:39Z</time></trkpt><trkpt lat="43.69843537946395" lon="10.413539516867875"><ele>5.0</ele><time>2026-03-24T15:47:40Z</time></trkpt><trkpt lat="43.698350365384854" lon="10.413572211046837"><ele>5.0</ele><time>2026-03-24T15:47:41Z</time></trkpt><trkpt lat="43.698276303467985" lon="10.413601930204747"><ele>5.0</ele><time>2026-03-24T15:47:42Z</time></trkpt><trkpt lat="43.6982103588778" lon="10.413624150569488"><ele>5.0</ele><time>2026-03-24T15:47:43Z</time></trkpt><trkpt lat="43.698099204976124" lon="10.413686429696849"><ele>5.0</ele><time>2026-03-24T15:47:45Z</time></trkpt><trkpt lat="43.698063188860324" lon="10.413789649427398"><ele>5.0</ele><time>2026-03-24T15:47:47Z</time></trkpt><trkpt lat="43.698056436740636" lon="10.413697112338005"><ele>5.0</ele><time>2026-03-24T15:47:48Z</time></trkpt><trkpt lat="43.69811502299461" lon="10.413809908804103"><ele>5.0</ele><time>2026-03-24T15:47:51Z</time></trkpt><trkpt lat="43.69808182758799" lon="10.413673067988077"><ele>5.0</ele><time>2026-03-24T15:47:59Z</time></trkpt><trkpt lat="43.69809987368815" lon="10.413823870586345"><ele>5.0</ele><time>2026-03-24T15:48:03Z</time></trkpt><trkpt lat="43.698103581102714" lon="10.413665577731146"><ele>5.0</ele><time>2026-03-24T15:48:40Z</time></trkpt><trkpt lat="43.69808040220802" lon="10.413751089622291"><ele>5.0</ele><time>2026-03-24T15:49:57Z</time></trkpt><trkpt lat="43.69815046559814" lon="10.413793617222389"><ele>5.0</ele><time>2026-03-24T15:50:48Z</time></trkpt><trkpt lat="43.69823182649081" lon="10.413826922069658"><ele>5.0</ele><time>2026-03-24T15:50:50Z</time></trkpt><trkpt lat="43.69824534361321" lon="10.413696049897911"><ele>5.0</ele><time>2026-03-24T15:50:52Z</time></trkpt><trkpt lat="43.69819117018847" lon="10.413587196413935"><ele>5.0</ele><time>2026-03-24T15:51:14Z</time></trkpt><trkpt lat="43.69801143563994" lon="10.413670542370115"><ele>5.0</ele><time>2026-03-24T15:51:16Z</time></trkpt><trkpt lat="43.69789053093358" lon="10.41372714744893"><ele>5.0</ele><time>2026-03-24T15:51:17Z</time></trkpt><trkpt lat="43.69776164710687" lon="10.41377920856084"><ele>5.0</ele><time>2026-03-24T15:51:18Z</time></trkpt><trkpt lat="43.69762911028254" lon="10.41382342247943"><ele>5.0</ele><time>2026-03-24T15:51:19Z</time></trkpt><trkpt lat="43.69748118146148" lon="10.413873005706744"><ele>5.0</ele><time>2026-03-24T15:51:20Z</time></trkpt><trkpt lat="43.69733566236257" lon="10.413948976341441"><ele>5.0</ele><time>2026-03-24T15:51:21Z</time></trkpt><trkpt lat="43.69718076812086" lon="10.414038098447506"><ele>5.0</ele><time>2026-03-24T15:51:22Z</time></trkpt><trkpt lat="43.697023735154794" lon="10.414130162982161"><ele>5.0</ele><time>2026-03-24T15:51:23Z</time></trkpt><trkpt lat="43.696881030009145" lon="10.414197796276008"><ele>5.0</ele><time>2026-03-24T15:51:24Z</time></trkpt><trkpt lat="43.69672204098578" lon="10.414210486942503"><ele>5.0</ele><time>2026-03-24T15:51:25Z</time></trkpt><trkpt lat="43.69655874516515" lon="10.414169003170555"><ele>5.0</ele><time>2026-03-24T15:51:26Z</time></trkpt><trkpt lat="43.696389466089144" lon="10.414108214617393"><ele>5.0</ele><time>2026-03-24T15:51:27Z</time></trkpt><trkpt lat="43.69623676298913" lon="10.414050199936112"><ele>5.0</ele><time>2026-03-24T15:51:28Z</time></trkpt><trkpt lat="43.69610306079859" lon="10.41397514122251"><ele>5.0</ele><time>2026-03-24T15:51:29Z</time></trkpt><trkpt lat="43.69596557897293" lon="10.41389599664663"><ele>5.0</ele><time>2026-03-24T15:51:30Z</time></trkpt><trkpt lat="43.695830723353126" lon="10.413825968840607"><ele>5.0</ele><time>2026-03-24T15:51:31Z</time></trkpt><trkpt lat="43.69572091925196" lon="10.413766466390104"><ele>5.0</ele><time>2026-03-24T15:51:32Z</time></trkpt><trkpt lat="43.69563331445845" lon="10.41372659303271"><ele>5.0</ele><time>2026-03-24T15:51:33Z</time></trkpt><trkpt lat="43.69554696510737" lon="10.413687466836578"><ele>5.0</ele><time>2026-03-24T15:51:35Z</time></trkpt><trkpt lat="43.69543185955038" lon="10.413640020226413"><ele>5.0</ele><time>2026-03-24T15:51:43Z</time></trkpt><trkpt lat="43.695360592098396" lon="10.413616120827328"><ele>5.0</ele><time>2026-03-24T15:51:44Z</time></trkpt><trkpt lat="43.69524912618436" lon="10.41358822627729"><ele>5.0</ele><time>2026-03-24T15:51:46Z</time></trkpt><trkpt lat="43.69510830775333" lon="10.413547367935688"><ele>5.0</ele><time>2026-03-24T15:51:48Z</time></trkpt><trkpt lat="43.6950221079486" lon="10.413537956847874"><ele>5.0</ele><time>2026-03-24T15:51:49Z</time></trkpt><trkpt lat="43.694927721235835" lon="10.413544586242953"><ele>4.6</ele><time>2026-03-24T15:51:50Z</time></trkpt><trkpt lat="43.694843356161925" lon="10.413561646459128"><ele>4.2</ele><time>2026-03-24T15:51:51Z</time></trkpt><trkpt lat="43.694748811192596" lon="10.413583837723133"><ele>3.8</ele><time>2026-03-24T15:51:52Z</time></trkpt><trkpt lat="43.69463826109836" lon="10.413620876141508"><ele>3.4</ele><time>2026-03-24T15:51:53Z</time></trkpt><trkpt lat="43.69452028014781" lon="10.413667924806436"><ele>3.0</ele><time>2026-03-24T15:51:54Z</time></trkpt><trkpt lat="43.69437310672247" lon="10.413702153020594"><ele>3.0</ele><time>2026-03-24T15:51:55Z</time></trkpt><trkpt lat="43.694201085179536" lon="10.413763791670695"><ele>3.0</ele><time>2026-03-24T15:51:56Z</time></trkpt><trkpt lat="43.69402451349426" lon="10.413822776849493"><ele>3.0</ele><time>2026-03-24T15:51:57Z</time></trkpt><trkpt lat="43.69384287894066" lon="10.413876656059575"><ele>3.0</ele><time>2026-03-24T15:51:58Z</time></trkpt><trkpt lat="43.69364097533285" lon="10.413919486843463"><ele>3.0</ele><time>2026-03-24T15:51:59Z</time></trkpt><trkpt lat="43.69343982932294" lon="10.413974751823897"><ele>3.0</ele><time>2026-03-24T15:52:00Z</time></trkpt><trkpt lat="43.69321872562134" lon="10.413982176700143"><ele>3.0</ele><time>2026-03-24T15:52:01Z</time></trkpt><trkpt lat="43.69299472146148" lon="10.414006183863545"><ele>3.0</ele><time>2026-03-24T15:52:02Z</time></trkpt><trkpt lat="43.692770222386876" lon="10.414038269513739"><ele>2.5</ele><time>2026-03-24T15:52:03Z</time></trkpt><trkpt lat="43.6925351091554" lon="10.414067397272474"><ele>2.0</ele><time>2026-03-24T15:52:04Z</time></trkpt><trkpt lat="43.69229556696017" lon="10.414095083257658"><ele>2.0</ele><time>2026-03-24T15:52:05Z</time></trkpt><trkpt lat="43.69204640636499" lon="10.414122174158416"><ele>2.0</ele><time>2026-03-24T15:52:06Z</time></trkpt><trkpt lat="43.691795272568285" lon="10.414146926295201"><ele>1.6666666666666665</ele><time>2026-03-24T15:52:07Z</time></trkpt><trkpt lat="43.69156462454734" lon="10.41417693137837"><ele>1.3333333333333333</ele><time>2026-03-24T15:52:08Z</time></trkpt><trkpt lat="43.69136246305429" lon="10.414240071226162"><ele>1.0</ele><time>2026-03-24T15:52:09Z</time></trkpt><trkpt lat="43.691180911936925" lon="10.414367177192622"><ele>1.3333333333333333</ele><time>2026-03-24T15:52:10Z</time></trkpt><trkpt lat="43.69102047626756" lon="10.414560588838734"><ele>1.6666666666666665</ele><time>2026-03-24T15:52:11Z</time></trkpt><trkpt lat="43.69087493311453" lon="10.41480496187946"><ele>2.0</ele><time>2026-03-24T15:52:12Z</time></trkpt><trkpt lat="43.69073773997516" lon="10.415081461937971"><ele>2.0</ele><time>2026-03-24T15:52:13Z</time></trkpt><trkpt lat="43.69058005191401" lon="10.415356358893451"><ele>2.0</ele><time>2026-03-24T15:52:14Z</time></trkpt><trkpt lat="43.690412193089855" lon="10.415627355907372"><ele>0.5</ele><time>2026-03-24T15:52:15Z</time></trkpt><trkpt lat="43.69024270851521" lon="10.415884568911173"><ele>-1.0</ele><time>2026-03-24T15:52:16Z</time></trkpt><trkpt lat="43.690082125370864" lon="10.416117436278311"><ele>-0.6666666666666666</ele><time>2026-03-24T15:52:17Z</time></trkpt><trkpt lat="43.68993364277113" lon="10.41632888123821"><ele>-0.3333333333333333</ele><time>2026-03-24T15:52:18Z</time></trkpt><trkpt lat="43.68978949123462" lon="10.416533583644279"><ele>0.0</ele><time>2026-03-24T15:52:19Z</time></trkpt><trkpt lat="43.68964949547668" lon="10.416743751907697"><ele>0.0</ele><time>2026-03-24T15:52:20Z</time></trkpt><trkpt lat="43.68951050542577" lon="10.416967861595712"><ele>0.0</ele><time>2026-03-24T15:52:21Z</time></trkpt><trkpt lat="43.689377620861016" lon="10.417193175124645"><ele>0.0</ele><time>2026-03-24T15:52:22Z</time></trkpt><trkpt lat="43.68924978758102" lon="10.417423030015167"><ele>0.0</ele><time>2026-03-24T15:52:23Z</time></trkpt><trkpt lat="43.68911818440927" lon="10.417653538248477"><ele>0.0</ele><time>2026-03-24T15:52:24Z</time></trkpt><trkpt lat="43.68897527161045" lon="10.417884177291603"><ele>0.0</ele><time>2026-03-24T15:52:25Z</time></trkpt><trkpt lat="43.68882331466358" lon="10.418109964335324"><ele>0.0</ele><time>2026-03-24T15:52:26Z</time></trkpt><trkpt lat="43.68866000556888" lon="10.418322200935515"><ele>0.0</ele><time>2026-03-24T15:52:27Z</time></trkpt><trkpt lat="43.6884858334081" lon="10.41852668174099"><ele>0.0</ele><time>2026-03-24T15:52:28Z</time></trkpt><trkpt lat="43.688312037405346" lon="10.418723823182335"><ele>0.0</ele><time>2026-03-24T15:52:29Z</time></trkpt><trkpt lat="43.68813072660971" lon="10.418910367765639"><ele>0.0</ele><time>2026-03-24T15:52:30Z</time></trkpt><trkpt lat="43.687959223469" lon="10.419086167537186"><ele>0.0</ele><time>2026-03-24T15:52:31Z</time></trkpt><trkpt lat="43.68777476905803" lon="10.41925810139231"><ele>0.0</ele><time>2026-03-24T15:52:32Z</time></trkpt><trkpt lat="43.68758169639067" lon="10.41941903519755"><ele>0.5</ele><time>2026-03-24T15:52:33Z</time></trkpt><trkpt lat="43.68737695599849" lon="10.419569034397977"><ele>1.0</ele><time>2026-03-24T15:52:34Z</time></trkpt><trkpt lat="43.68716777213201" lon="10.419714885621442"><ele>1.0</ele><time>2026-03-24T15:52:35Z</time></trkpt><trkpt lat="43.68696196123618" lon="10.419854437025444"><ele>1.0</ele><time>2026-03-24T15:52:36Z</time></trkpt><trkpt lat="43.686762084970404" lon="10.419984616058926"><ele>1.0</ele><time>2026-03-24T15:52:37Z</time></trkpt><trkpt lat="43.68655405030851" lon="10.420125942636798"><ele>1.0</ele><time>2026-03-24T15:52:38Z</time></trkpt><trkpt lat="43.68634442655134" lon="10.42027216526332"><ele>1.0</ele><time>2026-03-24T15:52:39Z</time></trkpt><trkpt lat="43.6861407702555" lon="10.420423912441183"><ele>1.0</ele><time>2026-03-24T15:52:40Z</time></trkpt><trkpt lat="43.68594742083177" lon="10.420594654956524"><ele>1.0</ele><time>2026-03-24T15:52:41Z</time></trkpt><trkpt lat="43.68576933168522" lon="10.420801010326223"><ele>1.0</ele><time>2026-03-24T15:52:42Z</time></trkpt><trkpt lat="43.685615829298996" lon="10.421038192510277"><ele>1.0</ele><time>2026-03-24T15:52:43Z</time></trkpt><trkpt lat="43.685476332553755" lon="10.421290588131239"><ele>1.0</ele><time>2026-03-24T15:52:44Z</time></trkpt><trkpt lat="43.68536218363183" lon="10.421556878121773"><ele>1.0</ele><time>2026-03-24T15:52:45Z</time></trkpt><trkpt lat="43.685268552790816" lon="10.421821523803937"><ele>1.0</ele><time>2026-03-24T15:52:46Z</time></trkpt><trkpt lat="43.685188351650126" lon="10.422079799174865"><ele>1.0</ele><time>2026-03-24T15:52:47Z</time></trkpt><trkpt lat="43.68511481528877" lon="10.422315999750367"><ele>1.4</ele><time>2026-03-24T15:52:48Z</time></trkpt><trkpt lat="43.68505304451244" lon="10.422504152741158"><ele>1.8</ele><time>2026-03-24T15:52:49Z</time></trkpt><trkpt lat="43.685000436067085" lon="10.422657195327464"><ele>2.1999999999999997</ele><time>2026-03-24T15:52:50Z</time></trkpt><trkpt lat="43.684959658556025" lon="10.422771990373416"><ele>2.6</ele><time>2026-03-24T15:52:51Z</time></trkpt><trkpt lat="43.684930130154505" lon="10.422851442142052"><ele>3.0</ele><time>2026-03-24T15:52:52Z</time></trkpt><trkpt lat="43.68484736400988" lon="10.42302173086275"><ele>3.25</ele><time>2026-03-24T15:53:35.001Z</time></trkpt><trkpt lat="43.68479649502164" lon="10.423169094014263"><ele>3.5</ele><time>2026-03-24T15:53:36.001Z</time></trkpt><trkpt lat="43.68473318514023" lon="10.423334165681323"><ele>3.75</ele><time>2026-03-24T15:53:37.001Z</time></trkpt><trkpt lat="43.684676372029614" lon="10.423493551321599"><ele>4.0</ele><time>2026-03-24T15:53:38Z</time></trkpt><trkpt lat="43.68462254797548" lon="10.423647159056179"><ele>4.0</ele><time>2026-03-24T15:53:39Z</time></trkpt><trkpt lat="43.68455557167351" lon="10.42380192308406"><ele>4.0</ele><time>2026-03-24T15:53:40Z</time></trkpt><trkpt lat="43.68448849529022" lon="10.423940402084131"><ele>4.0</ele><time>2026-03-24T15:53:41Z</time></trkpt><trkpt lat="43.68442621147059" lon="10.424066107412733"><ele>4.0</ele><time>2026-03-24T15:53:42Z</time></trkpt><trkpt lat="43.68437233013735" lon="10.424166970024634"><ele>3.2</ele><time>2026-03-24T15:53:43Z</time></trkpt><trkpt lat="43.68432249543314" lon="10.424248257913332"><ele>2.4000000000000004</ele><time>2026-03-24T15:53:44Z</time></trkpt><trkpt lat="43.68427104609279" lon="10.424322916057317"><ele>1.6</ele><time>2026-03-24T15:53:45Z</time></trkpt><trkpt lat="43.68420939503011" lon="10.424409455453718"><ele>0.8</ele><time>2026-03-24T15:53:46Z</time></trkpt><trkpt lat="43.68413400032022" lon="10.424505466024726"><ele>0.0</ele><time>2026-03-24T15:53:47Z</time></trkpt><trkpt lat="43.68403759314123" lon="10.424628428678503"><ele>0.6666666666666666</ele><time>2026-03-24T15:53:48Z</time></trkpt><trkpt lat="43.68389709993498" lon="10.424741583993212"><ele>1.3333333333333333</ele><time>2026-03-24T15:53:49Z</time></trkpt><trkpt lat="43.68374225104359" lon="10.424867689361639"><ele>2.0</ele><time>2026-03-24T15:53:50Z</time></trkpt><trkpt lat="43.683589521192786" lon="10.42500556108198"><ele>2.0</ele><time>2026-03-24T15:53:51Z</time></trkpt><trkpt lat="43.68343604638487" lon="10.425092899172444"><ele>2.0</ele><time>2026-03-24T15:53:52Z</time></trkpt><trkpt lat="43.683306116603134" lon="10.425192517951906"><ele>2.0</ele><time>2026-03-24T15:53:53Z</time></trkpt><trkpt lat="43.683191192748" lon="10.425294344540685"><ele>2.0</ele><time>2026-03-24T15:53:54Z</time></trkpt><trkpt lat="43.68308456904107" lon="10.425386208879205"><ele>2.0</ele><time>2026-03-24T15:53:55Z</time></trkpt><trkpt lat="43.68298383009926" lon="10.425464148164604"><ele>2.0</ele><time>2026-03-24T15:53:56Z</time></trkpt><trkpt lat="43.68289446258082" lon="10.425526265447049"><ele>2.0</ele><time>2026-03-24T15:53:57Z</time></trkpt><trkpt lat="43.68280935033436" lon="10.42558958281813"><ele>2.0</ele><time>2026-03-24T15:53:58Z</time></trkpt><trkpt lat="43.68272119741242" lon="10.425658441661778"><ele>1.75</ele><time>2026-03-24T15:53:59Z</time></trkpt><trkpt lat="43.6826225266212" lon="10.42573762371291"><ele>1.5</ele><time>2026-03-24T15:54:00Z</time></trkpt><trkpt lat="43.682504036911546" lon="10.425814952218056"><ele>1.25</ele><time>2026-03-24T15:54:01Z</time></trkpt><trkpt lat="43.682363098576296" lon="10.425924376163593"><ele>1.0</ele><time>2026-03-24T15:54:02Z</time></trkpt><trkpt lat="43.682205349223416" lon="10.426046063189617"><ele>1.0</ele><time>2026-03-24T15:54:03Z</time></trkpt><trkpt lat="43.682041262240595" lon="10.426178900219572"><ele>1.0</ele><time>2026-03-24T15:54:04Z</time></trkpt><trkpt lat="43.68188076382339" lon="10.426293045720962"><ele>1.0</ele><time>2026-03-24T15:54:05Z</time></trkpt><trkpt lat="43.681711907837226" lon="10.426419408525128"><ele>1.3333333333333333</ele><time>2026-03-24T15:54:06Z</time></trkpt><trkpt lat="43.68154312082865" lon="10.426547920435139"><ele>1.6666666666666665</ele><time>2026-03-24T15:54:07Z</time></trkpt><trkpt lat="43.68137755812623" lon="10.426679186952887"><ele>2.0</ele><time>2026-03-24T15:54:08Z</time></trkpt><trkpt lat="43.681226206132045" lon="10.42679842526746"><ele>2.333333333333333</ele><time>2026-03-24T15:54:09Z</time></trkpt><trkpt lat="43.68107778961629" lon="10.426911140188453"><ele>2.6666666666666665</ele><time>2026-03-24T15:54:10Z</time></trkpt><trkpt lat="43.68092598610022" lon="10.427027138207528"><ele>3.0</ele><time>2026-03-24T15:54:11Z</time></trkpt><trkpt lat="43.68077227667548" lon="10.427145975326315"><ele>3.0</ele><time>2026-03-24T15:54:12Z</time></trkpt><trkpt lat="43.680636278530535" lon="10.427249214083316"><ele>3.0</ele><time>2026-03-24T15:54:13Z</time></trkpt><trkpt lat="43.68051300204615" lon="10.427336466531008"><ele>3.0</ele><time>2026-03-24T15:54:14Z</time></trkpt><trkpt lat="43.680399861618525" lon="10.42741043775359"><ele>3.0</ele><time>2026-03-24T15:54:15Z</time></trkpt><trkpt lat="43.68029672988615" lon="10.427465083838875"><ele>2.8333333333333335</ele><time>2026-03-24T15:54:16Z</time></trkpt><trkpt lat="43.680200923324605" lon="10.427513935481405"><ele>2.6666666666666665</ele><time>2026-03-24T15:54:17Z</time></trkpt><trkpt lat="43.68011435220996" lon="10.427578359497828"><ele>2.5</ele><time>2026-03-24T15:54:18Z</time></trkpt><trkpt lat="43.680024315522516" lon="10.427629506287092"><ele>2.333333333333333</ele><time>2026-03-24T15:54:19Z</time></trkpt><trkpt lat="43.679952645166004" lon="10.427670524847482"><ele>2.1666666666666665</ele><time>2026-03-24T15:54:20Z</time></trkpt><trkpt lat="43.67989126093806" lon="10.42771072090496"><ele>2.0</ele><time>2026-03-24T15:54:21Z</time></trkpt><trkpt lat="43.67978639873147" lon="10.427762051705733"><ele>2.0</ele><time>2026-03-24T15:54:23Z</time></trkpt><trkpt lat="43.679712538017085" lon="10.427794073477811"><ele>2.0</ele><time>2026-03-24T15:54:24Z</time></trkpt><trkpt lat="43.67962490334317" lon="10.427845200604189"><ele>2.0</ele><time>2026-03-24T15:54:25Z</time></trkpt><trkpt lat="43.67952668682741" lon="10.427905091007593"><ele>2.0</ele><time>2026-03-24T15:54:26Z</time></trkpt><trkpt lat="43.679419725848376" lon="10.427961658095292"><ele>2.0</ele><time>2026-03-24T15:54:27Z</time></trkpt><trkpt lat="43.67930322036941" lon="10.42800896082169"><ele>2.25</ele><time>2026-03-24T15:54:28Z</time></trkpt><trkpt lat="43.67917782662836" lon="10.428054821164801"><ele>2.5</ele><time>2026-03-24T15:54:29Z</time></trkpt><trkpt lat="43.67904294656601" lon="10.428104480528042"><ele>2.75</ele><time>2026-03-24T15:54:30Z</time></trkpt><trkpt lat="43.678905370366444" lon="10.428159563890803"><ele>3.0</ele><time>2026-03-24T15:54:31Z</time></trkpt><trkpt lat="43.67877078976045" lon="10.428225499698826"><ele>3.0</ele><time>2026-03-24T15:54:32Z</time></trkpt><trkpt lat="43.67863975552822" lon="10.42830393533626"><ele>3.0</ele><time>2026-03-24T15:54:33Z</time></trkpt><trkpt lat="43.678513943919306" lon="10.428388818911394"><ele>3.0</ele><time>2026-03-24T15:54:34Z</time></trkpt><trkpt lat="43.67838829371374" lon="10.428473741339847"><ele>3.0</ele><time>2026-03-24T15:54:35Z</time></trkpt><trkpt lat="43.67826237066252" lon="10.428558406057542"><ele>2.5</ele><time>2026-03-24T15:54:36Z</time></trkpt><trkpt lat="43.67814163531796" lon="10.428642821759563"><ele>2.0</ele><time>2026-03-24T15:54:37Z</time></trkpt><trkpt lat="43.678027399269176" lon="10.428729745540751"><ele>1.5</ele><time>2026-03-24T15:54:38Z</time></trkpt><trkpt lat="43.67791639841753" lon="10.428819271971896"><ele>1.0</ele><time>2026-03-24T15:54:39Z</time></trkpt><trkpt lat="43.67779593006677" lon="10.428910968223777"><ele>1.0</ele><time>2026-03-24T15:54:40Z</time></trkpt><trkpt lat="43.67765097362713" lon="10.428992313145828"><ele>1.0</ele><time>2026-03-24T15:54:41Z</time></trkpt><trkpt lat="43.677471994530144" lon="10.429121632717326"><ele>1.0</ele><time>2026-03-24T15:54:42Z</time></trkpt><trkpt lat="43.67730804748543" lon="10.429261944528127"><ele>1.0</ele><time>2026-03-24T15:54:43Z</time></trkpt><trkpt lat="43.67713363740849" lon="10.429386055200641"><ele>1.0</ele><time>2026-03-24T15:54:44Z</time></trkpt><trkpt lat="43.67697163232109" lon="10.429507027037427"><ele>1.0</ele><time>2026-03-24T15:54:45Z</time></trkpt><trkpt lat="43.67680916922636" lon="10.429605419425393"><ele>1.0</ele><time>2026-03-24T15:54:46Z</time></trkpt><trkpt lat="43.67668270717045" lon="10.429719352819292"><ele>1.0</ele><time>2026-03-24T15:54:47.001Z</time></trkpt><trkpt lat="43.67655265733177" lon="10.429815985249485"><ele>1.0</ele><time>2026-03-24T15:54:48.001Z</time></trkpt><trkpt lat="43.6764406288912" lon="10.429876186613019"><ele>1.0</ele><time>2026-03-24T15:54:49.001Z</time></trkpt><trkpt lat="43.676354901036554" lon="10.429939355961523"><ele>1.0</ele><time>2026-03-24T15:54:50.001Z</time></trkpt><trkpt lat="43.676286149194084" lon="10.429986662710254"><ele>1.0</ele><time>2026-03-24T15:54:51.001Z</time></trkpt><trkpt lat="43.6760389464486" lon="10.430172848463858"><ele>1.0</ele><time>2026-03-24T15:54:52.001Z</time></trkpt><trkpt lat="43.675927301045874" lon="10.430253802018202"><ele>1.25</ele><time>2026-03-24T15:54:53.001Z</time></trkpt><trkpt lat="43.67582710359867" lon="10.430324400345748"><ele>1.5</ele><time>2026-03-24T15:54:54.001Z</time></trkpt><trkpt lat="43.675718172734335" lon="10.430387300339389"><ele>1.75</ele><time>2026-03-24T15:54:55.001Z</time></trkpt><trkpt lat="43.67560482753094" lon="10.43045248663252"><ele>2.0</ele><time>2026-03-24T15:54:56.001Z</time></trkpt><trkpt lat="43.67548833744679" lon="10.430514681428999"><ele>2.0</ele><time>2026-03-24T15:54:57.001Z</time></trkpt><trkpt lat="43.67537375006101" lon="10.430567033558392"><ele>2.0</ele><time>2026-03-24T15:54:58.001Z</time></trkpt><trkpt lat="43.675286015539285" lon="10.430629358474835"><ele>2.0</ele><time>2026-03-24T15:54:59.001Z</time></trkpt><trkpt lat="43.67521350611933" lon="10.430692597700718"><ele>2.0</ele><time>2026-03-24T15:55:00.001Z</time></trkpt><trkpt lat="43.67514273346919" lon="10.430742858901157"><ele>2.0</ele><time>2026-03-24T15:55:01.001Z</time></trkpt><trkpt lat="43.67506811076719" lon="10.430795814710985"><ele>1.75</ele><time>2026-03-24T15:55:02.001Z</time></trkpt><trkpt lat="43.674982502182985" lon="10.430870664450623"><ele>1.5</ele><time>2026-03-24T15:55:03.001Z</time></trkpt><trkpt lat="43.674887033313425" lon="10.430954993221363"><ele>1.25</ele><time>2026-03-24T15:55:04.001Z</time></trkpt><trkpt lat="43.67478231870556" lon="10.431034648699164"><ele>1.0</ele><time>2026-03-24T15:55:05.001Z</time></trkpt><trkpt lat="43.67466136050963" lon="10.431103928666698"><ele>1.0</ele><time>2026-03-24T15:55:06.001Z</time></trkpt><trkpt lat="43.674529704157884" lon="10.43119060306589"><ele>1.0</ele><time>2026-03-24T15:55:07.001Z</time></trkpt><trkpt lat="43.67438078429086" lon="10.431285298696896"><ele>1.0</ele><time>2026-03-24T15:55:08.001Z</time></trkpt><trkpt lat="43.67421787639585" lon="10.431393777477112"><ele>0.6666666666666666</ele><time>2026-03-24T15:55:09.001Z</time></trkpt><trkpt lat="43.67402626230731" lon="10.431521876342675"><ele>0.3333333333333333</ele><time>2026-03-24T15:55:10.001Z</time></trkpt><trkpt lat="43.67380701515715" lon="10.431636935898107"><ele>0.0</ele><time>2026-03-24T15:55:11.001Z</time></trkpt><trkpt lat="43.673600463722984" lon="10.431784300865031"><ele>0.0</ele><time>2026-03-24T15:55:12.001Z</time></trkpt><trkpt lat="43.67337553950519" lon="10.431920399708822"><ele>0.0</ele><time>2026-03-24T15:55:13.001Z</time></trkpt><trkpt lat="43.67316430500455" lon="10.43205123178433"><ele>0.0</ele><time>2026-03-24T15:55:14.001Z</time></trkpt><trkpt lat="43.67295999674085" lon="10.432183158203785"><ele>0.0</ele><time>2026-03-24T15:55:15.001Z</time></trkpt><trkpt lat="43.67276410776835" lon="10.43230554749251"><ele>0.0</ele><time>2026-03-24T15:55:16.001Z</time></trkpt><trkpt lat="43.672574246275325" lon="10.432423128548416"><ele>0.3333333333333333</ele><time>2026-03-24T15:55:17.001Z</time></trkpt><trkpt lat="43.67237641134789" lon="10.43252755927839"><ele>0.6666666666666666</ele><time>2026-03-24T15:55:18.001Z</time></trkpt><trkpt lat="43.67218380932047" lon="10.432622384090562"><ele>1.0</ele><time>2026-03-24T15:55:19.001Z</time></trkpt><trkpt lat="43.67199788604216" lon="10.432702513121443"><ele>0.6666666666666666</ele><time>2026-03-24T15:55:20.001Z</time></trkpt><trkpt lat="43.6718220039042" lon="10.432775634288463"><ele>0.3333333333333333</ele><time>2026-03-24T15:55:21.001Z</time></trkpt><trkpt lat="43.67164917351845" lon="10.432859836565177"><ele>0.0</ele><time>2026-03-24T15:55:22.001Z</time></trkpt><trkpt lat="43.67148396572921" lon="10.432907194339762"><ele>0.0</ele><time>2026-03-24T15:55:23.001Z</time></trkpt><trkpt lat="43.67132101222255" lon="10.432953846546337"><ele>0.0</ele><time>2026-03-24T15:55:24.001Z</time></trkpt><trkpt lat="43.67114587461116" lon="10.432996362792048"><ele>0.0</ele><time>2026-03-24T15:55:25.001Z</time></trkpt><trkpt lat="43.67095145385937" lon="10.433053345943115"><ele>0.0</ele><time>2026-03-24T15:55:26.001Z</time></trkpt><trkpt lat="43.67076067032584" lon="10.433107803418"><ele>0.0</ele><time>2026-03-24T15:55:27.001Z</time></trkpt><trkpt lat="43.67058444373813" lon="10.433153796989473"><ele>0.0</ele><time>2026-03-24T15:55:28.001Z</time></trkpt><trkpt lat="43.67041493244931" lon="10.433194410673176"><ele>0.0</ele><time>2026-03-24T15:55:29.001Z</time></trkpt><trkpt lat="43.67024510465905" lon="10.433241465877868"><ele>0.0</ele><time>2026-03-24T15:55:30.001Z</time></trkpt><trkpt lat="43.670079516829304" lon="10.4332911498872"><ele>0.0</ele><time>2026-03-24T15:55:31.001Z</time></trkpt><trkpt lat="43.66992308595654" lon="10.433341841756684"><ele>0.0</ele><time>2026-03-24T15:55:32.001Z</time></trkpt><trkpt lat="43.669769841161255" lon="10.433391290098504"><ele>0.0</ele><time>2026-03-24T15:55:33.001Z</time></trkpt><trkpt lat="43.66963081587863" lon="10.433452635673675"><ele>0.0</ele><time>2026-03-24T15:55:34.001Z</time></trkpt><trkpt lat="43.66950291701707" lon="10.433511485901525"><ele>0.0</ele><time>2026-03-24T15:55:35.001Z</time></trkpt><trkpt lat="43.66939652577261" lon="10.43355924053324"><ele>0.0</ele><time>2026-03-24T15:55:36.001Z</time></trkpt><trkpt lat="43.66928327953466" lon="10.433604126775357"><ele>0.0</ele><time>2026-03-24T15:55:37.001Z</time></trkpt><trkpt lat="43.66917556504348" lon="10.43364340460903"><ele>0.0</ele><time>2026-03-24T15:55:38.001Z</time></trkpt><trkpt lat="43.66907832031158" lon="10.433683403220037"><ele>0.0</ele><time>2026-03-24T15:55:39.001Z</time></trkpt><trkpt lat="43.6689912018807" lon="10.43372861947778"><ele>0.0</ele><time>2026-03-24T15:55:40.001Z</time></trkpt><trkpt lat="43.668917403273696" lon="10.433769486749664"><ele>0.16666666666666666</ele><time>2026-03-24T15:55:41.001Z</time></trkpt><trkpt lat="43.6688275100213" lon="10.433820715149487"><ele>0.3333333333333333</ele><time>2026-03-24T15:55:43.001Z</time></trkpt><trkpt lat="43.66875730239015" lon="10.433847150134548"><ele>0.5</ele><time>2026-03-24T15:55:48Z</time></trkpt><trkpt lat="43.66867415020404" lon="10.433866049735236"><ele>0.6666666666666666</ele><time>2026-03-24T15:55:49Z</time></trkpt><trkpt lat="43.6686075621872" lon="10.433891445203447"><ele>0.8333333333333333</ele><time>2026-03-24T15:55:50Z</time></trkpt><trkpt lat="43.66854861268064" lon="10.433940771686002"><ele>1.0</ele><time>2026-03-24T15:55:51Z</time></trkpt><trkpt lat="43.66849229913902" lon="10.433989442885185"><ele>1.0</ele><time>2026-03-24T15:55:52Z</time></trkpt><trkpt lat="43.66844701381485" lon="10.434074662305092"><ele>1.0</ele><time>2026-03-24T15:55:53Z</time></trkpt><trkpt lat="43.66832424759471" lon="10.434056748071303"><ele>1.0</ele><time>2026-03-24T15:55:54Z</time></trkpt><trkpt lat="43.66821587481738" lon="10.434081859298919"><ele>1.0</ele><time>2026-03-24T15:55:55Z</time></trkpt><trkpt lat="43.66806781158833" lon="10.434116306063373"><ele>1.0</ele><time>2026-03-24T15:55:56Z</time></trkpt><trkpt lat="43.667905910152164" lon="10.434211123570615"><ele>1.0</ele><time>2026-03-24T15:55:57Z</time></trkpt><trkpt lat="43.66775612228875" lon="10.434270590389817"><ele>1.0</ele><time>2026-03-24T15:55:58Z</time></trkpt><trkpt lat="43.66763407652186" lon="10.434333542574693"><ele>1.6666666666666665</ele><time>2026-03-24T15:55:59Z</time></trkpt><trkpt lat="43.66747974306662" lon="10.434410946655266"><ele>2.3333333333333335</ele><time>2026-03-24T15:56:00Z</time></trkpt><trkpt lat="43.667293458078106" lon="10.434520491028158"><ele>3.0</ele><time>2026-03-24T15:56:01Z</time></trkpt><trkpt lat="43.66711849866763" lon="10.434628213723762"><ele>2.0</ele><time>2026-03-24T15:56:02Z</time></trkpt><trkpt lat="43.66688384811737" lon="10.434798021150678"><ele>1.0</ele><time>2026-03-24T15:56:03Z</time></trkpt><trkpt lat="43.66666198688462" lon="10.434913024618407"><ele>1.0</ele><time>2026-03-24T15:56:04Z</time></trkpt><trkpt lat="43.666440604860455" lon="10.435048217233884"><ele>1.0</ele><time>2026-03-24T15:56:05Z</time></trkpt><trkpt lat="43.66620786266779" lon="10.435200761548948"><ele>1.0</ele><time>2026-03-24T15:56:06Z</time></trkpt><trkpt lat="43.665967712215696" lon="10.435355612261116"><ele>1.0</ele><time>2026-03-24T15:56:07Z</time></trkpt><trkpt lat="43.66572168786118" lon="10.435509340137237"><ele>1.0</ele><time>2026-03-24T15:56:08Z</time></trkpt><trkpt lat="43.665486169346785" lon="10.435652532647962"><ele>1.0</ele><time>2026-03-24T15:56:09Z</time></trkpt><trkpt lat="43.66526042361929" lon="10.435797690751045"><ele>0.5</ele><time>2026-03-24T15:56:10Z</time></trkpt><trkpt lat="43.66504454752169" lon="10.435939893598901"><ele>0.0</ele><time>2026-03-24T15:56:11Z</time></trkpt><trkpt lat="43.66482941599599" lon="10.436077769200692"><ele>0.0</ele><time>2026-03-24T15:56:12Z</time></trkpt><trkpt lat="43.66462261944822" lon="10.436207268240178"><ele>0.0</ele><time>2026-03-24T15:56:13Z</time></trkpt><trkpt lat="43.66441232651084" lon="10.436337065331331"><ele>0.0</ele><time>2026-03-24T15:56:14Z</time></trkpt><trkpt lat="43.664203837975506" lon="10.436466769249309"><ele>0.0</ele><time>2026-03-24T15:56:15Z</time></trkpt><trkpt lat="43.664002424362764" lon="10.43659592290692"><ele>0.0</ele><time>2026-03-24T15:56:16Z</time></trkpt><trkpt lat="43.663800324721805" lon="10.436727938914974"><ele>0.0</ele><time>2026-03-24T15:56:17Z</time></trkpt><trkpt lat="43.66360211633822" lon="10.43685208646239"><ele>0.0</ele><time>2026-03-24T15:56:18Z</time></trkpt><trkpt lat="43.6634160972123" lon="10.436970665546474"><ele>0.0</ele><time>2026-03-24T15:56:19Z</time></trkpt><trkpt lat="43.6632374362263" lon="10.437079645437441"><ele>0.0</ele><time>2026-03-24T15:56:20Z</time></trkpt><trkpt lat="43.663064651969805" lon="10.437187041989986"><ele>0.0</ele><time>2026-03-24T15:56:21Z</time></trkpt><trkpt lat="43.66291410931684" lon="10.43728518798675"><ele>0.0</ele><time>2026-03-24T15:56:22Z</time></trkpt><trkpt lat="43.66274744466959" lon="10.437390224764544"><ele>0.0</ele><time>2026-03-24T15:56:23Z</time></trkpt><trkpt lat="43.66257810824606" lon="10.437494272729113"><ele>0.0</ele><time>2026-03-24T15:56:24Z</time></trkpt><trkpt lat="43.66239666152052" lon="10.4375992898951"><ele>0.0</ele><time>2026-03-24T15:56:25Z</time></trkpt><trkpt lat="43.6621997102132" lon="10.437713539669163"><ele>0.0</ele><time>2026-03-24T15:56:26Z</time></trkpt><trkpt lat="43.66208825983824" lon="10.437805300515206"><ele>0.0</ele><time>2026-03-24T15:56:27Z</time></trkpt><trkpt lat="43.661945775034155" lon="10.437896089812476"><ele>0.0</ele><time>2026-03-24T15:56:28Z</time></trkpt><trkpt lat="43.66179742306717" lon="10.437988247029674"><ele>0.0</ele><time>2026-03-24T15:56:29Z</time></trkpt><trkpt lat="43.661643494283645" lon="10.438089827194757"><ele>0.0</ele><time>2026-03-24T15:56:30Z</time></trkpt><trkpt lat="43.66149755910699" lon="10.438181203498086"><ele>0.0</ele><time>2026-03-24T15:56:31Z</time></trkpt><trkpt lat="43.66136656785331" lon="10.438262885177725"><ele>0.0</ele><time>2026-03-24T15:56:32Z</time></trkpt><trkpt lat="43.661263438211975" lon="10.438325862455123"><ele>0.0</ele><time>2026-03-24T15:56:33.001Z</time></trkpt><trkpt lat="43.661192840468885" lon="10.438359251821359"><ele>0.0</ele><time>2026-03-24T15:56:34.001Z</time></trkpt><trkpt lat="43.66112439730629" lon="10.43839478899687"><ele>0.0</ele><time>2026-03-24T15:56:36.001Z</time></trkpt><trkpt lat="43.66103421112899" lon="10.43846000925837"><ele>0.2</ele><time>2026-03-24T15:56:54.001Z</time></trkpt><trkpt lat="43.66094316896266" lon="10.438515086469826"><ele>0.4</ele><time>2026-03-24T15:56:56.001Z</time></trkpt><trkpt lat="43.66085317298399" lon="10.43857658442053"><ele>0.6000000000000001</ele><time>2026-03-24T15:56:58.001Z</time></trkpt><trkpt lat="43.660762759973224" lon="10.43863168046458"><ele>0.8</ele><time>2026-03-24T15:57:00.001Z</time></trkpt><trkpt lat="43.66069790240375" lon="10.438651435016244"><ele>1.0</ele><time>2026-03-24T15:57:01.001Z</time></trkpt><trkpt lat="43.660612009759426" lon="10.438711097273872"><ele>1.0</ele><time>2026-03-24T15:57:02.001Z</time></trkpt><trkpt lat="43.66050218864022" lon="10.43879369082691"><ele>1.0</ele><time>2026-03-24T15:57:03.001Z</time></trkpt><trkpt lat="43.66037682470017" lon="10.438886166926716"><ele>1.0</ele><time>2026-03-24T15:57:04.001Z</time></trkpt><trkpt lat="43.66023415669079" lon="10.438983424482721"><ele>1.0</ele><time>2026-03-24T15:57:05.001Z</time></trkpt><trkpt lat="43.660077515719216" lon="10.439082687185916"><ele>1.0</ele><time>2026-03-24T15:57:06.001Z</time></trkpt><trkpt lat="43.65991423160166" lon="10.43918926750221"><ele>1.0</ele><time>2026-03-24T15:57:07.001Z</time></trkpt><trkpt lat="43.65972331953867" lon="10.439315205159764"><ele>1.0</ele><time>2026-03-24T15:57:08.001Z</time></trkpt><trkpt lat="43.65952046281136" lon="10.439426302202756"><ele>0.0</ele><time>2026-03-24T15:57:09.001Z</time></trkpt><trkpt lat="43.659311486701306" lon="10.439579590272661"><ele>-1.0</ele><time>2026-03-24T15:57:10.001Z</time></trkpt><trkpt lat="43.659090340005484" lon="10.43969986648197"><ele>-1.5</ele><time>2026-03-24T15:57:11.001Z</time></trkpt><trkpt lat="43.658863872194644" lon="10.439844477736994"><ele>-2.0</ele><time>2026-03-24T15:57:12.001Z</time></trkpt><trkpt lat="43.658613900569385" lon="10.44000409737421"><ele>-1.0</ele><time>2026-03-24T15:57:13.001Z</time></trkpt><trkpt lat="43.658354651732395" lon="10.440169640991586"><ele>0.0</ele><time>2026-03-24T15:57:14.001Z</time></trkpt><trkpt lat="43.6580901557253" lon="10.440338535224368"><ele>0.0</ele><time>2026-03-24T15:57:15.001Z</time></trkpt><trkpt lat="43.65782914620962" lon="10.440505261390518"><ele>0.0</ele><time>2026-03-24T15:57:16.001Z</time></trkpt><trkpt lat="43.65756055512233" lon="10.440676836935893"><ele>0.5</ele><time>2026-03-24T15:57:17.001Z</time></trkpt><trkpt lat="43.65728406344939" lon="10.440853459333265"><ele>1.0</ele><time>2026-03-24T15:57:18.001Z</time></trkpt><trkpt lat="43.657012068813756" lon="10.441027209055623"><ele>1.0</ele><time>2026-03-24T15:57:19.001Z</time></trkpt><trkpt lat="43.656739794085766" lon="10.441218214438004"><ele>1.0</ele><time>2026-03-24T15:57:20.001Z</time></trkpt><trkpt lat="43.65644865428781" lon="10.441387117329727"><ele>1.0</ele><time>2026-03-24T15:57:21.001Z</time></trkpt><trkpt lat="43.65615699170897" lon="10.441572818517827"><ele>1.0</ele><time>2026-03-24T15:57:22.001Z</time></trkpt><trkpt lat="43.65585758742907" lon="10.441763114717348"><ele>1.0</ele><time>2026-03-24T15:57:23.001Z</time></trkpt><trkpt lat="43.655565771867" lon="10.44196369749479"><ele>1.0</ele><time>2026-03-24T15:57:24.001Z</time></trkpt><trkpt lat="43.65530594028379" lon="10.442119312511146"><ele>0.5</ele><time>2026-03-24T15:57:25.001Z</time></trkpt><trkpt lat="43.6550505388015" lon="10.442289051373598"><ele>0.0</ele><time>2026-03-24T15:57:26.001Z</time></trkpt><trkpt lat="43.65480089100101" lon="10.442446052985064"><ele>0.0</ele><time>2026-03-24T15:57:27.001Z</time></trkpt><trkpt lat="43.65457187854395" lon="10.442593868511123"><ele>0.0</ele><time>2026-03-24T15:57:28.001Z</time></trkpt><trkpt lat="43.65435552087109" lon="10.442731208929183"><ele>0.0</ele><time>2026-03-24T15:57:29.001Z</time></trkpt><trkpt lat="43.654147088833625" lon="10.442861265373091"><ele>0.0</ele><time>2026-03-24T15:57:30.001Z</time></trkpt><trkpt lat="43.65393736238121" lon="10.442991981324885"><ele>0.0</ele><time>2026-03-24T15:57:31.001Z</time></trkpt><trkpt lat="43.653729458129995" lon="10.443124300405625"><ele>0.0</ele><time>2026-03-24T15:57:32.001Z</time></trkpt><trkpt lat="43.65352382582839" lon="10.443258941248807"><ele>-0.5</ele><time>2026-03-24T15:57:33.001Z</time></trkpt><trkpt lat="43.65331705569333" lon="10.443393812192024"><ele>-1.0</ele><time>2026-03-24T15:57:34.001Z</time></trkpt><trkpt lat="43.65311548792653" lon="10.44351961660004"><ele>-1.0</ele><time>2026-03-24T15:57:35.001Z</time></trkpt><trkpt lat="43.65290947439578" lon="10.443645604057103"><ele>-1.0</ele><time>2026-03-24T15:57:36.001Z</time></trkpt><trkpt lat="43.65270771612059" lon="10.443769744891522"><ele>-1.0</ele><time>2026-03-24T15:57:37.001Z</time></trkpt><trkpt lat="43.65251506646658" lon="10.443890084755553"><ele>-0.6666666666666666</ele><time>2026-03-24T15:57:38.001Z</time></trkpt><trkpt lat="43.652336065120686" lon="10.444002616925983"><ele>-0.3333333333333333</ele><time>2026-03-24T15:57:39.001Z</time></trkpt><trkpt lat="43.652157961973174" lon="10.44411536071984"><ele>0.0</ele><time>2026-03-24T15:57:40.001Z</time></trkpt><trkpt lat="43.65197577802976" lon="10.44423162122774"><ele>-0.3333333333333333</ele><time>2026-03-24T15:57:41.001Z</time></trkpt><trkpt lat="43.65179658259494" lon="10.444345215048102"><ele>-0.6666666666666666</ele><time>2026-03-24T15:57:42.001Z</time></trkpt><trkpt lat="43.65161403148369" lon="10.444463300128255"><ele>-1.0</ele><time>2026-03-24T15:57:43.001Z</time></trkpt><trkpt lat="43.65143150996792" lon="10.444578935441294"><ele>-1.0</ele><time>2026-03-24T15:57:44.001Z</time></trkpt><trkpt lat="43.6512378596608" lon="10.444703776699791"><ele>-1.0</ele><time>2026-03-24T15:57:45.001Z</time></trkpt><trkpt lat="43.651049254696986" lon="10.444826643361253"><ele>-1.0</ele><time>2026-03-24T15:57:46.001Z</time></trkpt><trkpt lat="43.650851691096236" lon="10.444953075907723"><ele>0.0</ele><time>2026-03-24T15:57:47.001Z</time></trkpt><trkpt lat="43.65063505824831" lon="10.445100560565713"><ele>1.0</ele><time>2026-03-24T15:57:48.001Z</time></trkpt><trkpt lat="43.650388524104144" lon="10.445233888341376"><ele>0.5</ele><time>2026-03-24T15:57:49.001Z</time></trkpt><trkpt lat="43.650138498088175" lon="10.445391078896975"><ele>0.0</ele><time>2026-03-24T15:57:50Z</time></trkpt><trkpt lat="43.64988683822245" lon="10.44554927798742"><ele>-0.5</ele><time>2026-03-24T15:57:51Z</time></trkpt><trkpt lat="43.64963330341814" lon="10.445725679457583"><ele>-1.0</ele><time>2026-03-24T15:57:52Z</time></trkpt><trkpt lat="43.649367931194085" lon="10.445878514430236"><ele>-1.0</ele><time>2026-03-24T15:57:53Z</time></trkpt><trkpt lat="43.6491041134741" lon="10.44604326884611"><ele>-1.0</ele><time>2026-03-24T15:57:54Z</time></trkpt><trkpt lat="43.648838723477496" lon="10.446212697210543"><ele>-0.5</ele><time>2026-03-24T15:57:55Z</time></trkpt><trkpt lat="43.64858071029374" lon="10.446378492634063"><ele>0.0</ele><time>2026-03-24T15:57:56Z</time></trkpt><trkpt lat="43.64834831490093" lon="10.446523346271762"><ele>0.0</ele><time>2026-03-24T15:57:57Z</time></trkpt><trkpt lat="43.648116393330916" lon="10.446670057365019"><ele>0.0</ele><time>2026-03-24T15:57:58Z</time></trkpt><trkpt lat="43.64788108374773" lon="10.446815840766071"><ele>0.0</ele><time>2026-03-24T15:57:59Z</time></trkpt><trkpt lat="43.64765346379118" lon="10.446956588144248"><ele>0.0</ele><time>2026-03-24T15:58:00Z</time></trkpt><trkpt lat="43.647434538881505" lon="10.447101024326688"><ele>-1.0</ele><time>2026-03-24T15:58:01Z</time></trkpt><trkpt lat="43.64721240057549" lon="10.447250823843813"><ele>-2.0</ele><time>2026-03-24T15:58:02Z</time></trkpt><trkpt lat="43.64698843392218" lon="10.447394280557665"><ele>-1.6666666666666665</ele><time>2026-03-24T15:58:03Z</time></trkpt><trkpt lat="43.64678422824082" lon="10.447518335515747"><ele>-1.3333333333333333</ele><time>2026-03-24T15:58:04Z</time></trkpt><trkpt lat="43.646597768846334" lon="10.44763083066165"><ele>-1.0</ele><time>2026-03-24T15:58:05Z</time></trkpt><trkpt lat="43.6464242712314" lon="10.44773551578494"><ele>-1.0</ele><time>2026-03-24T15:58:06Z</time></trkpt><trkpt lat="43.64627600133398" lon="10.447826971602856"><ele>-1.0</ele><time>2026-03-24T15:58:07Z</time></trkpt><trkpt lat="43.64615032617582" lon="10.447907944782752"><ele>-1.0</ele><time>2026-03-24T15:58:08Z</time></trkpt><trkpt lat="43.6460344962446" lon="10.44798340682165"><ele>-1.0</ele><time>2026-03-24T15:58:09Z</time></trkpt><trkpt lat="43.645920709104665" lon="10.448057959767173"><ele>-0.6000000000000001</ele><time>2026-03-24T15:58:10Z</time></trkpt><trkpt lat="43.645816043601876" lon="10.44812387425113"><ele>-0.20000000000000007</ele><time>2026-03-24T15:58:11Z</time></trkpt><trkpt lat="43.64572205777236" lon="10.448180442919542"><ele>0.20000000000000007</ele><time>2026-03-24T15:58:12Z</time></trkpt><trkpt lat="43.64563716455766" lon="10.448231063501794"><ele>0.6000000000000001</ele><time>2026-03-24T15:58:13Z</time></trkpt><trkpt lat="43.6455628742722" lon="10.448278663766704"><ele>1.0</ele><time>2026-03-24T15:58:14Z</time></trkpt><trkpt lat="43.64549088343628" lon="10.448324026975284"><ele>0.9999999999999999</ele><time>2026-03-24T15:58:15Z</time></trkpt><trkpt lat="43.64541741932953" lon="10.448368604367616"><ele>1.0</ele><time>2026-03-24T15:58:16.001Z</time></trkpt><trkpt lat="43.645346093219" lon="10.448415031690129"><ele>1.0</ele><time>2026-03-24T15:58:17.001Z</time></trkpt><trkpt lat="43.64527927073463" lon="10.448459141616885"><ele>1.0</ele><time>2026-03-24T15:58:18.001Z</time></trkpt><trkpt lat="43.645215945432206" lon="10.448499931463003"><ele>0.9999999999999999</ele><time>2026-03-24T15:58:19.001Z</time></trkpt><trkpt lat="43.64512448366484" lon="10.448558763185181"><ele>1.0</ele><time>2026-03-24T15:58:20.001Z</time></trkpt><trkpt lat="43.645045055852925" lon="10.448604585824256"><ele>1.2000000000000002</ele><time>2026-03-24T15:58:21.001Z</time></trkpt><trkpt lat="43.64498110250521" lon="10.448643561094364"><ele>1.4000000000000001</ele><time>2026-03-24T15:58:22.001Z</time></trkpt><trkpt lat="43.64487881535103" lon="10.448700276276046"><ele>1.6</ele><time>2026-03-24T15:58:24.001Z</time></trkpt><trkpt lat="43.644779091409916" lon="10.448755855400847"><ele>1.8</ele><time>2026-03-24T15:58:26.001Z</time></trkpt><trkpt lat="43.64472010565552" lon="10.448799258509"><ele>2.0</ele><time>2026-03-24T15:58:27.001Z</time></trkpt><trkpt lat="43.64461479403643" lon="10.44887734702007"><ele>2.0</ele><time>2026-03-24T15:58:29.001Z</time></trkpt><trkpt lat="43.64450392265024" lon="10.448944164116098"><ele>2.0</ele><time>2026-03-24T15:58:31.001Z</time></trkpt><trkpt lat="43.644446051128064" lon="10.44897966494037"><ele>2.0</ele><time>2026-03-24T15:58:32.001Z</time></trkpt><trkpt lat="43.64436389152405" lon="10.449020962298869"><ele>2.0</ele><time>2026-03-24T15:58:33.001Z</time></trkpt><trkpt lat="43.64424783400183" lon="10.449066465427617"><ele>2.0</ele><time>2026-03-24T15:58:34.001Z</time></trkpt><trkpt lat="43.64413080584003" lon="10.449125476670236"><ele>2.25</ele><time>2026-03-24T15:58:35.001Z</time></trkpt><trkpt lat="43.64400597539851" lon="10.449227579200153"><ele>2.5</ele><time>2026-03-24T15:58:36.001Z</time></trkpt><trkpt lat="43.64388600417603" lon="10.449345604094903"><ele>2.75</ele><time>2026-03-24T15:58:37.001Z</time></trkpt><trkpt lat="43.6437757400271" lon="10.449403199221377"><ele>3.0</ele><time>2026-03-24T15:58:38.001Z</time></trkpt><trkpt lat="43.643679223144396" lon="10.449488558788998"><ele>2.75</ele><time>2026-03-24T15:58:39.001Z</time></trkpt><trkpt lat="43.64356053212015" lon="10.449559405672735"><ele>2.5</ele><time>2026-03-24T15:58:40.001Z</time></trkpt><trkpt lat="43.64343382173555" lon="10.44963686435702"><ele>2.25</ele><time>2026-03-24T15:58:41.001Z</time></trkpt><trkpt lat="43.643308333677865" lon="10.449720193692999"><ele>2.0</ele><time>2026-03-24T15:58:42.001Z</time></trkpt><trkpt lat="43.64316666026427" lon="10.449808759984036"><ele>2.0</ele><time>2026-03-24T15:58:43.001Z</time></trkpt><trkpt lat="43.643000387893125" lon="10.449920376141804"><ele>2.0</ele><time>2026-03-24T15:58:44.001Z</time></trkpt><trkpt lat="43.64279958113909" lon="10.45002401327986"><ele>2.0</ele><time>2026-03-24T15:58:45.001Z</time></trkpt><trkpt lat="43.64259346842919" lon="10.450154821283686"><ele>1.5</ele><time>2026-03-24T15:58:46.001Z</time></trkpt><trkpt lat="43.64237446130032" lon="10.450294503239364"><ele>1.0</ele><time>2026-03-24T15:58:47.001Z</time></trkpt><trkpt lat="43.642154626175284" lon="10.45043500861601"><ele>0.5</ele><time>2026-03-24T15:58:48.001Z</time></trkpt><trkpt lat="43.64193290164636" lon="10.450587143194461"><ele>0.0</ele><time>2026-03-24T15:58:49.001Z</time></trkpt><trkpt lat="43.641709897978366" lon="10.450726250234988"><ele>0.0</ele><time>2026-03-24T15:58:50.001Z</time></trkpt><trkpt lat="43.641493121117506" lon="10.450872499272055"><ele>0.0</ele><time>2026-03-24T15:58:51.001Z</time></trkpt><trkpt lat="43.64129490743469" lon="10.450998665478552"><ele>0.0</ele><time>2026-03-24T15:58:52.001Z</time></trkpt><trkpt lat="43.64112314907839" lon="10.451107613494194"><ele>0.0</ele><time>2026-03-24T15:58:53.001Z</time></trkpt><trkpt lat="43.64096112920964" lon="10.451211313360249"><ele>0.0</ele><time>2026-03-24T15:58:54.001Z</time></trkpt><trkpt lat="43.64080482514777" lon="10.451311787855271"><ele>0.0</ele><time>2026-03-24T15:58:55.001Z</time></trkpt><trkpt lat="43.64065680309616" lon="10.451404444064298"><ele>0.0</ele><time>2026-03-24T15:58:56.001Z</time></trkpt><trkpt lat="43.640502015398276" lon="10.451501032274777"><ele>0.0</ele><time>2026-03-24T15:58:57.001Z</time></trkpt><trkpt lat="43.64034080743666" lon="10.451604864241821"><ele>0.0</ele><time>2026-03-24T15:58:58.001Z</time></trkpt><trkpt lat="43.64017473018233" lon="10.451711285684159"><ele>0.0</ele><time>2026-03-24T15:58:59.001Z</time></trkpt><trkpt lat="43.6399903626576" lon="10.451804862793107"><ele>0.0</ele><time>2026-03-24T15:59:00.001Z</time></trkpt><trkpt lat="43.639783070964526" lon="10.45193716136207"><ele>0.0</ele><time>2026-03-24T15:59:01.001Z</time></trkpt><trkpt lat="43.639568152764035" lon="10.45207406556631"><ele>0.0</ele><time>2026-03-24T15:59:02.001Z</time></trkpt><trkpt lat="43.63936242592078" lon="10.452226429876276"><ele>0.0</ele><time>2026-03-24T15:59:03.001Z</time></trkpt><trkpt lat="43.63916581750512" lon="10.452351230758875"><ele>0.0</ele><time>2026-03-24T15:59:04.001Z</time></trkpt><trkpt lat="43.63896875596358" lon="10.45247483037009"><ele>0.0</ele><time>2026-03-24T15:59:05.001Z</time></trkpt><trkpt lat="43.638764206746025" lon="10.452604466607053"><ele>1.0</ele><time>2026-03-24T15:59:06.001Z</time></trkpt><trkpt lat="43.63853584988008" lon="10.452728984480473"><ele>2.0</ele><time>2026-03-24T15:59:07.001Z</time></trkpt><trkpt lat="43.638302277111876" lon="10.452877524386203"><ele>1.5</ele><time>2026-03-24T15:59:08.001Z</time></trkpt><trkpt lat="43.63806720851049" lon="10.453051649192847"><ele>1.0</ele><time>2026-03-24T15:59:09.001Z</time></trkpt><trkpt lat="43.63781048751317" lon="10.453190687768803"><ele>0.5</ele><time>2026-03-24T15:59:10.001Z</time></trkpt><trkpt lat="43.6375516356872" lon="10.453348821580404"><ele>0.0</ele><time>2026-03-24T15:59:11.001Z</time></trkpt><trkpt lat="43.63728335853752" lon="10.4535141705583"><ele>0.0</ele><time>2026-03-24T15:59:12.001Z</time></trkpt><trkpt lat="43.637047894907006" lon="10.453669258091104"><ele>0.0</ele><time>2026-03-24T15:59:13.001Z</time></trkpt><trkpt lat="43.63678694305764" lon="10.453835534017648"><ele>0.5</ele><time>2026-03-24T15:59:14.001Z</time></trkpt><trkpt lat="43.636520167872874" lon="10.454006217311123"><ele>1.0</ele><time>2026-03-24T15:59:15.001Z</time></trkpt><trkpt lat="43.63625263565266" lon="10.454181061015946"><ele>1.0</ele><time>2026-03-24T15:59:16.001Z</time></trkpt><trkpt lat="43.635980500308" lon="10.454354708804662"><ele>1.0</ele><time>2026-03-24T15:59:17.001Z</time></trkpt><trkpt lat="43.635710237063726" lon="10.454524467923852"><ele>1.0</ele><time>2026-03-24T15:59:18.001Z</time></trkpt><trkpt lat="43.63545626111857" lon="10.454687345043041"><ele>1.0</ele><time>2026-03-24T15:59:19.001Z</time></trkpt><trkpt lat="43.63522217024191" lon="10.454830053314351"><ele>1.0</ele><time>2026-03-24T15:59:20.001Z</time></trkpt><trkpt lat="43.635007582190404" lon="10.454968058696629"><ele>1.0</ele><time>2026-03-24T15:59:21.001Z</time></trkpt><trkpt lat="43.63480449145301" lon="10.455099268225547"><ele>1.0</ele><time>2026-03-24T15:59:22.001Z</time></trkpt><trkpt lat="43.63460125705597" lon="10.455230040102702"><ele>1.0</ele><time>2026-03-24T15:59:23.001Z</time></trkpt><trkpt lat="43.63439033355918" lon="10.455362977124768"><ele>2.0</ele><time>2026-03-24T15:59:24.001Z</time></trkpt><trkpt lat="43.6341778248901" lon="10.455503868053283"><ele>3.0</ele><time>2026-03-24T15:59:25.001Z</time></trkpt><trkpt lat="43.63395389410915" lon="10.455641628413076"><ele>3.0</ele><time>2026-03-24T15:59:26.001Z</time></trkpt><trkpt lat="43.63372670428187" lon="10.455783011229574"><ele>3.0</ele><time>2026-03-24T15:59:27.001Z</time></trkpt><trkpt lat="43.63349450003498" lon="10.455927464624601"><ele>2.0</ele><time>2026-03-24T15:59:28.001Z</time></trkpt><trkpt lat="43.63326404318208" lon="10.456072239566598"><ele>1.0</ele><time>2026-03-24T15:59:29.001Z</time></trkpt><trkpt lat="43.63305035470448" lon="10.456215863726651"><ele>1.0</ele><time>2026-03-24T15:59:30.001Z</time></trkpt><trkpt lat="43.632838610294094" lon="10.456351020201096"><ele>1.0</ele><time>2026-03-24T15:59:31.001Z</time></trkpt><trkpt lat="43.63263085778292" lon="10.456484658109625"><ele>1.0</ele><time>2026-03-24T15:59:32.001Z</time></trkpt><trkpt lat="43.632429444409404" lon="10.456614208740511"><ele>1.0</ele><time>2026-03-24T15:59:33.001Z</time></trkpt><trkpt lat="43.63223502990187" lon="10.456738845345685"><ele>1.0</ele><time>2026-03-24T15:59:34.001Z</time></trkpt><trkpt lat="43.63203458565807" lon="10.456876905867832"><ele>1.0</ele><time>2026-03-24T15:59:35.001Z</time></trkpt><trkpt lat="43.63181940313481" lon="10.457018556015683"><ele>1.0</ele><time>2026-03-24T15:59:36.001Z</time></trkpt><trkpt lat="43.631587115049314" lon="10.457140359885711"><ele>1.5</ele><time>2026-03-24T15:59:37.001Z</time></trkpt><trkpt lat="43.63136037350611" lon="10.457318669634157"><ele>2.0</ele><time>2026-03-24T15:59:38.001Z</time></trkpt><trkpt lat="43.63111777407472" lon="10.4574752311877"><ele>2.0</ele><time>2026-03-24T15:59:39.001Z</time></trkpt><trkpt lat="43.63086686580121" lon="10.457635559949642"><ele>2.0</ele><time>2026-03-24T15:59:40.001Z</time></trkpt><trkpt lat="43.6306151595307" lon="10.457795858069883"><ele>2.0</ele><time>2026-03-24T15:59:41.001Z</time></trkpt><trkpt lat="43.630341809617555" lon="10.457928002661825"><ele>2.0</ele><time>2026-03-24T15:59:42.001Z</time></trkpt><trkpt lat="43.63007894291109" lon="10.458095969063752"><ele>2.0</ele><time>2026-03-24T15:59:43.001Z</time></trkpt><trkpt lat="43.62982645299344" lon="10.45825730478724"><ele>2.0</ele><time>2026-03-24T15:59:44.001Z</time></trkpt><trkpt lat="43.629592011149924" lon="10.458407108176779"><ele>1.5</ele><time>2026-03-24T15:59:45.001Z</time></trkpt><trkpt lat="43.62938159990331" lon="10.45855831414461"><ele>1.0</ele><time>2026-03-24T15:59:46.001Z</time></trkpt><trkpt lat="43.62917155859942" lon="10.458677603332703"><ele>1.0</ele><time>2026-03-24T15:59:47.001Z</time></trkpt><trkpt lat="43.62898131598115" lon="10.458797431320535"><ele>1.0</ele><time>2026-03-24T15:59:48.001Z</time></trkpt><trkpt lat="43.62879554803996" lon="10.458907595920458"><ele>1.0</ele><time>2026-03-24T15:59:49.001Z</time></trkpt><trkpt lat="43.62861539358633" lon="10.45901170644434"><ele>1.0</ele><time>2026-03-24T15:59:50.001Z</time></trkpt><trkpt lat="43.62844873760408" lon="10.45912228675394"><ele>1.0</ele><time>2026-03-24T15:59:51.001Z</time></trkpt><trkpt lat="43.62828975903087" lon="10.45922872785115"><ele>1.0</ele><time>2026-03-24T15:59:52.001Z</time></trkpt><trkpt lat="43.62813211418861" lon="10.459329408471968"><ele>1.0</ele><time>2026-03-24T15:59:53.001Z</time></trkpt><trkpt lat="43.62797120602186" lon="10.459433245464215"><ele>1.0</ele><time>2026-03-24T15:59:54.001Z</time></trkpt><trkpt lat="43.62780249287026" lon="10.459542742559053"><ele>1.0</ele><time>2026-03-24T15:59:55.001Z</time></trkpt><trkpt lat="43.62764165030874" lon="10.4596446721657"><ele>1.3333333333333333</ele><time>2026-03-24T15:59:56.001Z</time></trkpt><trkpt lat="43.6274855866587" lon="10.459742502879813"><ele>1.6666666666666665</ele><time>2026-03-24T15:59:57.001Z</time></trkpt><trkpt lat="43.62732596546412" lon="10.459842706139353"><ele>2.0</ele><time>2026-03-24T15:59:58.001Z</time></trkpt><trkpt lat="43.627163458456685" lon="10.459948837009009"><ele>2.0</ele><time>2026-03-24T15:59:59.001Z</time></trkpt><trkpt lat="43.627001940994205" lon="10.460057983682084"><ele>2.0</ele><time>2026-03-24T16:00:00.001Z</time></trkpt><trkpt lat="43.62683625103408" lon="10.460168914490978"><ele>2.0</ele><time>2026-03-24T16:00:01.001Z</time></trkpt><trkpt lat="43.6266686440435" lon="10.460276110254332"><ele>2.0</ele><time>2026-03-24T16:00:02.001Z</time></trkpt><trkpt lat="43.62650102699976" lon="10.460381779904354"><ele>2.0</ele><time>2026-03-24T16:00:03.001Z</time></trkpt><trkpt lat="43.62633028217422" lon="10.460489401696888"><ele>2.0</ele><time>2026-03-24T16:00:04.001Z</time></trkpt><trkpt lat="43.626155226723725" lon="10.460601191464377"><ele>1.6666666666666665</ele><time>2026-03-24T16:00:05.001Z</time></trkpt><trkpt lat="43.62598784775126" lon="10.460706772896046"><ele>1.3333333333333333</ele><time>2026-03-24T16:00:06.001Z</time></trkpt><trkpt lat="43.62582496737635" lon="10.46080957184975"><ele>1.0</ele><time>2026-03-24T16:00:07.001Z</time></trkpt><trkpt lat="43.62567253704176" lon="10.460902910617396"><ele>1.0</ele><time>2026-03-24T16:00:08.001Z</time></trkpt><trkpt lat="43.6255205637272" lon="10.460998117427474"><ele>1.0</ele><time>2026-03-24T16:00:09.001Z</time></trkpt><trkpt lat="43.625366284926045" lon="10.461097371113421"><ele>1.0</ele><time>2026-03-24T16:00:10.001Z</time></trkpt><trkpt lat="43.62520697550882" lon="10.46120222046142"><ele>2.0</ele><time>2026-03-24T16:00:11.001Z</time></trkpt><trkpt lat="43.625050191507604" lon="10.461308863414681"><ele>3.0</ele><time>2026-03-24T16:00:12.001Z</time></trkpt><trkpt lat="43.624891151952" lon="10.461416088425905"><ele>4.0</ele><time>2026-03-24T16:00:13.001Z</time></trkpt><trkpt lat="43.62472669675542" lon="10.461525088009509"><ele>4.0</ele><time>2026-03-24T16:00:14.001Z</time></trkpt><trkpt lat="43.62455387350165" lon="10.461644851078116"><ele>4.0</ele><time>2026-03-24T16:00:15.001Z</time></trkpt><trkpt lat="43.62435933552066" lon="10.461787462329012"><ele>4.0</ele><time>2026-03-24T16:00:16.001Z</time></trkpt><trkpt lat="43.624142756014955" lon="10.461929483042754"><ele>4.666666666666666</ele><time>2026-03-24T16:00:17.001Z</time></trkpt><trkpt lat="43.623932246843374" lon="10.462047429253916"><ele>5.333333333333333</ele><time>2026-03-24T16:00:18.001Z</time></trkpt><trkpt lat="43.62374129237934" lon="10.462154383104645"><ele>6.0</ele><time>2026-03-24T16:00:19.001Z</time></trkpt><trkpt lat="43.623571757328705" lon="10.462257759815012"><ele>6.0</ele><time>2026-03-24T16:00:20.001Z</time></trkpt><trkpt lat="43.62340584380084" lon="10.462365353193547"><ele>6.0</ele><time>2026-03-24T16:00:21.001Z</time></trkpt><trkpt lat="43.62324844267136" lon="10.462466001841582"><ele>6.0</ele><time>2026-03-24T16:00:22.001Z</time></trkpt><trkpt lat="43.62309329481492" lon="10.462562293928793"><ele>6.0</ele><time>2026-03-24T16:00:23.001Z</time></trkpt><trkpt lat="43.62293786097798" lon="10.462656433766554"><ele>6.0</ele><time>2026-03-24T16:00:24.001Z</time></trkpt><trkpt lat="43.622777899623316" lon="10.462754632843582"><ele>6.0</ele><time>2026-03-24T16:00:25.001Z</time></trkpt><trkpt lat="43.62261503633701" lon="10.4628527676689"><ele>5.666666666666667</ele><time>2026-03-24T16:00:26.001Z</time></trkpt><trkpt lat="43.62245345941817" lon="10.46294837777629"><ele>5.333333333333334</ele><time>2026-03-24T16:00:27.001Z</time></trkpt><trkpt lat="43.62230306292152" lon="10.463039257917591"><ele>5.0</ele><time>2026-03-24T16:00:28.001Z</time></trkpt><trkpt lat="43.62216273955052" lon="10.46312921114404"><ele>5.0</ele><time>2026-03-24T16:00:29.001Z</time></trkpt><trkpt lat="43.622023153104124" lon="10.463220144054674"><ele>5.0</ele><time>2026-03-24T16:00:30.001Z</time></trkpt><trkpt lat="43.62189448805701" lon="10.463296421580672"><ele>5.0</ele><time>2026-03-24T16:00:31.001Z</time></trkpt><trkpt lat="43.62176421520104" lon="10.463362788726185"><ele>5.0</ele><time>2026-03-24T16:00:32.001Z</time></trkpt><trkpt lat="43.621630741826436" lon="10.463427515004446"><ele>5.0</ele><time>2026-03-24T16:00:33.001Z</time></trkpt><trkpt lat="43.62149392665259" lon="10.46349561513922"><ele>5.0</ele><time>2026-03-24T16:00:34.001Z</time></trkpt><trkpt lat="43.62136064200056" lon="10.463555721851836"><ele>5.0</ele><time>2026-03-24T16:00:35.001Z</time></trkpt><trkpt lat="43.621239246293214" lon="10.463604468639659"><ele>5.0</ele><time>2026-03-24T16:00:36.001Z</time></trkpt><trkpt lat="43.621115498365796" lon="10.463662828568724"><ele>4.75</ele><time>2026-03-24T16:00:37.001Z</time></trkpt><trkpt lat="43.62098317439742" lon="10.463726537886926"><ele>4.5</ele><time>2026-03-24T16:00:38.001Z</time></trkpt><trkpt lat="43.62084305765843" lon="10.463791508582254"><ele>4.25</ele><time>2026-03-24T16:00:39.001Z</time></trkpt><trkpt lat="43.62069471347538" lon="10.463858387614343"><ele>4.0</ele><time>2026-03-24T16:00:40.001Z</time></trkpt><trkpt lat="43.62054630043807" lon="10.463925847569623"><ele>3.75</ele><time>2026-03-24T16:00:41.001Z</time></trkpt><trkpt lat="43.62040899720791" lon="10.463991266868542"><ele>3.5</ele><time>2026-03-24T16:00:42.001Z</time></trkpt><trkpt lat="43.62027516692605" lon="10.46405405280291"><ele>3.25</ele><time>2026-03-24T16:00:43.001Z</time></trkpt><trkpt lat="43.62014601310907" lon="10.46411611782418"><ele>3.0</ele><time>2026-03-24T16:00:44.001Z</time></trkpt><trkpt lat="43.62000968443676" lon="10.464192014286965"><ele>3.0</ele><time>2026-03-24T16:00:45.001Z</time></trkpt><trkpt lat="43.6198720512552" lon="10.46429089666242"><ele>3.0</ele><time>2026-03-24T16:00:46.001Z</time></trkpt><trkpt lat="43.61974657787222" lon="10.464423013712125"><ele>3.0</ele><time>2026-03-24T16:00:47.001Z</time></trkpt><trkpt lat="43.619635287571214" lon="10.464581191037249"><ele>3.25</ele><time>2026-03-24T16:00:48.001Z</time></trkpt><trkpt lat="43.61954187693692" lon="10.46474880162146"><ele>3.5</ele><time>2026-03-24T16:00:49.001Z</time></trkpt><trkpt lat="43.619456423483804" lon="10.464904270441785"><ele>3.75</ele><time>2026-03-24T16:00:50.001Z</time></trkpt><trkpt lat="43.61936191223581" lon="10.465064669325193"><ele>4.0</ele><time>2026-03-24T16:00:51.001Z</time></trkpt><trkpt lat="43.619269545079305" lon="10.465216736514732"><ele>4.0</ele><time>2026-03-24T16:00:52.001Z</time></trkpt><trkpt lat="43.619186898691396" lon="10.465377687142475"><ele>4.0</ele><time>2026-03-24T16:00:53.001Z</time></trkpt><trkpt lat="43.61910184902138" lon="10.46556153667822"><ele>4.0</ele><time>2026-03-24T16:00:54.001Z</time></trkpt><trkpt lat="43.61901232059587" lon="10.465763676694287"><ele>3.6666666666666665</ele><time>2026-03-24T16:00:55.001Z</time></trkpt><trkpt lat="43.61892045720623" lon="10.46599391395483"><ele>3.333333333333333</ele><time>2026-03-24T16:00:56.001Z</time></trkpt><trkpt lat="43.6188305487076" lon="10.466255197740084"><ele>3.0</ele><time>2026-03-24T16:00:57.001Z</time></trkpt><trkpt lat="43.6187506161018" lon="10.466526829002152"><ele>3.5</ele><time>2026-03-24T16:00:58.001Z</time></trkpt><trkpt lat="43.61867245132136" lon="10.466823801671989"><ele>4.0</ele><time>2026-03-24T16:00:59.001Z</time></trkpt><trkpt lat="43.61859219958941" lon="10.467134298959046"><ele>4.0</ele><time>2026-03-24T16:01:00.001Z</time></trkpt><trkpt lat="43.61850057906562" lon="10.467449334838287"><ele>4.0</ele><time>2026-03-24T16:01:01.001Z</time></trkpt><trkpt lat="43.61838803502859" lon="10.467769967466012"><ele>4.5</ele><time>2026-03-24T16:01:02.001Z</time></trkpt><trkpt lat="43.61825066558684" lon="10.468094752289945"><ele>5.0</ele><time>2026-03-24T16:01:03.001Z</time></trkpt><trkpt lat="43.61810177427582" lon="10.468425319499682"><ele>5.0</ele><time>2026-03-24T16:01:04.001Z</time></trkpt><trkpt lat="43.61796119093411" lon="10.468767749546718"><ele>5.0</ele><time>2026-03-24T16:01:05.001Z</time></trkpt><trkpt lat="43.61780111098151" lon="10.469070702498266"><ele>5.5</ele><time>2026-03-24T16:01:06.001Z</time></trkpt><trkpt lat="43.61761598585021" lon="10.469356681807879"><ele>6.0</ele><time>2026-03-24T16:01:07.001Z</time></trkpt><trkpt lat="43.61739298704142" lon="10.469615738941432"><ele>6.0</ele><time>2026-03-24T16:01:08.001Z</time></trkpt><trkpt lat="43.61714243002798" lon="10.469830297055594"><ele>6.0</ele><time>2026-03-24T16:01:09.001Z</time></trkpt><trkpt lat="43.61686583344234" lon="10.469991854845334"><ele>6.0</ele><time>2026-03-24T16:01:10.001Z</time></trkpt><trkpt lat="43.61657821460049" lon="10.470100619489651"><ele>6.0</ele><time>2026-03-24T16:01:11.001Z</time></trkpt><trkpt lat="43.61631167097338" lon="10.470217142089925"><ele>6.0</ele><time>2026-03-24T16:01:12.001Z</time></trkpt><trkpt lat="43.61606534485868" lon="10.470294682768742"><ele>6.0</ele><time>2026-03-24T16:01:13.001Z</time></trkpt><trkpt lat="43.61584148211698" lon="10.470369013512371"><ele>6.0</ele><time>2026-03-24T16:01:14.001Z</time></trkpt><trkpt lat="43.61564582168737" lon="10.470438809657503"><ele>6.0</ele><time>2026-03-24T16:01:15.001Z</time></trkpt><trkpt lat="43.61548221335868" lon="10.470495487222818"><ele>6.0</ele><time>2026-03-24T16:01:16.001Z</time></trkpt><trkpt lat="43.61534733352933" lon="10.470542632242589"><ele>6.199999999999999</ele><time>2026-03-24T16:01:17.001Z</time></trkpt><trkpt lat="43.615232040759516" lon="10.470583154608326"><ele>6.3999999999999995</ele><time>2026-03-24T16:01:18.001Z</time></trkpt><trkpt lat="43.615125850105876" lon="10.470620526626933"><ele>6.6</ele><time>2026-03-24T16:01:19.001Z</time></trkpt><trkpt lat="43.6150248938329" lon="10.470656819372874"><ele>6.8</ele><time>2026-03-24T16:01:20.001Z</time></trkpt><trkpt lat="43.614929105609185" lon="10.470691697022934"><ele>7.0</ele><time>2026-03-24T16:01:21.001Z</time></trkpt><trkpt lat="43.61482180747705" lon="10.470728340465026"><ele>7.0</ele><time>2026-03-24T16:01:22.001Z</time></trkpt><trkpt lat="43.61470411394794" lon="10.470773101573462"><ele>7.0</ele><time>2026-03-24T16:01:23.001Z</time></trkpt><trkpt lat="43.6145815733968" lon="10.47081780425131"><ele>7.0</ele><time>2026-03-24T16:01:24.001Z</time></trkpt><trkpt lat="43.61444881844084" lon="10.470864289346405"><ele>7.0</ele><time>2026-03-24T16:01:25.001Z</time></trkpt><trkpt lat="43.61430301063147" lon="10.470918085036953"><ele>6.333333333333334</ele><time>2026-03-24T16:01:26.001Z</time></trkpt><trkpt lat="43.61415122311574" lon="10.470976543635674"><ele>5.666666666666667</ele><time>2026-03-24T16:01:27.001Z</time></trkpt><trkpt lat="43.613989050636484" lon="10.471042113551981"><ele>5.0</ele><time>2026-03-24T16:01:28.001Z</time></trkpt><trkpt lat="43.613811993459365" lon="10.471121699840007"><ele>5.0</ele><time>2026-03-24T16:01:29.001Z</time></trkpt><trkpt lat="43.613618064237755" lon="10.471215281874478"><ele>5.0</ele><time>2026-03-24T16:01:30.001Z</time></trkpt><trkpt lat="43.61341449121749" lon="10.471313493974598"><ele>5.0</ele><time>2026-03-24T16:01:31.001Z</time></trkpt><trkpt lat="43.61320041018655" lon="10.47141314446673"><ele>5.0</ele><time>2026-03-24T16:01:32.001Z</time></trkpt><trkpt lat="43.612977115265345" lon="10.471516577252673"><ele>5.0</ele><time>2026-03-24T16:01:33.001Z</time></trkpt><trkpt lat="43.612748084217976" lon="10.47162435248295"><ele>4.5</ele><time>2026-03-24T16:01:34.001Z</time></trkpt><trkpt lat="43.61251477223686" lon="10.471743406433218"><ele>4.0</ele><time>2026-03-24T16:01:35.001Z</time></trkpt><trkpt lat="43.61227776811884" lon="10.471871594014994"><ele>4.0</ele><time>2026-03-24T16:01:36.001Z</time></trkpt><trkpt lat="43.612061089934905" lon="10.471992730196039"><ele>4.0</ele><time>2026-03-24T16:01:37.001Z</time></trkpt><trkpt lat="43.61185441092108" lon="10.472100971225833"><ele>4.666666666666666</ele><time>2026-03-24T16:01:38.001Z</time></trkpt><trkpt lat="43.61165403745886" lon="10.472195602117683"><ele>5.333333333333333</ele><time>2026-03-24T16:01:39.001Z</time></trkpt><trkpt lat="43.61144709387483" lon="10.472306106860962"><ele>6.0</ele><time>2026-03-24T16:01:40.001Z</time></trkpt><trkpt lat="43.61124766187546" lon="10.472419489414552"><ele>5.666666666666667</ele><time>2026-03-24T16:01:41.001Z</time></trkpt><trkpt lat="43.61104850531397" lon="10.472505462535459"><ele>5.333333333333334</ele><time>2026-03-24T16:01:42.001Z</time></trkpt><trkpt lat="43.610848833177805" lon="10.472550358150595"><ele>5.0</ele><time>2026-03-24T16:01:43.001Z</time></trkpt><trkpt lat="43.610661844132025" lon="10.472571682327821"><ele>5.0</ele><time>2026-03-24T16:01:44.001Z</time></trkpt><trkpt lat="43.61049033001347" lon="10.472590933706968"><ele>5.0</ele><time>2026-03-24T16:01:45.001Z</time></trkpt><trkpt lat="43.610327522056394" lon="10.472625279907316"><ele>5.0</ele><time>2026-03-24T16:01:46.001Z</time></trkpt><trkpt lat="43.61015564205325" lon="10.472679505392806"><ele>4.666666666666667</ele><time>2026-03-24T16:01:47.001Z</time></trkpt><trkpt lat="43.60997305054349" lon="10.472746613267855"><ele>4.333333333333333</ele><time>2026-03-24T16:01:48.001Z</time></trkpt><trkpt lat="43.60977379115166" lon="10.472830592942987"><ele>4.0</ele><time>2026-03-24T16:01:49.001Z</time></trkpt><trkpt lat="43.60957177589294" lon="10.472930437210984"><ele>4.666666666666666</ele><time>2026-03-24T16:01:50.001Z</time></trkpt><trkpt lat="43.60937739527396" lon="10.473037387815072"><ele>5.333333333333333</ele><time>2026-03-24T16:01:51.001Z</time></trkpt><trkpt lat="43.609190423059665" lon="10.47315727759203"><ele>6.0</ele><time>2026-03-24T16:01:52.001Z</time></trkpt><trkpt lat="43.60899616537628" lon="10.473304322856222"><ele>6.0</ele><time>2026-03-24T16:01:53.001Z</time></trkpt><trkpt lat="43.60878791390106" lon="10.473431854673503"><ele>6.0</ele><time>2026-03-24T16:01:54.001Z</time></trkpt><trkpt lat="43.60855915857291" lon="10.473529872650108"><ele>6.0</ele><time>2026-03-24T16:01:55.001Z</time></trkpt><trkpt lat="43.60831792510398" lon="10.473605096472351"><ele>6.0</ele><time>2026-03-24T16:01:56.001Z</time></trkpt><trkpt lat="43.60806553553528" lon="10.473677447058655"><ele>6.5</ele><time>2026-03-24T16:01:57.001Z</time></trkpt><trkpt lat="43.60780399819422" lon="10.47375227801657"><ele>7.0</ele><time>2026-03-24T16:01:58.001Z</time></trkpt><trkpt lat="43.60754231857078" lon="10.473832505645078"><ele>7.5</ele><time>2026-03-24T16:01:59.001Z</time></trkpt><trkpt lat="43.607270558810505" lon="10.473918873256562"><ele>8.0</ele><time>2026-03-24T16:02:00.001Z</time></trkpt><trkpt lat="43.606988989776774" lon="10.474004433169945"><ele>7.0</ele><time>2026-03-24T16:02:01.001Z</time></trkpt><trkpt lat="43.606708210096514" lon="10.474087763319272"><ele>6.0</ele><time>2026-03-24T16:02:02.001Z</time></trkpt><trkpt lat="43.60642568986311" lon="10.474171896549747"><ele>6.0</ele><time>2026-03-24T16:02:03.001Z</time></trkpt><trkpt lat="43.606138729803995" lon="10.47425787445873"><ele>6.0</ele><time>2026-03-24T16:02:04.001Z</time></trkpt><trkpt lat="43.60584882015804" lon="10.474349030975569"><ele>6.0</ele><time>2026-03-24T16:02:05.001Z</time></trkpt><trkpt lat="43.60555196041414" lon="10.474442650376181"><ele>6.0</ele><time>2026-03-24T16:02:06.001Z</time></trkpt><trkpt lat="43.60525385311354" lon="10.474533793895144"><ele>6.0</ele><time>2026-03-24T16:02:07.001Z</time></trkpt><trkpt lat="43.60495413684541" lon="10.474624197764465"><ele>6.0</ele><time>2026-03-24T16:02:08.001Z</time></trkpt><trkpt lat="43.604652165897626" lon="10.474717805373075"><ele>7.0</ele><time>2026-03-24T16:02:09.001Z</time></trkpt><trkpt lat="43.60434953823482" lon="10.474813988017052"><ele>8.0</ele><time>2026-03-24T16:02:10.001Z</time></trkpt><trkpt lat="43.604046326530394" lon="10.474915271116249"><ele>8.0</ele><time>2026-03-24T16:02:11.001Z</time></trkpt><trkpt lat="43.60374031660715" lon="10.475021866202093"><ele>8.0</ele><time>2026-03-24T16:02:12.001Z</time></trkpt><trkpt lat="43.603433435153065" lon="10.475124968948508"><ele>8.0</ele><time>2026-03-24T16:02:13.001Z</time></trkpt><trkpt lat="43.60312785060225" lon="10.475223459684255"><ele>8.0</ele><time>2026-03-24T16:02:14.001Z</time></trkpt><trkpt lat="43.602819906526165" lon="10.47532014495603"><ele>8.5</ele><time>2026-03-24T16:02:15.001Z</time></trkpt><trkpt lat="43.60251250106519" lon="10.47540353567452"><ele>9.0</ele><time>2026-03-24T16:02:16.001Z</time></trkpt><trkpt lat="43.60219571761095" lon="10.47545055490642"><ele>9.0</ele><time>2026-03-24T16:02:17.001Z</time></trkpt><trkpt lat="43.601860056412555" lon="10.47548355972253"><ele>9.0</ele><time>2026-03-24T16:02:18.001Z</time></trkpt><trkpt lat="43.60156737625534" lon="10.475446524490616"><ele>9.0</ele><time>2026-03-24T16:02:19.001Z</time></trkpt><trkpt lat="43.60125740798095" lon="10.475354620055807"><ele>9.0</ele><time>2026-03-24T16:02:20.001Z</time></trkpt><trkpt lat="43.60096325673451" lon="10.475201302754419"><ele>10.5</ele><time>2026-03-24T16:02:21.001Z</time></trkpt><trkpt lat="43.60068340290453" lon="10.474996508867003"><ele>12.0</ele><time>2026-03-24T16:02:22.001Z</time></trkpt><trkpt lat="43.60042820775887" lon="10.474753541940258"><ele>12.0</ele><time>2026-03-24T16:02:23.001Z</time></trkpt><trkpt lat="43.60019954186998" lon="10.47446544803327"><ele>12.0</ele><time>2026-03-24T16:02:24.001Z</time></trkpt><trkpt lat="43.599988001049134" lon="10.474201951274756"><ele>12.0</ele><time>2026-03-24T16:02:25.001Z</time></trkpt><trkpt lat="43.59979273212751" lon="10.473986765862522"><ele>12.0</ele><time>2026-03-24T16:02:26.001Z</time></trkpt><trkpt lat="43.59959497232412" lon="10.473799673015286"><ele>12.0</ele><time>2026-03-24T16:02:27.001Z</time></trkpt><trkpt lat="43.599369656852566" lon="10.473639869569897"><ele>12.0</ele><time>2026-03-24T16:02:28.001Z</time></trkpt><trkpt lat="43.59913213897855" lon="10.47349967671951"><ele>12.0</ele><time>2026-03-24T16:02:29.001Z</time></trkpt><trkpt lat="43.59889284802425" lon="10.473395129770177"><ele>12.0</ele><time>2026-03-24T16:02:30.001Z</time></trkpt><trkpt lat="43.59865984883542" lon="10.473309032033905"><ele>12.0</ele><time>2026-03-24T16:02:31.001Z</time></trkpt><trkpt lat="43.59844170592828" lon="10.473247204934346"><ele>12.0</ele><time>2026-03-24T16:02:32.001Z</time></trkpt><trkpt lat="43.598234664509945" lon="10.473195475068069"><ele>12.0</ele><time>2026-03-24T16:02:33.001Z</time></trkpt><trkpt lat="43.59803382918792" lon="10.47315968026004"><ele>12.0</ele><time>2026-03-24T16:02:34.001Z</time></trkpt><trkpt lat="43.59784814278892" lon="10.473118169638873"><ele>12.0</ele><time>2026-03-24T16:02:35.001Z</time></trkpt><trkpt lat="43.597677184733776" lon="10.47307620111612"><ele>12.0</ele><time>2026-03-24T16:02:36.001Z</time></trkpt><trkpt lat="43.597501128665215" lon="10.473030454651944"><ele>12.0</ele><time>2026-03-24T16:02:37.001Z</time></trkpt><trkpt lat="43.597316911854286" lon="10.472984388200873"><ele>12.0</ele><time>2026-03-24T16:02:38.001Z</time></trkpt><trkpt lat="43.597150689430876" lon="10.472939017360867"><ele>12.0</ele><time>2026-03-24T16:02:39.001Z</time></trkpt><trkpt lat="43.59698362808639" lon="10.472903279060816"><ele>12.75</ele><time>2026-03-24T16:02:40.001Z</time></trkpt><trkpt lat="43.59683036205557" lon="10.472865438847641"><ele>13.5</ele><time>2026-03-24T16:02:41.001Z</time></trkpt><trkpt lat="43.59668754098987" lon="10.47282912982181"><ele>14.25</ele><time>2026-03-24T16:02:42.001Z</time></trkpt><trkpt lat="43.59655725960036" lon="10.472798707442772"><ele>15.0</ele><time>2026-03-24T16:02:43.001Z</time></trkpt><trkpt lat="43.59644823669324" lon="10.472778186231826"><ele>15.0</ele><time>2026-03-24T16:02:44.001Z</time></trkpt><trkpt lat="43.59636140000839" lon="10.472753164280732"><ele>15.0</ele><time>2026-03-24T16:02:45.001Z</time></trkpt><trkpt lat="43.59628594169351" lon="10.472731182658478"><ele>15.0</ele><time>2026-03-24T16:02:46.001Z</time></trkpt><trkpt lat="43.59615345640858" lon="10.472704804259337"><ele>15.0</ele><time>2026-03-24T16:02:48.001Z</time></trkpt><trkpt lat="43.59608783428652" lon="10.472691404346701"><ele>15.0</ele><time>2026-03-24T16:02:49.001Z</time></trkpt><trkpt lat="43.596017757552644" lon="10.47263648245524"><ele>15.0</ele><time>2026-03-24T16:02:59.001Z</time></trkpt><trkpt lat="43.595962444826604" lon="10.472580865090324"><ele>15.333333333333334</ele><time>2026-03-24T16:03:02.001Z</time></trkpt><trkpt lat="43.59590717125909" lon="10.47249534227928"><ele>15.666666666666668</ele><time>2026-03-24T16:03:04.001Z</time></trkpt><trkpt lat="43.59584246044682" lon="10.472358169176404"><ele>16.0</ele><time>2026-03-24T16:03:06.001Z</time></trkpt><trkpt lat="43.59578066619278" lon="10.47231347543586"><ele>16.333333333333336</ele><time>2026-03-24T16:03:07.001Z</time></trkpt><trkpt lat="43.59571227498383" lon="10.472310188109534"><ele>16.666666666666668</ele><time>2026-03-24T16:03:08.001Z</time></trkpt><trkpt lat="43.59563686857726" lon="10.472357049640017"><ele>17.0</ele><time>2026-03-24T16:03:09.001Z</time></trkpt><trkpt lat="43.5955607230272" lon="10.472443156733823"><ele>17.0</ele><time>2026-03-24T16:03:10.001Z</time></trkpt><trkpt lat="43.59548762322989" lon="10.47250344831839"><ele>17.0</ele><time>2026-03-24T16:03:11.001Z</time></trkpt><trkpt lat="43.59539829053737" lon="10.472516184241169"><ele>17.0</ele><time>2026-03-24T16:03:12.001Z</time></trkpt><trkpt lat="43.59529335508872" lon="10.4724999036372"><ele>17.0</ele><time>2026-03-24T16:03:13.001Z</time></trkpt><trkpt lat="43.59518411390387" lon="10.472470814414027"><ele>17.0</ele><time>2026-03-24T16:03:14.001Z</time></trkpt><trkpt lat="43.59506948315569" lon="10.472440093821284"><ele>16.25</ele><time>2026-03-24T16:03:15.001Z</time></trkpt><trkpt lat="43.59494699311235" lon="10.472411710454221"><ele>15.5</ele><time>2026-03-24T16:03:16.001Z</time></trkpt><trkpt lat="43.59481391521167" lon="10.47238634619649"><ele>14.75</ele><time>2026-03-24T16:03:17.001Z</time></trkpt><trkpt lat="43.594668087890796" lon="10.472331813109214"><ele>14.0</ele><time>2026-03-24T16:03:18.001Z</time></trkpt><trkpt lat="43.59448442488033" lon="10.472285000578655"><ele>13.333333333333334</ele><time>2026-03-24T16:03:19.001Z</time></trkpt><trkpt lat="43.59426736225384" lon="10.472229674783833"><ele>12.666666666666668</ele><time>2026-03-24T16:03:20.001Z</time></trkpt><trkpt lat="43.5940481029198" lon="10.472176814013539"><ele>12.0</ele><time>2026-03-24T16:03:21.001Z</time></trkpt><trkpt lat="43.59384475266555" lon="10.472127788729761"><ele>12.0</ele><time>2026-03-24T16:03:22.001Z</time></trkpt><trkpt lat="43.59366237183784" lon="10.47210327748941"><ele>12.0</ele><time>2026-03-24T16:03:23.001Z</time></trkpt><trkpt lat="43.593498003807476" lon="10.472060932046904"><ele>12.0</ele><time>2026-03-24T16:03:24.001Z</time></trkpt><trkpt lat="43.59334163191683" lon="10.472021968610429"><ele>12.0</ele><time>2026-03-24T16:03:25.001Z</time></trkpt><trkpt lat="43.59318042368094" lon="10.471979198055442"><ele>12.0</ele><time>2026-03-24T16:03:26.001Z</time></trkpt><trkpt lat="43.59303070521592" lon="10.47194103271666"><ele>12.0</ele><time>2026-03-24T16:03:27.001Z</time></trkpt><trkpt lat="43.59288610190042" lon="10.471907976158423"><ele>11.75</ele><time>2026-03-24T16:03:28.001Z</time></trkpt><trkpt lat="43.59274383425152" lon="10.471872979571426"><ele>11.5</ele><time>2026-03-24T16:03:29.001Z</time></trkpt><trkpt lat="43.59259295067523" lon="10.471836888853273"><ele>11.25</ele><time>2026-03-24T16:03:30.001Z</time></trkpt><trkpt lat="43.592445822635455" lon="10.47180272205426"><ele>11.0</ele><time>2026-03-24T16:03:31.001Z</time></trkpt><trkpt lat="43.59231386198045" lon="10.471769993102333"><ele>11.0</ele><time>2026-03-24T16:03:32.001Z</time></trkpt><trkpt lat="43.5921880146716" lon="10.471738722702954"><ele>11.0</ele><time>2026-03-24T16:03:33.001Z</time></trkpt><trkpt lat="43.59205052624152" lon="10.471704098205645"><ele>11.0</ele><time>2026-03-24T16:03:34.001Z</time></trkpt><trkpt lat="43.59191163834494" lon="10.471663889060906"><ele>11.0</ele><time>2026-03-24T16:03:35.001Z</time></trkpt><trkpt lat="43.59179273423506" lon="10.471623179958884"><ele>11.25</ele><time>2026-03-24T16:03:36.001Z</time></trkpt><trkpt lat="43.59166788924981" lon="10.471587587297464"><ele>11.5</ele><time>2026-03-24T16:03:37.001Z</time></trkpt><trkpt lat="43.591534645192645" lon="10.471561100545587"><ele>11.75</ele><time>2026-03-24T16:03:38.001Z</time></trkpt><trkpt lat="43.591397242003744" lon="10.471534463442318"><ele>12.0</ele><time>2026-03-24T16:03:39.001Z</time></trkpt><trkpt lat="43.59127098633897" lon="10.471513718286422"><ele>12.0</ele><time>2026-03-24T16:03:40.001Z</time></trkpt><trkpt lat="43.59113818233446" lon="10.471482358285568"><ele>12.0</ele><time>2026-03-24T16:03:41.001Z</time></trkpt><trkpt lat="43.590987725205856" lon="10.471423687266212"><ele>12.0</ele><time>2026-03-24T16:03:42.001Z</time></trkpt><trkpt lat="43.590826962153706" lon="10.47138417368148"><ele>12.0</ele><time>2026-03-24T16:03:43.001Z</time></trkpt><trkpt lat="43.590672868855656" lon="10.471365407193385"><ele>12.0</ele><time>2026-03-24T16:03:44.001Z</time></trkpt><trkpt lat="43.59053788311681" lon="10.471330832836768"><ele>12.0</ele><time>2026-03-24T16:03:45.001Z</time></trkpt><trkpt lat="43.59040672439816" lon="10.471298798602467"><ele>12.0</ele><time>2026-03-24T16:03:46.001Z</time></trkpt><trkpt lat="43.59027725952561" lon="10.471267037070694"><ele>12.0</ele><time>2026-03-24T16:03:47.001Z</time></trkpt><trkpt lat="43.59015233939953" lon="10.471236837709341"><ele>12.0</ele><time>2026-03-24T16:03:48.001Z</time></trkpt><trkpt lat="43.59002678311898" lon="10.471205446185028"><ele>12.0</ele><time>2026-03-24T16:03:49.001Z</time></trkpt><trkpt lat="43.589904140085594" lon="10.471174228590705"><ele>12.0</ele><time>2026-03-24T16:03:50.001Z</time></trkpt><trkpt lat="43.58978478133312" lon="10.471143808518235"><ele>12.0</ele><time>2026-03-24T16:03:51.001Z</time></trkpt><trkpt lat="43.589666201303515" lon="10.471111792503699"><ele>12.0</ele><time>2026-03-24T16:03:52.001Z</time></trkpt><trkpt lat="43.58954661261015" lon="10.471078392443"><ele>12.0</ele><time>2026-03-24T16:03:53.001Z</time></trkpt><trkpt lat="43.589439277271666" lon="10.471049283853036"><ele>12.0</ele><time>2026-03-24T16:03:54.001Z</time></trkpt><trkpt lat="43.58934563864881" lon="10.47102434189756"><ele>12.0</ele><time>2026-03-24T16:03:55.001Z</time></trkpt><trkpt lat="43.58924765699441" lon="10.470998533719516"><ele>12.166666666666666</ele><time>2026-03-24T16:03:56.001Z</time></trkpt><trkpt lat="43.58916405168263" lon="10.470979592264706"><ele>12.333333333333332</ele><time>2026-03-24T16:03:57.001Z</time></trkpt><trkpt lat="43.589089097673" lon="10.470967313378008"><ele>12.5</ele><time>2026-03-24T16:03:58.001Z</time></trkpt><trkpt lat="43.589006163623644" lon="10.470950567500296"><ele>12.666666666666666</ele><time>2026-03-24T16:03:59.001Z</time></trkpt><trkpt lat="43.5889305987883" lon="10.470933490120661"><ele>12.833333333333332</ele><time>2026-03-24T16:04:00.001Z</time></trkpt><trkpt lat="43.58885475145859" lon="10.470910695706044"><ele>13.0</ele><time>2026-03-24T16:04:01.001Z</time></trkpt><trkpt lat="43.58876857238927" lon="10.470872040264124"><ele>12.999999999999998</ele><time>2026-03-24T16:04:02.001Z</time></trkpt><trkpt lat="43.58868984136002" lon="10.470816718460881"><ele>13.0</ele><time>2026-03-24T16:04:03.001Z</time></trkpt><trkpt lat="43.588596039378956" lon="10.470756808629263"><ele>13.0</ele><time>2026-03-24T16:04:05.001Z</time></trkpt><trkpt lat="43.58853051727382" lon="10.470724511026733"><ele>13.0</ele><time>2026-03-24T16:04:07.001Z</time></trkpt><trkpt lat="43.588475916932566" lon="10.470813682185726"><ele>12.999999999999998</ele><time>2026-03-24T16:04:09.001Z</time></trkpt><trkpt lat="43.588458459172294" lon="10.470920696881421"><ele>13.0</ele><time>2026-03-24T16:04:11.001Z</time></trkpt><trkpt lat="43.58850702629814" lon="10.471085276489454"><ele>13.2</ele><time>2026-03-24T16:04:13.001Z</time></trkpt><trkpt lat="43.58853746731069" lon="10.47116886519633"><ele>13.4</ele><time>2026-03-24T16:04:14.001Z</time></trkpt><trkpt lat="43.588574905778216" lon="10.471330633669988"><ele>13.599999999999998</ele><time>2026-03-24T16:04:16.001Z</time></trkpt><trkpt lat="43.588585193781945" lon="10.471439142732338"><ele>13.799999999999999</ele><time>2026-03-24T16:04:17.001Z</time></trkpt><trkpt lat="43.58856941573635" lon="10.471555564149742"><ele>14.0</ele><time>2026-03-24T16:04:18.001Z</time></trkpt><trkpt lat="43.58856668116136" lon="10.471688008532498"><ele>14.6</ele><time>2026-03-24T16:04:19.001Z</time></trkpt><trkpt lat="43.588563865620436" lon="10.471821975546774"><ele>15.2</ele><time>2026-03-24T16:04:20.001Z</time></trkpt><trkpt lat="43.588560896809774" lon="10.47196323513846"><ele>15.799999999999999</ele><time>2026-03-24T16:04:21.001Z</time></trkpt><trkpt lat="43.58855839291619" lon="10.472082373498667"><ele>16.4</ele><time>2026-03-24T16:04:22.001Z</time></trkpt><trkpt lat="43.58857009654954" lon="10.472202685454457"><ele>17.0</ele><time>2026-03-24T16:04:23.001Z</time></trkpt><trkpt lat="43.58856523475545" lon="10.472335564668404"><ele>17.2</ele><time>2026-03-24T16:04:24.001Z</time></trkpt><trkpt lat="43.58856283783518" lon="10.47247395121959"><ele>17.4</ele><time>2026-03-24T16:04:25.001Z</time></trkpt><trkpt lat="43.58855818115024" lon="10.472603813591233"><ele>17.6</ele><time>2026-03-24T16:04:26.001Z</time></trkpt><trkpt lat="43.588554650041125" lon="10.472732635562094"><ele>17.8</ele><time>2026-03-24T16:04:27.001Z</time></trkpt><trkpt lat="43.58855525953592" lon="10.472854289138006"><ele>18.0</ele><time>2026-03-24T16:04:28.001Z</time></trkpt><trkpt lat="43.5885527429484" lon="10.47295982754884"><ele>18.333333333333332</ele><time>2026-03-24T16:04:29.001Z</time></trkpt><trkpt lat="43.5885466370077" lon="10.473077954259951"><ele>18.666666666666668</ele><time>2026-03-24T16:04:31.001Z</time></trkpt><trkpt lat="43.588546916495936" lon="10.473170879548045"><ele>19.0</ele><time>2026-03-24T16:04:33.001Z</time></trkpt><trkpt lat="43.58854333439804" lon="10.473302505202088"><ele>19.333333333333336</ele><time>2026-03-24T16:04:35.001Z</time></trkpt><trkpt lat="43.58854487281595" lon="10.47343121621985"><ele>19.666666666666668</ele><time>2026-03-24T16:04:37.001Z</time></trkpt><trkpt lat="43.588539943971256" lon="10.473536669196971"><ele>20.0</ele><time>2026-03-24T16:04:43.001Z</time></trkpt><trkpt lat="43.58853473943436" lon="10.473656968043553"><ele>20.8</ele><time>2026-03-24T16:04:46.001Z</time></trkpt><trkpt lat="43.58852158749014" lon="10.473783228227243"><ele>21.6</ele><time>2026-03-24T16:04:49.001Z</time></trkpt><trkpt lat="43.58852617578022" lon="10.473917932746636"><ele>22.4</ele><time>2026-03-24T16:04:52.001Z</time></trkpt><trkpt lat="43.58854866044776" lon="10.474051435776529"><ele>23.2</ele><time>2026-03-24T16:04:53.001Z</time></trkpt><trkpt lat="43.588577930889755" lon="10.474208063428241"><ele>24.0</ele><time>2026-03-24T16:04:54.001Z</time></trkpt><trkpt lat="43.588593786265584" lon="10.474372430808554"><ele>24.0</ele><time>2026-03-24T16:04:55.001Z</time></trkpt><trkpt lat="43.588637749408235" lon="10.474548699618412"><ele>24.0</ele><time>2026-03-24T16:04:56.001Z</time></trkpt><trkpt lat="43.58867047497066" lon="10.474748033818726"><ele>24.0</ele><time>2026-03-24T16:04:57.001Z</time></trkpt><trkpt lat="43.588696976859744" lon="10.474905514833356"><ele>24.0</ele><time>2026-03-24T16:04:58.001Z</time></trkpt><trkpt lat="43.58870535090899" lon="10.475036234945392"><ele>25.4</ele><time>2026-03-24T16:04:59.001Z</time></trkpt><trkpt lat="43.58870350250105" lon="10.475147452642233"><ele>26.799999999999997</ele><time>2026-03-24T16:05:00.001Z</time></trkpt><trkpt lat="43.58867423856928" lon="10.4752353218335"><ele>28.200000000000003</ele><time>2026-03-24T16:05:01.001Z</time></trkpt><trkpt lat="43.58859062984424" lon="10.475304362805126"><ele>29.6</ele><time>2026-03-24T16:05:02.001Z</time></trkpt><trkpt lat="43.58848241294838" lon="10.475312910206393"><ele>31.0</ele><time>2026-03-24T16:05:03.001Z</time></trkpt><trkpt lat="43.588372521230895" lon="10.475376855383177"><ele>32.0</ele><time>2026-03-24T16:05:04.001Z</time></trkpt><trkpt lat="43.58824720403165" lon="10.47543364373046"><ele>33.0</ele><time>2026-03-24T16:05:05.001Z</time></trkpt><trkpt lat="43.58811594981791" lon="10.475498419844763"><ele>34.0</ele><time>2026-03-24T16:05:06.001Z</time></trkpt><trkpt lat="43.58800783372017" lon="10.47555711858417"><ele>35.0</ele><time>2026-03-24T16:05:07.001Z</time></trkpt><trkpt lat="43.58791256345044" lon="10.47560265418341"><ele>37.0</ele><time>2026-03-24T16:05:08.001Z</time></trkpt><trkpt lat="43.587827096065396" lon="10.475643737511733"><ele>39.0</ele><time>2026-03-24T16:05:09.001Z</time></trkpt><trkpt lat="43.58776655989616" lon="10.47567254746039"><ele>41.0</ele><time>2026-03-24T16:05:10.001Z</time></trkpt><trkpt lat="43.587671853212214" lon="10.475714818320798"><ele>43.0</ele><time>2026-03-24T16:05:12.001Z</time></trkpt><trkpt lat="43.587608008820965" lon="10.475739972431535"><ele>45.0</ele><time>2026-03-24T16:05:13.001Z</time></trkpt><trkpt lat="43.58753878152731" lon="10.475776271244388"><ele>47.0</ele><time>2026-03-24T16:05:14.001Z</time></trkpt><trkpt lat="43.587430068123766" lon="10.475839854095033"><ele>47.0</ele><time>2026-03-24T16:05:16.001Z</time></trkpt><trkpt lat="43.58732726297443" lon="10.475900367647979"><ele>47.0</ele><time>2026-03-24T16:05:18.001Z</time></trkpt><trkpt lat="43.58731442983112" lon="10.476001965597527"><ele>47.0</ele><time>2026-03-24T16:05:20.001Z</time></trkpt><trkpt lat="43.587341750459416" lon="10.476130638939987"><ele>47.0</ele><time>2026-03-24T16:05:22.001Z</time></trkpt><trkpt lat="43.587397070947915" lon="10.476293230515493"><ele>47.0</ele><time>2026-03-24T16:05:24.001Z</time></trkpt><trkpt lat="43.587432502302875" lon="10.476392799633286"><ele>46.83333333333333</ele><time>2026-03-24T16:05:25.001Z</time></trkpt><trkpt lat="43.58747804231079" lon="10.476502174277531"><ele>46.666666666666664</ele><time>2026-03-24T16:05:27.001Z</time></trkpt><trkpt lat="43.58752226939166" lon="10.476607140264097"><ele>46.5</ele><time>2026-03-24T16:05:31.001Z</time></trkpt><trkpt lat="43.58755278528769" lon="10.4766900092801"><ele>46.333333333333336</ele><time>2026-03-24T16:05:32.001Z</time></trkpt><trkpt lat="43.58758636419447" lon="10.47677527817844"><ele>46.16666666666667</ele><time>2026-03-24T16:05:33.001Z</time></trkpt><trkpt lat="43.58762098810807" lon="10.47685597795203"><ele>46.0</ele><time>2026-03-24T16:05:34.001Z</time></trkpt><trkpt lat="43.58765847221744" lon="10.476943382804292"><ele>46.0</ele><time>2026-03-24T16:05:35.001Z</time></trkpt><trkpt lat="43.587693596593944" lon="10.477039292771192"><ele>46.0</ele><time>2026-03-24T16:05:36.001Z</time></trkpt><trkpt lat="43.587743023277675" lon="10.477178768422618"><ele>46.0</ele><time>2026-03-24T16:05:38.001Z</time></trkpt><trkpt lat="43.5878030873753" lon="10.477300279922902"><ele>46.0</ele><time>2026-03-24T16:05:40.001Z</time></trkpt><trkpt lat="43.587819149146945" lon="10.477388376263947"><ele>46.0</ele><time>2026-03-24T16:05:43.001Z</time></trkpt><trkpt lat="43.5877505444131" lon="10.47745578870464"><ele>46.0</ele><time>2026-03-24T16:05:48.001Z</time></trkpt><trkpt lat="43.5876626590474" lon="10.477527206647757"><ele>46.0</ele><time>2026-03-24T16:05:49.001Z</time></trkpt><trkpt lat="43.587562406444775" lon="10.47760792681092"><ele>46.0</ele><time>2026-03-24T16:05:50.001Z</time></trkpt><trkpt lat="43.58744350869037" lon="10.477715845468335"><ele>46.0</ele><time>2026-03-24T16:05:51.001Z</time></trkpt><trkpt lat="43.587297033197885" lon="10.477831547372881"><ele>46.0</ele><time>2026-03-24T16:05:52.001Z</time></trkpt><trkpt lat="43.58714481145507" lon="10.477946078575046"><ele>46.0</ele><time>2026-03-24T16:05:53.001Z</time></trkpt><trkpt lat="43.587017947073775" lon="10.478042626852774"><ele>46.0</ele><time>2026-03-24T16:05:54.001Z</time></trkpt><trkpt lat="43.58689052793018" lon="10.478135731793794"><ele>46.0</ele><time>2026-03-24T16:05:55.001Z</time></trkpt><trkpt lat="43.58676669186423" lon="10.478199097325383"><ele>46.0</ele><time>2026-03-24T16:05:56.001Z</time></trkpt><trkpt lat="43.58665713651061" lon="10.478286188847909"><ele>46.5</ele><time>2026-03-24T16:05:57.001Z</time></trkpt><trkpt lat="43.58654092491726" lon="10.478352751830055"><ele>47.0</ele><time>2026-03-24T16:05:58.001Z</time></trkpt><trkpt lat="43.58642067993698" lon="10.478409653239773"><ele>47.5</ele><time>2026-03-24T16:05:59.001Z</time></trkpt><trkpt lat="43.586294928549485" lon="10.478476417036518"><ele>48.0</ele><time>2026-03-24T16:06:00.001Z</time></trkpt><trkpt lat="43.586165968967094" lon="10.47855019186514"><ele>48.0</ele><time>2026-03-24T16:06:01.001Z</time></trkpt><trkpt lat="43.58604708463167" lon="10.478617228140934"><ele>48.0</ele><time>2026-03-24T16:06:02.001Z</time></trkpt><trkpt lat="43.585922827413505" lon="10.47868078054658"><ele>48.0</ele><time>2026-03-24T16:06:03.001Z</time></trkpt><trkpt lat="43.585808651172975" lon="10.478745944384327"><ele>48.0</ele><time>2026-03-24T16:06:04.001Z</time></trkpt><trkpt lat="43.58569940311352" lon="10.47880049922157"><ele>47.833333333333336</ele><time>2026-03-24T16:06:05.001Z</time></trkpt><trkpt lat="43.585599571825945" lon="10.47885525581546"><ele>47.666666666666664</ele><time>2026-03-24T16:06:06.001Z</time></trkpt><trkpt lat="43.58550709806412" lon="10.478888221620005"><ele>47.5</ele><time>2026-03-24T16:06:07.001Z</time></trkpt><trkpt lat="43.58543216420916" lon="10.478911924963409"><ele>47.33333333333333</ele><time>2026-03-24T16:06:08.001Z</time></trkpt><trkpt lat="43.585371126590395" lon="10.478961780049353"><ele>47.166666666666664</ele><time>2026-03-24T16:06:09.001Z</time></trkpt><trkpt lat="43.585344286037184" lon="10.479046198554615"><ele>47.0</ele><time>2026-03-24T16:06:10.001Z</time></trkpt><trkpt lat="43.58533906258573" lon="10.47914784975034"><ele>47.0</ele><time>2026-03-24T16:06:11.001Z</time></trkpt><trkpt lat="43.585358335903614" lon="10.47927565397185"><ele>47.0</ele><time>2026-03-24T16:06:12.001Z</time></trkpt><trkpt lat="43.585379076838294" lon="10.479397897936824"><ele>47.0</ele><time>2026-03-24T16:06:13.001Z</time></trkpt><trkpt lat="43.58540101250199" lon="10.479517517094484"><ele>47.0</ele><time>2026-03-24T16:06:14.001Z</time></trkpt><trkpt lat="43.58542422435585" lon="10.479642285914341"><ele>47.0</ele><time>2026-03-24T16:06:15.001Z</time></trkpt><trkpt lat="43.5854565089703" lon="10.479815822698706"><ele>48.666666666666664</ele><time>2026-03-24T16:06:16.001Z</time></trkpt><trkpt lat="43.58550025245758" lon="10.48005095361256"><ele>50.33333333333333</ele><time>2026-03-24T16:06:17.001Z</time></trkpt><trkpt lat="43.58554576512171" lon="10.480295594032423"><ele>52.0</ele><time>2026-03-24T16:06:18.001Z</time></trkpt><trkpt lat="43.5855950005939" lon="10.48056024547529"><ele>52.0</ele><time>2026-03-24T16:06:19.001Z</time></trkpt><trkpt lat="43.58564965517138" lon="10.480854025588243"><ele>52.0</ele><time>2026-03-24T16:06:20.001Z</time></trkpt><trkpt lat="43.58570847479966" lon="10.481150392978297"><ele>52.0</ele><time>2026-03-24T16:06:21.001Z</time></trkpt><trkpt lat="43.585754375196586" lon="10.481436582831362"><ele>52.33333333333333</ele><time>2026-03-24T16:06:22.001Z</time></trkpt><trkpt lat="43.585802716396906" lon="10.481679797184075"><ele>52.66666666666667</ele><time>2026-03-24T16:06:23.001Z</time></trkpt><trkpt lat="43.58584331054332" lon="10.481896399634993"><ele>53.0</ele><time>2026-03-24T16:06:24Z</time></trkpt><trkpt lat="43.585881111880546" lon="10.482090082172123"><ele>52.4</ele><time>2026-03-24T16:06:25Z</time></trkpt><trkpt lat="43.58590967158125" lon="10.482263065945515"><ele>51.8</ele><time>2026-03-24T16:06:26Z</time></trkpt><trkpt lat="43.585939829433826" lon="10.48241533920861"><ele>51.2</ele><time>2026-03-24T16:06:27Z</time></trkpt><trkpt lat="43.58597545174098" lon="10.482534974167192"><ele>50.6</ele><time>2026-03-24T16:06:28Z</time></trkpt><trkpt lat="43.58600776360994" lon="10.482665938079066"><ele>50.0</ele><time>2026-03-24T16:06:29Z</time></trkpt><trkpt lat="43.58604914804691" lon="10.48276917315686"><ele>50.0</ele><time>2026-03-24T16:06:30Z</time></trkpt><trkpt lat="43.58610126480806" lon="10.482876074422977"><ele>50.0</ele><time>2026-03-24T16:06:31Z</time></trkpt><trkpt lat="43.58615339114771" lon="10.482975951973765"><ele>50.0</ele><time>2026-03-24T16:06:32Z</time></trkpt><trkpt lat="43.586199707686546" lon="10.483090729813783"><ele>50.0</ele><time>2026-03-24T16:06:33Z</time></trkpt><trkpt lat="43.58625249928876" lon="10.483223219391054"><ele>50.0</ele><time>2026-03-24T16:06:34Z</time></trkpt><trkpt lat="43.58630204871868" lon="10.483372936537268"><ele>50.66666666666667</ele><time>2026-03-24T16:06:35Z</time></trkpt><trkpt lat="43.58637784072217" lon="10.483549237160828"><ele>51.33333333333333</ele><time>2026-03-24T16:06:36Z</time></trkpt><trkpt lat="43.58644357219559" lon="10.483773939131236"><ele>52.0</ele><time>2026-03-24T16:06:37Z</time></trkpt><trkpt lat="43.586497315292604" lon="10.484007625094273"><ele>52.0</ele><time>2026-03-24T16:06:38Z</time></trkpt><trkpt lat="43.58653496509048" lon="10.48423062146803"><ele>52.0</ele><time>2026-03-24T16:06:39.001Z</time></trkpt><trkpt lat="43.5865694011072" lon="10.484426734933654"><ele>52.0</ele><time>2026-03-24T16:06:40.001Z</time></trkpt><trkpt lat="43.58657843152441" lon="10.484612086174549"><ele>52.0</ele><time>2026-03-24T16:06:41.001Z</time></trkpt><trkpt lat="43.586554991291976" lon="10.484822566137128"><ele>51.666666666666664</ele><time>2026-03-24T16:06:42.001Z</time></trkpt><trkpt lat="43.58653138837599" lon="10.485074026273264"><ele>51.33333333333333</ele><time>2026-03-24T16:06:43.001Z</time></trkpt><trkpt lat="43.58650052338192" lon="10.485348798724448"><ele>51.0</ele><time>2026-03-24T16:06:44.001Z</time></trkpt><trkpt lat="43.586483470801184" lon="10.485646113778033"><ele>50.33333333333333</ele><time>2026-03-24T16:06:45.001Z</time></trkpt><trkpt lat="43.58644251615752" lon="10.48593339245211"><ele>49.666666666666664</ele><time>2026-03-24T16:06:46.001Z</time></trkpt><trkpt lat="43.586414123200605" lon="10.486222517316923"><ele>49.0</ele><time>2026-03-24T16:06:47.001Z</time></trkpt><trkpt lat="43.58640016844337" lon="10.486526823674447"><ele>48.5</ele><time>2026-03-24T16:06:48.001Z</time></trkpt><trkpt lat="43.58636266535203" lon="10.486831117848315"><ele>48.0</ele><time>2026-03-24T16:06:49.001Z</time></trkpt><trkpt lat="43.58632904029603" lon="10.487146854739532"><ele>48.0</ele><time>2026-03-24T16:06:50.001Z</time></trkpt><trkpt lat="43.5863014430707" lon="10.48746108457328"><ele>48.0</ele><time>2026-03-24T16:06:51.001Z</time></trkpt><trkpt lat="43.58626517830037" lon="10.48775049701518"><ele>48.0</ele><time>2026-03-24T16:06:52.001Z</time></trkpt><trkpt lat="43.58623594582057" lon="10.488022230990454"><ele>46.666666666666664</ele><time>2026-03-24T16:06:53.001Z</time></trkpt><trkpt lat="43.58620100395029" lon="10.488288586185554"><ele>45.33333333333333</ele><time>2026-03-24T16:06:54.001Z</time></trkpt><trkpt lat="43.586169543634846" lon="10.488532463782928"><ele>44.0</ele><time>2026-03-24T16:06:55.001Z</time></trkpt><trkpt lat="43.586142463151766" lon="10.488728918222936"><ele>42.6</ele><time>2026-03-24T16:06:56.001Z</time></trkpt><trkpt lat="43.586119425124636" lon="10.488876032587909"><ele>41.2</ele><time>2026-03-24T16:06:57.001Z</time></trkpt><trkpt lat="43.586111112811686" lon="10.488989660744316"><ele>39.800000000000004</ele><time>2026-03-24T16:06:58.001Z</time></trkpt><trkpt lat="43.58614084419449" lon="10.489094808465683"><ele>38.400000000000006</ele><time>2026-03-24T16:06:59.001Z</time></trkpt><trkpt lat="43.58622568358233" lon="10.489160001951463"><ele>37.0</ele><time>2026-03-24T16:07:00.001Z</time></trkpt><trkpt lat="43.58633857779535" lon="10.489154642972112"><ele>36.75</ele><time>2026-03-24T16:07:01.001Z</time></trkpt><trkpt lat="43.586479351640136" lon="10.489100777473807"><ele>36.5</ele><time>2026-03-24T16:07:02.001Z</time></trkpt><trkpt lat="43.58662185097401" lon="10.489051512123094"><ele>36.25</ele><time>2026-03-24T16:07:03.001Z</time></trkpt><trkpt lat="43.58674435557869" lon="10.489064690964243"><ele>36.0</ele><time>2026-03-24T16:07:04.001Z</time></trkpt><trkpt lat="43.58682680322389" lon="10.489152467843114"><ele>36.0</ele><time>2026-03-24T16:07:05.001Z</time></trkpt><trkpt lat="43.58684062824713" lon="10.48930760192035"><ele>36.0</ele><time>2026-03-24T16:07:06.001Z</time></trkpt><trkpt lat="43.58683755737357" lon="10.489437886344568"><ele>36.0</ele><time>2026-03-24T16:07:07.001Z</time></trkpt><trkpt lat="43.586747814236446" lon="10.489555876007344"><ele>36.0</ele><time>2026-03-24T16:07:08.001Z</time></trkpt><trkpt lat="43.58660276671671" lon="10.489584913755627"><ele>33.333333333333336</ele><time>2026-03-24T16:07:09.001Z</time></trkpt><trkpt lat="43.58644362775373" lon="10.489615439088498"><ele>30.666666666666668</ele><time>2026-03-24T16:07:10.001Z</time></trkpt><trkpt lat="43.58627499881094" lon="10.489665953556942"><ele>28.0</ele><time>2026-03-24T16:07:11.001Z</time></trkpt><trkpt lat="43.58610204217508" lon="10.489730501729413"><ele>28.0</ele><time>2026-03-24T16:07:12.001Z</time></trkpt><trkpt lat="43.58594106844502" lon="10.48987351644136"><ele>28.0</ele><time>2026-03-24T16:07:13.001Z</time></trkpt><trkpt lat="43.58577976016634" lon="10.49008758288366"><ele>28.0</ele><time>2026-03-24T16:07:14.001Z</time></trkpt><trkpt lat="43.585583853716535" lon="10.490295781984187"><ele>24.0</ele><time>2026-03-24T16:07:15.001Z</time></trkpt><trkpt lat="43.58538713127058" lon="10.490510826629162"><ele>20.0</ele><time>2026-03-24T16:07:16.001Z</time></trkpt><trkpt lat="43.58519084527109" lon="10.490723267746883"><ele>19.666666666666668</ele><time>2026-03-24T16:07:17.001Z</time></trkpt><trkpt lat="43.58500655671384" lon="10.490926654628955"><ele>19.333333333333332</ele><time>2026-03-24T16:07:18.001Z</time></trkpt><trkpt lat="43.58485016739784" lon="10.491100690707384"><ele>19.0</ele><time>2026-03-24T16:07:19.001Z</time></trkpt><trkpt lat="43.58472814620663" lon="10.491236323430815"><ele>18.333333333333332</ele><time>2026-03-24T16:07:20.001Z</time></trkpt><trkpt lat="43.58462504768388" lon="10.491348519982926"><ele>17.666666666666668</ele><time>2026-03-24T16:07:21.001Z</time></trkpt><trkpt lat="43.58450708696375" lon="10.49147705080153"><ele>17.0</ele><time>2026-03-24T16:07:22.001Z</time></trkpt><trkpt lat="43.58437193768831" lon="10.491625135102517"><ele>17.666666666666668</ele><time>2026-03-24T16:07:23.001Z</time></trkpt><trkpt lat="43.58421074302205" lon="10.491801757536459"><ele>18.333333333333332</ele><time>2026-03-24T16:07:24.001Z</time></trkpt><trkpt lat="43.58403339564251" lon="10.491996328042434"><ele>19.0</ele><time>2026-03-24T16:07:25.001Z</time></trkpt><trkpt lat="43.58384777430233" lon="10.492209135303112"><ele>23.0</ele><time>2026-03-24T16:07:26.001Z</time></trkpt><trkpt lat="43.58365756345306" lon="10.492421475745315"><ele>27.0</ele><time>2026-03-24T16:07:27.001Z</time></trkpt><trkpt lat="43.58345393333846" lon="10.492650044167476"><ele>27.0</ele><time>2026-03-24T16:07:28.001Z</time></trkpt><trkpt lat="43.58324046721985" lon="10.492880490682829"><ele>27.0</ele><time>2026-03-24T16:07:29.001Z</time></trkpt><trkpt lat="43.58302349377823" lon="10.493113574369604"><ele>28.0</ele><time>2026-03-24T16:07:30.001Z</time></trkpt><trkpt lat="43.58280403316648" lon="10.493354257925095"><ele>29.0</ele><time>2026-03-24T16:07:31.001Z</time></trkpt><trkpt lat="43.58260091804182" lon="10.493588743482915"><ele>25.5</ele><time>2026-03-24T16:07:32.001Z</time></trkpt><trkpt lat="43.5823987486994" lon="10.493810056841323"><ele>22.0</ele><time>2026-03-24T16:07:33.001Z</time></trkpt><trkpt lat="43.58218478212749" lon="10.494049619332745"><ele>26.0</ele><time>2026-03-24T16:07:34.001Z</time></trkpt><trkpt lat="43.58197188996706" lon="10.494302704528293"><ele>30.0</ele><time>2026-03-24T16:07:35.001Z</time></trkpt><trkpt lat="43.58179231455223" lon="10.494555451940215"><ele>26.5</ele><time>2026-03-24T16:07:36.001Z</time></trkpt><trkpt lat="43.58161891174996" lon="10.494817775380088"><ele>23.0</ele><time>2026-03-24T16:07:37.001Z</time></trkpt><trkpt lat="43.58144069914177" lon="10.495082391745555"><ele>23.0</ele><time>2026-03-24T16:07:38.001Z</time></trkpt><trkpt lat="43.58125529660309" lon="10.495343764034413"><ele>23.0</ele><time>2026-03-24T16:07:39.001Z</time></trkpt><trkpt lat="43.58106924621277" lon="10.495606590825208"><ele>25.5</ele><time>2026-03-24T16:07:40.001Z</time></trkpt><trkpt lat="43.58087992206206" lon="10.495871130952617"><ele>28.0</ele><time>2026-03-24T16:07:41.001Z</time></trkpt><trkpt lat="43.580699099904535" lon="10.496126328181953"><ele>25.5</ele><time>2026-03-24T16:07:42.001Z</time></trkpt><trkpt lat="43.58052682150512" lon="10.49636536650209"><ele>23.0</ele><time>2026-03-24T16:07:43.001Z</time></trkpt><trkpt lat="43.58036082761578" lon="10.496599477548326"><ele>26.0</ele><time>2026-03-24T16:07:44.001Z</time></trkpt><trkpt lat="43.58021745045087" lon="10.49686050701974"><ele>29.0</ele><time>2026-03-24T16:07:45.001Z</time></trkpt><trkpt lat="43.58011214951987" lon="10.497163622665532"><ele>29.0</ele><time>2026-03-24T16:07:46.001Z</time></trkpt><trkpt lat="43.580024444240344" lon="10.497462795845676"><ele>29.0</ele><time>2026-03-24T16:07:47.001Z</time></trkpt><trkpt lat="43.5799357064009" lon="10.497750015565577"><ele>27.666666666666664</ele><time>2026-03-24T16:07:48.001Z</time></trkpt><trkpt lat="43.5798302785093" lon="10.497984867708213"><ele>26.333333333333336</ele><time>2026-03-24T16:07:49.001Z</time></trkpt><trkpt lat="43.579698318842915" lon="10.49819757651692"><ele>25.0</ele><time>2026-03-24T16:07:50.001Z</time></trkpt><trkpt lat="43.57954755982222" lon="10.498451981070195"><ele>26.5</ele><time>2026-03-24T16:07:51.001Z</time></trkpt><trkpt lat="43.57937344845275" lon="10.498704907933616"><ele>28.0</ele><time>2026-03-24T16:07:52.001Z</time></trkpt><trkpt lat="43.57917271279931" lon="10.498941540512105"><ele>28.0</ele><time>2026-03-24T16:07:53.001Z</time></trkpt><trkpt lat="43.57897351726662" lon="10.4991770796462"><ele>28.0</ele><time>2026-03-24T16:07:54.001Z</time></trkpt><trkpt lat="43.578795473217006" lon="10.499367351843922"><ele>27.333333333333336</ele><time>2026-03-24T16:07:55.001Z</time></trkpt><trkpt lat="43.578613101960585" lon="10.49949495004881"><ele>26.666666666666664</ele><time>2026-03-24T16:07:56.001Z</time></trkpt><trkpt lat="43.5784105100535" lon="10.499583408038047"><ele>26.0</ele><time>2026-03-24T16:07:57.001Z</time></trkpt><trkpt lat="43.578179667818276" lon="10.499697574455702"><ele>26.0</ele><time>2026-03-24T16:07:58.001Z</time></trkpt><trkpt lat="43.57792685168205" lon="10.499800286875166"><ele>26.0</ele><time>2026-03-24T16:07:59.001Z</time></trkpt><trkpt lat="43.57765763801896" lon="10.499891620167094"><ele>27.0</ele><time>2026-03-24T16:08:00.001Z</time></trkpt><trkpt lat="43.57738840882636" lon="10.500005293811622"><ele>28.0</ele><time>2026-03-24T16:08:01.001Z</time></trkpt><trkpt lat="43.57712394442449" lon="10.500141644852647"><ele>32.5</ele><time>2026-03-24T16:08:02.001Z</time></trkpt><trkpt lat="43.57684984685817" lon="10.50025273113075"><ele>37.0</ele><time>2026-03-24T16:08:03.001Z</time></trkpt><trkpt lat="43.576581714437204" lon="10.500368280267596"><ele>32.0</ele><time>2026-03-24T16:08:04.001Z</time></trkpt><trkpt lat="43.576344666309424" lon="10.500468744591148"><ele>27.0</ele><time>2026-03-24T16:08:05.001Z</time></trkpt><trkpt lat="43.57614802155198" lon="10.500531687762184"><ele>27.0</ele><time>2026-03-24T16:08:06.001Z</time></trkpt><trkpt lat="43.57600530906595" lon="10.500591397270513"><ele>27.0</ele><time>2026-03-24T16:08:07.001Z</time></trkpt><trkpt lat="43.5758938677827" lon="10.500638023213924"><ele>27.0</ele><time>2026-03-24T16:08:08.001Z</time></trkpt><trkpt lat="43.57584697474863" lon="10.50092048151007"><ele>27.0</ele><time>2026-03-24T16:08:09.001Z</time></trkpt><trkpt lat="43.5758170475775" lon="10.501153028053595"><ele>27.0</ele><time>2026-03-24T16:08:10.001Z</time></trkpt><trkpt lat="43.57580776275161" lon="10.501424596932392"><ele>27.0</ele><time>2026-03-24T16:08:11.001Z</time></trkpt><trkpt lat="43.575797914630044" lon="10.501702108842542"><ele>27.333333333333336</ele><time>2026-03-24T16:08:12.001Z</time></trkpt><trkpt lat="43.575785690870646" lon="10.501966809143623"><ele>27.666666666666668</ele><time>2026-03-24T16:08:13.001Z</time></trkpt><trkpt lat="43.57577184838974" lon="10.50220175536254"><ele>28.0</ele><time>2026-03-24T16:08:14.001Z</time></trkpt><trkpt lat="43.575752270676894" lon="10.502414132032946"><ele>28.75</ele><time>2026-03-24T16:08:15.001Z</time></trkpt><trkpt lat="43.575697199411344" lon="10.502599982545929"><ele>29.5</ele><time>2026-03-24T16:08:16.001Z</time></trkpt><trkpt lat="43.575589944140305" lon="10.502723011892119"><ele>30.25</ele><time>2026-03-24T16:08:17.001Z</time></trkpt><trkpt lat="43.57544285890955" lon="10.502775149689157"><ele>31.0</ele><time>2026-03-24T16:08:18.001Z</time></trkpt><trkpt lat="43.575268563998144" lon="10.502778039123207"><ele>32.333333333333336</ele><time>2026-03-24T16:08:19.001Z</time></trkpt><trkpt lat="43.57507130757752" lon="10.502767609936523"><ele>33.666666666666664</ele><time>2026-03-24T16:08:20Z</time></trkpt><trkpt lat="43.574867881704314" lon="10.50276902776658"><ele>35.0</ele><time>2026-03-24T16:08:21Z</time></trkpt><trkpt lat="43.57465972827382" lon="10.50278052735269"><ele>35.25</ele><time>2026-03-24T16:08:22Z</time></trkpt><trkpt lat="43.57448950093251" lon="10.502795777268156"><ele>35.5</ele><time>2026-03-24T16:08:23Z</time></trkpt><trkpt lat="43.574364077194694" lon="10.502818694523603"><ele>35.75</ele><time>2026-03-24T16:08:24Z</time></trkpt><trkpt lat="43.57426923338861" lon="10.502878996840149"><ele>36.0</ele><time>2026-03-24T16:08:25Z</time></trkpt><trkpt lat="43.57421704782393" lon="10.503007033596987"><ele>36.0</ele><time>2026-03-24T16:08:26Z</time></trkpt><trkpt lat="43.57422796226692" lon="10.503157324071864"><ele>36.0</ele><time>2026-03-24T16:08:27Z</time></trkpt><trkpt lat="43.57429122822429" lon="10.503294127699375"><ele>36.0</ele><time>2026-03-24T16:08:28Z</time></trkpt><trkpt lat="43.574392536361366" lon="10.503382674024733"><ele>36.0</ele><time>2026-03-24T16:08:29Z</time></trkpt><trkpt lat="43.5745292434209" lon="10.503417329111926"><ele>37.25</ele><time>2026-03-24T16:08:30Z</time></trkpt><trkpt lat="43.57468618336649" lon="10.503421339006486"><ele>38.5</ele><time>2026-03-24T16:08:31Z</time></trkpt><trkpt lat="43.57481508262066" lon="10.503432771972955"><ele>39.75</ele><time>2026-03-24T16:08:32Z</time></trkpt><trkpt lat="43.57490391615288" lon="10.503481840921392"><ele>41.0</ele><time>2026-03-24T16:08:33Z</time></trkpt><trkpt lat="43.574976284947006" lon="10.50358890204927"><ele>41.0</ele><time>2026-03-24T16:08:34Z</time></trkpt><trkpt lat="43.57500551721879" lon="10.503741123711805"><ele>41.0</ele><time>2026-03-24T16:08:35Z</time></trkpt><trkpt lat="43.57497325307123" lon="10.503899190054282"><ele>41.0</ele><time>2026-03-24T16:08:36Z</time></trkpt><trkpt lat="43.57489684799209" lon="10.50406377074309"><ele>41.0</ele><time>2026-03-24T16:08:37Z</time></trkpt><trkpt lat="43.574811298690555" lon="10.504250704063828"><ele>43.0</ele><time>2026-03-24T16:08:38Z</time></trkpt><trkpt lat="43.57472351239055" lon="10.504469472284415"><ele>45.0</ele><time>2026-03-24T16:08:39Z</time></trkpt><trkpt lat="43.574636915377575" lon="10.504706676996895"><ele>47.0</ele><time>2026-03-24T16:08:40Z</time></trkpt><trkpt lat="43.57454300635959" lon="10.504950470231012"><ele>48.0</ele><time>2026-03-24T16:08:41Z</time></trkpt><trkpt lat="43.57444432659703" lon="10.5052113859098"><ele>49.0</ele><time>2026-03-24T16:08:42Z</time></trkpt><trkpt lat="43.57434379425823" lon="10.505477486709626"><ele>50.0</ele><time>2026-03-24T16:08:43Z</time></trkpt><trkpt lat="43.57423968168792" lon="10.505758519230397"><ele>52.333333333333336</ele><time>2026-03-24T16:08:44Z</time></trkpt><trkpt lat="43.574154667244905" lon="10.506040974745165"><ele>54.66666666666667</ele><time>2026-03-24T16:08:45Z</time></trkpt><trkpt lat="43.57409174640492" lon="10.50629966885301"><ele>57.0</ele><time>2026-03-24T16:08:46Z</time></trkpt><trkpt lat="43.57403086432864" lon="10.506528186422276"><ele>58.0</ele><time>2026-03-24T16:08:47Z</time></trkpt><trkpt lat="43.573955385383314" lon="10.506718719746408"><ele>59.0</ele><time>2026-03-24T16:08:48Z</time></trkpt><trkpt lat="43.5738605139123" lon="10.50686508684398"><ele>60.0</ele><time>2026-03-24T16:08:49Z</time></trkpt><trkpt lat="43.57373597227622" lon="10.506966551351086"><ele>61.0</ele><time>2026-03-24T16:08:50Z</time></trkpt><trkpt lat="43.57358566940993" lon="10.507051753294277"><ele>62.0</ele><time>2026-03-24T16:08:51Z</time></trkpt><trkpt lat="43.57343224936661" lon="10.507137515451074"><ele>63.0</ele><time>2026-03-24T16:08:52Z</time></trkpt><trkpt lat="43.57330790486484" lon="10.507209205003475"><ele>64.0</ele><time>2026-03-24T16:08:53Z</time></trkpt><trkpt lat="43.5731988633638" lon="10.507272750345864"><ele>65.0</ele><time>2026-03-24T16:08:54Z</time></trkpt><trkpt lat="43.573087873364976" lon="10.507347849283247"><ele>65.0</ele><time>2026-03-24T16:08:55Z</time></trkpt><trkpt lat="43.57297189454661" lon="10.507435896653172"><ele>65.0</ele><time>2026-03-24T16:08:56Z</time></trkpt><trkpt lat="43.572851167738186" lon="10.50751769560258"><ele>65.0</ele><time>2026-03-24T16:08:57Z</time></trkpt><trkpt lat="43.572730701671404" lon="10.507586224046998"><ele>65.0</ele><time>2026-03-24T16:08:58Z</time></trkpt><trkpt lat="43.57259739605006" lon="10.507656102014396"><ele>65.66666666666667</ele><time>2026-03-24T16:08:59Z</time></trkpt><trkpt lat="43.57245706475085" lon="10.507752219511604"><ele>66.33333333333333</ele><time>2026-03-24T16:09:00Z</time></trkpt><trkpt lat="43.572319722225096" lon="10.507852755469292"><ele>67.0</ele><time>2026-03-24T16:09:01Z</time></trkpt><trkpt lat="43.572195704895194" lon="10.507959707484728"><ele>64.66666666666666</ele><time>2026-03-24T16:09:02Z</time></trkpt><trkpt lat="43.57207711487842" lon="10.508077849102436"><ele>62.33333333333333</ele><time>2026-03-24T16:09:03Z</time></trkpt><trkpt lat="43.57196266546483" lon="10.50822775167795"><ele>60.0</ele><time>2026-03-24T16:09:04Z</time></trkpt><trkpt lat="43.57184237312227" lon="10.50843475569381"><ele>63.0</ele><time>2026-03-24T16:09:05Z</time></trkpt><trkpt lat="43.57173502187599" lon="10.508666853644147"><ele>66.0</ele><time>2026-03-24T16:09:06Z</time></trkpt><trkpt lat="43.57163604281851" lon="10.5089299828029"><ele>69.0</ele><time>2026-03-24T16:09:07Z</time></trkpt><trkpt lat="43.571547837242754" lon="10.509201025200278"><ele>69.0</ele><time>2026-03-24T16:09:08Z</time></trkpt><trkpt lat="43.57147585648064" lon="10.509470173722177"><ele>69.0</ele><time>2026-03-24T16:09:09Z</time></trkpt><trkpt lat="43.571428246751275" lon="10.509749360223955"><ele>69.0</ele><time>2026-03-24T16:09:10Z</time></trkpt><trkpt lat="43.57141502944054" lon="10.510042302154442"><ele>69.66666666666667</ele><time>2026-03-24T16:09:11Z</time></trkpt><trkpt lat="43.57142738102669" lon="10.510309662213816"><ele>70.33333333333334</ele><time>2026-03-24T16:09:12Z</time></trkpt><trkpt lat="43.57141481180652" lon="10.510557066455961"><ele>71.0</ele><time>2026-03-24T16:09:13Z</time></trkpt><trkpt lat="43.571349135604336" lon="10.510831025692434"><ele>73.66666666666667</ele><time>2026-03-24T16:09:14Z</time></trkpt><trkpt lat="43.571312516393874" lon="10.51113171257872"><ele>76.33333333333333</ele><time>2026-03-24T16:09:15Z</time></trkpt><trkpt lat="43.571279199386765" lon="10.51143755942409"><ele>79.0</ele><time>2026-03-24T16:09:16Z</time></trkpt><trkpt lat="43.571268903951676" lon="10.511736739291036"><ele>79.0</ele><time>2026-03-24T16:09:17Z</time></trkpt><trkpt lat="43.57125192361285" lon="10.512052364414703"><ele>79.0</ele><time>2026-03-24T16:09:18Z</time></trkpt><trkpt lat="43.57118968924708" lon="10.51235870640869"><ele>80.66666666666666</ele><time>2026-03-24T16:09:19Z</time></trkpt><trkpt lat="43.57114247518783" lon="10.512637864996881"><ele>82.33333333333333</ele><time>2026-03-24T16:09:20Z</time></trkpt><trkpt lat="43.57110329279262" lon="10.512880224001853"><ele>84.0</ele><time>2026-03-24T16:09:21Z</time></trkpt><trkpt lat="43.57108058148877" lon="10.513094330487048"><ele>85.75</ele><time>2026-03-24T16:09:22Z</time></trkpt><trkpt lat="43.57104630313671" lon="10.513281878050687"><ele>87.5</ele><time>2026-03-24T16:09:23Z</time></trkpt><trkpt lat="43.57098001144684" lon="10.513459636343002"><ele>89.25</ele><time>2026-03-24T16:09:24Z</time></trkpt><trkpt lat="43.57088855145374" lon="10.513619310346654"><ele>91.0</ele><time>2026-03-24T16:09:25Z</time></trkpt><trkpt lat="43.570798489431716" lon="10.51374803079767"><ele>91.0</ele><time>2026-03-24T16:09:26.001Z</time></trkpt><trkpt lat="43.57075070276435" lon="10.513832333285627"><ele>91.0</ele><time>2026-03-24T16:09:27.001Z</time></trkpt><trkpt lat="43.570633449015624" lon="10.513871106202542"><ele>91.0</ele><time>2026-03-24T16:09:29.001Z</time></trkpt><trkpt lat="43.570534731666825" lon="10.513896885436054"><ele>91.0</ele><time>2026-03-24T16:09:30.001Z</time></trkpt><trkpt lat="43.57043317488821" lon="10.51395411278888"><ele>91.0</ele><time>2026-03-24T16:09:31.001Z</time></trkpt><trkpt lat="43.570353502129606" lon="10.514048362544516"><ele>91.25</ele><time>2026-03-24T16:09:32.001Z</time></trkpt><trkpt lat="43.570302774720325" lon="10.514190833127385"><ele>91.5</ele><time>2026-03-24T16:09:33.001Z</time></trkpt><trkpt lat="43.570262817888235" lon="10.514362664157721"><ele>91.75</ele><time>2026-03-24T16:09:34.001Z</time></trkpt><trkpt lat="43.570226072428596" lon="10.514553064332132"><ele>92.0</ele><time>2026-03-24T16:09:35.001Z</time></trkpt><trkpt lat="43.570170777537584" lon="10.514718089469415"><ele>91.5</ele><time>2026-03-24T16:09:36.001Z</time></trkpt><trkpt lat="43.570141180099654" lon="10.514881724689147"><ele>91.0</ele><time>2026-03-24T16:09:37.001Z</time></trkpt><trkpt lat="43.57009199253834" lon="10.515039205882882"><ele>90.5</ele><time>2026-03-24T16:09:38.001Z</time></trkpt><trkpt lat="43.570049053266146" lon="10.515191160251586"><ele>90.0</ele><time>2026-03-24T16:09:39.001Z</time></trkpt><trkpt lat="43.56999706599011" lon="10.515350693092165"><ele>89.5</ele><time>2026-03-24T16:09:40.001Z</time></trkpt><trkpt lat="43.56995470947057" lon="10.51553115638221"><ele>89.0</ele><time>2026-03-24T16:09:41.001Z</time></trkpt><trkpt lat="43.56990170636797" lon="10.515704099952044"><ele>88.5</ele><time>2026-03-24T16:09:42.001Z</time></trkpt><trkpt lat="43.56985532076734" lon="10.515879648880357"><ele>88.0</ele><time>2026-03-24T16:09:43.001Z</time></trkpt><trkpt lat="43.56980439680661" lon="10.516072279392377"><ele>88.0</ele><time>2026-03-24T16:09:44.001Z</time></trkpt><trkpt lat="43.569753385779535" lon="10.516257245216439"><ele>88.0</ele><time>2026-03-24T16:09:45.001Z</time></trkpt><trkpt lat="43.56970531556455" lon="10.516431547640241"><ele>88.0</ele><time>2026-03-24T16:09:46.001Z</time></trkpt><trkpt lat="43.56966073821132" lon="10.516598969809072"><ele>88.0</ele><time>2026-03-24T16:09:47.001Z</time></trkpt><trkpt lat="43.56963522341116" lon="10.516759300545614"><ele>88.0</ele><time>2026-03-24T16:09:48.001Z</time></trkpt><trkpt lat="43.569591796047426" lon="10.516901049197834"><ele>88.0</ele><time>2026-03-24T16:09:49.001Z</time></trkpt><trkpt lat="43.569531591674036" lon="10.517022144046555"><ele>88.0</ele><time>2026-03-24T16:09:50.001Z</time></trkpt><trkpt lat="43.56946195017926" lon="10.517101086217963"><ele>88.0</ele><time>2026-03-24T16:09:51.001Z</time></trkpt><trkpt lat="43.56938570142505" lon="10.517139391827873"><ele>88.0</ele><time>2026-03-24T16:09:52.001Z</time></trkpt><trkpt lat="43.569302656777005" lon="10.517154614134094"><ele>88.0</ele><time>2026-03-24T16:09:53.001Z</time></trkpt><trkpt lat="43.5692370788343" lon="10.517175682083018"><ele>88.0</ele><time>2026-03-24T16:09:54.001Z</time></trkpt><trkpt lat="43.56922520448219" lon="10.517358418121663"><ele>88.0</ele><time>2026-03-24T16:09:56.001Z</time></trkpt><trkpt lat="43.56926979351134" lon="10.517506365734196"><ele>88.0</ele><time>2026-03-24T16:09:57.001Z</time></trkpt><trkpt lat="43.56932681504299" lon="10.517692003394403"><ele>91.0</ele><time>2026-03-24T16:09:58.001Z</time></trkpt><trkpt lat="43.56938086244041" lon="10.517902576243007"><ele>94.0</ele><time>2026-03-24T16:09:59.001Z</time></trkpt><trkpt lat="43.5694384780805" lon="10.51810041549304"><ele>97.0</ele><time>2026-03-24T16:10:00.001Z</time></trkpt><trkpt lat="43.56951917209349" lon="10.518276714367929"><ele>94.66666666666667</ele><time>2026-03-24T16:10:01.001Z</time></trkpt><trkpt lat="43.569613517571696" lon="10.518455229741548"><ele>92.33333333333334</ele><time>2026-03-24T16:10:02.001Z</time></trkpt><trkpt lat="43.569742480497816" lon="10.518624992415676"><ele>90.0</ele><time>2026-03-24T16:10:03.001Z</time></trkpt><trkpt lat="43.56985580400685" lon="10.51883980740799"><ele>90.0</ele><time>2026-03-24T16:10:04.001Z</time></trkpt><trkpt lat="43.56998357391705" lon="10.519048918586911"><ele>90.0</ele><time>2026-03-24T16:10:05.001Z</time></trkpt><trkpt lat="43.5701215064468" lon="10.519255373784981"><ele>90.0</ele><time>2026-03-24T16:10:06.001Z</time></trkpt><trkpt lat="43.57025809664984" lon="10.519479573700602"><ele>85.0</ele><time>2026-03-24T16:10:07.001Z</time></trkpt><trkpt lat="43.57039409832687" lon="10.519709958986832"><ele>80.0</ele><time>2026-03-24T16:10:08.001Z</time></trkpt><trkpt lat="43.57053635457874" lon="10.519943067747034"><ele>75.0</ele><time>2026-03-24T16:10:09.001Z</time></trkpt><trkpt lat="43.5706739612186" lon="10.52017832799279"><ele>75.66666666666667</ele><time>2026-03-24T16:10:10.001Z</time></trkpt><trkpt lat="43.57080498470745" lon="10.52041709086591"><ele>76.33333333333334</ele><time>2026-03-24T16:10:11.001Z</time></trkpt><trkpt lat="43.57094108431939" lon="10.520629425449357"><ele>77.0</ele><time>2026-03-24T16:10:12.001Z</time></trkpt><trkpt lat="43.571100721045234" lon="10.5207848521457"><ele>75.0</ele><time>2026-03-24T16:10:13.001Z</time></trkpt><trkpt lat="43.57128075658545" lon="10.520869778761224"><ele>73.0</ele><time>2026-03-24T16:10:14.001Z</time></trkpt><trkpt lat="43.571491671160175" lon="10.52092678917946"><ele>71.0</ele><time>2026-03-24T16:10:15.001Z</time></trkpt><trkpt lat="43.571729958342964" lon="10.520997292551264"><ele>71.0</ele><time>2026-03-24T16:10:16.001Z</time></trkpt><trkpt lat="43.57197196402131" lon="10.521101937767794"><ele>71.0</ele><time>2026-03-24T16:10:17.001Z</time></trkpt><trkpt lat="43.572221995625696" lon="10.52121273463778"><ele>73.5</ele><time>2026-03-24T16:10:18.001Z</time></trkpt><trkpt lat="43.572478405849225" lon="10.52131229893124"><ele>76.0</ele><time>2026-03-24T16:10:19.001Z</time></trkpt><trkpt lat="43.57274484321171" lon="10.52141810717747"><ele>71.0</ele><time>2026-03-24T16:10:20.001Z</time></trkpt><trkpt lat="43.57301770704018" lon="10.521526261387587"><ele>66.0</ele><time>2026-03-24T16:10:21.001Z</time></trkpt><trkpt lat="43.57329245165229" lon="10.52163698480923"><ele>66.0</ele><time>2026-03-24T16:10:22.001Z</time></trkpt><trkpt lat="43.57355880265836" lon="10.521745228991403"><ele>66.0</ele><time>2026-03-24T16:10:23.001Z</time></trkpt><trkpt lat="43.57380852303709" lon="10.521849840014358"><ele>61.0</ele><time>2026-03-24T16:10:24.001Z</time></trkpt><trkpt lat="43.574032040438134" lon="10.521940525493656"><ele>56.0</ele><time>2026-03-24T16:10:25.001Z</time></trkpt><trkpt lat="43.57424384926345" lon="10.522035453209753"><ele>54.0</ele><time>2026-03-24T16:10:26Z</time></trkpt><trkpt lat="43.57442821322109" lon="10.522184824142283"><ele>52.0</ele><time>2026-03-24T16:10:27Z</time></trkpt><trkpt lat="43.57458764954835" lon="10.522331157795428"><ele>50.0</ele><time>2026-03-24T16:10:28Z</time></trkpt><trkpt lat="43.57472177205184" lon="10.52245482003216"><ele>50.0</ele><time>2026-03-24T16:10:29Z</time></trkpt><trkpt lat="43.574799259708875" lon="10.522621378726289"><ele>50.0</ele><time>2026-03-24T16:10:30Z</time></trkpt><trkpt lat="43.574858308189654" lon="10.522793775393993"><ele>50.0</ele><time>2026-03-24T16:10:31Z</time></trkpt><trkpt lat="43.57483683487358" lon="10.522972231860598"><ele>50.0</ele><time>2026-03-24T16:10:32Z</time></trkpt><trkpt lat="43.57478189341266" lon="10.523115114532661"><ele>50.0</ele><time>2026-03-24T16:10:33Z</time></trkpt><trkpt lat="43.57469655879115" lon="10.523245255467307"><ele>50.0</ele><time>2026-03-24T16:10:34Z</time></trkpt><trkpt lat="43.57456990618472" lon="10.523409869728255"><ele>50.0</ele><time>2026-03-24T16:10:35Z</time></trkpt><trkpt lat="43.57442671567132" lon="10.523619362907226"><ele>50.0</ele><time>2026-03-24T16:10:36Z</time></trkpt><trkpt lat="43.574266696467376" lon="10.523822832635943"><ele>50.0</ele><time>2026-03-24T16:10:37Z</time></trkpt><trkpt lat="43.57411791445509" lon="10.524004705404337"><ele>50.0</ele><time>2026-03-24T16:10:38Z</time></trkpt><trkpt lat="43.57396621982073" lon="10.524137035207124"><ele>50.0</ele><time>2026-03-24T16:10:39Z</time></trkpt><trkpt lat="43.57377307717107" lon="10.524254637534142"><ele>50.0</ele><time>2026-03-24T16:10:40Z</time></trkpt><trkpt lat="43.573625413740274" lon="10.524375872810921"><ele>50.0</ele><time>2026-03-24T16:10:41Z</time></trkpt><trkpt lat="43.57350381838863" lon="10.524458869060748"><ele>49.0</ele><time>2026-03-24T16:10:42Z</time></trkpt><trkpt lat="43.573416516589944" lon="10.524570278889097"><ele>48.0</ele><time>2026-03-24T16:10:43Z</time></trkpt><trkpt lat="43.573379233929785" lon="10.524745570134746"><ele>47.0</ele><time>2026-03-24T16:10:44Z</time></trkpt><trkpt lat="43.57341131780266" lon="10.52495560465603"><ele>46.0</ele><time>2026-03-24T16:10:45Z</time></trkpt><trkpt lat="43.573499628470664" lon="10.525163172975558"><ele>46.0</ele><time>2026-03-24T16:10:46Z</time></trkpt><trkpt lat="43.57361171986137" lon="10.525389237073703"><ele>46.0</ele><time>2026-03-24T16:10:47Z</time></trkpt><trkpt lat="43.57371702094551" lon="10.525627038285878"><ele>46.0</ele><time>2026-03-24T16:10:48Z</time></trkpt><trkpt lat="43.57381227478545" lon="10.525864687538181"><ele>47.333333333333336</ele><time>2026-03-24T16:10:49Z</time></trkpt><trkpt lat="43.57386958859305" lon="10.526116986539387"><ele>48.66666666666667</ele><time>2026-03-24T16:10:50Z</time></trkpt><trkpt lat="43.573912321574944" lon="10.526390517247632"><ele>50.0</ele><time>2026-03-24T16:10:51Z</time></trkpt><trkpt lat="43.57392868264089" lon="10.526675283835008"><ele>49.5</ele><time>2026-03-24T16:10:52Z</time></trkpt><trkpt lat="43.5739268629941" lon="10.526976506609206"><ele>49.0</ele><time>2026-03-24T16:10:53Z</time></trkpt><trkpt lat="43.57389503494901" lon="10.527302083407136"><ele>49.0</ele><time>2026-03-24T16:10:54Z</time></trkpt><trkpt lat="43.57383284548468" lon="10.527598552654666"><ele>49.0</ele><time>2026-03-24T16:10:55Z</time></trkpt><trkpt lat="43.57375075786654" lon="10.527862758230281"><ele>49.0</ele><time>2026-03-24T16:10:56Z</time></trkpt><trkpt lat="43.573639703575026" lon="10.528159594966882"><ele>43.0</ele><time>2026-03-24T16:10:57Z</time></trkpt><trkpt lat="43.573524553511064" lon="10.52849856212577"><ele>37.0</ele><time>2026-03-24T16:10:58Z</time></trkpt><trkpt lat="43.5733868360984" lon="10.528851309383839"><ele>35.5</ele><time>2026-03-24T16:10:59Z</time></trkpt><trkpt lat="43.57325221003369" lon="10.52921343478556"><ele>34.0</ele><time>2026-03-24T16:11:00Z</time></trkpt><trkpt lat="43.57311632453759" lon="10.529585547471061"><ele>33.5</ele><time>2026-03-24T16:11:01Z</time></trkpt><trkpt lat="43.572961323039124" lon="10.529951732706579"><ele>33.0</ele><time>2026-03-24T16:11:02Z</time></trkpt><trkpt lat="43.572818513329054" lon="10.530326782391192"><ele>34.0</ele><time>2026-03-24T16:11:03Z</time></trkpt><trkpt lat="43.57267509495682" lon="10.530701671622666"><ele>35.0</ele><time>2026-03-24T16:11:04.001Z</time></trkpt><trkpt lat="43.57254619497" lon="10.531085343104296"><ele>34.5</ele><time>2026-03-24T16:11:05.001Z</time></trkpt><trkpt lat="43.57239929231307" lon="10.531466627255146"><ele>34.0</ele><time>2026-03-24T16:11:06.001Z</time></trkpt><trkpt lat="43.572256304269416" lon="10.531842804340469"><ele>34.0</ele><time>2026-03-24T16:11:07.001Z</time></trkpt><trkpt lat="43.572109886179355" lon="10.532226087133095"><ele>34.0</ele><time>2026-03-24T16:11:08.001Z</time></trkpt><trkpt lat="43.57196855952396" lon="10.532603822139759"><ele>34.5</ele><time>2026-03-24T16:11:09.001Z</time></trkpt><trkpt lat="43.57183578845585" lon="10.53295113099318"><ele>35.0</ele><time>2026-03-24T16:11:10.001Z</time></trkpt><trkpt lat="43.57171357213558" lon="10.533272177539645"><ele>35.0</ele><time>2026-03-24T16:11:11.001Z</time></trkpt><trkpt lat="43.57160017740593" lon="10.533571134357215"><ele>35.0</ele><time>2026-03-24T16:11:12.001Z</time></trkpt><trkpt lat="43.57149591344778" lon="10.533842415941516"><ele>34.33333333333333</ele><time>2026-03-24T16:11:13.001Z</time></trkpt><trkpt lat="43.571401646166294" lon="10.534088531585972"><ele>33.666666666666664</ele><time>2026-03-24T16:11:14.001Z</time></trkpt><trkpt lat="43.57131891518567" lon="10.534310004194442"><ele>33.0</ele><time>2026-03-24T16:11:15.001Z</time></trkpt><trkpt lat="43.57124327712192" lon="10.534502802119995"><ele>33.4</ele><time>2026-03-24T16:11:16.001Z</time></trkpt><trkpt lat="43.571169407190695" lon="10.534666843899785"><ele>33.8</ele><time>2026-03-24T16:11:17.001Z</time></trkpt><trkpt lat="43.57112274375144" lon="10.534823251480237"><ele>34.2</ele><time>2026-03-24T16:11:18.001Z</time></trkpt><trkpt lat="43.57109129989287" lon="10.5349327563792"><ele>34.6</ele><time>2026-03-24T16:11:19.001Z</time></trkpt><trkpt lat="43.571055229800145" lon="10.53501396269341"><ele>35.0</ele><time>2026-03-24T16:11:20.001Z</time></trkpt><trkpt lat="43.571023597025764" lon="10.535118338446528"><ele>35.0</ele><time>2026-03-24T16:11:22.001Z</time></trkpt><trkpt lat="43.57093182943662" lon="10.535093113370865"><ele>35.0</ele><time>2026-03-24T16:11:25.001Z</time></trkpt><trkpt lat="43.57080264001507" lon="10.535075659809003"><ele>35.0</ele><time>2026-03-24T16:11:34.001Z</time></trkpt><trkpt lat="43.570693734020345" lon="10.535026376804426"><ele>35.0</ele><time>2026-03-24T16:11:35.001Z</time></trkpt><trkpt lat="43.57056534988795" lon="10.53495335817282"><ele>35.0</ele><time>2026-03-24T16:11:36.001Z</time></trkpt><trkpt lat="43.570417467181464" lon="10.534860160795747"><ele>35.0</ele><time>2026-03-24T16:11:37.001Z</time></trkpt><trkpt lat="43.570256693302184" lon="10.534758934727702"><ele>35.0</ele><time>2026-03-24T16:11:38.001Z</time></trkpt><trkpt lat="43.57008190779024" lon="10.534634343151767"><ele>36.33333333333333</ele><time>2026-03-24T16:11:39.001Z</time></trkpt><trkpt lat="43.56990007470996" lon="10.53449335536088"><ele>37.666666666666664</ele><time>2026-03-24T16:11:40.001Z</time></trkpt><trkpt lat="43.56971297938352" lon="10.5343455636103"><ele>39.0</ele><time>2026-03-24T16:11:41.001Z</time></trkpt><trkpt lat="43.569520669811936" lon="10.534190524375404"><ele>39.666666666666664</ele><time>2026-03-24T16:11:42.001Z</time></trkpt><trkpt lat="43.569335078723576" lon="10.534042172434257"><ele>40.33333333333333</ele><time>2026-03-24T16:11:43.001Z</time></trkpt><trkpt lat="43.56914861847545" lon="10.533892786255599"><ele>41.0</ele><time>2026-03-24T16:11:44.001Z</time></trkpt><trkpt lat="43.56896033330147" lon="10.53375716747112"><ele>40.666666666666664</ele><time>2026-03-24T16:11:45.001Z</time></trkpt><trkpt lat="43.56876894612319" lon="10.533634624364057"><ele>40.333333333333336</ele><time>2026-03-24T16:11:46.001Z</time></trkpt><trkpt lat="43.56857323767947" lon="10.53354288731625"><ele>40.0</ele><time>2026-03-24T16:11:47.001Z</time></trkpt><trkpt lat="43.56837001110234" lon="10.533485453190133"><ele>40.0</ele><time>2026-03-24T16:11:48.001Z</time></trkpt><trkpt lat="43.56816682519027" lon="10.533456958798283"><ele>40.0</ele><time>2026-03-24T16:11:49.001Z</time></trkpt><trkpt lat="43.56796063347137" lon="10.533440138436388"><ele>40.0</ele><time>2026-03-24T16:11:50.001Z</time></trkpt><trkpt lat="43.56775347965051" lon="10.533443634794708"><ele>39.0</ele><time>2026-03-24T16:11:51.001Z</time></trkpt><trkpt lat="43.567540490161264" lon="10.533455619145382"><ele>38.0</ele><time>2026-03-24T16:11:52.001Z</time></trkpt><trkpt lat="43.56732868732912" lon="10.53345795457798"><ele>37.0</ele><time>2026-03-24T16:11:53.001Z</time></trkpt><trkpt lat="43.56711391660692" lon="10.533449134559682"><ele>37.0</ele><time>2026-03-24T16:11:54.001Z</time></trkpt><trkpt lat="43.56688849030529" lon="10.533440745499965"><ele>37.0</ele><time>2026-03-24T16:11:55.001Z</time></trkpt><trkpt lat="43.56665116385029" lon="10.533437819487267"><ele>37.0</ele><time>2026-03-24T16:11:56.001Z</time></trkpt><trkpt lat="43.56640408742844" lon="10.533433705919068"><ele>37.0</ele><time>2026-03-24T16:11:57.001Z</time></trkpt><trkpt lat="43.56615760434614" lon="10.53342878000633"><ele>36.5</ele><time>2026-03-24T16:11:58.001Z</time></trkpt><trkpt lat="43.5659170396252" lon="10.533425084780664"><ele>36.0</ele><time>2026-03-24T16:11:59.001Z</time></trkpt><trkpt lat="43.56568284702075" lon="10.533423955871296"><ele>36.0</ele><time>2026-03-24T16:12:00.001Z</time></trkpt><trkpt lat="43.5654531416821" lon="10.533446763609142"><ele>36.0</ele><time>2026-03-24T16:12:01.001Z</time></trkpt><trkpt lat="43.56522967817785" lon="10.533526601897108"><ele>35.0</ele><time>2026-03-24T16:12:02.001Z</time></trkpt><trkpt lat="43.56501368701196" lon="10.533669987180177"><ele>34.0</ele><time>2026-03-24T16:12:03.001Z</time></trkpt><trkpt lat="43.56479712831319" lon="10.533872135902056"><ele>34.0</ele><time>2026-03-24T16:12:04.001Z</time></trkpt><trkpt lat="43.56459071353362" lon="10.534094798154408"><ele>34.0</ele><time>2026-03-24T16:12:05.001Z</time></trkpt><trkpt lat="43.564402343854304" lon="10.534286213802496"><ele>34.0</ele><time>2026-03-24T16:12:06.001Z</time></trkpt><trkpt lat="43.56422620632264" lon="10.534454504095288"><ele>34.0</ele><time>2026-03-24T16:12:07.001Z</time></trkpt><trkpt lat="43.5640572269209" lon="10.534609611913497"><ele>34.0</ele><time>2026-03-24T16:12:08.001Z</time></trkpt><trkpt lat="43.56389301874403" lon="10.534767448008779"><ele>34.0</ele><time>2026-03-24T16:12:09.001Z</time></trkpt><trkpt lat="43.563731128885266" lon="10.534927572174471"><ele>34.0</ele><time>2026-03-24T16:12:10.001Z</time></trkpt><trkpt lat="43.56356146513392" lon="10.535088783542308"><ele>34.0</ele><time>2026-03-24T16:12:11.001Z</time></trkpt><trkpt lat="43.56335390148048" lon="10.535230826898315"><ele>34.5</ele><time>2026-03-24T16:12:12.001Z</time></trkpt><trkpt lat="43.56313278591635" lon="10.535392402884392"><ele>35.0</ele><time>2026-03-24T16:12:13.001Z</time></trkpt><trkpt lat="43.56288316222822" lon="10.535566922977091"><ele>35.0</ele><time>2026-03-24T16:12:14.001Z</time></trkpt><trkpt lat="43.56263011244427" lon="10.535754004249178"><ele>35.0</ele><time>2026-03-24T16:12:15.001Z</time></trkpt><trkpt lat="43.5623633731679" lon="10.535946526292904"><ele>35.0</ele><time>2026-03-24T16:12:16.001Z</time></trkpt><trkpt lat="43.56209591116337" lon="10.536136451424879"><ele>35.0</ele><time>2026-03-24T16:12:17.001Z</time></trkpt><trkpt lat="43.56183351819005" lon="10.536338006652917"><ele>36.5</ele><time>2026-03-24T16:12:18.001Z</time></trkpt><trkpt lat="43.56156185035703" lon="10.536521968165788"><ele>38.0</ele><time>2026-03-24T16:12:19.001Z</time></trkpt><trkpt lat="43.56130831567389" lon="10.53670225371046"><ele>39.0</ele><time>2026-03-24T16:12:20.001Z</time></trkpt><trkpt lat="43.561080867094" lon="10.536868969629296"><ele>40.0</ele><time>2026-03-24T16:12:21.001Z</time></trkpt><trkpt lat="43.56086780262831" lon="10.5370246469901"><ele>38.5</ele><time>2026-03-24T16:12:22.001Z</time></trkpt><trkpt lat="43.56063981495666" lon="10.537127193373735"><ele>37.0</ele><time>2026-03-24T16:12:23.001Z</time></trkpt><trkpt lat="43.56038959926193" lon="10.537182268952208"><ele>39.0</ele><time>2026-03-24T16:12:24.001Z</time></trkpt><trkpt lat="43.5601326690152" lon="10.53717806575849"><ele>41.0</ele><time>2026-03-24T16:12:25.001Z</time></trkpt><trkpt lat="43.5598807446332" lon="10.537100904624271"><ele>41.5</ele><time>2026-03-24T16:12:26.001Z</time></trkpt><trkpt lat="43.559633636727476" lon="10.536980635422825"><ele>42.0</ele><time>2026-03-24T16:12:27.001Z</time></trkpt><trkpt lat="43.559383101855275" lon="10.536866763604868"><ele>43.0</ele><time>2026-03-24T16:12:28.001Z</time></trkpt><trkpt lat="43.55917147902993" lon="10.536752691758426"><ele>44.0</ele><time>2026-03-24T16:12:29.001Z</time></trkpt><trkpt lat="43.55897680942034" lon="10.536649376449349"><ele>45.0</ele><time>2026-03-24T16:12:30.001Z</time></trkpt><trkpt lat="43.55879155099581" lon="10.536553071915417"><ele>46.0</ele><time>2026-03-24T16:12:31.001Z</time></trkpt><trkpt lat="43.55860879531102" lon="10.536458126100241"><ele>47.0</ele><time>2026-03-24T16:12:32.001Z</time></trkpt><trkpt lat="43.55841659389375" lon="10.536362789439686"><ele>48.0</ele><time>2026-03-24T16:12:33.001Z</time></trkpt><trkpt lat="43.558214603504105" lon="10.536283941833634"><ele>48.0</ele><time>2026-03-24T16:12:34.001Z</time></trkpt><trkpt lat="43.55800072644804" lon="10.536246697472476"><ele>48.0</ele><time>2026-03-24T16:12:35.001Z</time></trkpt><trkpt lat="43.55780163335546" lon="10.536242400956803"><ele>48.0</ele><time>2026-03-24T16:12:36.001Z</time></trkpt><trkpt lat="43.55761168461477" lon="10.536242229489048"><ele>48.66666666666667</ele><time>2026-03-24T16:12:37.001Z</time></trkpt><trkpt lat="43.55740795994972" lon="10.536243241737326"><ele>49.333333333333336</ele><time>2026-03-24T16:12:38.001Z</time></trkpt><trkpt lat="43.55718038047374" lon="10.536230442978969"><ele>50.0</ele><time>2026-03-24T16:12:39.001Z</time></trkpt><trkpt lat="43.55693471075858" lon="10.536223607984589"><ele>53.0</ele><time>2026-03-24T16:12:40.001Z</time></trkpt><trkpt lat="43.55666446141572" lon="10.536216087169958"><ele>56.0</ele><time>2026-03-24T16:12:41.001Z</time></trkpt><trkpt lat="43.556391523108275" lon="10.53620868503704"><ele>58.5</ele><time>2026-03-24T16:12:42.001Z</time></trkpt><trkpt lat="43.55612064937076" lon="10.536207103446081"><ele>61.0</ele><time>2026-03-24T16:12:43.001Z</time></trkpt><trkpt lat="43.55584898176916" lon="10.5361944568804"><ele>61.0</ele><time>2026-03-24T16:12:44.001Z</time></trkpt><trkpt lat="43.55557237980534" lon="10.536191804168162"><ele>61.0</ele><time>2026-03-24T16:12:45.001Z</time></trkpt><trkpt lat="43.55529194814628" lon="10.536187839012458"><ele>62.0</ele><time>2026-03-24T16:12:46.001Z</time></trkpt><trkpt lat="43.55500642555447" lon="10.536183198606011"><ele>63.0</ele><time>2026-03-24T16:12:47.001Z</time></trkpt><trkpt lat="43.554734579766624" lon="10.536185822660256"><ele>64.5</ele><time>2026-03-24T16:12:48.001Z</time></trkpt><trkpt lat="43.554509027031244" lon="10.536186782174143"><ele>66.0</ele><time>2026-03-24T16:12:49.001Z</time></trkpt><trkpt lat="43.55418043815754" lon="10.536233078476776"><ele>66.0</ele><time>2026-03-24T16:12:50.001Z</time></trkpt><trkpt lat="43.55393580158243" lon="10.53619441745419"><ele>66.0</ele><time>2026-03-24T16:12:51.001Z</time></trkpt><trkpt lat="43.55372575779466" lon="10.536074523012598"><ele>72.5</ele><time>2026-03-24T16:12:52.001Z</time></trkpt><trkpt lat="43.553551418640694" lon="10.535846063729542"><ele>79.0</ele><time>2026-03-24T16:12:53.001Z</time></trkpt><trkpt lat="43.55332481631302" lon="10.535688310172594"><ele>79.0</ele><time>2026-03-24T16:12:54.001Z</time></trkpt><trkpt lat="43.55309011277156" lon="10.535549750892494"><ele>79.0</ele><time>2026-03-24T16:12:55.001Z</time></trkpt><trkpt lat="43.55289106578365" lon="10.535400615511872"><ele>78.33333333333333</ele><time>2026-03-24T16:12:56.001Z</time></trkpt><trkpt lat="43.552714794228066" lon="10.535259843180494"><ele>77.66666666666667</ele><time>2026-03-24T16:12:57.001Z</time></trkpt><trkpt lat="43.55253662696452" lon="10.535155747045005"><ele>77.0</ele><time>2026-03-24T16:12:58.001Z</time></trkpt><trkpt lat="43.55235272714834" lon="10.53513355195862"><ele>77.0</ele><time>2026-03-24T16:12:59.001Z</time></trkpt><trkpt lat="43.55216818325465" lon="10.53521374625478"><ele>77.0</ele><time>2026-03-24T16:13:00.001Z</time></trkpt><trkpt lat="43.55195967750981" lon="10.535248412950152"><ele>77.0</ele><time>2026-03-24T16:13:01.001Z</time></trkpt><trkpt lat="43.551739565895225" lon="10.53519251091182"><ele>82.5</ele><time>2026-03-24T16:13:02.001Z</time></trkpt><trkpt lat="43.55150532090381" lon="10.535089170663246"><ele>88.0</ele><time>2026-03-24T16:13:03.001Z</time></trkpt><trkpt lat="43.55125506762408" lon="10.53496755861281"><ele>94.5</ele><time>2026-03-24T16:13:04.001Z</time></trkpt><trkpt lat="43.551025436166036" lon="10.534806850605355"><ele>101.0</ele><time>2026-03-24T16:13:05.001Z</time></trkpt><trkpt lat="43.55080971384046" lon="10.534610646654164"><ele>100.0</ele><time>2026-03-24T16:13:06.001Z</time></trkpt><trkpt lat="43.550581989902795" lon="10.53439478250333"><ele>99.0</ele><time>2026-03-24T16:13:07.001Z</time></trkpt><trkpt lat="43.550340205667" lon="10.534182543114452"><ele>99.0</ele><time>2026-03-24T16:13:08.001Z</time></trkpt><trkpt lat="43.55010088749258" lon="10.5339486176514"><ele>99.0</ele><time>2026-03-24T16:13:09.001Z</time></trkpt><trkpt lat="43.54985264118467" lon="10.533716306996"><ele>98.0</ele><time>2026-03-24T16:13:10.001Z</time></trkpt><trkpt lat="43.54961580913572" lon="10.533498513529887"><ele>97.0</ele><time>2026-03-24T16:13:11.001Z</time></trkpt><trkpt lat="43.549405344778776" lon="10.533290183223043"><ele>97.0</ele><time>2026-03-24T16:13:12.001Z</time></trkpt><trkpt lat="43.54921291469672" lon="10.533087546764047"><ele>97.0</ele><time>2026-03-24T16:13:13.001Z</time></trkpt><trkpt lat="43.54904670271094" lon="10.532871014177244"><ele>98.0</ele><time>2026-03-24T16:13:14.001Z</time></trkpt><trkpt lat="43.548899879160125" lon="10.53266437070402"><ele>99.0</ele><time>2026-03-24T16:13:15.001Z</time></trkpt><trkpt lat="43.5487422534365" lon="10.53247422924122"><ele>100.0</ele><time>2026-03-24T16:13:16.001Z</time></trkpt><trkpt lat="43.548592142863846" lon="10.53228829535179"><ele>100.0</ele><time>2026-03-24T16:13:17.001Z</time></trkpt><trkpt lat="43.54844659415222" lon="10.532136856588329"><ele>100.0</ele><time>2026-03-24T16:13:18.001Z</time></trkpt><trkpt lat="43.548311382610166" lon="10.532020498648974"><ele>100.0</ele><time>2026-03-24T16:13:19.001Z</time></trkpt><trkpt lat="43.54817445298257" lon="10.531943660981948"><ele>99.5</ele><time>2026-03-24T16:13:20.001Z</time></trkpt><trkpt lat="43.54803669644135" lon="10.531917646956902"><ele>99.0</ele><time>2026-03-24T16:13:21.001Z</time></trkpt><trkpt lat="43.54789427260149" lon="10.531942625316262"><ele>98.5</ele><time>2026-03-24T16:13:22.001Z</time></trkpt><trkpt lat="43.547762776147884" lon="10.532014700902415"><ele>98.0</ele><time>2026-03-24T16:13:23.001Z</time></trkpt><trkpt lat="43.54765303851338" lon="10.532091488279022"><ele>97.99999999999999</ele><time>2026-03-24T16:13:24.001Z</time></trkpt><trkpt lat="43.54756363257459" lon="10.532147921577794"><ele>98.0</ele><time>2026-03-24T16:13:25.001Z</time></trkpt><trkpt lat="43.547481385845416" lon="10.532193275738996"><ele>98.0</ele><time>2026-03-24T16:13:26.001Z</time></trkpt><trkpt lat="43.54740316177819" lon="10.532234830652852"><ele>98.0</ele><time>2026-03-24T16:13:27.001Z</time></trkpt><trkpt lat="43.54733002537185" lon="10.532275875142387"><ele>97.99999999999999</ele><time>2026-03-24T16:13:28.001Z</time></trkpt><trkpt lat="43.54724209908871" lon="10.532319779326206"><ele>98.0</ele><time>2026-03-24T16:13:29.001Z</time></trkpt><trkpt lat="43.54714133568941" lon="10.532363972916817"><ele>98.0</ele><time>2026-03-24T16:13:30.001Z</time></trkpt><trkpt lat="43.547046948198606" lon="10.532391286359838"><ele>98.0</ele><time>2026-03-24T16:13:31.001Z</time></trkpt><trkpt lat="43.54693985067014" lon="10.532408512882945"><ele>98.0</ele><time>2026-03-24T16:13:32.001Z</time></trkpt><trkpt lat="43.546838758060936" lon="10.532405497579235"><ele>98.0</ele><time>2026-03-24T16:13:33.001Z</time></trkpt><trkpt lat="43.54673823693967" lon="10.532374149572227"><ele>98.0</ele><time>2026-03-24T16:13:34.001Z</time></trkpt><trkpt lat="43.54664582058627" lon="10.532306427843496"><ele>97.60000000000001</ele><time>2026-03-24T16:13:35.001Z</time></trkpt><trkpt lat="43.5465706111696" lon="10.532215430306081"><ele>97.2</ele><time>2026-03-24T16:13:36.001Z</time></trkpt><trkpt lat="43.54652176542568" lon="10.53212624725799"><ele>96.8</ele><time>2026-03-24T16:13:37.001Z</time></trkpt><trkpt lat="43.5464630106805" lon="10.531996553759425"><ele>96.4</ele><time>2026-03-24T16:13:39.001Z</time></trkpt><trkpt lat="43.546402350575434" lon="10.5319074821815"><ele>96.0</ele><time>2026-03-24T16:13:41.001Z</time></trkpt><trkpt lat="43.54633364320968" lon="10.531750515447989"><ele>97.19999999999999</ele><time>2026-03-24T16:13:43.001Z</time></trkpt><trkpt lat="43.546272396306854" lon="10.5316361897222"><ele>98.39999999999999</ele><time>2026-03-24T16:13:44.001Z</time></trkpt><trkpt lat="43.54621427710618" lon="10.531533154369804"><ele>99.6</ele><time>2026-03-24T16:13:45.001Z</time></trkpt><trkpt lat="43.54615759711904" lon="10.531435204069904"><ele>100.8</ele><time>2026-03-24T16:13:46.001Z</time></trkpt><trkpt lat="43.546108739396395" lon="10.531357498080608"><ele>102.0</ele><time>2026-03-24T16:13:47.001Z</time></trkpt><trkpt lat="43.546041140193154" lon="10.53124965992056"><ele>99.83333333333333</ele><time>2026-03-24T16:13:49.001Z</time></trkpt><trkpt lat="43.54599732035175" lon="10.531180650463366"><ele>97.66666666666667</ele><time>2026-03-24T16:13:51.001Z</time></trkpt><trkpt lat="43.54594871121711" lon="10.531105228234974"><ele>95.5</ele><time>2026-03-24T16:14:33.001Z</time></trkpt><trkpt lat="43.54587854872708" lon="10.530999947292242"><ele>93.33333333333334</ele><time>2026-03-24T16:14:35.001Z</time></trkpt><trkpt lat="43.54582446768967" lon="10.530946956106808"><ele>91.16666666666667</ele><time>2026-03-24T16:14:37.001Z</time></trkpt><trkpt lat="43.54577437843922" lon="10.530843636533639"><ele>89.0</ele><time>2026-03-24T16:14:47.001Z</time></trkpt><trkpt lat="43.54569161062408" lon="10.530712541760956"><ele>89.0</ele><time>2026-03-24T16:14:48.001Z</time></trkpt><trkpt lat="43.5456039560255" lon="10.530558866252113"><ele>89.0</ele><time>2026-03-24T16:14:49.001Z</time></trkpt><trkpt lat="43.54552976678788" lon="10.530395631640982"><ele>89.0</ele><time>2026-03-24T16:14:50.001Z</time></trkpt><trkpt lat="43.545446227529894" lon="10.530238811155298"><ele>89.0</ele><time>2026-03-24T16:14:51.001Z</time></trkpt><trkpt lat="43.545320766755005" lon="10.530087235357826"><ele>83.33333333333334</ele><time>2026-03-24T16:14:52.001Z</time></trkpt><trkpt lat="43.54516749959304" lon="10.529974953440295"><ele>77.66666666666667</ele><time>2026-03-24T16:14:53.001Z</time></trkpt><trkpt lat="43.545021631370304" lon="10.529876975175318"><ele>72.0</ele><time>2026-03-24T16:14:54.001Z</time></trkpt><trkpt lat="43.54491148597243" lon="10.529777402442559"><ele>72.0</ele><time>2026-03-24T16:14:55.001Z</time></trkpt><trkpt lat="43.54484118392225" lon="10.529650467944908"><ele>72.0</ele><time>2026-03-24T16:14:56.001Z</time></trkpt><trkpt lat="43.54479988414449" lon="10.529497284726974"><ele>72.0</ele><time>2026-03-24T16:14:57Z</time></trkpt><trkpt lat="43.54475440394624" lon="10.529285699303514"><ele>72.0</ele><time>2026-03-24T16:14:58Z</time></trkpt><trkpt lat="43.54471726829116" lon="10.52906153631948"><ele>74.33333333333333</ele><time>2026-03-24T16:14:59.001Z</time></trkpt><trkpt lat="43.544695384719425" lon="10.5288342006151"><ele>76.66666666666666</ele><time>2026-03-24T16:15:00.001Z</time></trkpt><trkpt lat="43.544710373917646" lon="10.528603505260575"><ele>79.0</ele><time>2026-03-24T16:15:01.001Z</time></trkpt><trkpt lat="43.544740359575144" lon="10.528362542829923"><ele>79.0</ele><time>2026-03-24T16:15:02.001Z</time></trkpt><trkpt lat="43.54475226684628" lon="10.528120561747755"><ele>79.0</ele><time>2026-03-24T16:15:03.001Z</time></trkpt><trkpt lat="43.54472269279754" lon="10.527886259201342"><ele>79.0</ele><time>2026-03-24T16:15:04.001Z</time></trkpt><trkpt lat="43.544660207251134" lon="10.527692840310355"><ele>76.25</ele><time>2026-03-24T16:15:05.001Z</time></trkpt><trkpt lat="43.544630732241544" lon="10.527505523677924"><ele>73.5</ele><time>2026-03-24T16:15:06.001Z</time></trkpt><trkpt lat="43.5446273047188" lon="10.527343756376194"><ele>70.75</ele><time>2026-03-24T16:15:07.001Z</time></trkpt><trkpt lat="43.54466467214072" lon="10.527208339278623"><ele>68.0</ele><time>2026-03-24T16:15:08.001Z</time></trkpt><trkpt lat="43.544734097791164" lon="10.527068316195741"><ele>63.0</ele><time>2026-03-24T16:15:09.001Z</time></trkpt><trkpt lat="43.5448559143183" lon="10.526925650072679"><ele>58.0</ele><time>2026-03-24T16:15:10.001Z</time></trkpt><trkpt lat="43.545028637206435" lon="10.52679773248235"><ele>53.0</ele><time>2026-03-24T16:15:11.001Z</time></trkpt><trkpt lat="43.54517549212166" lon="10.526644322777955"><ele>53.0</ele><time>2026-03-24T16:15:12.001Z</time></trkpt><trkpt lat="43.545289295150916" lon="10.526436568104304"><ele>53.0</ele><time>2026-03-24T16:15:13.001Z</time></trkpt><trkpt lat="43.54539550460028" lon="10.526173515096055"><ele>53.0</ele><time>2026-03-24T16:15:14.001Z</time></trkpt><trkpt lat="43.54551133860836" lon="10.52592047779291"><ele>54.0</ele><time>2026-03-24T16:15:15.001Z</time></trkpt><trkpt lat="43.54562632082991" lon="10.525695066065769"><ele>55.0</ele><time>2026-03-24T16:15:16.001Z</time></trkpt><trkpt lat="43.54571636001028" lon="10.525489506925005"><ele>56.0</ele><time>2026-03-24T16:15:17.001Z</time></trkpt><trkpt lat="43.54575380506018" lon="10.525281387532607"><ele>50.333333333333336</ele><time>2026-03-24T16:15:18.001Z</time></trkpt><trkpt lat="43.545728066826044" lon="10.525060405483249"><ele>44.66666666666667</ele><time>2026-03-24T16:15:19.001Z</time></trkpt><trkpt lat="43.54563845724502" lon="10.524883428313569"><ele>39.0</ele><time>2026-03-24T16:15:20.001Z</time></trkpt><trkpt lat="43.5455116014421" lon="10.524756595101145"><ele>38.666666666666664</ele><time>2026-03-24T16:15:21.001Z</time></trkpt><trkpt lat="43.545355222001504" lon="10.524702534848615"><ele>38.33333333333333</ele><time>2026-03-24T16:15:22.001Z</time></trkpt><trkpt lat="43.54518228619796" lon="10.524726868527743"><ele>38.0</ele><time>2026-03-24T16:15:23.001Z</time></trkpt><trkpt lat="43.545004163737396" lon="10.524818337774756"><ele>38.0</ele><time>2026-03-24T16:15:24.001Z</time></trkpt><trkpt lat="43.544828222808384" lon="10.52494498922272"><ele>38.0</ele><time>2026-03-24T16:15:25.001Z</time></trkpt><trkpt lat="43.54465133583288" lon="10.52506874844182"><ele>38.0</ele><time>2026-03-24T16:15:26.001Z</time></trkpt><trkpt lat="43.54448711339959" lon="10.525170191734729"><ele>38.0</ele><time>2026-03-24T16:15:27.001Z</time></trkpt><trkpt lat="43.54433756946699" lon="10.525256370136134"><ele>38.0</ele><time>2026-03-24T16:15:28.001Z</time></trkpt><trkpt lat="43.54420371681806" lon="10.525330410704687"><ele>38.0</ele><time>2026-03-24T16:15:29.001Z</time></trkpt><trkpt lat="43.54409490823924" lon="10.525388203829108"><ele>38.0</ele><time>2026-03-24T16:15:30.001Z</time></trkpt><trkpt lat="43.54401587503956" lon="10.525424517075189"><ele>38.599999999999994</ele><time>2026-03-24T16:15:31.001Z</time></trkpt><trkpt lat="43.54394082917317" lon="10.525456499384653"><ele>39.199999999999996</ele><time>2026-03-24T16:15:33.001Z</time></trkpt><trkpt lat="43.543877322375046" lon="10.52551346638894"><ele>39.8</ele><time>2026-03-24T16:15:39.001Z</time></trkpt><trkpt lat="43.54390887581353" lon="10.525735879115452"><ele>40.4</ele><time>2026-03-24T16:15:40.001Z</time></trkpt><trkpt lat="43.543922381907734" lon="10.525879633810622"><ele>41.0</ele><time>2026-03-24T16:15:41.001Z</time></trkpt><trkpt lat="43.54393832713411" lon="10.52602679578515"><ele>41.0</ele><time>2026-03-24T16:15:42.001Z</time></trkpt><trkpt lat="43.543938193902406" lon="10.52618921590349"><ele>41.0</ele><time>2026-03-24T16:15:43.001Z</time></trkpt><trkpt lat="43.54390780052664" lon="10.526338570282357"><ele>41.0</ele><time>2026-03-24T16:15:44.001Z</time></trkpt><trkpt lat="43.54386529604396" lon="10.526462578293826"><ele>41.0</ele><time>2026-03-24T16:15:45.001Z</time></trkpt><trkpt lat="43.54374140435576" lon="10.52654713724041"><ele>41.0</ele><time>2026-03-24T16:15:46.001Z</time></trkpt><trkpt lat="43.543605235162836" lon="10.526595393718887"><ele>41.0</ele><time>2026-03-24T16:15:47.001Z</time></trkpt><trkpt lat="43.543443814691344" lon="10.526679701621317"><ele>41.0</ele><time>2026-03-24T16:15:48.001Z</time></trkpt><trkpt lat="43.54326872389127" lon="10.526751393191127"><ele>41.0</ele><time>2026-03-24T16:15:49.001Z</time></trkpt><trkpt lat="43.54311421138557" lon="10.526823030027993"><ele>41.0</ele><time>2026-03-24T16:15:50.001Z</time></trkpt><trkpt lat="43.54298116369634" lon="10.526881265081046"><ele>41.0</ele><time>2026-03-24T16:15:51.001Z</time></trkpt><trkpt lat="43.542869637500054" lon="10.526938122552554"><ele>41.0</ele><time>2026-03-24T16:15:52.001Z</time></trkpt><trkpt lat="43.542754387402766" lon="10.526983789354478"><ele>41.33333333333333</ele><time>2026-03-24T16:15:53.001Z</time></trkpt><trkpt lat="43.54270345430302" lon="10.527229492930385"><ele>41.666666666666664</ele><time>2026-03-24T16:15:54.001Z</time></trkpt><trkpt lat="43.542626057536964" lon="10.527443356160385"><ele>42.0</ele><time>2026-03-24T16:15:55.001Z</time></trkpt><trkpt lat="43.54254736859423" lon="10.527654119585817"><ele>42.0</ele><time>2026-03-24T16:15:56.001Z</time></trkpt><trkpt lat="43.54247682405755" lon="10.52785666991881"><ele>42.0</ele><time>2026-03-24T16:15:57.001Z</time></trkpt><trkpt lat="43.54236088583281" lon="10.528042617600777"><ele>42.0</ele><time>2026-03-24T16:15:58.001Z</time></trkpt><trkpt lat="43.542201051681815" lon="10.528210177128026"><ele>43.333333333333336</ele><time>2026-03-24T16:15:59.001Z</time></trkpt><trkpt lat="43.54201403595452" lon="10.528370135557429"><ele>44.66666666666667</ele><time>2026-03-24T16:16:00.001Z</time></trkpt><trkpt lat="43.54182906150533" lon="10.528547377779267"><ele>46.0</ele><time>2026-03-24T16:16:01.001Z</time></trkpt><trkpt lat="43.541661521243256" lon="10.528715553617857"><ele>49.333333333333336</ele><time>2026-03-24T16:16:02.001Z</time></trkpt><trkpt lat="43.54151733360288" lon="10.528857066773668"><ele>52.66666666666667</ele><time>2026-03-24T16:16:03.001Z</time></trkpt><trkpt lat="43.54139030950525" lon="10.528986944259591"><ele>56.0</ele><time>2026-03-24T16:16:04.001Z</time></trkpt><trkpt lat="43.54130807850158" lon="10.52913668456379"><ele>56.0</ele><time>2026-03-24T16:16:05.001Z</time></trkpt><trkpt lat="43.54125180872661" lon="10.529283847695778"><ele>56.0</ele><time>2026-03-24T16:16:06.001Z</time></trkpt><trkpt lat="43.541208539583806" lon="10.529428872103365"><ele>56.0</ele><time>2026-03-24T16:16:07.001Z</time></trkpt><trkpt lat="43.54120759951483" lon="10.529622050618007"><ele>56.0</ele><time>2026-03-24T16:16:08.001Z</time></trkpt><trkpt lat="43.541169581636495" lon="10.529807070118167"><ele>61.0</ele><time>2026-03-24T16:16:09.001Z</time></trkpt><trkpt lat="43.54108076122263" lon="10.529941207422585"><ele>66.0</ele><time>2026-03-24T16:16:10.001Z</time></trkpt><trkpt lat="43.54095075986625" lon="10.530042484890135"><ele>71.0</ele><time>2026-03-24T16:16:11.001Z</time></trkpt><trkpt lat="43.540785692592344" lon="10.530149486534311"><ele>71.0</ele><time>2026-03-24T16:16:12.001Z</time></trkpt><trkpt lat="43.54061945654762" lon="10.53026471140864"><ele>71.0</ele><time>2026-03-24T16:16:13.001Z</time></trkpt><trkpt lat="43.540451055096135" lon="10.530388178971315"><ele>71.0</ele><time>2026-03-24T16:16:14.001Z</time></trkpt><trkpt lat="43.54028209822349" lon="10.530511548537767"><ele>74.5</ele><time>2026-03-24T16:16:15.001Z</time></trkpt><trkpt lat="43.54012638065972" lon="10.530609070318684"><ele>78.0</ele><time>2026-03-24T16:16:16.001Z</time></trkpt><trkpt lat="43.53999088040481" lon="10.530688009854716"><ele>81.5</ele><time>2026-03-24T16:16:17.001Z</time></trkpt><trkpt lat="43.539879611535476" lon="10.53077293001652"><ele>85.0</ele><time>2026-03-24T16:16:18.001Z</time></trkpt><trkpt lat="43.53978887932338" lon="10.53087699393401"><ele>85.0</ele><time>2026-03-24T16:16:19.001Z</time></trkpt><trkpt lat="43.539702299962855" lon="10.531030226103317"><ele>85.0</ele><time>2026-03-24T16:16:20.001Z</time></trkpt><trkpt lat="43.53961291510496" lon="10.531234932808736"><ele>85.0</ele><time>2026-03-24T16:16:21.001Z</time></trkpt><trkpt lat="43.53951969943966" lon="10.531455204358547"><ele>87.0</ele><time>2026-03-24T16:16:22.001Z</time></trkpt><trkpt lat="43.53940761495672" lon="10.531673973862913"><ele>89.0</ele><time>2026-03-24T16:16:23.001Z</time></trkpt><trkpt lat="43.539276279154834" lon="10.531857199943"><ele>91.0</ele><time>2026-03-24T16:16:24.001Z</time></trkpt><trkpt lat="43.53918209472018" lon="10.531957906310526"><ele>91.0</ele><time>2026-03-24T16:16:25.001Z</time></trkpt><trkpt lat="43.53912623717478" lon="10.532015731329526"><ele>91.0</ele><time>2026-03-24T16:16:26.001Z</time></trkpt><trkpt lat="43.53903176049529" lon="10.53213648842976"><ele>91.0</ele><time>2026-03-24T16:16:28.001Z</time></trkpt><trkpt lat="43.5389608820252" lon="10.532263104961244"><ele>91.0</ele><time>2026-03-24T16:16:29.001Z</time></trkpt><trkpt lat="43.538867977452945" lon="10.532416379208971"><ele>91.0</ele><time>2026-03-24T16:16:30.001Z</time></trkpt><trkpt lat="43.538754647073084" lon="10.532567119713638"><ele>91.0</ele><time>2026-03-24T16:16:31.001Z</time></trkpt><trkpt lat="43.53863237868202" lon="10.53274058515637"><ele>91.0</ele><time>2026-03-24T16:16:32.001Z</time></trkpt><trkpt lat="43.53850660216883" lon="10.532932343162221"><ele>92.0</ele><time>2026-03-24T16:16:33.001Z</time></trkpt><trkpt lat="43.538373777846125" lon="10.533110446291413"><ele>93.0</ele><time>2026-03-24T16:16:34.001Z</time></trkpt><trkpt lat="43.538256000381764" lon="10.533252345375528"><ele>94.0</ele><time>2026-03-24T16:16:35.001Z</time></trkpt><trkpt lat="43.53814833107107" lon="10.533334697568383"><ele>94.0</ele><time>2026-03-24T16:16:36.001Z</time></trkpt><trkpt lat="43.53804421796635" lon="10.533403955702816"><ele>94.0</ele><time>2026-03-24T16:16:37.001Z</time></trkpt><trkpt lat="43.537930519669494" lon="10.533477541461755"><ele>94.0</ele><time>2026-03-24T16:16:38.001Z</time></trkpt><trkpt lat="43.53779654539316" lon="10.533544194264856"><ele>94.0</ele><time>2026-03-24T16:16:39.001Z</time></trkpt><trkpt lat="43.5376651246507" lon="10.53361829390134"><ele>96.0</ele><time>2026-03-24T16:16:40.001Z</time></trkpt><trkpt lat="43.537544034426645" lon="10.533687858227188"><ele>98.0</ele><time>2026-03-24T16:16:41.001Z</time></trkpt><trkpt lat="43.537433213344954" lon="10.533751494058404"><ele>100.0</ele><time>2026-03-24T16:16:42.001Z</time></trkpt><trkpt lat="43.537336672746996" lon="10.533801368350646"><ele>102.0</ele><time>2026-03-24T16:16:43.001Z</time></trkpt><trkpt lat="43.53724589903095" lon="10.533842957778337"><ele>102.0</ele><time>2026-03-24T16:16:44.001Z</time></trkpt><trkpt lat="43.53716407891289" lon="10.533888619093517"><ele>102.0</ele><time>2026-03-24T16:16:45.001Z</time></trkpt><trkpt lat="43.537091343608964" lon="10.533936534546953"><ele>102.0</ele><time>2026-03-24T16:16:46.001Z</time></trkpt><trkpt lat="43.53702819794004" lon="10.533983359782798"><ele>102.0</ele><time>2026-03-24T16:16:47.001Z</time></trkpt><trkpt lat="43.536958684484425" lon="10.534036772896611"><ele>102.0</ele><time>2026-03-24T16:16:49.001Z</time></trkpt><trkpt lat="43.53687915379753" lon="10.534090981105672"><ele>102.0</ele><time>2026-03-24T16:17:02Z</time></trkpt><trkpt lat="43.53681907638214" lon="10.534134532530567"><ele>104.0</ele><time>2026-03-24T16:17:03Z</time></trkpt><trkpt lat="43.536753541589526" lon="10.534173688646147"><ele>106.0</ele><time>2026-03-24T16:17:04Z</time></trkpt><trkpt lat="43.53663942771084" lon="10.534187037051023"><ele>108.0</ele><time>2026-03-24T16:17:06Z</time></trkpt><trkpt lat="43.53657414419855" lon="10.534180053239721"><ele>110.0</ele><time>2026-03-24T16:17:07Z</time></trkpt><trkpt lat="43.536507193976945" lon="10.534147810238517"><ele>112.0</ele><time>2026-03-24T16:17:08Z</time></trkpt><trkpt lat="43.53643940211366" lon="10.534159560966794"><ele>114.0</ele><time>2026-03-24T16:17:09Z</time></trkpt><trkpt lat="43.53637533542646" lon="10.534151257133706"><ele>114.0</ele><time>2026-03-24T16:17:10Z</time></trkpt><trkpt lat="43.53630496071756" lon="10.534190023887064"><ele>114.0</ele><time>2026-03-24T16:17:11Z</time></trkpt><trkpt lat="43.536241100604975" lon="10.534237002356264"><ele>114.0</ele><time>2026-03-24T16:17:12Z</time></trkpt><trkpt lat="43.53618251457888" lon="10.534281443535127"><ele>114.0</ele><time>2026-03-24T16:17:13Z</time></trkpt><trkpt lat="43.53608850588094" lon="10.534351734195655"><ele>114.0</ele><time>2026-03-24T16:17:15Z</time></trkpt><trkpt lat="43.53601524342855" lon="10.53440436008597"><ele>114.0</ele><time>2026-03-24T16:17:17Z</time></trkpt><trkpt lat="43.535951723969745" lon="10.534449986958759"><ele>112.80000000000001</ele><time>2026-03-24T16:17:19Z</time></trkpt><trkpt lat="43.53589313211232" lon="10.53449207413605"><ele>111.60000000000001</ele><time>2026-03-24T16:17:21Z</time></trkpt><trkpt lat="43.53581189517907" lon="10.534535815558115"><ele>110.4</ele><time>2026-03-24T16:17:24.001Z</time></trkpt><trkpt lat="43.53571930759229" lon="10.534584656972637"><ele>109.2</ele><time>2026-03-24T16:17:26.001Z</time></trkpt><trkpt lat="43.535623079550064" lon="10.534623976885282"><ele>108.0</ele><time>2026-03-24T16:17:29.001Z</time></trkpt><trkpt lat="43.535522493612554" lon="10.534656788928169"><ele>109.5</ele><time>2026-03-24T16:17:31.001Z</time></trkpt><trkpt lat="43.53543126025362" lon="10.53468665499864"><ele>111.0</ele><time>2026-03-24T16:17:33.001Z</time></trkpt><trkpt lat="43.53536693480575" lon="10.534709499819781"><ele>112.5</ele><time>2026-03-24T16:17:34.001Z</time></trkpt><trkpt lat="43.53529294795544" lon="10.53473956867715"><ele>114.0</ele><time>2026-03-24T16:17:35.001Z</time></trkpt><trkpt lat="43.535220445100016" lon="10.534792216235836"><ele>115.5</ele><time>2026-03-24T16:17:36.001Z</time></trkpt><trkpt lat="43.535138580822284" lon="10.534805630468863"><ele>117.0</ele><time>2026-03-24T16:17:37.001Z</time></trkpt><trkpt lat="43.535078064990046" lon="10.534829590576583"><ele>117.0</ele><time>2026-03-24T16:17:38.001Z</time></trkpt><trkpt lat="43.53501747768904" lon="10.534884144686904"><ele>117.00000000000001</ele><time>2026-03-24T16:17:39.001Z</time></trkpt><trkpt lat="43.534949356949234" lon="10.534912714682964"><ele>117.0</ele><time>2026-03-24T16:17:40.001Z</time></trkpt><trkpt lat="43.53488459251539" lon="10.534950720943304"><ele>117.0</ele><time>2026-03-24T16:17:41.001Z</time></trkpt><trkpt lat="43.534814187679856" lon="10.534990227516813"><ele>117.00000000000001</ele><time>2026-03-24T16:17:42.001Z</time></trkpt><trkpt lat="43.5347519985777" lon="10.535018898601235"><ele>117.0</ele><time>2026-03-24T16:17:43.001Z</time></trkpt><trkpt lat="43.53468811087784" lon="10.535049539067419"><ele>117.0</ele><time>2026-03-24T16:17:44.001Z</time></trkpt><trkpt lat="43.53461097465568" lon="10.535076142171166"><ele>116.6</ele><time>2026-03-24T16:17:45.001Z</time></trkpt><trkpt lat="43.53452173847655" lon="10.535072450184076"><ele>116.19999999999999</ele><time>2026-03-24T16:17:46.001Z</time></trkpt><trkpt lat="43.534428663384105" lon="10.535110306992907"><ele>115.8</ele><time>2026-03-24T16:17:47.001Z</time></trkpt><trkpt lat="43.53432056926273" lon="10.53508471455265"><ele>115.4</ele><time>2026-03-24T16:17:48.001Z</time></trkpt><trkpt lat="43.534216119399666" lon="10.53506700357368"><ele>115.0</ele><time>2026-03-24T16:17:49.001Z</time></trkpt><trkpt lat="43.534109674146734" lon="10.53506558792438"><ele>115.0</ele><time>2026-03-24T16:17:50.001Z</time></trkpt><trkpt lat="43.53400314311946" lon="10.535041765180031"><ele>115.0</ele><time>2026-03-24T16:17:51.001Z</time></trkpt><trkpt lat="43.53389898511157" lon="10.535016820495962"><ele>115.0</ele><time>2026-03-24T16:17:52.001Z</time></trkpt><trkpt lat="43.53379268122195" lon="10.534980417201497"><ele>115.0</ele><time>2026-03-24T16:17:53.001Z</time></trkpt><trkpt lat="43.53368878580134" lon="10.534955946737522"><ele>115.0</ele><time>2026-03-24T16:17:54.001Z</time></trkpt><trkpt lat="43.53359181124964" lon="10.534935833966058"><ele>112.0</ele><time>2026-03-24T16:17:55.001Z</time></trkpt><trkpt lat="43.533498481395775" lon="10.534912341359687"><ele>109.0</ele><time>2026-03-24T16:17:56.001Z</time></trkpt><trkpt lat="43.53339292981224" lon="10.53489289432321"><ele>106.0</ele><time>2026-03-24T16:17:57.001Z</time></trkpt><trkpt lat="43.533279706736664" lon="10.534849142343317"><ele>103.0</ele><time>2026-03-24T16:17:58.001Z</time></trkpt><trkpt lat="43.53313570197816" lon="10.534815776424608"><ele>103.0</ele><time>2026-03-24T16:17:59.001Z</time></trkpt><trkpt lat="43.532974088005275" lon="10.534795617190015"><ele>103.0</ele><time>2026-03-24T16:18:00.001Z</time></trkpt><trkpt lat="43.53280711062246" lon="10.534752242134498"><ele>103.0</ele><time>2026-03-24T16:18:01.001Z</time></trkpt><trkpt lat="43.5326320406641" lon="10.534740148591165"><ele>100.33333333333334</ele><time>2026-03-24T16:18:02.001Z</time></trkpt><trkpt lat="43.532459077944296" lon="10.534764348228146"><ele>97.66666666666667</ele><time>2026-03-24T16:18:03.001Z</time></trkpt><trkpt lat="43.53228517115287" lon="10.53479056027563"><ele>95.0</ele><time>2026-03-24T16:18:04.001Z</time></trkpt><trkpt lat="43.53213212753909" lon="10.534877957403454"><ele>96.0</ele><time>2026-03-24T16:18:05.001Z</time></trkpt><trkpt lat="43.53199991363907" lon="10.534950674986248"><ele>97.0</ele><time>2026-03-24T16:18:06.001Z</time></trkpt><trkpt lat="43.53185768945737" lon="10.534993808211272"><ele>98.0</ele><time>2026-03-24T16:18:07.001Z</time></trkpt><trkpt lat="43.53171405848979" lon="10.535083509767562"><ele>99.0</ele><time>2026-03-24T16:18:08.001Z</time></trkpt><trkpt lat="43.53155367932015" lon="10.535146680531803"><ele>99.0</ele><time>2026-03-24T16:18:09.001Z</time></trkpt><trkpt lat="43.531390012774445" lon="10.53522311450696"><ele>99.0</ele><time>2026-03-24T16:18:10.001Z</time></trkpt><trkpt lat="43.53122107589657" lon="10.535304191418494"><ele>99.0</ele><time>2026-03-24T16:18:11.001Z</time></trkpt><trkpt lat="43.53105423500781" lon="10.53539453116455"><ele>99.33333333333334</ele><time>2026-03-24T16:18:12.001Z</time></trkpt><trkpt lat="43.53088769432302" lon="10.535513701494473"><ele>99.66666666666667</ele><time>2026-03-24T16:18:13.001Z</time></trkpt><trkpt lat="43.53073087529578" lon="10.535657574141933"><ele>100.0</ele><time>2026-03-24T16:18:14.001Z</time></trkpt><trkpt lat="43.53057593313049" lon="10.535820355317151"><ele>100.0</ele><time>2026-03-24T16:18:15.001Z</time></trkpt><trkpt lat="43.53043287799848" lon="10.535980193025472"><ele>100.0</ele><time>2026-03-24T16:18:16.001Z</time></trkpt><trkpt lat="43.53029684696942" lon="10.53612718082003"><ele>100.0</ele><time>2026-03-24T16:18:17.001Z</time></trkpt><trkpt lat="43.530167694217965" lon="10.536264560319132"><ele>97.0</ele><time>2026-03-24T16:18:18.001Z</time></trkpt><trkpt lat="43.53003716361776" lon="10.536402811563642"><ele>94.0</ele><time>2026-03-24T16:18:19.001Z</time></trkpt><trkpt lat="43.529910715675584" lon="10.536535032250354"><ele>91.0</ele><time>2026-03-24T16:18:20.001Z</time></trkpt><trkpt lat="43.52978691321368" lon="10.536670871046722"><ele>91.0</ele><time>2026-03-24T16:18:21.001Z</time></trkpt><trkpt lat="43.52967401488174" lon="10.53680355553851"><ele>91.0</ele><time>2026-03-24T16:18:22.001Z</time></trkpt><trkpt lat="43.52957673106493" lon="10.536954990534722"><ele>91.0</ele><time>2026-03-24T16:18:23.001Z</time></trkpt><trkpt lat="43.529499872386765" lon="10.537102250710515"><ele>91.0</ele><time>2026-03-24T16:18:24.001Z</time></trkpt><trkpt lat="43.529443680330296" lon="10.537276825896326"><ele>89.25</ele><time>2026-03-24T16:18:25.001Z</time></trkpt><trkpt lat="43.529410361907466" lon="10.537461084926575"><ele>87.5</ele><time>2026-03-24T16:18:26.001Z</time></trkpt><trkpt lat="43.529407495171654" lon="10.5376606420416"><ele>85.75</ele><time>2026-03-24T16:18:27.001Z</time></trkpt><trkpt lat="43.529391873552186" lon="10.537887350272175"><ele>84.0</ele><time>2026-03-24T16:18:28.001Z</time></trkpt><trkpt lat="43.52937777874178" lon="10.53810259276947"><ele>84.0</ele><time>2026-03-24T16:18:29.001Z</time></trkpt><trkpt lat="43.52936058201129" lon="10.538299998534907"><ele>84.0</ele><time>2026-03-24T16:18:30.001Z</time></trkpt><trkpt lat="43.52934583775672" lon="10.538488854169733"><ele>84.0</ele><time>2026-03-24T16:18:31.001Z</time></trkpt><trkpt lat="43.52932900164183" lon="10.538667380999653"><ele>84.0</ele><time>2026-03-24T16:18:32.001Z</time></trkpt><trkpt lat="43.529301099271706" lon="10.538819810181188"><ele>84.0</ele><time>2026-03-24T16:18:33.001Z</time></trkpt><trkpt lat="43.529262136300794" lon="10.538937427078343"><ele>84.0</ele><time>2026-03-24T16:18:34.001Z</time></trkpt><trkpt lat="43.52922250304479" lon="10.539014553412983"><ele>84.0</ele><time>2026-03-24T16:18:35.001Z</time></trkpt><trkpt lat="43.52917275164262" lon="10.539103924670838"><ele>84.0</ele><time>2026-03-24T16:18:39.001Z</time></trkpt><trkpt lat="43.529287323014344" lon="10.53929125420461"><ele>84.0</ele><time>2026-03-24T16:18:40.001Z</time></trkpt><trkpt lat="43.52935264796948" lon="10.539444484272362"><ele>83.0</ele><time>2026-03-24T16:18:41.001Z</time></trkpt><trkpt lat="43.529403814374646" lon="10.53963130454777"><ele>82.0</ele><time>2026-03-24T16:18:42.001Z</time></trkpt><trkpt lat="43.52941513758822" lon="10.539867555076958"><ele>81.0</ele><time>2026-03-24T16:18:43.001Z</time></trkpt><trkpt lat="43.52938147175055" lon="10.540110511741377"><ele>81.0</ele><time>2026-03-24T16:18:44.001Z</time></trkpt><trkpt lat="43.52932923760373" lon="10.540360665755804"><ele>81.0</ele><time>2026-03-24T16:18:45.001Z</time></trkpt><trkpt lat="43.52927408121153" lon="10.540604929077709"><ele>81.0</ele><time>2026-03-24T16:18:46.001Z</time></trkpt><trkpt lat="43.52921639720622" lon="10.540829069823385"><ele>81.0</ele><time>2026-03-24T16:18:47.001Z</time></trkpt><trkpt lat="43.52915997775401" lon="10.541079087778774"><ele>81.0</ele><time>2026-03-24T16:18:48.001Z</time></trkpt><trkpt lat="43.529104501198006" lon="10.541349173775018"><ele>81.0</ele><time>2026-03-24T16:18:49.001Z</time></trkpt><trkpt lat="43.52906176366527" lon="10.54162967177614"><ele>81.0</ele><time>2026-03-24T16:18:50Z</time></trkpt><trkpt lat="43.529037771456345" lon="10.54193520044077"><ele>81.0</ele><time>2026-03-24T16:18:51Z</time></trkpt><trkpt lat="43.529031720207556" lon="10.542268192512852"><ele>83.0</ele><time>2026-03-24T16:18:52Z</time></trkpt><trkpt lat="43.52903698043611" lon="10.542618379980853"><ele>85.0</ele><time>2026-03-24T16:18:53Z</time></trkpt><trkpt lat="43.529041885647885" lon="10.542971299692505"><ele>86.0</ele><time>2026-03-24T16:18:54Z</time></trkpt><trkpt lat="43.529030587654574" lon="10.543308072956615"><ele>87.0</ele><time>2026-03-24T16:18:55Z</time></trkpt><trkpt lat="43.52897442888465" lon="10.543629901852054"><ele>88.0</ele><time>2026-03-24T16:18:56Z</time></trkpt><trkpt lat="43.52894355987019" lon="10.543923219102659"><ele>89.0</ele><time>2026-03-24T16:18:57Z</time></trkpt><trkpt lat="43.52890190727653" lon="10.54415136796304"><ele>90.0</ele><time>2026-03-24T16:18:58Z</time></trkpt><trkpt lat="43.52884982352965" lon="10.544373357410452"><ele>90.33333333333333</ele><time>2026-03-24T16:18:59Z</time></trkpt><trkpt lat="43.52873528659798" lon="10.544591855872406"><ele>90.66666666666666</ele><time>2026-03-24T16:19:00Z</time></trkpt><trkpt lat="43.528593949240154" lon="10.54481088775469"><ele>91.0</ele><time>2026-03-24T16:19:01Z</time></trkpt><trkpt lat="43.5284471094485" lon="10.545055154628926"><ele>91.0</ele><time>2026-03-24T16:19:02Z</time></trkpt><trkpt lat="43.52828261027782" lon="10.545296980956353"><ele>91.0</ele><time>2026-03-24T16:19:03Z</time></trkpt><trkpt lat="43.52812454136368" lon="10.545551146097921"><ele>91.0</ele><time>2026-03-24T16:19:04Z</time></trkpt><trkpt lat="43.52797887696872" lon="10.545824375090502"><ele>91.0</ele><time>2026-03-24T16:19:05Z</time></trkpt><trkpt lat="43.527851897349834" lon="10.546126823286851"><ele>96.5</ele><time>2026-03-24T16:19:06Z</time></trkpt><trkpt lat="43.52774857211043" lon="10.546451462644939"><ele>102.0</ele><time>2026-03-24T16:19:07Z</time></trkpt><trkpt lat="43.52767885832321" lon="10.546746920861457"><ele>102.0</ele><time>2026-03-24T16:19:08Z</time></trkpt><trkpt lat="43.52762405434527" lon="10.54698880779965"><ele>102.0</ele><time>2026-03-24T16:19:09Z</time></trkpt><trkpt lat="43.527592680852734" lon="10.547183790475763"><ele>102.0</ele><time>2026-03-24T16:19:10Z</time></trkpt><trkpt lat="43.52760761720236" lon="10.547380054956468"><ele>102.33333333333334</ele><time>2026-03-24T16:19:11Z</time></trkpt><trkpt lat="43.527684737391354" lon="10.547560819091295"><ele>102.66666666666667</ele><time>2026-03-24T16:19:12Z</time></trkpt><trkpt lat="43.527812165565685" lon="10.547722262186479"><ele>103.0</ele><time>2026-03-24T16:19:13Z</time></trkpt><trkpt lat="43.52797549505589" lon="10.547880203669122"><ele>103.33333333333334</ele><time>2026-03-24T16:19:14Z</time></trkpt><trkpt lat="43.52814636336029" lon="10.548037673287414"><ele>103.66666666666666</ele><time>2026-03-24T16:19:15Z</time></trkpt><trkpt lat="43.52827373501606" lon="10.548215199783822"><ele>104.0</ele><time>2026-03-24T16:19:16Z</time></trkpt><trkpt lat="43.52838247897964" lon="10.54842742148663"><ele>104.0</ele><time>2026-03-24T16:19:17Z</time></trkpt><trkpt lat="43.5285103426872" lon="10.54867467586029"><ele>104.0</ele><time>2026-03-24T16:19:18Z</time></trkpt><trkpt lat="43.52863391506647" lon="10.548954683719101"><ele>101.5</ele><time>2026-03-24T16:19:19Z</time></trkpt><trkpt lat="43.528779812954305" lon="10.549254754056221"><ele>99.0</ele><time>2026-03-24T16:19:20Z</time></trkpt><trkpt lat="43.5288776439344" lon="10.549560298667473"><ele>99.0</ele><time>2026-03-24T16:19:21Z</time></trkpt><trkpt lat="43.52898235587298" lon="10.549808273320604"><ele>99.0</ele><time>2026-03-24T16:19:22Z</time></trkpt><trkpt lat="43.52905095011324" lon="10.550036860538178"><ele>99.0</ele><time>2026-03-24T16:19:23Z</time></trkpt><trkpt lat="43.529110086540285" lon="10.550241439572094"><ele>99.25</ele><time>2026-03-24T16:19:24Z</time></trkpt><trkpt lat="43.5291367233917" lon="10.550430509921185"><ele>99.5</ele><time>2026-03-24T16:19:25Z</time></trkpt><trkpt lat="43.52910491962946" lon="10.550603824462218"><ele>99.75</ele><time>2026-03-24T16:19:26Z</time></trkpt><trkpt lat="43.528995330324385" lon="10.550699065641696"><ele>100.0</ele><time>2026-03-24T16:19:27Z</time></trkpt><trkpt lat="43.528884802486274" lon="10.550743790737195"><ele>100.0</ele><time>2026-03-24T16:19:28Z</time></trkpt><trkpt lat="43.528746496278195" lon="10.55073663983568"><ele>100.0</ele><time>2026-03-24T16:19:29Z</time></trkpt><trkpt lat="43.52858212364815" lon="10.55069910091238"><ele>100.0</ele><time>2026-03-24T16:19:30Z</time></trkpt><trkpt lat="43.52840928378573" lon="10.550668693715725"><ele>101.0</ele><time>2026-03-24T16:19:31Z</time></trkpt><trkpt lat="43.52826947134947" lon="10.550668593056278"><ele>102.0</ele><time>2026-03-24T16:19:32Z</time></trkpt><trkpt lat="43.52816080260919" lon="10.550758378801937"><ele>103.0</ele><time>2026-03-24T16:19:33Z</time></trkpt><trkpt lat="43.52808281971449" lon="10.550929185677898"><ele>104.0</ele><time>2026-03-24T16:19:34Z</time></trkpt><trkpt lat="43.52805375823697" lon="10.551125774993517"><ele>103.0</ele><time>2026-03-24T16:19:35Z</time></trkpt><trkpt lat="43.528081310619044" lon="10.551329735232704"><ele>102.0</ele><time>2026-03-24T16:19:36Z</time></trkpt><trkpt lat="43.528152094184506" lon="10.551554911549776"><ele>101.0</ele><time>2026-03-24T16:19:37Z</time></trkpt><trkpt lat="43.528235308824776" lon="10.551808093692227"><ele>101.0</ele><time>2026-03-24T16:19:38Z</time></trkpt><trkpt lat="43.52830539670273" lon="10.552020435098328"><ele>101.0</ele><time>2026-03-24T16:19:39Z</time></trkpt><trkpt lat="43.528368514529355" lon="10.55220155644222"><ele>101.0</ele><time>2026-03-24T16:19:40Z</time></trkpt><trkpt lat="43.52838842855749" lon="10.552386453279132"><ele>100.66666666666666</ele><time>2026-03-24T16:19:41Z</time></trkpt><trkpt lat="43.52832618821324" lon="10.552583144457712"><ele>100.33333333333334</ele><time>2026-03-24T16:19:42Z</time></trkpt><trkpt lat="43.52822100500529" lon="10.552756232295511"><ele>100.0</ele><time>2026-03-24T16:19:43Z</time></trkpt><trkpt lat="43.5280723263423" lon="10.552890809535521"><ele>100.33333333333334</ele><time>2026-03-24T16:19:44Z</time></trkpt><trkpt lat="43.52791140991961" lon="10.552991758917441"><ele>100.66666666666666</ele><time>2026-03-24T16:19:45.001Z</time></trkpt><trkpt lat="43.527751280003216" lon="10.553018700132375"><ele>101.0</ele><time>2026-03-24T16:19:46.001Z</time></trkpt><trkpt lat="43.52758076567572" lon="10.553000656175216"><ele>101.0</ele><time>2026-03-24T16:19:47.001Z</time></trkpt><trkpt lat="43.52742763897741" lon="10.55300305308542"><ele>101.0</ele><time>2026-03-24T16:19:48.001Z</time></trkpt><trkpt lat="43.52726786390981" lon="10.553065161960655"><ele>101.0</ele><time>2026-03-24T16:19:49.001Z</time></trkpt><trkpt lat="43.5271260563058" lon="10.553184330399906"><ele>102.33333333333333</ele><time>2026-03-24T16:19:50.001Z</time></trkpt><trkpt lat="43.52698624148979" lon="10.55332524566344"><ele>103.66666666666666</ele><time>2026-03-24T16:19:51.001Z</time></trkpt><trkpt lat="43.526876054610334" lon="10.553440841514673"><ele>105.0</ele><time>2026-03-24T16:19:52.001Z</time></trkpt><trkpt lat="43.526746100591595" lon="10.553526197078154"><ele>105.0</ele><time>2026-03-24T16:19:53.001Z</time></trkpt><trkpt lat="43.52658779595776" lon="10.553556405732612"><ele>105.0</ele><time>2026-03-24T16:19:54.001Z</time></trkpt><trkpt lat="43.526411794350736" lon="10.55352841767897"><ele>105.0</ele><time>2026-03-24T16:19:55.001Z</time></trkpt><trkpt lat="43.5262218655987" lon="10.553472773439738"><ele>104.33333333333334</ele><time>2026-03-24T16:19:56.001Z</time></trkpt><trkpt lat="43.526032567327924" lon="10.553431524734837"><ele>103.66666666666667</ele><time>2026-03-24T16:19:57.001Z</time></trkpt><trkpt lat="43.52585921036997" lon="10.553437506671797"><ele>103.0</ele><time>2026-03-24T16:19:58.001Z</time></trkpt><trkpt lat="43.52567375379866" lon="10.5534469849276"><ele>103.0</ele><time>2026-03-24T16:19:59.001Z</time></trkpt><trkpt lat="43.525500813101125" lon="10.55347701378522"><ele>103.0</ele><time>2026-03-24T16:20:00.001Z</time></trkpt><trkpt lat="43.5253233920088" lon="10.553513058478243"><ele>103.0</ele><time>2026-03-24T16:20:01.001Z</time></trkpt><trkpt lat="43.52512701998886" lon="10.5535736800477"><ele>101.0</ele><time>2026-03-24T16:20:02.001Z</time></trkpt><trkpt lat="43.52494342891721" lon="10.553619088545247"><ele>99.0</ele><time>2026-03-24T16:20:03.001Z</time></trkpt><trkpt lat="43.52474615278771" lon="10.553659502044393"><ele>97.0</ele><time>2026-03-24T16:20:04.001Z</time></trkpt><trkpt lat="43.524540054394095" lon="10.553733015192924"><ele>96.33333333333334</ele><time>2026-03-24T16:20:05.001Z</time></trkpt><trkpt lat="43.52433385794876" lon="10.55374306414791"><ele>95.66666666666667</ele><time>2026-03-24T16:20:06.001Z</time></trkpt><trkpt lat="43.52414736510088" lon="10.553786172630627"><ele>95.0</ele><time>2026-03-24T16:20:07.001Z</time></trkpt><trkpt lat="43.52397130392175" lon="10.553830336525147"><ele>95.0</ele><time>2026-03-24T16:20:08.001Z</time></trkpt><trkpt lat="43.523796592158945" lon="10.553896642793196"><ele>95.0</ele><time>2026-03-24T16:20:09.001Z</time></trkpt><trkpt lat="43.5236149646674" lon="10.554016285245877"><ele>95.0</ele><time>2026-03-24T16:20:10.001Z</time></trkpt><trkpt lat="43.523456318848034" lon="10.554131725879273"><ele>95.0</ele><time>2026-03-24T16:20:11.001Z</time></trkpt><trkpt lat="43.52331790120683" lon="10.55427751135213"><ele>95.0</ele><time>2026-03-24T16:20:12.001Z</time></trkpt><trkpt lat="43.52318333624946" lon="10.554423316564717"><ele>95.0</ele><time>2026-03-24T16:20:13.001Z</time></trkpt><trkpt lat="43.52304689150547" lon="10.554542016082502"><ele>95.0</ele><time>2026-03-24T16:20:14.001Z</time></trkpt><trkpt lat="43.52290509273329" lon="10.554600095190512"><ele>95.0</ele><time>2026-03-24T16:20:15.001Z</time></trkpt><trkpt lat="43.52272089936478" lon="10.55461933968953"><ele>95.0</ele><time>2026-03-24T16:20:16.001Z</time></trkpt><trkpt lat="43.52253929204368" lon="10.554561388126825"><ele>89.66666666666667</ele><time>2026-03-24T16:20:17.001Z</time></trkpt><trkpt lat="43.522402416979546" lon="10.554429043079036"><ele>84.33333333333333</ele><time>2026-03-24T16:20:18.001Z</time></trkpt><trkpt lat="43.522251280880745" lon="10.554333319738435"><ele>79.0</ele><time>2026-03-24T16:20:19.001Z</time></trkpt><trkpt lat="43.52209776199349" lon="10.554277228730843"><ele>78.0</ele><time>2026-03-24T16:20:20.001Z</time></trkpt><trkpt lat="43.521923941177754" lon="10.554283224139231"><ele>77.0</ele><time>2026-03-24T16:20:21.001Z</time></trkpt><trkpt lat="43.52176846486044" lon="10.554382755679574"><ele>76.0</ele><time>2026-03-24T16:20:22.001Z</time></trkpt><trkpt lat="43.52164288295664" lon="10.55449929796536"><ele>76.66666666666666</ele><time>2026-03-24T16:20:23.001Z</time></trkpt><trkpt lat="43.52149442754414" lon="10.55466420915165"><ele>77.33333333333333</ele><time>2026-03-24T16:20:24.001Z</time></trkpt><trkpt lat="43.52135568710787" lon="10.554878528256172"><ele>78.0</ele><time>2026-03-24T16:20:25.001Z</time></trkpt><trkpt lat="43.521220667293015" lon="10.55505182000682"><ele>78.0</ele><time>2026-03-24T16:20:26.001Z</time></trkpt><trkpt lat="43.52110072385155" lon="10.555212098654778"><ele>78.0</ele><time>2026-03-24T16:20:27.001Z</time></trkpt><trkpt lat="43.52093147438697" lon="10.5553606028895"><ele>78.0</ele><time>2026-03-24T16:20:28.001Z</time></trkpt><trkpt lat="43.520790479040635" lon="10.555419150164486"><ele>78.0</ele><time>2026-03-24T16:20:29.001Z</time></trkpt><trkpt lat="43.52064437802371" lon="10.555420116471913"><ele>78.0</ele><time>2026-03-24T16:20:30.001Z</time></trkpt><trkpt lat="43.520508086919904" lon="10.555353184448117"><ele>78.0</ele><time>2026-03-24T16:20:31.001Z</time></trkpt><trkpt lat="43.52034385495716" lon="10.555265493599281"><ele>80.0</ele><time>2026-03-24T16:20:32.001Z</time></trkpt><trkpt lat="43.52019305748196" lon="10.555189064098888"><ele>82.0</ele><time>2026-03-24T16:20:33.001Z</time></trkpt><trkpt lat="43.52004954733542" lon="10.555197199576488"><ele>84.0</ele><time>2026-03-24T16:20:34.001Z</time></trkpt><trkpt lat="43.519905612881686" lon="10.555278883347409"><ele>84.66666666666667</ele><time>2026-03-24T16:20:35.001Z</time></trkpt><trkpt lat="43.51974844354075" lon="10.555418789469774"><ele>85.33333333333334</ele><time>2026-03-24T16:20:36.001Z</time></trkpt><trkpt lat="43.51960261655907" lon="10.555521877158034"><ele>86.0</ele><time>2026-03-24T16:20:37.001Z</time></trkpt><trkpt lat="43.51949164581868" lon="10.555648585686328"><ele>86.0</ele><time>2026-03-24T16:20:38.001Z</time></trkpt><trkpt lat="43.519441758143806" lon="10.555841761575461"><ele>86.0</ele><time>2026-03-24T16:20:39.001Z</time></trkpt><trkpt lat="43.519427777020944" lon="10.556071436112665"><ele>86.0</ele><time>2026-03-24T16:20:40.001Z</time></trkpt><trkpt lat="43.519428386299225" lon="10.55626331984066"><ele>84.75</ele><time>2026-03-24T16:20:41.001Z</time></trkpt><trkpt lat="43.51934078608209" lon="10.556375931597653"><ele>83.5</ele><time>2026-03-24T16:20:42.001Z</time></trkpt><trkpt lat="43.519216716547476" lon="10.556424183155679"><ele>82.25</ele><time>2026-03-24T16:20:43.001Z</time></trkpt><trkpt lat="43.51908049053774" lon="10.556383410757903"><ele>81.0</ele><time>2026-03-24T16:20:44.001Z</time></trkpt><trkpt lat="43.51891703649558" lon="10.556334692553815"><ele>81.0</ele><time>2026-03-24T16:20:45.001Z</time></trkpt><trkpt lat="43.51873803650997" lon="10.556229569614601"><ele>81.0</ele><time>2026-03-24T16:20:46.001Z</time></trkpt><trkpt lat="43.51854723221275" lon="10.556131272564533"><ele>81.0</ele><time>2026-03-24T16:20:47.001Z</time></trkpt><trkpt lat="43.51834245051737" lon="10.5560567577846"><ele>84.66666666666667</ele><time>2026-03-24T16:20:48.001Z</time></trkpt><trkpt lat="43.51812903715062" lon="10.55603189742963"><ele>88.33333333333334</ele><time>2026-03-24T16:20:49.001Z</time></trkpt><trkpt lat="43.51791142708632" lon="10.55607256754727"><ele>92.0</ele><time>2026-03-24T16:20:50.001Z</time></trkpt><trkpt lat="43.517694534221675" lon="10.55617195386523"><ele>91.66666666666667</ele><time>2026-03-24T16:20:51.001Z</time></trkpt><trkpt lat="43.51749310969033" lon="10.556297550892971"><ele>91.33333333333333</ele><time>2026-03-24T16:20:52.001Z</time></trkpt><trkpt lat="43.5173141036218" lon="10.556430164668795"><ele>91.0</ele><time>2026-03-24T16:20:53.001Z</time></trkpt><trkpt lat="43.517147307578114" lon="10.55662092233998"><ele>92.33333333333333</ele><time>2026-03-24T16:20:54.001Z</time></trkpt><trkpt lat="43.517014139460336" lon="10.55684051327979"><ele>93.66666666666667</ele><time>2026-03-24T16:20:55Z</time></trkpt><trkpt lat="43.51686889864345" lon="10.556963287672056"><ele>95.0</ele><time>2026-03-24T16:20:56Z</time></trkpt><trkpt lat="43.51671342280181" lon="10.557053002600806"><ele>95.0</ele><time>2026-03-24T16:20:57Z</time></trkpt><trkpt lat="43.516572576576806" lon="10.557124260541954"><ele>95.0</ele><time>2026-03-24T16:20:58Z</time></trkpt><trkpt lat="43.51646703907166" lon="10.55714599947579"><ele>95.0</ele><time>2026-03-24T16:20:59Z</time></trkpt><trkpt lat="43.51637786055875" lon="10.557098798751815"><ele>95.0</ele><time>2026-03-24T16:21:00Z</time></trkpt><trkpt lat="43.51630917957593" lon="10.556976796974643"><ele>96.0</ele><time>2026-03-24T16:21:01Z</time></trkpt><trkpt lat="43.516273404333276" lon="10.55679909625374"><ele>97.0</ele><time>2026-03-24T16:21:02Z</time></trkpt><trkpt lat="43.51622454111086" lon="10.556580487417841"><ele>98.0</ele><time>2026-03-24T16:21:03Z</time></trkpt><trkpt lat="43.51616153579697" lon="10.55634929078792"><ele>99.0</ele><time>2026-03-24T16:21:04Z</time></trkpt><trkpt lat="43.516100292480004" lon="10.556084872811516"><ele>100.0</ele><time>2026-03-24T16:21:05Z</time></trkpt><trkpt lat="43.5160397875577" lon="10.555854112557483"><ele>101.0</ele><time>2026-03-24T16:21:06Z</time></trkpt><trkpt lat="43.51597188520805" lon="10.55567691557352"><ele>101.0</ele><time>2026-03-24T16:21:07Z</time></trkpt><trkpt lat="43.51586530218673" lon="10.555525978947674"><ele>101.0</ele><time>2026-03-24T16:21:08Z</time></trkpt><trkpt lat="43.51571332075131" lon="10.555413332344202"><ele>101.0</ele><time>2026-03-24T16:21:09Z</time></trkpt><trkpt lat="43.51554297925119" lon="10.55533849558959"><ele>100.0</ele><time>2026-03-24T16:21:10Z</time></trkpt><trkpt lat="43.51537460571828" lon="10.555320177076737"><ele>99.0</ele><time>2026-03-24T16:21:11Z</time></trkpt><trkpt lat="43.515203917289845" lon="10.555379362346361"><ele>98.0</ele><time>2026-03-24T16:21:12Z</time></trkpt><trkpt lat="43.515046511832615" lon="10.555519027215944"><ele>98.0</ele><time>2026-03-24T16:21:13Z</time></trkpt><trkpt lat="43.51487635680572" lon="10.555691347849272"><ele>98.0</ele><time>2026-03-24T16:21:14Z</time></trkpt><trkpt lat="43.51469947583032" lon="10.555855164304125"><ele>98.0</ele><time>2026-03-24T16:21:15Z</time></trkpt><trkpt lat="43.51451956617785" lon="10.555985067130568"><ele>98.66666666666666</ele><time>2026-03-24T16:21:16Z</time></trkpt><trkpt lat="43.51436676634572" lon="10.556115227492088"><ele>99.33333333333334</ele><time>2026-03-24T16:21:17Z</time></trkpt><trkpt lat="43.51422157168192" lon="10.556234855138701"><ele>100.0</ele><time>2026-03-24T16:21:18Z</time></trkpt><trkpt lat="43.514088837074915" lon="10.556304827940744"><ele>100.0</ele><time>2026-03-24T16:21:19Z</time></trkpt><trkpt lat="43.51394947207151" lon="10.55630791335971"><ele>100.0</ele><time>2026-03-24T16:21:20Z</time></trkpt><trkpt lat="43.51381210936892" lon="10.556239194416142"><ele>100.0</ele><time>2026-03-24T16:21:21Z</time></trkpt><trkpt lat="43.513701065908" lon="10.556094627012884"><ele>100.0</ele><time>2026-03-24T16:21:22Z</time></trkpt><trkpt lat="43.51359797184177" lon="10.555896001445914"><ele>100.0</ele><time>2026-03-24T16:21:23Z</time></trkpt><trkpt lat="43.51347560686457" lon="10.555679287772547"><ele>100.0</ele><time>2026-03-24T16:21:24Z</time></trkpt><trkpt lat="43.5133722967624" lon="10.555451613368534"><ele>100.0</ele><time>2026-03-24T16:21:25Z</time></trkpt><trkpt lat="43.51323089091758" lon="10.555280799073557"><ele>100.0</ele><time>2026-03-24T16:21:26Z</time></trkpt><trkpt lat="43.513059099346926" lon="10.5551938848126"><ele>100.0</ele><time>2026-03-24T16:21:27Z</time></trkpt><trkpt lat="43.51287610010486" lon="10.555183755746969"><ele>100.0</ele><time>2026-03-24T16:21:28Z</time></trkpt><trkpt lat="43.51270043878842" lon="10.555256752080059"><ele>99.33333333333334</ele><time>2026-03-24T16:21:29Z</time></trkpt><trkpt lat="43.5125183472802" lon="10.555389535042849"><ele>98.66666666666666</ele><time>2026-03-24T16:21:30Z</time></trkpt><trkpt lat="43.51231826564757" lon="10.555539630950252"><ele>98.0</ele><time>2026-03-24T16:21:31Z</time></trkpt><trkpt lat="43.5121113171815" lon="10.555668395386983"><ele>99.66666666666666</ele><time>2026-03-24T16:21:32Z</time></trkpt><trkpt lat="43.51190553920032" lon="10.555795321133367"><ele>101.33333333333334</ele><time>2026-03-24T16:21:33Z</time></trkpt><trkpt lat="43.51169321941906" lon="10.555887785507707"><ele>103.0</ele><time>2026-03-24T16:21:34Z</time></trkpt><trkpt lat="43.51146522244242" lon="10.555961642754404"><ele>103.0</ele><time>2026-03-24T16:21:35Z</time></trkpt><trkpt lat="43.51123802932948" lon="10.556040246784022"><ele>103.0</ele><time>2026-03-24T16:21:36Z</time></trkpt><trkpt lat="43.51099407851822" lon="10.556083933913298"><ele>103.0</ele><time>2026-03-24T16:21:37Z</time></trkpt><trkpt lat="43.51074581380416" lon="10.55612347965028"><ele>103.0</ele><time>2026-03-24T16:21:38Z</time></trkpt><trkpt lat="43.51050543462884" lon="10.55615452020036"><ele>102.5</ele><time>2026-03-24T16:21:39Z</time></trkpt><trkpt lat="43.510270126612255" lon="10.556183937337755"><ele>102.0</ele><time>2026-03-24T16:21:40Z</time></trkpt><trkpt lat="43.510028800361596" lon="10.556241466349324"><ele>103.0</ele><time>2026-03-24T16:21:41Z</time></trkpt><trkpt lat="43.50978007106821" lon="10.556345094799244"><ele>104.0</ele><time>2026-03-24T16:21:42Z</time></trkpt><trkpt lat="43.509552352890815" lon="10.55649876605527"><ele>104.0</ele><time>2026-03-24T16:21:43Z</time></trkpt><trkpt lat="43.50933500184208" lon="10.5567074291125"><ele>104.0</ele><time>2026-03-24T16:21:44Z</time></trkpt><trkpt lat="43.50912109199444" lon="10.556963083115996"><ele>105.0</ele><time>2026-03-24T16:21:45Z</time></trkpt><trkpt lat="43.50890354915856" lon="10.55723620547677"><ele>106.0</ele><time>2026-03-24T16:21:46Z</time></trkpt><trkpt lat="43.508680322000295" lon="10.55751712941009"><ele>106.0</ele><time>2026-03-24T16:21:47Z</time></trkpt><trkpt lat="43.50845249326941" lon="10.557793690501214"><ele>106.0</ele><time>2026-03-24T16:21:48Z</time></trkpt><trkpt lat="43.5082360341821" lon="10.558050534613704"><ele>106.66666666666667</ele><time>2026-03-24T16:21:49Z</time></trkpt><trkpt lat="43.50804434212445" lon="10.55824681843994"><ele>107.33333333333334</ele><time>2026-03-24T16:21:50Z</time></trkpt><trkpt lat="43.507892386445064" lon="10.558428312820926"><ele>108.0</ele><time>2026-03-24T16:21:51Z</time></trkpt><trkpt lat="43.50773986419417" lon="10.558587420733225"><ele>108.0</ele><time>2026-03-24T16:21:52Z</time></trkpt><trkpt lat="43.50755026966364" lon="10.558689190141623"><ele>108.0</ele><time>2026-03-24T16:21:53Z</time></trkpt><trkpt lat="43.5073248989267" lon="10.55874502170391"><ele>108.0</ele><time>2026-03-24T16:21:54Z</time></trkpt><trkpt lat="43.507073328917336" lon="10.558792551101902"><ele>112.5</ele><time>2026-03-24T16:21:55Z</time></trkpt><trkpt lat="43.50681053167441" lon="10.558855801097474"><ele>117.0</ele><time>2026-03-24T16:21:56.001Z</time></trkpt><trkpt lat="43.50656298789852" lon="10.558910433094"><ele>117.0</ele><time>2026-03-24T16:21:57.001Z</time></trkpt><trkpt lat="43.506334830617796" lon="10.558974256866152"><ele>117.0</ele><time>2026-03-24T16:21:58.001Z</time></trkpt><trkpt lat="43.506139323355924" lon="10.559053800847074"><ele>117.0</ele><time>2026-03-24T16:21:59.001Z</time></trkpt><trkpt lat="43.50593426140371" lon="10.559207615696815"><ele>115.0</ele><time>2026-03-24T16:22:00.001Z</time></trkpt><trkpt lat="43.50573763555024" lon="10.559408398067982"><ele>113.0</ele><time>2026-03-24T16:22:01.001Z</time></trkpt><trkpt lat="43.50551041115387" lon="10.559579473077363"><ele>117.0</ele><time>2026-03-24T16:22:02.001Z</time></trkpt><trkpt lat="43.505268949315166" lon="10.559690245277103"><ele>121.0</ele><time>2026-03-24T16:22:03.001Z</time></trkpt><trkpt lat="43.50500291577653" lon="10.559765267762266"><ele>121.0</ele><time>2026-03-24T16:22:04.001Z</time></trkpt><trkpt lat="43.5047483352635" lon="10.559836269460748"><ele>121.0</ele><time>2026-03-24T16:22:05.001Z</time></trkpt><trkpt lat="43.50452846531094" lon="10.559909124674713"><ele>120.66666666666667</ele><time>2026-03-24T16:22:06.001Z</time></trkpt><trkpt lat="43.50432283822075" lon="10.559969651661941"><ele>120.33333333333334</ele><time>2026-03-24T16:22:07.001Z</time></trkpt><trkpt lat="43.50413568172882" lon="10.560035301925225"><ele>120.0</ele><time>2026-03-24T16:22:08.001Z</time></trkpt><trkpt lat="43.503970720699556" lon="10.560119914325384"><ele>120.0</ele><time>2026-03-24T16:22:09.001Z</time></trkpt><trkpt lat="43.503803562841014" lon="10.560242444082492"><ele>120.0</ele><time>2026-03-24T16:22:10.001Z</time></trkpt><trkpt lat="43.503641211270235" lon="10.560400893058965"><ele>120.0</ele><time>2026-03-24T16:22:11.001Z</time></trkpt><trkpt lat="43.50350861266538" lon="10.560537339398858"><ele>122.2</ele><time>2026-03-24T16:22:12.001Z</time></trkpt><trkpt lat="43.50339591344877" lon="10.560638843473416"><ele>124.4</ele><time>2026-03-24T16:22:13.001Z</time></trkpt><trkpt lat="43.50330898387392" lon="10.56070292566478"><ele>126.6</ele><time>2026-03-24T16:22:14.001Z</time></trkpt><trkpt lat="43.50323535177819" lon="10.560719766488031"><ele>128.8</ele><time>2026-03-24T16:22:15.001Z</time></trkpt><trkpt lat="43.50317049354966" lon="10.560675464934116"><ele>131.0</ele><time>2026-03-24T16:22:16.001Z</time></trkpt><trkpt lat="43.50314823407674" lon="10.56053771294901"><ele>131.0</ele><time>2026-03-24T16:22:17.001Z</time></trkpt><trkpt lat="43.5030608390467" lon="10.560403349680785"><ele>131.0</ele><time>2026-03-24T16:22:18.001Z</time></trkpt><trkpt lat="43.50297525846424" lon="10.560209534641682"><ele>131.0</ele><time>2026-03-24T16:22:19.001Z</time></trkpt><trkpt lat="43.50286842706603" lon="10.560008505629543"><ele>131.0</ele><time>2026-03-24T16:22:20.001Z</time></trkpt><trkpt lat="43.50274448495168" lon="10.55978053140223"><ele>131.0</ele><time>2026-03-24T16:22:21.001Z</time></trkpt><trkpt lat="43.50262776429716" lon="10.55952371618477"><ele>131.0</ele><time>2026-03-24T16:22:22.001Z</time></trkpt><trkpt lat="43.50249610944774" lon="10.559267077678152"><ele>131.0</ele><time>2026-03-24T16:22:23.001Z</time></trkpt><trkpt lat="43.50234858401615" lon="10.559018537469534"><ele>131.0</ele><time>2026-03-24T16:22:24.001Z</time></trkpt><trkpt lat="43.50224244441161" lon="10.558771933489375"><ele>131.0</ele><time>2026-03-24T16:22:25.001Z</time></trkpt><trkpt lat="43.50212380900583" lon="10.558578219847954"><ele>131.66666666666666</ele><time>2026-03-24T16:22:26.001Z</time></trkpt><trkpt lat="43.50201058827625" lon="10.55839353656514"><ele>132.33333333333334</ele><time>2026-03-24T16:22:27.001Z</time></trkpt><trkpt lat="43.50187890320285" lon="10.55826168151495"><ele>133.0</ele><time>2026-03-24T16:22:28.001Z</time></trkpt><trkpt lat="43.50172218048152" lon="10.558207762149937"><ele>133.0</ele><time>2026-03-24T16:22:29.001Z</time></trkpt><trkpt lat="43.50155044472055" lon="10.558221219839623"><ele>133.0</ele><time>2026-03-24T16:22:30.001Z</time></trkpt><trkpt lat="43.50136879525899" lon="10.558291415214134"><ele>133.0</ele><time>2026-03-24T16:22:31.001Z</time></trkpt><trkpt lat="43.50116348358285" lon="10.558364226391868"><ele>132.5</ele><time>2026-03-24T16:22:32.001Z</time></trkpt><trkpt lat="43.5009366428494" lon="10.558449075912211"><ele>132.0</ele><time>2026-03-24T16:22:33.001Z</time></trkpt><trkpt lat="43.50071367703719" lon="10.558529499367221"><ele>132.0</ele><time>2026-03-24T16:22:34.001Z</time></trkpt><trkpt lat="43.500515137178795" lon="10.558496270627819"><ele>132.0</ele><time>2026-03-24T16:22:35.001Z</time></trkpt><trkpt lat="43.50030325415021" lon="10.558433576005795"><ele>132.0</ele><time>2026-03-24T16:22:36.001Z</time></trkpt><trkpt lat="43.500082267626674" lon="10.558345210080047"><ele>134.0</ele><time>2026-03-24T16:22:37.001Z</time></trkpt><trkpt lat="43.49987257552088" lon="10.558228306658156"><ele>136.0</ele><time>2026-03-24T16:22:38.001Z</time></trkpt><trkpt lat="43.49966997250001" lon="10.558166781603926"><ele>138.0</ele><time>2026-03-24T16:22:39.001Z</time></trkpt><trkpt lat="43.49944608769852" lon="10.558117529118544"><ele>141.5</ele><time>2026-03-24T16:22:40.001Z</time></trkpt><trkpt lat="43.499201155146956" lon="10.558126648783595"><ele>145.0</ele><time>2026-03-24T16:22:41.001Z</time></trkpt><trkpt lat="43.4989947958432" lon="10.558176895781191"><ele>145.0</ele><time>2026-03-24T16:22:42.001Z</time></trkpt><trkpt lat="43.49882115790188" lon="10.558147349919581"><ele>145.0</ele><time>2026-03-24T16:22:43.001Z</time></trkpt><trkpt lat="43.498654569237075" lon="10.558229059585498"><ele>145.0</ele><time>2026-03-24T16:22:44.001Z</time></trkpt><trkpt lat="43.49848453944613" lon="10.557908534898782"><ele>141.33333333333334</ele><time>2026-03-24T16:22:45.001Z</time></trkpt><trkpt lat="43.498272765987586" lon="10.557819045641825"><ele>137.66666666666666</ele><time>2026-03-24T16:22:46.001Z</time></trkpt><trkpt lat="43.498050424391316" lon="10.557790632348308"><ele>134.0</ele><time>2026-03-24T16:22:47.001Z</time></trkpt><trkpt lat="43.49780968519819" lon="10.557829235368994"><ele>143.0</ele><time>2026-03-24T16:22:48.001Z</time></trkpt><trkpt lat="43.49758290076931" lon="10.557890647570161"><ele>152.0</ele><time>2026-03-24T16:22:49.001Z</time></trkpt><trkpt lat="43.49735426760222" lon="10.55793782876551"><ele>152.0</ele><time>2026-03-24T16:22:50.001Z</time></trkpt><trkpt lat="43.49713294541255" lon="10.558081851811298"><ele>152.0</ele><time>2026-03-24T16:22:51.001Z</time></trkpt><trkpt lat="43.49689796837193" lon="10.558172054444414"><ele>150.66666666666666</ele><time>2026-03-24T16:22:52.001Z</time></trkpt><trkpt lat="43.496669495141596" lon="10.558200077700077"><ele>149.33333333333334</ele><time>2026-03-24T16:22:53.001Z</time></trkpt><trkpt lat="43.49648967351278" lon="10.558265326997038"><ele>148.0</ele><time>2026-03-24T16:22:54.001Z</time></trkpt><trkpt lat="43.496322191195" lon="10.558384583599628"><ele>144.5</ele><time>2026-03-24T16:22:55.001Z</time></trkpt><trkpt lat="43.49615136713712" lon="10.558585152422385"><ele>141.0</ele><time>2026-03-24T16:22:56.001Z</time></trkpt><trkpt lat="43.4959786224391" lon="10.558815302591087"><ele>147.0</ele><time>2026-03-24T16:22:57.001Z</time></trkpt><trkpt lat="43.49582140434756" lon="10.558970071296367"><ele>153.0</ele><time>2026-03-24T16:22:58.001Z</time></trkpt><trkpt lat="43.49564079496864" lon="10.55907100482949"><ele>159.0</ele><time>2026-03-24T16:22:59.001Z</time></trkpt><trkpt lat="43.49548251763859" lon="10.559078892802619"><ele>158.33333333333334</ele><time>2026-03-24T16:23:00.001Z</time></trkpt><trkpt lat="43.49530920702999" lon="10.559017963055927"><ele>157.66666666666669</ele><time>2026-03-24T16:23:01Z</time></trkpt><trkpt lat="43.49511450970807" lon="10.558969532570849"><ele>157.0</ele><time>2026-03-24T16:23:02Z</time></trkpt><trkpt lat="43.49492754557475" lon="10.558951763764611"><ele>157.0</ele><time>2026-03-24T16:23:03Z</time></trkpt><trkpt lat="43.49474341944929" lon="10.559033871124225"><ele>157.0</ele><time>2026-03-24T16:23:04Z</time></trkpt><trkpt lat="43.4945500747688" lon="10.55914570095947"><ele>157.0</ele><time>2026-03-24T16:23:05Z</time></trkpt><trkpt lat="43.494358621843695" lon="10.559183242963277"><ele>157.33333333333334</ele><time>2026-03-24T16:23:06Z</time></trkpt><trkpt lat="43.49417955809731" lon="10.559155471211497"><ele>157.66666666666666</ele><time>2026-03-24T16:23:07Z</time></trkpt><trkpt lat="43.4940014534434" lon="10.559077623447045"><ele>158.0</ele><time>2026-03-24T16:23:08Z</time></trkpt><trkpt lat="43.493800335495735" lon="10.558989980412647"><ele>158.66666666666666</ele><time>2026-03-24T16:23:09Z</time></trkpt><trkpt lat="43.49361704929775" lon="10.558910428021019"><ele>159.33333333333334</ele><time>2026-03-24T16:23:10Z</time></trkpt><trkpt lat="43.49342078313037" lon="10.558909710593158"><ele>160.0</ele><time>2026-03-24T16:23:11Z</time></trkpt><trkpt lat="43.49320332655123" lon="10.558965082615327"><ele>160.0</ele><time>2026-03-24T16:23:12Z</time></trkpt><trkpt lat="43.493006696590626" lon="10.558962467476983"><ele>160.0</ele><time>2026-03-24T16:23:13Z</time></trkpt><trkpt lat="43.492819684659295" lon="10.558973295988887"><ele>160.0</ele><time>2026-03-24T16:23:14Z</time></trkpt><trkpt lat="43.492662028155706" lon="10.558979422559082"><ele>159.66666666666669</ele><time>2026-03-24T16:23:15Z</time></trkpt><trkpt lat="43.49250879751273" lon="10.559050195485757"><ele>159.33333333333334</ele><time>2026-03-24T16:23:16Z</time></trkpt><trkpt lat="43.4923886207133" lon="10.559196103778394"><ele>159.0</ele><time>2026-03-24T16:23:17Z</time></trkpt><trkpt lat="43.49229071987693" lon="10.559384699090051"><ele>159.0</ele><time>2026-03-24T16:23:18Z</time></trkpt><trkpt lat="43.49220259075214" lon="10.559590304431724"><ele>159.0</ele><time>2026-03-24T16:23:19Z</time></trkpt><trkpt lat="43.49208819630902" lon="10.55980040328608"><ele>159.0</ele><time>2026-03-24T16:23:20Z</time></trkpt><trkpt lat="43.491966262509415" lon="10.560022098142634"><ele>159.0</ele><time>2026-03-24T16:23:21Z</time></trkpt><trkpt lat="43.49181670807314" lon="10.560199201444728"><ele>159.0</ele><time>2026-03-24T16:23:22Z</time></trkpt><trkpt lat="43.49165192308643" lon="10.56030619023656"><ele>159.0</ele><time>2026-03-24T16:23:23Z</time></trkpt><trkpt lat="43.491456443670096" lon="10.560418408036707"><ele>160.0</ele><time>2026-03-24T16:23:24Z</time></trkpt><trkpt lat="43.49128582180579" lon="10.56051876120594"><ele>161.0</ele><time>2026-03-24T16:23:25Z</time></trkpt><trkpt lat="43.491143325556784" lon="10.56065616005726"><ele>162.0</ele><time>2026-03-24T16:23:26Z</time></trkpt><trkpt lat="43.49100730850401" lon="10.560820941304641"><ele>162.0</ele><time>2026-03-24T16:23:27Z</time></trkpt><trkpt lat="43.490897372997445" lon="10.5610557500003"><ele>162.0</ele><time>2026-03-24T16:23:28Z</time></trkpt><trkpt lat="43.4908025975822" lon="10.561299005993348"><ele>162.0</ele><time>2026-03-24T16:23:29Z</time></trkpt><trkpt lat="43.49069552289126" lon="10.561409839624927"><ele>165.66666666666666</ele><time>2026-03-24T16:23:30Z</time></trkpt><trkpt lat="43.490577703933546" lon="10.56146459789695"><ele>169.33333333333331</ele><time>2026-03-24T16:23:31Z</time></trkpt><trkpt lat="43.49042387295808" lon="10.56152622091819"><ele>173.0</ele><time>2026-03-24T16:23:32Z</time></trkpt><trkpt lat="43.49023676949652" lon="10.561536403593907"><ele>173.0</ele><time>2026-03-24T16:23:33Z</time></trkpt><trkpt lat="43.49006194264931" lon="10.561597352469413"><ele>173.0</ele><time>2026-03-24T16:23:34Z</time></trkpt><trkpt lat="43.48990349069222" lon="10.561717436727301"><ele>173.0</ele><time>2026-03-24T16:23:35Z</time></trkpt><trkpt lat="43.48978275304282" lon="10.56190969445639"><ele>174.75</ele><time>2026-03-24T16:23:36Z</time></trkpt><trkpt lat="43.4897054000416" lon="10.562109640749487"><ele>176.5</ele><time>2026-03-24T16:23:37Z</time></trkpt><trkpt lat="43.48961264498901" lon="10.562237372998009"><ele>178.25</ele><time>2026-03-24T16:23:38Z</time></trkpt><trkpt lat="43.48953421708766" lon="10.562325025991997"><ele>180.0</ele><time>2026-03-24T16:23:39Z</time></trkpt><trkpt lat="43.48941845539436" lon="10.562322270608949"><ele>180.0</ele><time>2026-03-24T16:23:40Z</time></trkpt><trkpt lat="43.48933695696015" lon="10.562190789342404"><ele>180.0</ele><time>2026-03-24T16:23:41Z</time></trkpt><trkpt lat="43.489264306000564" lon="10.562042301968848"><ele>180.0</ele><time>2026-03-24T16:23:42Z</time></trkpt><trkpt lat="43.48918100037735" lon="10.561854369580274"><ele>180.0</ele><time>2026-03-24T16:23:43Z</time></trkpt><trkpt lat="43.48908821133091" lon="10.561667857328633"><ele>178.25</ele><time>2026-03-24T16:23:44Z</time></trkpt><trkpt lat="43.48899800028821" lon="10.561525490161044"><ele>176.5</ele><time>2026-03-24T16:23:45Z</time></trkpt><trkpt lat="43.48887680788663" lon="10.56143713015107"><ele>174.75</ele><time>2026-03-24T16:23:46Z</time></trkpt><trkpt lat="43.4887397272349" lon="10.561470419692837"><ele>173.0</ele><time>2026-03-24T16:23:47Z</time></trkpt><trkpt lat="43.48860213490621" lon="10.561562188310054"><ele>172.66666666666666</ele><time>2026-03-24T16:23:48Z</time></trkpt><trkpt lat="43.488457068997924" lon="10.56170031698649"><ele>172.33333333333334</ele><time>2026-03-24T16:23:49Z</time></trkpt><trkpt lat="43.4882954131141" lon="10.561852914622053"><ele>172.0</ele><time>2026-03-24T16:23:50Z</time></trkpt><trkpt lat="43.48814332157932" lon="10.562014305335827"><ele>173.33333333333334</ele><time>2026-03-24T16:23:51Z</time></trkpt><trkpt lat="43.48801470202722" lon="10.562172984091582"><ele>174.66666666666666</ele><time>2026-03-24T16:23:52Z</time></trkpt><trkpt lat="43.4878990975202" lon="10.56232693259814"><ele>176.0</ele><time>2026-03-24T16:23:53Z</time></trkpt><trkpt lat="43.487779490161536" lon="10.562499582556383"><ele>175.0</ele><time>2026-03-24T16:23:54Z</time></trkpt><trkpt lat="43.48765297892348" lon="10.562701354269429"><ele>174.0</ele><time>2026-03-24T16:23:55Z</time></trkpt><trkpt lat="43.48755259373958" lon="10.562902043429915"><ele>173.0</ele><time>2026-03-24T16:23:56Z</time></trkpt><trkpt lat="43.48745920906383" lon="10.563080815344925"><ele>173.0</ele><time>2026-03-24T16:23:57Z</time></trkpt><trkpt lat="43.48738937628962" lon="10.563244999524038"><ele>173.0</ele><time>2026-03-24T16:23:58Z</time></trkpt><trkpt lat="43.48726213951874" lon="10.563305508322056"><ele>173.0</ele><time>2026-03-24T16:23:59Z</time></trkpt><trkpt lat="43.48711783574264" lon="10.563262049778151"><ele>173.0</ele><time>2026-03-24T16:24:00Z</time></trkpt><trkpt lat="43.4869451765849" lon="10.563265870437847"><ele>174.60000000000002</ele><time>2026-03-24T16:24:01Z</time></trkpt><trkpt lat="43.48680797681766" lon="10.563267929810657"><ele>176.20000000000002</ele><time>2026-03-24T16:24:02Z</time></trkpt><trkpt lat="43.48670605198208" lon="10.563273782996138"><ele>177.8</ele><time>2026-03-24T16:24:03Z</time></trkpt><trkpt lat="43.48663505347786" lon="10.563202200522097"><ele>179.4</ele><time>2026-03-24T16:24:04.001Z</time></trkpt><trkpt lat="43.48664506430229" lon="10.563052954943487"><ele>181.0</ele><time>2026-03-24T16:24:05.001Z</time></trkpt><trkpt lat="43.48662796095719" lon="10.56287877549523"><ele>177.33333333333334</ele><time>2026-03-24T16:24:06.001Z</time></trkpt><trkpt lat="43.486582971539654" lon="10.562677191410087"><ele>173.66666666666666</ele><time>2026-03-24T16:24:07.001Z</time></trkpt><trkpt lat="43.48654278050194" lon="10.56248253232786"><ele>170.0</ele><time>2026-03-24T16:24:08.001Z</time></trkpt><trkpt lat="43.48640091649709" lon="10.562357831557005"><ele>170.0</ele><time>2026-03-24T16:24:09.001Z</time></trkpt><trkpt lat="43.486230915813024" lon="10.562237418997066"><ele>170.0</ele><time>2026-03-24T16:24:10.001Z</time></trkpt><trkpt lat="43.48605948822961" lon="10.562112530647791"><ele>170.0</ele><time>2026-03-24T16:24:11.001Z</time></trkpt><trkpt lat="43.485902032359895" lon="10.561988773003257"><ele>170.0</ele><time>2026-03-24T16:24:12.001Z</time></trkpt><trkpt lat="43.485762413240145" lon="10.561916063450061"><ele>170.0</ele><time>2026-03-24T16:24:13.001Z</time></trkpt><trkpt lat="43.485623442514814" lon="10.561899106007827"><ele>170.0</ele><time>2026-03-24T16:24:14.001Z</time></trkpt><trkpt lat="43.48546686519533" lon="10.562000202688179"><ele>174.0</ele><time>2026-03-24T16:24:15.001Z</time></trkpt><trkpt lat="43.48528797374081" lon="10.562112529689225"><ele>178.0</ele><time>2026-03-24T16:24:16.001Z</time></trkpt><trkpt lat="43.48510467935399" lon="10.56221430593271"><ele>182.0</ele><time>2026-03-24T16:24:17.001Z</time></trkpt><trkpt lat="43.484936188541226" lon="10.562289358322706"><ele>182.0</ele><time>2026-03-24T16:24:18.001Z</time></trkpt><trkpt lat="43.48479067707356" lon="10.562363290700606"><ele>182.0</ele><time>2026-03-24T16:24:19.001Z</time></trkpt><trkpt lat="43.48466090774147" lon="10.562471156387515"><ele>182.0</ele><time>2026-03-24T16:24:20.001Z</time></trkpt><trkpt lat="43.48455502054854" lon="10.562607229152238"><ele>182.39999999999998</ele><time>2026-03-24T16:24:21.001Z</time></trkpt><trkpt lat="43.48449110338608" lon="10.562741093351008"><ele>182.79999999999998</ele><time>2026-03-24T16:24:22.001Z</time></trkpt><trkpt lat="43.48442976138349" lon="10.56284432654509"><ele>183.2</ele><time>2026-03-24T16:24:23.001Z</time></trkpt><trkpt lat="43.48438562995321" lon="10.562932106474774"><ele>183.6</ele><time>2026-03-24T16:24:24.001Z</time></trkpt><trkpt lat="43.48435040169974" lon="10.563006571710739"><ele>184.0</ele><time>2026-03-24T16:24:25.001Z</time></trkpt><trkpt lat="43.48426442807913" lon="10.563103078657374"><ele>184.0</ele><time>2026-03-24T16:24:27.001Z</time></trkpt><trkpt lat="43.4841687666871" lon="10.56307184818157"><ele>184.0</ele><time>2026-03-24T16:24:28.001Z</time></trkpt><trkpt lat="43.48406550818494" lon="10.562943581970357"><ele>184.0</ele><time>2026-03-24T16:24:29.001Z</time></trkpt><trkpt lat="43.4839411209226" lon="10.562812105001065"><ele>184.0</ele><time>2026-03-24T16:24:30.001Z</time></trkpt><trkpt lat="43.48381005607759" lon="10.562662217847086"><ele>184.0</ele><time>2026-03-24T16:24:31.001Z</time></trkpt><trkpt lat="43.48366615683745" lon="10.562519124015145"><ele>184.0</ele><time>2026-03-24T16:24:32.001Z</time></trkpt><trkpt lat="43.48350563655976" lon="10.562367183263389"><ele>184.0</ele><time>2026-03-24T16:24:33.001Z</time></trkpt><trkpt lat="43.48331652516535" lon="10.56225424594682"><ele>184.0</ele><time>2026-03-24T16:24:34.001Z</time></trkpt><trkpt lat="43.48312958343684" lon="10.562165002429172"><ele>184.0</ele><time>2026-03-24T16:24:35.001Z</time></trkpt><trkpt lat="43.48294076532197" lon="10.56209374363217"><ele>184.0</ele><time>2026-03-24T16:24:36.001Z</time></trkpt><trkpt lat="43.482735981942255" lon="10.562045665881596"><ele>180.0</ele><time>2026-03-24T16:24:37.001Z</time></trkpt><trkpt lat="43.48254071743346" lon="10.562017713710281"><ele>176.0</ele><time>2026-03-24T16:24:38.001Z</time></trkpt><trkpt lat="43.48236403728493" lon="10.562013836185539"><ele>172.0</ele><time>2026-03-24T16:24:39.001Z</time></trkpt><trkpt lat="43.48220705482956" lon="10.561969518070146"><ele>173.75</ele><time>2026-03-24T16:24:40.001Z</time></trkpt><trkpt lat="43.48207369805169" lon="10.56191127065709"><ele>175.5</ele><time>2026-03-24T16:24:41.001Z</time></trkpt><trkpt lat="43.48202420212918" lon="10.561711158065924"><ele>177.25</ele><time>2026-03-24T16:24:42.001Z</time></trkpt><trkpt lat="43.48192519134676" lon="10.561562061825539"><ele>179.0</ele><time>2026-03-24T16:24:43.001Z</time></trkpt><trkpt lat="43.48182836791667" lon="10.561461957396444"><ele>179.0</ele><time>2026-03-24T16:24:44.001Z</time></trkpt><trkpt lat="43.481731643421696" lon="10.56141098647439"><ele>179.0</ele><time>2026-03-24T16:24:45.001Z</time></trkpt><trkpt lat="43.481616790063164" lon="10.561429554591738"><ele>179.0</ele><time>2026-03-24T16:24:46.001Z</time></trkpt><trkpt lat="43.481488770467536" lon="10.561512652174759"><ele>179.0</ele><time>2026-03-24T16:24:47.001Z</time></trkpt><trkpt lat="43.48134840453098" lon="10.561636175771524"><ele>178.0</ele><time>2026-03-24T16:24:48.001Z</time></trkpt><trkpt lat="43.481221646516055" lon="10.561773093846647"><ele>177.0</ele><time>2026-03-24T16:24:49.001Z</time></trkpt><trkpt lat="43.481068660874314" lon="10.561863583120488"><ele>176.0</ele><time>2026-03-24T16:24:50.001Z</time></trkpt><trkpt lat="43.48091453732001" lon="10.561892406647946"><ele>176.0</ele><time>2026-03-24T16:24:51.001Z</time></trkpt><trkpt lat="43.48071420809492" lon="10.561891333262443"><ele>176.0</ele><time>2026-03-24T16:24:52.001Z</time></trkpt><trkpt lat="43.48054909200426" lon="10.561929501315188"><ele>176.0</ele><time>2026-03-24T16:24:53.001Z</time></trkpt><trkpt lat="43.4803744892605" lon="10.562005380764745"><ele>180.66666666666666</ele><time>2026-03-24T16:24:54.001Z</time></trkpt><trkpt lat="43.4801901061856" lon="10.562132108410038"><ele>185.33333333333334</ele><time>2026-03-24T16:24:55.001Z</time></trkpt><trkpt lat="43.47999334611204" lon="10.56228006021538"><ele>190.0</ele><time>2026-03-24T16:24:56.001Z</time></trkpt><trkpt lat="43.479836185404864" lon="10.562367014547267"><ele>190.0</ele><time>2026-03-24T16:24:57.001Z</time></trkpt><trkpt lat="43.479682883700406" lon="10.5623920495293"><ele>190.0</ele><time>2026-03-24T16:24:58.001Z</time></trkpt><trkpt lat="43.479490677496806" lon="10.562393516351237"><ele>190.0</ele><time>2026-03-24T16:24:59.001Z</time></trkpt><trkpt lat="43.47928585573687" lon="10.562402818570561"><ele>188.5</ele><time>2026-03-24T16:25:00.001Z</time></trkpt><trkpt lat="43.479063005352735" lon="10.562368042001106"><ele>187.0</ele><time>2026-03-24T16:25:01.001Z</time></trkpt><trkpt lat="43.47883052902909" lon="10.562314145098625"><ele>186.0</ele><time>2026-03-24T16:25:02.001Z</time></trkpt><trkpt lat="43.47863498351717" lon="10.562298679534866"><ele>185.0</ele><time>2026-03-24T16:25:03.001Z</time></trkpt><trkpt lat="43.47848979875974" lon="10.562282110815833"><ele>184.0</ele><time>2026-03-24T16:25:04.001Z</time></trkpt><trkpt lat="43.478361513616974" lon="10.562323487870751"><ele>184.0</ele><time>2026-03-24T16:25:05.001Z</time></trkpt><trkpt lat="43.47826227267722" lon="10.562437719965589"><ele>184.0</ele><time>2026-03-24T16:25:06.001Z</time></trkpt><trkpt lat="43.4781842419968" lon="10.562612825891815"><ele>184.0</ele><time>2026-03-24T16:25:07Z</time></trkpt><trkpt lat="43.4780799948598" lon="10.562822482995474"><ele>187.0</ele><time>2026-03-24T16:25:08Z</time></trkpt><trkpt lat="43.47795233561879" lon="10.56303761315239"><ele>190.0</ele><time>2026-03-24T16:25:09Z</time></trkpt><trkpt lat="43.47782137478342" lon="10.563267112538353"><ele>193.0</ele><time>2026-03-24T16:25:10Z</time></trkpt><trkpt lat="43.47769358573555" lon="10.563490302672715"><ele>190.0</ele><time>2026-03-24T16:25:11Z</time></trkpt><trkpt lat="43.47760038474665" lon="10.563712522632883"><ele>187.0</ele><time>2026-03-24T16:25:12Z</time></trkpt><trkpt lat="43.47753159823708" lon="10.563929718946808"><ele>184.0</ele><time>2026-03-24T16:25:13Z</time></trkpt><trkpt lat="43.47743588152971" lon="10.56412029627544"><ele>184.0</ele><time>2026-03-24T16:25:14Z</time></trkpt><trkpt lat="43.477282614793516" lon="10.564201488820867"><ele>184.0</ele><time>2026-03-24T16:25:15Z</time></trkpt><trkpt lat="43.477128976680135" lon="10.564194733503584"><ele>184.0</ele><time>2026-03-24T16:25:16Z</time></trkpt><trkpt lat="43.47696902375871" lon="10.564144891353383"><ele>181.0</ele><time>2026-03-24T16:25:17Z</time></trkpt><trkpt lat="43.476810155030414" lon="10.564159040977284"><ele>178.0</ele><time>2026-03-24T16:25:18Z</time></trkpt><trkpt lat="43.4766631261844" lon="10.564239344848325"><ele>175.0</ele><time>2026-03-24T16:25:19Z</time></trkpt><trkpt lat="43.476547450823766" lon="10.564406964841247"><ele>176.0</ele><time>2026-03-24T16:25:20Z</time></trkpt><trkpt lat="43.47642854052176" lon="10.56462861646439"><ele>177.0</ele><time>2026-03-24T16:25:21Z</time></trkpt><trkpt lat="43.476334405808" lon="10.564820529469626"><ele>178.0</ele><time>2026-03-24T16:25:22Z</time></trkpt><trkpt lat="43.476215208900946" lon="10.565032439879351"><ele>178.0</ele><time>2026-03-24T16:25:23Z</time></trkpt><trkpt lat="43.47603727042564" lon="10.565201692073336"><ele>178.0</ele><time>2026-03-24T16:25:24Z</time></trkpt><trkpt lat="43.475844543907506" lon="10.565347543231034"><ele>178.0</ele><time>2026-03-24T16:25:25Z</time></trkpt><trkpt lat="43.47568634585802" lon="10.565412405699675"><ele>182.33333333333334</ele><time>2026-03-24T16:25:26Z</time></trkpt><trkpt lat="43.47550227724612" lon="10.565408237562167"><ele>186.66666666666666</ele><time>2026-03-24T16:25:27Z</time></trkpt><trkpt lat="43.475304104233516" lon="10.565456650649752"><ele>191.0</ele><time>2026-03-24T16:25:28Z</time></trkpt><trkpt lat="43.4751407528544" lon="10.565548069090639"><ele>191.0</ele><time>2026-03-24T16:25:29Z</time></trkpt><trkpt lat="43.47491370377179" lon="10.565682460302412"><ele>191.0</ele><time>2026-03-24T16:25:30Z</time></trkpt><trkpt lat="43.474750197013776" lon="10.565784949781616"><ele>191.0</ele><time>2026-03-24T16:25:31Z</time></trkpt><trkpt lat="43.47457505976946" lon="10.565889561767555"><ele>189.0</ele><time>2026-03-24T16:25:32Z</time></trkpt><trkpt lat="43.474411304603414" lon="10.565917474835096"><ele>187.0</ele><time>2026-03-24T16:25:33Z</time></trkpt><trkpt lat="43.47430269862677" lon="10.565975557467434"><ele>185.0</ele><time>2026-03-24T16:25:34Z</time></trkpt><trkpt lat="43.474179991839314" lon="10.566048267411295"><ele>183.0</ele><time>2026-03-24T16:25:35Z</time></trkpt><trkpt lat="43.47413081131658" lon="10.566231361261641"><ele>188.0</ele><time>2026-03-24T16:25:36Z</time></trkpt><trkpt lat="43.47407723344849" lon="10.566392026053327"><ele>193.0</ele><time>2026-03-24T16:25:37Z</time></trkpt><trkpt lat="43.47405869362982" lon="10.566606741420989"><ele>198.0</ele><time>2026-03-24T16:25:38Z</time></trkpt><trkpt lat="43.47407983075775" lon="10.566803337737008"><ele>203.0</ele><time>2026-03-24T16:25:39Z</time></trkpt><trkpt lat="43.4741240893809" lon="10.56696762435916"><ele>203.00000000000003</ele><time>2026-03-24T16:25:40Z</time></trkpt><trkpt lat="43.474163373866695" lon="10.56707978291792"><ele>203.0</ele><time>2026-03-24T16:25:41Z</time></trkpt><trkpt lat="43.47416634146332" lon="10.567187650151551"><ele>203.0</ele><time>2026-03-24T16:25:42Z</time></trkpt><trkpt lat="43.474057632538496" lon="10.567250853769513"><ele>203.0</ele><time>2026-03-24T16:25:44Z</time></trkpt><trkpt lat="43.473991317088895" lon="10.56723003372534"><ele>203.00000000000003</ele><time>2026-03-24T16:25:45Z</time></trkpt><trkpt lat="43.4739322536331" lon="10.567151032512948"><ele>203.0</ele><time>2026-03-24T16:25:46Z</time></trkpt><trkpt lat="43.47390305737194" lon="10.56702208368818"><ele>203.0</ele><time>2026-03-24T16:25:47Z</time></trkpt><trkpt lat="43.47383831617643" lon="10.566865093264711"><ele>203.0</ele><time>2026-03-24T16:25:48Z</time></trkpt><trkpt lat="43.47379168072472" lon="10.566722020242407"><ele>203.0</ele><time>2026-03-24T16:25:49Z</time></trkpt><trkpt lat="43.47374400675393" lon="10.566552251951414"><ele>203.0</ele><time>2026-03-24T16:25:50Z</time></trkpt><trkpt lat="43.47369014257306" lon="10.566326702657893"><ele>202.0</ele><time>2026-03-24T16:25:51Z</time></trkpt><trkpt lat="43.47362752618216" lon="10.566147054184055"><ele>201.0</ele><time>2026-03-24T16:25:52Z</time></trkpt><trkpt lat="43.47353746673184" lon="10.565961201049578"><ele>200.0</ele><time>2026-03-24T16:25:53Z</time></trkpt><trkpt lat="43.473389132461236" lon="10.565785501310572"><ele>200.0</ele><time>2026-03-24T16:25:54Z</time></trkpt><trkpt lat="43.47325530218707" lon="10.565625335597987"><ele>200.0</ele><time>2026-03-24T16:25:55Z</time></trkpt><trkpt lat="43.473116208515606" lon="10.565477545098219"><ele>200.0</ele><time>2026-03-24T16:25:56Z</time></trkpt><trkpt lat="43.473023297646535" lon="10.565334411714973"><ele>199.75</ele><time>2026-03-24T16:25:57Z</time></trkpt><trkpt lat="43.47293636820933" lon="10.565221211051986"><ele>199.5</ele><time>2026-03-24T16:25:58Z</time></trkpt><trkpt lat="43.472844537502425" lon="10.565101422546828"><ele>199.25</ele><time>2026-03-24T16:25:59Z</time></trkpt><trkpt lat="43.47275464510009" lon="10.565040936423443"><ele>199.0</ele><time>2026-03-24T16:26:00Z</time></trkpt><trkpt lat="43.47263448631938" lon="10.565052971675636"><ele>199.0</ele><time>2026-03-24T16:26:03Z</time></trkpt><trkpt lat="43.47253605175689" lon="10.565103371740868"><ele>199.0</ele><time>2026-03-24T16:26:05Z</time></trkpt><trkpt lat="43.472450265223095" lon="10.565110560259368"><ele>199.0</ele><time>2026-03-24T16:26:06Z</time></trkpt><trkpt lat="43.47236066806113" lon="10.565020560539939"><ele>199.0</ele><time>2026-03-24T16:26:07.001Z</time></trkpt><trkpt lat="43.47228319476406" lon="10.564964374980375"><ele>199.0</ele><time>2026-03-24T16:26:08.001Z</time></trkpt><trkpt lat="43.47219075155847" lon="10.564902750691399"><ele>197.5</ele><time>2026-03-24T16:26:09.001Z</time></trkpt><trkpt lat="43.4720782693483" lon="10.564805336712606"><ele>196.0</ele><time>2026-03-24T16:26:10.001Z</time></trkpt><trkpt lat="43.47197489633691" lon="10.5647123521471"><ele>194.5</ele><time>2026-03-24T16:26:11.001Z</time></trkpt><trkpt lat="43.47190154898033" lon="10.564591578477318"><ele>193.0</ele><time>2026-03-24T16:26:12.001Z</time></trkpt><trkpt lat="43.47187639521343" lon="10.564428195813507"><ele>193.0</ele><time>2026-03-24T16:26:13.001Z</time></trkpt><trkpt lat="43.471817699742054" lon="10.564244531904999"><ele>193.0</ele><time>2026-03-24T16:26:14.001Z</time></trkpt><trkpt lat="43.47177018583545" lon="10.564054282944893"><ele>193.0</ele><time>2026-03-24T16:26:15.001Z</time></trkpt><trkpt lat="43.471706714409194" lon="10.5638383577933"><ele>193.0</ele><time>2026-03-24T16:26:16.001Z</time></trkpt><trkpt lat="43.47166974597316" lon="10.563645250480361"><ele>193.0</ele><time>2026-03-24T16:26:17.001Z</time></trkpt><trkpt lat="43.4716249983864" lon="10.56348991572759"><ele>193.0</ele><time>2026-03-24T16:26:18.001Z</time></trkpt><trkpt lat="43.47157306016912" lon="10.563389931210345"><ele>193.0</ele><time>2026-03-24T16:26:19.001Z</time></trkpt><trkpt lat="43.47151171863869" lon="10.563299165939474"><ele>193.0</ele><time>2026-03-24T16:26:20.001Z</time></trkpt><trkpt lat="43.47143838967607" lon="10.563195242061596"><ele>193.0</ele><time>2026-03-24T16:26:21.001Z</time></trkpt><trkpt lat="43.47134831272488" lon="10.563080856037613"><ele>193.0</ele><time>2026-03-24T16:26:22.001Z</time></trkpt><trkpt lat="43.47124570128428" lon="10.56292641397368"><ele>193.0</ele><time>2026-03-24T16:26:23.001Z</time></trkpt><trkpt lat="43.47111966787884" lon="10.56274130200716"><ele>191.0</ele><time>2026-03-24T16:26:24.001Z</time></trkpt><trkpt lat="43.47097877333752" lon="10.562565692963647"><ele>189.0</ele><time>2026-03-24T16:26:25.001Z</time></trkpt><trkpt lat="43.470820292915" lon="10.562420197582584"><ele>187.0</ele><time>2026-03-24T16:26:26.001Z</time></trkpt><trkpt lat="43.47067787819183" lon="10.562313494242279"><ele>187.0</ele><time>2026-03-24T16:26:27.001Z</time></trkpt><trkpt lat="43.470565829323824" lon="10.562184790312221"><ele>187.0</ele><time>2026-03-24T16:26:28.001Z</time></trkpt><trkpt lat="43.47045800075082" lon="10.562041331680783"><ele>187.0</ele><time>2026-03-24T16:26:29.001Z</time></trkpt><trkpt lat="43.4703661341077" lon="10.561848500896257"><ele>187.33333333333334</ele><time>2026-03-24T16:26:30.001Z</time></trkpt><trkpt lat="43.47027566830219" lon="10.561628534355796"><ele>187.66666666666666</ele><time>2026-03-24T16:26:31.001Z</time></trkpt><trkpt lat="43.470176564535585" lon="10.561390337279576"><ele>188.0</ele><time>2026-03-24T16:26:32.001Z</time></trkpt><trkpt lat="43.47009156737533" lon="10.561161397580385"><ele>188.0</ele><time>2026-03-24T16:26:33.001Z</time></trkpt><trkpt lat="43.470027636285366" lon="10.560929155718167"><ele>188.0</ele><time>2026-03-24T16:26:34.001Z</time></trkpt><trkpt lat="43.47000489847855" lon="10.560702125082829"><ele>188.0</ele><time>2026-03-24T16:26:35.001Z</time></trkpt><trkpt lat="43.47003216239388" lon="10.560475719916683"><ele>189.66666666666666</ele><time>2026-03-24T16:26:36.001Z</time></trkpt><trkpt lat="43.47008164601845" lon="10.560225303940896"><ele>191.33333333333331</ele><time>2026-03-24T16:26:37.001Z</time></trkpt><trkpt lat="43.47012299665901" lon="10.559984002745633"><ele>193.0</ele><time>2026-03-24T16:26:38.001Z</time></trkpt><trkpt lat="43.47013726800447" lon="10.559736835533561"><ele>191.0</ele><time>2026-03-24T16:26:39.001Z</time></trkpt><trkpt lat="43.47012693103126" lon="10.559488154762452"><ele>189.0</ele><time>2026-03-24T16:26:40.001Z</time></trkpt><trkpt lat="43.470098003935135" lon="10.559220969200888"><ele>187.0</ele><time>2026-03-24T16:26:41.001Z</time></trkpt><trkpt lat="43.47006676487871" lon="10.55898259641965"><ele>187.0</ele><time>2026-03-24T16:26:42.001Z</time></trkpt><trkpt lat="43.47001230142085" lon="10.558751453425876"><ele>187.0</ele><time>2026-03-24T16:26:43.001Z</time></trkpt><trkpt lat="43.46995542059027" lon="10.5585256529034"><ele>187.0</ele><time>2026-03-24T16:26:44.001Z</time></trkpt><trkpt lat="43.469894952850304" lon="10.558294879311305"><ele>183.66666666666669</ele><time>2026-03-24T16:26:45.001Z</time></trkpt><trkpt lat="43.46982212100844" lon="10.558069051416606"><ele>180.33333333333334</ele><time>2026-03-24T16:26:46.001Z</time></trkpt><trkpt lat="43.46972513477176" lon="10.557856750599036"><ele>177.0</ele><time>2026-03-24T16:26:47.001Z</time></trkpt><trkpt lat="43.46961348926744" lon="10.55769024063582"><ele>174.66666666666666</ele><time>2026-03-24T16:26:48.001Z</time></trkpt><trkpt lat="43.469478674354725" lon="10.557547134026933"><ele>172.33333333333331</ele><time>2026-03-24T16:26:49.001Z</time></trkpt><trkpt lat="43.4693137781531" lon="10.557424746395286"><ele>170.0</ele><time>2026-03-24T16:26:50.001Z</time></trkpt><trkpt lat="43.46917585443712" lon="10.557314802019707"><ele>170.0</ele><time>2026-03-24T16:26:51.001Z</time></trkpt><trkpt lat="43.4690408346452" lon="10.557219359757621"><ele>170.0</ele><time>2026-03-24T16:26:52.001Z</time></trkpt><trkpt lat="43.46892026679219" lon="10.55715477660317"><ele>170.0</ele><time>2026-03-24T16:26:53.001Z</time></trkpt><trkpt lat="43.46880332667335" lon="10.5571738351804"><ele>170.0</ele><time>2026-03-24T16:26:54.001Z</time></trkpt><trkpt lat="43.468703364545505" lon="10.557265279428984"><ele>170.25</ele><time>2026-03-24T16:26:55.001Z</time></trkpt><trkpt lat="43.468587982820274" lon="10.557349436427415"><ele>170.5</ele><time>2026-03-24T16:26:56.001Z</time></trkpt><trkpt lat="43.46846514762253" lon="10.55737425227478"><ele>170.75</ele><time>2026-03-24T16:26:57.001Z</time></trkpt><trkpt lat="43.46836103479112" lon="10.557295577109883"><ele>171.0</ele><time>2026-03-24T16:26:58.001Z</time></trkpt><trkpt lat="43.468189994257024" lon="10.557196573977812"><ele>171.0</ele><time>2026-03-24T16:26:59.001Z</time></trkpt><trkpt lat="43.46809167981219" lon="10.557036738389966"><ele>171.0</ele><time>2026-03-24T16:27:00.001Z</time></trkpt><trkpt lat="43.46801860785776" lon="10.55686967188882"><ele>171.0</ele><time>2026-03-24T16:27:01.001Z</time></trkpt><trkpt lat="43.467936597612436" lon="10.556676404771899"><ele>167.75</ele><time>2026-03-24T16:27:02.001Z</time></trkpt><trkpt lat="43.46784877750568" lon="10.556518989925229"><ele>164.5</ele><time>2026-03-24T16:27:03.001Z</time></trkpt><trkpt lat="43.467746374720804" lon="10.556443021064103"><ele>161.25</ele><time>2026-03-24T16:27:04.001Z</time></trkpt><trkpt lat="43.467630001901604" lon="10.556465794621136"><ele>158.0</ele><time>2026-03-24T16:27:05.001Z</time></trkpt><trkpt lat="43.46755763328445" lon="10.556559182231087"><ele>158.0</ele><time>2026-03-24T16:27:06.001Z</time></trkpt><trkpt lat="43.46749193537696" lon="10.556691997513822"><ele>158.0</ele><time>2026-03-24T16:27:07.001Z</time></trkpt><trkpt lat="43.467427671816935" lon="10.556829753521077"><ele>158.0</ele><time>2026-03-24T16:27:08.001Z</time></trkpt><trkpt lat="43.467300486230265" lon="10.557042885373694"><ele>158.0</ele><time>2026-03-24T16:27:09.001Z</time></trkpt><trkpt lat="43.46717031035076" lon="10.557263058131813"><ele>156.66666666666666</ele><time>2026-03-24T16:27:10.001Z</time></trkpt><trkpt lat="43.46706070162559" lon="10.55745307818158"><ele>155.33333333333334</ele><time>2026-03-24T16:27:11.001Z</time></trkpt><trkpt lat="43.46693183501742" lon="10.557609274187483"><ele>154.0</ele><time>2026-03-24T16:27:12.001Z</time></trkpt><trkpt lat="43.46677937527254" lon="10.55768325995"><ele>154.0</ele><time>2026-03-24T16:27:13Z</time></trkpt><trkpt lat="43.46664156697043" lon="10.557695551233026"><ele>154.0</ele><time>2026-03-24T16:27:14Z</time></trkpt><trkpt lat="43.466505046163576" lon="10.557704611704539"><ele>154.0</ele><time>2026-03-24T16:27:15Z</time></trkpt><trkpt lat="43.4663751529827" lon="10.557755398099026"><ele>154.0</ele><time>2026-03-24T16:27:16Z</time></trkpt><trkpt lat="43.46629898647066" lon="10.55787171947114"><ele>154.5</ele><time>2026-03-24T16:27:17Z</time></trkpt><trkpt lat="43.4662561969349" lon="10.558030352767943"><ele>155.0</ele><time>2026-03-24T16:27:18Z</time></trkpt><trkpt lat="43.46623202564457" lon="10.558214458195613"><ele>155.5</ele><time>2026-03-24T16:27:19Z</time></trkpt><trkpt lat="43.46622630019535" lon="10.55844923551324"><ele>156.0</ele><time>2026-03-24T16:27:20Z</time></trkpt><trkpt lat="43.46623793148629" lon="10.558721881222228"><ele>160.0</ele><time>2026-03-24T16:27:21Z</time></trkpt><trkpt lat="43.46624825794551" lon="10.558923062540758"><ele>164.0</ele><time>2026-03-24T16:27:22Z</time></trkpt><trkpt lat="43.466285902009176" lon="10.55910651274094"><ele>168.0</ele><time>2026-03-24T16:27:23Z</time></trkpt><trkpt lat="43.466356995404915" lon="10.559263265503107"><ele>172.0</ele><time>2026-03-24T16:27:24Z</time></trkpt><trkpt lat="43.46646498656319" lon="10.55938688655555"><ele>172.0</ele><time>2026-03-24T16:27:25Z</time></trkpt><trkpt lat="43.46661232356663" lon="10.559497674417786"><ele>172.0</ele><time>2026-03-24T16:27:26Z</time></trkpt><trkpt lat="43.46676323881388" lon="10.559612588808259"><ele>172.0</ele><time>2026-03-24T16:27:27Z</time></trkpt><trkpt lat="43.466858200487735" lon="10.559728965940268"><ele>172.0</ele><time>2026-03-24T16:27:28Z</time></trkpt><trkpt lat="43.466926476704536" lon="10.5597798248825"><ele>172.0</ele><time>2026-03-24T16:27:29Z</time></trkpt><trkpt lat="43.466939346415124" lon="10.559869442548072"><ele>172.0</ele><time>2026-03-24T16:27:30Z</time></trkpt><trkpt lat="43.46690912553379" lon="10.559980193474841"><ele>172.0</ele><time>2026-03-24T16:27:31Z</time></trkpt><trkpt lat="43.46683476555709" lon="10.560080079568236"><ele>172.0</ele><time>2026-03-24T16:27:32Z</time></trkpt><trkpt lat="43.46679699926664" lon="10.560166600906125"><ele>172.0</ele><time>2026-03-24T16:27:33Z</time></trkpt><trkpt lat="43.46671920449397" lon="10.560174805037377"><ele>172.0</ele><time>2026-03-24T16:27:34Z</time></trkpt><trkpt lat="43.466628450677476" lon="10.560066570016264"><ele>172.0</ele><time>2026-03-24T16:27:35Z</time></trkpt><trkpt lat="43.46649338489724" lon="10.559990257382802"><ele>172.0</ele><time>2026-03-24T16:27:36Z</time></trkpt><trkpt lat="43.46634276888581" lon="10.55991702594164"><ele>172.0</ele><time>2026-03-24T16:27:37Z</time></trkpt><trkpt lat="43.466184045594126" lon="10.55982517644316"><ele>172.0</ele><time>2026-03-24T16:27:38Z</time></trkpt><trkpt lat="43.466036566304226" lon="10.559694605772435"><ele>172.0</ele><time>2026-03-24T16:27:39Z</time></trkpt><trkpt lat="43.46591838450479" lon="10.559549539805294"><ele>172.0</ele><time>2026-03-24T16:27:40Z</time></trkpt><trkpt lat="43.465791639264836" lon="10.559358950045679"><ele>172.0</ele><time>2026-03-24T16:27:41Z</time></trkpt><trkpt lat="43.46566486399007" lon="10.559195705270673"><ele>172.0</ele><time>2026-03-24T16:27:42Z</time></trkpt><trkpt lat="43.46559655653613" lon="10.55899456351506"><ele>172.0</ele><time>2026-03-24T16:27:43Z</time></trkpt><trkpt lat="43.465538493412176" lon="10.558773462052434"><ele>172.25</ele><time>2026-03-24T16:27:44Z</time></trkpt><trkpt lat="43.46547130627883" lon="10.558589582646084"><ele>172.5</ele><time>2026-03-24T16:27:45Z</time></trkpt><trkpt lat="43.46540270858769" lon="10.558434735702924"><ele>172.75</ele><time>2026-03-24T16:27:46Z</time></trkpt><trkpt lat="43.4653031189999" lon="10.558346701921202"><ele>173.0</ele><time>2026-03-24T16:27:47Z</time></trkpt><trkpt lat="43.46518715940557" lon="10.558326458600122"><ele>173.0</ele><time>2026-03-24T16:27:48Z</time></trkpt><trkpt lat="43.465050602677024" lon="10.558363555064508"><ele>173.0</ele><time>2026-03-24T16:27:49Z</time></trkpt><trkpt lat="43.464885139401005" lon="10.558447711163806"><ele>173.0</ele><time>2026-03-24T16:27:50Z</time></trkpt><trkpt lat="43.46472616435509" lon="10.558542047851985"><ele>174.75</ele><time>2026-03-24T16:27:51Z</time></trkpt><trkpt lat="43.464595496179925" lon="10.558606903430837"><ele>176.5</ele><time>2026-03-24T16:27:52Z</time></trkpt><trkpt lat="43.4644857586382" lon="10.558630891386459"><ele>178.25</ele><time>2026-03-24T16:27:53Z</time></trkpt><trkpt lat="43.46437500875601" lon="10.558577415555101"><ele>180.0</ele><time>2026-03-24T16:27:54Z</time></trkpt><trkpt lat="43.46430056575814" lon="10.558446807318147"><ele>180.0</ele><time>2026-03-24T16:27:55Z</time></trkpt><trkpt lat="43.46419518118199" lon="10.558348954187206"><ele>180.0</ele><time>2026-03-24T16:27:56Z</time></trkpt><trkpt lat="43.464093304710126" lon="10.558251918986642"><ele>180.0</ele><time>2026-03-24T16:27:57Z</time></trkpt><trkpt lat="43.463978762188624" lon="10.558156128715469"><ele>180.0</ele><time>2026-03-24T16:27:58Z</time></trkpt><trkpt lat="43.46385530198978" lon="10.558100329422464"><ele>180.0</ele><time>2026-03-24T16:27:59Z</time></trkpt><trkpt lat="43.46373264111474" lon="10.55806611636125"><ele>180.0</ele><time>2026-03-24T16:28:00Z</time></trkpt><trkpt lat="43.46361585812866" lon="10.55803230427349"><ele>180.0</ele><time>2026-03-24T16:28:01Z</time></trkpt><trkpt lat="43.46350873564156" lon="10.558022553742482"><ele>180.0</ele><time>2026-03-24T16:28:02Z</time></trkpt><trkpt lat="43.46340088644151" lon="10.558019211080659"><ele>180.0</ele><time>2026-03-24T16:28:03Z</time></trkpt><trkpt lat="43.46329878842405" lon="10.558087410687314"><ele>180.0</ele><time>2026-03-24T16:28:04Z</time></trkpt><trkpt lat="43.46324102659188" lon="10.558177137437633"><ele>180.0</ele><time>2026-03-24T16:28:05Z</time></trkpt><trkpt lat="43.46314943848796" lon="10.55830275197641"><ele>180.0</ele><time>2026-03-24T16:28:06Z</time></trkpt><trkpt lat="43.46315484967577" lon="10.558538645733677"><ele>180.0</ele><time>2026-03-24T16:28:07Z</time></trkpt><trkpt lat="43.46312899502749" lon="10.558648532561765"><ele>180.0</ele><time>2026-03-24T16:28:08Z</time></trkpt><trkpt lat="43.463096065831024" lon="10.558781632747042"><ele>180.0</ele><time>2026-03-24T16:28:09Z</time></trkpt><trkpt lat="43.46304863513479" lon="10.558925399690976"><ele>180.0</ele><time>2026-03-24T16:28:10Z</time></trkpt><trkpt lat="43.46294937938342" lon="10.559037416312258"><ele>180.0</ele><time>2026-03-24T16:28:11Z</time></trkpt><trkpt lat="43.462848270828644" lon="10.559148232151212"><ele>180.0</ele><time>2026-03-24T16:28:12Z</time></trkpt><trkpt lat="43.46274155336348" lon="10.559255723087215"><ele>180.0</ele><time>2026-03-24T16:28:13Z</time></trkpt><trkpt lat="43.46263842912743" lon="10.559380716436893"><ele>180.0</ele><time>2026-03-24T16:28:14Z</time></trkpt><trkpt lat="43.46254617806857" lon="10.559535945641477"><ele>180.0</ele><time>2026-03-24T16:28:15Z</time></trkpt><trkpt lat="43.46246902426039" lon="10.559681002335429"><ele>184.5</ele><time>2026-03-24T16:28:16Z</time></trkpt><trkpt lat="43.462402916525996" lon="10.559840618346236"><ele>189.0</ele><time>2026-03-24T16:28:17Z</time></trkpt><trkpt lat="43.462322792098526" lon="10.559994707535173"><ele>193.5</ele><time>2026-03-24T16:28:18Z</time></trkpt><trkpt lat="43.46224322588657" lon="10.560156460534648"><ele>198.0</ele><time>2026-03-24T16:28:19Z</time></trkpt><trkpt lat="43.462165815766944" lon="10.560270984203108"><ele>196.8</ele><time>2026-03-24T16:28:20Z</time></trkpt><trkpt lat="43.462093103004094" lon="10.560369548605149"><ele>195.60000000000002</ele><time>2026-03-24T16:28:21.001Z</time></trkpt><trkpt lat="43.46200456974142" lon="10.560456302640082"><ele>194.39999999999998</ele><time>2026-03-24T16:28:22.001Z</time></trkpt><trkpt lat="43.46190255565412" lon="10.56053170381892"><ele>193.2</ele><time>2026-03-24T16:28:23.001Z</time></trkpt><trkpt lat="43.461799705460734" lon="10.560610015669463"><ele>192.0</ele><time>2026-03-24T16:28:24.001Z</time></trkpt><trkpt lat="43.46171014696848" lon="10.560690928614733"><ele>192.0</ele><time>2026-03-24T16:28:25.001Z</time></trkpt><trkpt lat="43.46163658738121" lon="10.56081120853571"><ele>192.0</ele><time>2026-03-24T16:28:26.001Z</time></trkpt><trkpt lat="43.46158918365681" lon="10.56093278655134"><ele>192.0</ele><time>2026-03-24T16:28:27.001Z</time></trkpt><trkpt lat="43.46155979508687" lon="10.561072861570294"><ele>192.0</ele><time>2026-03-24T16:28:28.001Z</time></trkpt><trkpt lat="43.46155732486704" lon="10.561211250857125"><ele>192.0</ele><time>2026-03-24T16:28:29.001Z</time></trkpt><trkpt lat="43.46157715399438" lon="10.561363480814729"><ele>194.0</ele><time>2026-03-24T16:28:30.001Z</time></trkpt><trkpt lat="43.461608067797556" lon="10.56151119525796"><ele>196.0</ele><time>2026-03-24T16:28:31.001Z</time></trkpt><trkpt lat="43.461650121751006" lon="10.56161708617051"><ele>198.0</ele><time>2026-03-24T16:28:32.001Z</time></trkpt><trkpt lat="43.461686721200635" lon="10.56171867597674"><ele>200.0</ele><time>2026-03-24T16:28:33.001Z</time></trkpt><trkpt lat="43.46171709866505" lon="10.561832463446468"><ele>202.0</ele><time>2026-03-24T16:28:34.001Z</time></trkpt><trkpt lat="43.461741369034485" lon="10.561941304840767"><ele>203.8</ele><time>2026-03-24T16:28:35.001Z</time></trkpt><trkpt lat="43.4617392924743" lon="10.562094581742725"><ele>205.6</ele><time>2026-03-24T16:28:37.001Z</time></trkpt><trkpt lat="43.461643249384665" lon="10.562185742606937"><ele>207.4</ele><time>2026-03-24T16:28:39.001Z</time></trkpt><trkpt lat="43.461573010954204" lon="10.562170081671466"><ele>209.20000000000002</ele><time>2026-03-24T16:28:40.001Z</time></trkpt><trkpt lat="43.46151358717273" lon="10.562085831174397"><ele>211.0</ele><time>2026-03-24T16:28:41.001Z</time></trkpt><trkpt lat="43.46142479345597" lon="10.562068113412383"><ele>211.0</ele><time>2026-03-24T16:28:42.001Z</time></trkpt><trkpt lat="43.461340090608275" lon="10.562054626989244"><ele>211.0</ele><time>2026-03-24T16:28:43.001Z</time></trkpt><trkpt lat="43.46126083041866" lon="10.562083189953949"><ele>211.0</ele><time>2026-03-24T16:28:44.001Z</time></trkpt><trkpt lat="43.4611782066541" lon="10.56212684239809"><ele>211.0</ele><time>2026-03-24T16:28:45.001Z</time></trkpt><trkpt lat="43.4610839274753" lon="10.56217879101731"><ele>211.0</ele><time>2026-03-24T16:28:47.001Z</time></trkpt><trkpt lat="43.46100271555061" lon="10.562239585014558"><ele>210.33333333333331</ele><time>2026-03-24T16:28:49.001Z</time></trkpt><trkpt lat="43.46088833469561" lon="10.562328829092397"><ele>209.66666666666666</ele><time>2026-03-24T16:28:51.001Z</time></trkpt><trkpt lat="43.460819243855155" lon="10.562387206454138"><ele>209.0</ele><time>2026-03-24T16:28:52.001Z</time></trkpt><trkpt lat="43.460748479093624" lon="10.562439228042576"><ele>208.33333333333331</ele><time>2026-03-24T16:28:53.001Z</time></trkpt><trkpt lat="43.46068680271015" lon="10.562478982551495"><ele>207.66666666666666</ele><time>2026-03-24T16:28:54.001Z</time></trkpt><trkpt lat="43.460620275404736" lon="10.562521410350064"><ele>207.0</ele><time>2026-03-24T16:28:55.001Z</time></trkpt><trkpt lat="43.4605477464665" lon="10.562537710755272"><ele>207.0</ele><time>2026-03-24T16:28:56.001Z</time></trkpt><trkpt lat="43.46049240955546" lon="10.56257995295513"><ele>207.0</ele><time>2026-03-24T16:28:57.001Z</time></trkpt><trkpt lat="43.460388205536105" lon="10.562602127537476"><ele>207.0</ele><time>2026-03-24T16:28:59.001Z</time></trkpt><trkpt lat="43.46029303781553" lon="10.562536264113362"><ele>207.0</ele><time>2026-03-24T16:29:01.001Z</time></trkpt><trkpt lat="43.46024120705304" lon="10.562429396095139"><ele>207.0</ele><time>2026-03-24T16:29:03.001Z</time></trkpt><trkpt lat="43.46013015035815" lon="10.562505390350854"><ele>207.0</ele><time>2026-03-24T16:29:05.001Z</time></trkpt><trkpt lat="43.46006828618518" lon="10.56259777934031"><ele>207.0</ele><time>2026-03-24T16:29:07.001Z</time></trkpt><trkpt lat="43.459965175075894" lon="10.562590838370852"><ele>207.0</ele><time>2026-03-24T16:29:09.001Z</time></trkpt><trkpt lat="43.45988370015587" lon="10.56258532453177"><ele>207.0</ele><time>2026-03-24T16:29:11.001Z</time></trkpt><trkpt lat="43.45979520555637" lon="10.562650392286232"><ele>207.0</ele><time>2026-03-24T16:29:15.001Z</time></trkpt><trkpt lat="43.45972334911599" lon="10.562686633167278"><ele>207.0</ele><time>2026-03-24T16:29:17.001Z</time></trkpt><trkpt lat="43.45964875939682" lon="10.562720736204437"><ele>207.0</ele><time>2026-03-24T16:29:19Z</time></trkpt><trkpt lat="43.45959923378006" lon="10.562834668664317"><ele>207.0</ele><time>2026-03-24T16:29:22Z</time></trkpt><trkpt lat="43.45962220314695" lon="10.562997422697258"><ele>207.0</ele><time>2026-03-24T16:29:24Z</time></trkpt><trkpt lat="43.459639412018774" lon="10.563103421903673"><ele>207.0</ele><time>2026-03-24T16:29:25Z</time></trkpt><trkpt lat="43.45965892245529" lon="10.563223597965134"><ele>208.0</ele><time>2026-03-24T16:29:26Z</time></trkpt><trkpt lat="43.45969444972439" lon="10.563347953043118"><ele>209.0</ele><time>2026-03-24T16:29:27Z</time></trkpt><trkpt lat="43.459717592303576" lon="10.563486199440527"><ele>210.0</ele><time>2026-03-24T16:29:28Z</time></trkpt><trkpt lat="43.459737953100316" lon="10.563637849657418"><ele>211.0</ele><time>2026-03-24T16:29:29Z</time></trkpt><trkpt lat="43.45975340689759" lon="10.563797217714779"><ele>212.0</ele><time>2026-03-24T16:29:30Z</time></trkpt><trkpt lat="43.45976701243152" lon="10.563957127201034"><ele>212.39999999999998</ele><time>2026-03-24T16:29:31Z</time></trkpt><trkpt lat="43.45975537563702" lon="10.56411701897754"><ele>212.79999999999998</ele><time>2026-03-24T16:29:32Z</time></trkpt><trkpt lat="43.45975954859085" lon="10.56427110535412"><ele>213.2</ele><time>2026-03-24T16:29:33Z</time></trkpt><trkpt lat="43.45977484685165" lon="10.564419118806361"><ele>213.6</ele><time>2026-03-24T16:29:34Z</time></trkpt><trkpt lat="43.45977794200825" lon="10.56457391808308"><ele>214.0</ele><time>2026-03-24T16:29:35Z</time></trkpt><trkpt lat="43.45978775891082" lon="10.564732674333126"><ele>214.2</ele><time>2026-03-24T16:29:36Z</time></trkpt><trkpt lat="43.45978475236032" lon="10.564873431945461"><ele>214.39999999999998</ele><time>2026-03-24T16:29:37Z</time></trkpt><trkpt lat="43.45978094762197" lon="10.565002130481044"><ele>214.6</ele><time>2026-03-24T16:29:38Z</time></trkpt><trkpt lat="43.45977956778555" lon="10.565134303253378"><ele>214.8</ele><time>2026-03-24T16:29:39Z</time></trkpt><trkpt lat="43.459775564334045" lon="10.56525605594724"><ele>215.0</ele><time>2026-03-24T16:29:40Z</time></trkpt><trkpt lat="43.45975199435819" lon="10.565379452286964"><ele>216.0</ele><time>2026-03-24T16:29:41Z</time></trkpt><trkpt lat="43.45971127581443" lon="10.565517549210742"><ele>217.0</ele><time>2026-03-24T16:29:42Z</time></trkpt><trkpt lat="43.459648031143466" lon="10.565657384786954"><ele>218.0</ele><time>2026-03-24T16:29:43Z</time></trkpt><trkpt lat="43.459574749973655" lon="10.56577932814317"><ele>219.0</ele><time>2026-03-24T16:29:44Z</time></trkpt><trkpt lat="43.45951463083009" lon="10.565902136100547"><ele>216.33333333333331</ele><time>2026-03-24T16:29:45Z</time></trkpt><trkpt lat="43.459465102524966" lon="10.56601527067916"><ele>213.66666666666666</ele><time>2026-03-24T16:29:46Z</time></trkpt><trkpt lat="43.45935947388974" lon="10.566228934595724"><ele>211.0</ele><time>2026-03-24T16:29:47Z</time></trkpt><trkpt lat="43.45925140981674" lon="10.566426552989906"><ele>211.0</ele><time>2026-03-24T16:29:48Z</time></trkpt><trkpt lat="43.459130033454166" lon="10.566636194882488"><ele>211.0</ele><time>2026-03-24T16:29:49Z</time></trkpt><trkpt lat="43.45901581183774" lon="10.566864089933558"><ele>211.0</ele><time>2026-03-24T16:29:50Z</time></trkpt><trkpt lat="43.45887511962925" lon="10.567078895119076"><ele>211.66666666666666</ele><time>2026-03-24T16:29:51Z</time></trkpt><trkpt lat="43.45875955506383" lon="10.56727503958587"><ele>212.33333333333331</ele><time>2026-03-24T16:29:52Z</time></trkpt><trkpt lat="43.458654917915204" lon="10.567458409629293"><ele>213.0</ele><time>2026-03-24T16:29:53Z</time></trkpt><trkpt lat="43.4585605254215" lon="10.567611983366131"><ele>213.0</ele><time>2026-03-24T16:29:54Z</time></trkpt><trkpt lat="43.458465239408746" lon="10.567693253888303"><ele>213.0</ele><time>2026-03-24T16:29:55Z</time></trkpt><trkpt lat="43.458382411178164" lon="10.567788488635617"><ele>213.0</ele><time>2026-03-24T16:29:56Z</time></trkpt><trkpt lat="43.458264325765015" lon="10.567728009469342"><ele>213.0</ele><time>2026-03-24T16:29:57Z</time></trkpt><trkpt lat="43.45816342970975" lon="10.567652623989916"><ele>213.0</ele><time>2026-03-24T16:29:58Z</time></trkpt><trkpt lat="43.45805633356217" lon="10.567539918469361"><ele>213.0</ele><time>2026-03-24T16:29:59Z</time></trkpt><trkpt lat="43.4579575546899" lon="10.567399036323762"><ele>213.0</ele><time>2026-03-24T16:30:00Z</time></trkpt><trkpt lat="43.45786438085116" lon="10.567320552670534"><ele>213.0</ele><time>2026-03-24T16:30:01Z</time></trkpt><trkpt lat="43.45777932849018" lon="10.567281658291925"><ele>212.25</ele><time>2026-03-24T16:30:02Z</time></trkpt><trkpt lat="43.45767883300902" lon="10.567292234833136"><ele>211.5</ele><time>2026-03-24T16:30:03Z</time></trkpt><trkpt lat="43.45758933740474" lon="10.567381629883235"><ele>210.75</ele><time>2026-03-24T16:30:04Z</time></trkpt><trkpt lat="43.45753131159512" lon="10.567525013848217"><ele>210.0</ele><time>2026-03-24T16:30:05Z</time></trkpt><trkpt lat="43.4574927735552" lon="10.567704014367356"><ele>210.0</ele><time>2026-03-24T16:30:06Z</time></trkpt><trkpt lat="43.45742320514408" lon="10.567806984100445"><ele>210.0</ele><time>2026-03-24T16:30:07Z</time></trkpt><trkpt lat="43.45731399826868" lon="10.567751690375204"><ele>210.0</ele><time>2026-03-24T16:30:08Z</time></trkpt><trkpt lat="43.45721195911221" lon="10.567687757847395"><ele>210.0</ele><time>2026-03-24T16:30:09Z</time></trkpt><trkpt lat="43.45713063204032" lon="10.567535198694234"><ele>212.66666666666669</ele><time>2026-03-24T16:30:10Z</time></trkpt><trkpt lat="43.45703671911211" lon="10.56734392926592"><ele>215.33333333333334</ele><time>2026-03-24T16:30:11Z</time></trkpt><trkpt lat="43.45693168533846" lon="10.567172145631519"><ele>218.0</ele><time>2026-03-24T16:30:12Z</time></trkpt><trkpt lat="43.45681650857267" lon="10.56705362973157"><ele>216.5</ele><time>2026-03-24T16:30:13Z</time></trkpt><trkpt lat="43.45669212365836" lon="10.566987251481011"><ele>215.0</ele><time>2026-03-24T16:30:14Z</time></trkpt><trkpt lat="43.456551011356666" lon="10.566942562515415"><ele>213.5</ele><time>2026-03-24T16:30:15Z</time></trkpt><trkpt lat="43.45640347915456" lon="10.56691115538981"><ele>212.0</ele><time>2026-03-24T16:30:16Z</time></trkpt><trkpt lat="43.45627897311638" lon="10.566855650476992"><ele>212.0</ele><time>2026-03-24T16:30:17Z</time></trkpt><trkpt lat="43.456169171087716" lon="10.566790506996547"><ele>212.0</ele><time>2026-03-24T16:30:18Z</time></trkpt><trkpt lat="43.45609026659856" lon="10.56664887406854"><ele>212.0</ele><time>2026-03-24T16:30:19Z</time></trkpt><trkpt lat="43.45597244291805" lon="10.566515859299058"><ele>212.0</ele><time>2026-03-24T16:30:20Z</time></trkpt><trkpt lat="43.45586462332418" lon="10.566390515259306"><ele>212.0</ele><time>2026-03-24T16:30:21Z</time></trkpt><trkpt lat="43.45573194682265" lon="10.566304681427427"><ele>212.0</ele><time>2026-03-24T16:30:22Z</time></trkpt><trkpt lat="43.455575013320335" lon="10.566266577804141"><ele>212.0</ele><time>2026-03-24T16:30:23Z</time></trkpt><trkpt lat="43.45538258965587" lon="10.566238138393198"><ele>214.66666666666669</ele><time>2026-03-24T16:30:24Z</time></trkpt><trkpt lat="43.45520406941086" lon="10.566201088074354"><ele>217.33333333333331</ele><time>2026-03-24T16:30:25Z</time></trkpt><trkpt lat="43.45503710265796" lon="10.566150469917657"><ele>220.0</ele><time>2026-03-24T16:30:26Z</time></trkpt><trkpt lat="43.45489343471337" lon="10.566086115067193"><ele>217.75</ele><time>2026-03-24T16:30:27Z</time></trkpt><trkpt lat="43.454755719812795" lon="10.5660144453549"><ele>215.5</ele><time>2026-03-24T16:30:28Z</time></trkpt><trkpt lat="43.45464217916241" lon="10.5658902478094"><ele>213.25</ele><time>2026-03-24T16:30:29Z</time></trkpt><trkpt lat="43.45453652158547" lon="10.565740860081082"><ele>211.0</ele><time>2026-03-24T16:30:30Z</time></trkpt><trkpt lat="43.454420468703205" lon="10.565637061398434"><ele>211.0</ele><time>2026-03-24T16:30:31Z</time></trkpt><trkpt lat="43.45428543751419" lon="10.565539083159134"><ele>211.0</ele><time>2026-03-24T16:30:32Z</time></trkpt><trkpt lat="43.454130157696106" lon="10.565485138821147"><ele>211.0</ele><time>2026-03-24T16:30:33.001Z</time></trkpt><trkpt lat="43.45398301235602" lon="10.56546480304071"><ele>211.0</ele><time>2026-03-24T16:30:34.001Z</time></trkpt><trkpt lat="43.45384897590343" lon="10.565475581580726"><ele>211.0</ele><time>2026-03-24T16:30:35.001Z</time></trkpt><trkpt lat="43.45371041892365" lon="10.565499133298093"><ele>211.0</ele><time>2026-03-24T16:30:36.001Z</time></trkpt><trkpt lat="43.45357044734769" lon="10.565523512718029"><ele>211.0</ele><time>2026-03-24T16:30:37.001Z</time></trkpt><trkpt lat="43.45343628555951" lon="10.565555341695552"><ele>208.75</ele><time>2026-03-24T16:30:38.001Z</time></trkpt><trkpt lat="43.453315940944705" lon="10.565604067443406"><ele>206.5</ele><time>2026-03-24T16:30:39.001Z</time></trkpt><trkpt lat="43.453224801685046" lon="10.565688133613067"><ele>204.25</ele><time>2026-03-24T16:30:40.001Z</time></trkpt><trkpt lat="43.45316327048018" lon="10.565826513065497"><ele>202.0</ele><time>2026-03-24T16:30:41.001Z</time></trkpt><trkpt lat="43.45310815176247" lon="10.566029699203433"><ele>201.66666666666666</ele><time>2026-03-24T16:30:42.001Z</time></trkpt><trkpt lat="43.453033504954206" lon="10.566261830684427"><ele>201.33333333333331</ele><time>2026-03-24T16:30:43.001Z</time></trkpt><trkpt lat="43.45293841816846" lon="10.566493216845485"><ele>201.0</ele><time>2026-03-24T16:30:44.001Z</time></trkpt><trkpt lat="43.45285353048372" lon="10.566695796150826"><ele>201.0</ele><time>2026-03-24T16:30:45.001Z</time></trkpt><trkpt lat="43.45277199008971" lon="10.566869849756504"><ele>201.0</ele><time>2026-03-24T16:30:46.001Z</time></trkpt><trkpt lat="43.45271919278972" lon="10.567043219520945"><ele>201.0</ele><time>2026-03-24T16:30:47.001Z</time></trkpt><trkpt lat="43.45263126434143" lon="10.567143104489542"><ele>201.0</ele><time>2026-03-24T16:30:48.001Z</time></trkpt><trkpt lat="43.452579236046724" lon="10.567234679128163"><ele>201.0</ele><time>2026-03-24T16:30:49.001Z</time></trkpt><trkpt lat="43.45246397455636" lon="10.56726604249921"><ele>201.0</ele><time>2026-03-24T16:30:51.001Z</time></trkpt><trkpt lat="43.452405079822384" lon="10.567205196283872"><ele>201.0</ele><time>2026-03-24T16:30:52.001Z</time></trkpt><trkpt lat="43.4523789912764" lon="10.567102550054045"><ele>201.0</ele><time>2026-03-24T16:30:53.001Z</time></trkpt><trkpt lat="43.45238244831669" lon="10.566956274723823"><ele>201.0</ele><time>2026-03-24T16:30:54.001Z</time></trkpt><trkpt lat="43.45239238066958" lon="10.566769378713158"><ele>201.0</ele><time>2026-03-24T16:30:55.001Z</time></trkpt><trkpt lat="43.45240112619284" lon="10.566557974257709"><ele>201.0</ele><time>2026-03-24T16:30:56.001Z</time></trkpt><trkpt lat="43.452417120169606" lon="10.566362595710697"><ele>201.0</ele><time>2026-03-24T16:30:57.001Z</time></trkpt><trkpt lat="43.452420842501525" lon="10.566205266938953"><ele>201.0</ele><time>2026-03-24T16:30:58.001Z</time></trkpt><trkpt lat="43.452385950059075" lon="10.566049723164692"><ele>201.25</ele><time>2026-03-24T16:30:59.001Z</time></trkpt><trkpt lat="43.452306493098256" lon="10.565926698347072"><ele>201.5</ele><time>2026-03-24T16:31:00.001Z</time></trkpt><trkpt lat="43.452190455076085" lon="10.565870939239364"><ele>201.75</ele><time>2026-03-24T16:31:01.001Z</time></trkpt><trkpt lat="43.452039472272126" lon="10.56587260430631"><ele>202.0</ele><time>2026-03-24T16:31:02.001Z</time></trkpt><trkpt lat="43.45187723712243" lon="10.565898825654811"><ele>202.0</ele><time>2026-03-24T16:31:03.001Z</time></trkpt><trkpt lat="43.451730037554356" lon="10.565854195951246"><ele>202.0</ele><time>2026-03-24T16:31:04.001Z</time></trkpt><trkpt lat="43.45162955351766" lon="10.565760106332132"><ele>202.0</ele><time>2026-03-24T16:31:05.001Z</time></trkpt><trkpt lat="43.451597243352126" lon="10.565582671360492"><ele>202.0</ele><time>2026-03-24T16:31:06.001Z</time></trkpt><trkpt lat="43.451587370696416" lon="10.565392718079586"><ele>200.0</ele><time>2026-03-24T16:31:07.001Z</time></trkpt><trkpt lat="43.45162973885164" lon="10.565179640233838"><ele>198.0</ele><time>2026-03-24T16:31:08.001Z</time></trkpt><trkpt lat="43.451708049890854" lon="10.564964206885879"><ele>196.0</ele><time>2026-03-24T16:31:09.001Z</time></trkpt><trkpt lat="43.45179091601271" lon="10.564746329014806"><ele>194.33333333333331</ele><time>2026-03-24T16:31:10.001Z</time></trkpt><trkpt lat="43.451856676722876" lon="10.564516118308791"><ele>192.66666666666666</ele><time>2026-03-24T16:31:11.001Z</time></trkpt><trkpt lat="43.451881654193045" lon="10.564292069161892"><ele>191.0</ele><time>2026-03-24T16:31:12.001Z</time></trkpt><trkpt lat="43.45186823207189" lon="10.564081951239036"><ele>191.0</ele><time>2026-03-24T16:31:13.001Z</time></trkpt><trkpt lat="43.45182552137398" lon="10.563895676140437"><ele>191.0</ele><time>2026-03-24T16:31:14.001Z</time></trkpt><trkpt lat="43.45174983783126" lon="10.563754785265571"><ele>191.0</ele><time>2026-03-24T16:31:15.001Z</time></trkpt><trkpt lat="43.45164724411815" lon="10.563675980753583"><ele>191.0</ele><time>2026-03-24T16:31:16.001Z</time></trkpt><trkpt lat="43.45153534361701" lon="10.56368326177239"><ele>191.0</ele><time>2026-03-24T16:31:17.001Z</time></trkpt><trkpt lat="43.45141666078185" lon="10.563766248630262"><ele>191.0</ele><time>2026-03-24T16:31:18.001Z</time></trkpt><trkpt lat="43.45127913976338" lon="10.563907622263773"><ele>191.0</ele><time>2026-03-24T16:31:19.001Z</time></trkpt><trkpt lat="43.4511285387971" lon="10.56408857202648"><ele>189.66666666666666</ele><time>2026-03-24T16:31:20.001Z</time></trkpt><trkpt lat="43.45096385182202" lon="10.564277415694024"><ele>188.33333333333334</ele><time>2026-03-24T16:31:21.001Z</time></trkpt><trkpt lat="43.45078034359451" lon="10.564464209056153"><ele>187.0</ele><time>2026-03-24T16:31:22.001Z</time></trkpt><trkpt lat="43.45058136214828" lon="10.564666711971476"><ele>188.0</ele><time>2026-03-24T16:31:23.001Z</time></trkpt><trkpt lat="43.45039052906168" lon="10.564869886884553"><ele>189.0</ele><time>2026-03-24T16:31:24.001Z</time></trkpt><trkpt lat="43.45017058675989" lon="10.564987997097786"><ele>189.0</ele><time>2026-03-24T16:31:25.001Z</time></trkpt><trkpt lat="43.44994094149668" lon="10.565101613841396"><ele>189.0</ele><time>2026-03-24T16:31:26.001Z</time></trkpt><trkpt lat="43.44973186481879" lon="10.565217853160853"><ele>187.33333333333334</ele><time>2026-03-24T16:31:27.001Z</time></trkpt><trkpt lat="43.449542147567456" lon="10.56526421211157"><ele>185.66666666666669</ele><time>2026-03-24T16:31:28.001Z</time></trkpt><trkpt lat="43.449374741225775" lon="10.565371754884078"><ele>184.0</ele><time>2026-03-24T16:31:29.001Z</time></trkpt><trkpt lat="43.449214947181886" lon="10.565514784076933"><ele>188.66666666666669</ele><time>2026-03-24T16:31:30Z</time></trkpt><trkpt lat="43.44906362052847" lon="10.565635280566239"><ele>193.33333333333334</ele><time>2026-03-24T16:31:31Z</time></trkpt><trkpt lat="43.44891329025202" lon="10.565678344018494"><ele>198.0</ele><time>2026-03-24T16:31:32Z</time></trkpt><trkpt lat="43.448781830741" lon="10.565650593699301"><ele>198.0</ele><time>2026-03-24T16:31:33Z</time></trkpt><trkpt lat="43.44866807979268" lon="10.56554949666762"><ele>198.0</ele><time>2026-03-24T16:31:34Z</time></trkpt><trkpt lat="43.4485671781758" lon="10.565384380877903"><ele>198.0</ele><time>2026-03-24T16:31:35Z</time></trkpt><trkpt lat="43.448451458766236" lon="10.565175518991726"><ele>195.33333333333334</ele><time>2026-03-24T16:31:36Z</time></trkpt><trkpt lat="43.44832994636238" lon="10.564982865869165"><ele>192.66666666666669</ele><time>2026-03-24T16:31:37Z</time></trkpt><trkpt lat="43.448233043580075" lon="10.564815915016261"><ele>190.0</ele><time>2026-03-24T16:31:38Z</time></trkpt><trkpt lat="43.44814007206118" lon="10.564711817079187"><ele>190.0</ele><time>2026-03-24T16:31:39Z</time></trkpt><trkpt lat="43.44803107186688" lon="10.564681784037694"><ele>190.0</ele><time>2026-03-24T16:31:40Z</time></trkpt><trkpt lat="43.44792410179093" lon="10.564741212202627"><ele>190.0</ele><time>2026-03-24T16:31:41Z</time></trkpt><trkpt lat="43.44783717872811" lon="10.56487161701566"><ele>190.0</ele><time>2026-03-24T16:31:42Z</time></trkpt><trkpt lat="43.44776529007294" lon="10.565057844315643"><ele>189.0</ele><time>2026-03-24T16:31:43Z</time></trkpt><trkpt lat="43.44769388864057" lon="10.565277671517661"><ele>188.0</ele><time>2026-03-24T16:31:44Z</time></trkpt><trkpt lat="43.44765042846428" lon="10.56551512051494"><ele>187.0</ele><time>2026-03-24T16:31:45Z</time></trkpt><trkpt lat="43.44764208499667" lon="10.56576489953614"><ele>187.0</ele><time>2026-03-24T16:31:46Z</time></trkpt><trkpt lat="43.447587570773145" lon="10.565973843992063"><ele>187.0</ele><time>2026-03-24T16:31:47Z</time></trkpt><trkpt lat="43.447474672050554" lon="10.566130732344998"><ele>187.0</ele><time>2026-03-24T16:31:48Z</time></trkpt><trkpt lat="43.447332180940116" lon="10.566319938572953"><ele>189.33333333333334</ele><time>2026-03-24T16:31:49Z</time></trkpt><trkpt lat="43.447198352654915" lon="10.56651524046591"><ele>191.66666666666669</ele><time>2026-03-24T16:31:50Z</time></trkpt><trkpt lat="43.44708404160484" lon="10.566658666989866"><ele>194.0</ele><time>2026-03-24T16:31:51Z</time></trkpt><trkpt lat="43.44700224832592" lon="10.56679518815675"><ele>191.0</ele><time>2026-03-24T16:31:52Z</time></trkpt><trkpt lat="43.44696434475719" lon="10.566970912079027"><ele>188.0</ele><time>2026-03-24T16:31:53Z</time></trkpt><trkpt lat="43.44697800337858" lon="10.56719580803594"><ele>185.0</ele><time>2026-03-24T16:31:54Z</time></trkpt><trkpt lat="43.447042952187616" lon="10.567440490909389"><ele>185.5</ele><time>2026-03-24T16:31:55Z</time></trkpt><trkpt lat="43.447138691536445" lon="10.567652629662424"><ele>186.0</ele><time>2026-03-24T16:31:56Z</time></trkpt><trkpt lat="43.447231572497465" lon="10.567815404081376"><ele>186.5</ele><time>2026-03-24T16:31:57Z</time></trkpt><trkpt lat="43.44727386139759" lon="10.56793243768569"><ele>187.0</ele><time>2026-03-24T16:31:58Z</time></trkpt><trkpt lat="43.44727117545692" lon="10.568032364802939"><ele>187.0</ele><time>2026-03-24T16:31:59Z</time></trkpt><trkpt lat="43.44720496608828" lon="10.568119837083323"><ele>187.0</ele><time>2026-03-24T16:32:00Z</time></trkpt><trkpt lat="43.447122503804636" lon="10.568218763695933"><ele>187.0</ele><time>2026-03-24T16:32:01Z</time></trkpt><trkpt lat="43.44705606692221" lon="10.568302189850773"><ele>187.0</ele><time>2026-03-24T16:32:02Z</time></trkpt><trkpt lat="43.44693549952903" lon="10.568283122782093"><ele>187.0</ele><time>2026-03-24T16:32:03Z</time></trkpt><trkpt lat="43.446810792572286" lon="10.568209485151643"><ele>186.33333333333334</ele><time>2026-03-24T16:32:04Z</time></trkpt><trkpt lat="43.446678704935835" lon="10.568082637861071"><ele>185.66666666666666</ele><time>2026-03-24T16:32:05Z</time></trkpt><trkpt lat="43.44654269165245" lon="10.567936514282646"><ele>185.0</ele><time>2026-03-24T16:32:06Z</time></trkpt><trkpt lat="43.446406354120526" lon="10.5677542637229"><ele>186.33333333333331</ele><time>2026-03-24T16:32:07Z</time></trkpt><trkpt lat="43.446252326993395" lon="10.56761167117887"><ele>187.66666666666666</ele><time>2026-03-24T16:32:08Z</time></trkpt><trkpt lat="43.44607887098067" lon="10.567532517020187"><ele>189.0</ele><time>2026-03-24T16:32:09Z</time></trkpt><trkpt lat="43.44589258346461" lon="10.5675205235697"><ele>189.0</ele><time>2026-03-24T16:32:10Z</time></trkpt><trkpt lat="43.445714072919095" lon="10.56753909989578"><ele>189.0</ele><time>2026-03-24T16:32:11Z</time></trkpt><trkpt lat="43.4455710080298" lon="10.56763078149459"><ele>189.0</ele><time>2026-03-24T16:32:12Z</time></trkpt><trkpt lat="43.44544752293731" lon="10.567775890418682"><ele>187.66666666666666</ele><time>2026-03-24T16:32:13Z</time></trkpt><trkpt lat="43.44536053790837" lon="10.567935537273371"><ele>186.33333333333331</ele><time>2026-03-24T16:32:14Z</time></trkpt><trkpt lat="43.445272459913056" lon="10.568110145220032"><ele>185.0</ele><time>2026-03-24T16:32:15Z</time></trkpt><trkpt lat="43.445180694491086" lon="10.568308247725371"><ele>185.0</ele><time>2026-03-24T16:32:16Z</time></trkpt><trkpt lat="43.445070037059" lon="10.56850319677711"><ele>185.0</ele><time>2026-03-24T16:32:17Z</time></trkpt><trkpt lat="43.44492097352881" lon="10.568660111968931"><ele>185.0</ele><time>2026-03-24T16:32:18Z</time></trkpt><trkpt lat="43.444748145769985" lon="10.568762237831605"><ele>182.33333333333331</ele><time>2026-03-24T16:32:19Z</time></trkpt><trkpt lat="43.44455948720895" lon="10.568852138516986"><ele>179.66666666666666</ele><time>2026-03-24T16:32:20Z</time></trkpt><trkpt lat="43.44438817710138" lon="10.568964798915522"><ele>177.0</ele><time>2026-03-24T16:32:21Z</time></trkpt><trkpt lat="43.44423771057969" lon="10.569110739611876"><ele>177.0</ele><time>2026-03-24T16:32:22Z</time></trkpt><trkpt lat="43.44410909843274" lon="10.56926499097977"><ele>177.0</ele><time>2026-03-24T16:32:23Z</time></trkpt><trkpt lat="43.44396340299548" lon="10.569362848733174"><ele>177.0</ele><time>2026-03-24T16:32:24Z</time></trkpt><trkpt lat="43.44379998850975" lon="10.56941860548256"><ele>172.33333333333334</ele><time>2026-03-24T16:32:25Z</time></trkpt><trkpt lat="43.443626864760844" lon="10.569412426798866"><ele>167.66666666666669</ele><time>2026-03-24T16:32:26Z</time></trkpt><trkpt lat="43.44345854121257" lon="10.569418343382198"><ele>163.0</ele><time>2026-03-24T16:32:27Z</time></trkpt><trkpt lat="43.443325235343956" lon="10.569399198058665"><ele>163.0</ele><time>2026-03-24T16:32:28Z</time></trkpt><trkpt lat="43.44321499448497" lon="10.56943918178824"><ele>163.0</ele><time>2026-03-24T16:32:29Z</time></trkpt><trkpt lat="43.44313100285949" lon="10.569557975740782"><ele>163.0</ele><time>2026-03-24T16:32:30Z</time></trkpt><trkpt lat="43.443089421660375" lon="10.569738028575788"><ele>163.0</ele><time>2026-03-24T16:32:31Z</time></trkpt><trkpt lat="43.44305475754118" lon="10.569943818501278"><ele>165.2</ele><time>2026-03-24T16:32:32Z</time></trkpt><trkpt lat="43.44302867671675" lon="10.57011317081628"><ele>167.4</ele><time>2026-03-24T16:32:33Z</time></trkpt><trkpt lat="43.4430026964502" lon="10.570237827198051"><ele>169.6</ele><time>2026-03-24T16:32:34Z</time></trkpt><trkpt lat="43.44297131174796" lon="10.570323714364466"><ele>171.79999999999998</ele><time>2026-03-24T16:32:35Z</time></trkpt><trkpt lat="43.442865262175665" lon="10.57031029630786"><ele>174.0</ele><time>2026-03-24T16:32:36Z</time></trkpt><trkpt lat="43.44279215171373" lon="10.570343709886165"><ele>178.75</ele><time>2026-03-24T16:32:37Z</time></trkpt><trkpt lat="43.44273034888689" lon="10.570264053991442"><ele>183.5</ele><time>2026-03-24T16:32:38Z</time></trkpt><trkpt lat="43.44268834168496" lon="10.570113437165883"><ele>188.25</ele><time>2026-03-24T16:32:39Z</time></trkpt><trkpt lat="43.442632130698016" lon="10.569956169238841"><ele>193.0</ele><time>2026-03-24T16:32:40Z</time></trkpt><trkpt lat="43.44264849226298" lon="10.56977359889956"><ele>193.0</ele><time>2026-03-24T16:32:41Z</time></trkpt><trkpt lat="43.44266959677322" lon="10.569572136346011"><ele>193.0</ele><time>2026-03-24T16:32:42Z</time></trkpt><trkpt lat="43.44263752622618" lon="10.5693701179972"><ele>193.0</ele><time>2026-03-24T16:32:43Z</time></trkpt><trkpt lat="43.44255655884848" lon="10.569229920725999"><ele>193.0</ele><time>2026-03-24T16:32:44Z</time></trkpt><trkpt lat="43.442451230391484" lon="10.569149373350953"><ele>192.66666666666666</ele><time>2026-03-24T16:32:45Z</time></trkpt><trkpt lat="43.442296678715934" lon="10.569143198172382"><ele>192.33333333333331</ele><time>2026-03-24T16:32:46Z</time></trkpt><trkpt lat="43.44212196311092" lon="10.569180337594307"><ele>192.0</ele><time>2026-03-24T16:32:47Z</time></trkpt><trkpt lat="43.441938592142996" lon="10.569190936659972"><ele>192.0</ele><time>2026-03-24T16:32:48Z</time></trkpt><trkpt lat="43.441783792873146" lon="10.56909424013495"><ele>192.0</ele><time>2026-03-24T16:32:49Z</time></trkpt><trkpt lat="43.4416811203728" lon="10.56893836227549"><ele>192.0</ele><time>2026-03-24T16:32:50Z</time></trkpt><trkpt lat="43.44161327795955" lon="10.568732217339377"><ele>187.66666666666666</ele><time>2026-03-24T16:32:51Z</time></trkpt><trkpt lat="43.441510818079834" lon="10.568515104799337"><ele>183.33333333333331</ele><time>2026-03-24T16:32:52Z</time></trkpt><trkpt lat="43.4414213479067" lon="10.568264592455265"><ele>179.0</ele><time>2026-03-24T16:32:53Z</time></trkpt><trkpt lat="43.44131729835503" lon="10.568061102291104"><ele>179.25</ele><time>2026-03-24T16:32:54Z</time></trkpt><trkpt lat="43.44120408435112" lon="10.56792260504887"><ele>179.5</ele><time>2026-03-24T16:32:55Z</time></trkpt><trkpt lat="43.44107583505553" lon="10.567851060562749"><ele>179.75</ele><time>2026-03-24T16:32:56Z</time></trkpt><trkpt lat="43.44093935994927" lon="10.567861644119226"><ele>180.0</ele><time>2026-03-24T16:32:57Z</time></trkpt><trkpt lat="43.44080598795618" lon="10.567944006385536"><ele>182.5</ele><time>2026-03-24T16:32:58Z</time></trkpt><trkpt lat="43.440669636677136" lon="10.568055868255186"><ele>185.0</ele><time>2026-03-24T16:32:59Z</time></trkpt><trkpt lat="43.440533318447066" lon="10.568074203658371"><ele>187.5</ele><time>2026-03-24T16:33:00Z</time></trkpt><trkpt lat="43.44041907316521" lon="10.568014657475418"><ele>190.0</ele><time>2026-03-24T16:33:01Z</time></trkpt><trkpt lat="43.44028110755763" lon="10.567911409691787"><ele>189.33333333333334</ele><time>2026-03-24T16:33:02Z</time></trkpt><trkpt lat="43.440103220262294" lon="10.567804998241384"><ele>188.66666666666666</ele><time>2026-03-24T16:33:03Z</time></trkpt><trkpt lat="43.4399263804791" lon="10.567678774580475"><ele>188.0</ele><time>2026-03-24T16:33:04Z</time></trkpt><trkpt lat="43.43973986012122" lon="10.567536577406427"><ele>189.66666666666666</ele><time>2026-03-24T16:33:05Z</time></trkpt><trkpt lat="43.43954963180273" lon="10.567377455303372"><ele>191.33333333333331</ele><time>2026-03-24T16:33:06Z</time></trkpt><trkpt lat="43.43938896855934" lon="10.567164876851281"><ele>193.0</ele><time>2026-03-24T16:33:07Z</time></trkpt><trkpt lat="43.43925137126064" lon="10.56695729785385"><ele>193.0</ele><time>2026-03-24T16:33:08Z</time></trkpt><trkpt lat="43.439107983838824" lon="10.566800514746925"><ele>193.0</ele><time>2026-03-24T16:33:09Z</time></trkpt><trkpt lat="43.43895593034084" lon="10.5666827495236"><ele>193.0</ele><time>2026-03-24T16:33:10Z</time></trkpt><trkpt lat="43.43876353948228" lon="10.566641741587382"><ele>194.0</ele><time>2026-03-24T16:33:11Z</time></trkpt><trkpt lat="43.4385488434294" lon="10.566651795427727"><ele>195.0</ele><time>2026-03-24T16:33:12Z</time></trkpt><trkpt lat="43.43834775264807" lon="10.566680444880763"><ele>196.0</ele><time>2026-03-24T16:33:13Z</time></trkpt><trkpt lat="43.438170178962835" lon="10.56668276190871"><ele>196.0</ele><time>2026-03-24T16:33:14Z</time></trkpt><trkpt lat="43.43801353436428" lon="10.566696635744258"><ele>196.0</ele><time>2026-03-24T16:33:15Z</time></trkpt><trkpt lat="43.437883140237695" lon="10.566729600011355"><ele>196.0</ele><time>2026-03-24T16:33:16Z</time></trkpt><trkpt lat="43.437776009006456" lon="10.566815398555121"><ele>196.0</ele><time>2026-03-24T16:33:17Z</time></trkpt><trkpt lat="43.43771393484111" lon="10.566977791778658"><ele>194.25</ele><time>2026-03-24T16:33:18Z</time></trkpt><trkpt lat="43.43769682117255" lon="10.567154394523367"><ele>192.5</ele><time>2026-03-24T16:33:19Z</time></trkpt><trkpt lat="43.43769912464165" lon="10.567332880721127"><ele>190.75</ele><time>2026-03-24T16:33:20Z</time></trkpt><trkpt lat="43.43767661638483" lon="10.56747918652725"><ele>189.0</ele><time>2026-03-24T16:33:21Z</time></trkpt><trkpt lat="43.437583372335666" lon="10.567563763979534"><ele>189.0</ele><time>2026-03-24T16:33:22Z</time></trkpt><trkpt lat="43.43745674109161" lon="10.567595074492798"><ele>189.0</ele><time>2026-03-24T16:33:23Z</time></trkpt><trkpt lat="43.43729489708292" lon="10.567621403762416"><ele>189.0</ele><time>2026-03-24T16:33:24Z</time></trkpt><trkpt lat="43.43714943072926" lon="10.56759885749829"><ele>189.0</ele><time>2026-03-24T16:33:25Z</time></trkpt><trkpt lat="43.43700809506537" lon="10.567512421087818"><ele>188.25</ele><time>2026-03-24T16:33:26Z</time></trkpt><trkpt lat="43.43686812822767" lon="10.567386158423739"><ele>187.5</ele><time>2026-03-24T16:33:27Z</time></trkpt><trkpt lat="43.436733821476366" lon="10.567294830362268"><ele>186.75</ele><time>2026-03-24T16:33:28Z</time></trkpt><trkpt lat="43.43660600131929" lon="10.567261509022842"><ele>186.0</ele><time>2026-03-24T16:33:29Z</time></trkpt><trkpt lat="43.43648546291041" lon="10.567308248398554"><ele>186.0</ele><time>2026-03-24T16:33:30Z</time></trkpt><trkpt lat="43.43636220540572" lon="10.56741943189653"><ele>186.0</ele><time>2026-03-24T16:33:31Z</time></trkpt><trkpt lat="43.43622351420617" lon="10.567563930806463"><ele>186.0</ele><time>2026-03-24T16:33:32Z</time></trkpt><trkpt lat="43.43607031422761" lon="10.567637275838733"><ele>185.33333333333334</ele><time>2026-03-24T16:33:33Z</time></trkpt><trkpt lat="43.43590127795723" lon="10.56764863819834"><ele>184.66666666666669</ele><time>2026-03-24T16:33:34Z</time></trkpt><trkpt lat="43.43570768270728" lon="10.567636399216076"><ele>184.0</ele><time>2026-03-24T16:33:35Z</time></trkpt><trkpt lat="43.43550331832352" lon="10.567589460176647"><ele>184.5</ele><time>2026-03-24T16:33:36Z</time></trkpt><trkpt lat="43.43529561729517" lon="10.56748718947005"><ele>185.0</ele><time>2026-03-24T16:33:37Z</time></trkpt><trkpt lat="43.43508551354665" lon="10.567356516267193"><ele>185.0</ele><time>2026-03-24T16:33:38Z</time></trkpt><trkpt lat="43.43489326116941" lon="10.567226744975482"><ele>185.0</ele><time>2026-03-24T16:33:39Z</time></trkpt><trkpt lat="43.43473627015" lon="10.567119326794494"><ele>185.0</ele><time>2026-03-24T16:33:40Z</time></trkpt><trkpt lat="43.434604689955464" lon="10.567009849944016"><ele>183.33333333333331</ele><time>2026-03-24T16:33:41Z</time></trkpt><trkpt lat="43.43450521995962" lon="10.566874462560877"><ele>181.66666666666666</ele><time>2026-03-24T16:33:42Z</time></trkpt><trkpt lat="43.43440999609362" lon="10.566694564802294"><ele>180.0</ele><time>2026-03-24T16:33:43Z</time></trkpt><trkpt lat="43.43429577827763" lon="10.566499567604922"><ele>180.0</ele><time>2026-03-24T16:33:44Z</time></trkpt><trkpt lat="43.43419234925352" lon="10.566286182127355"><ele>180.0</ele><time>2026-03-24T16:33:45Z</time></trkpt><trkpt lat="43.43407046656712" lon="10.566123965437855"><ele>180.0</ele><time>2026-03-24T16:33:46Z</time></trkpt><trkpt lat="43.433982484783996" lon="10.565973617827796"><ele>179.2</ele><time>2026-03-24T16:33:47Z</time></trkpt><trkpt lat="43.43395464016332" lon="10.565809858871056"><ele>178.4</ele><time>2026-03-24T16:33:48Z</time></trkpt><trkpt lat="43.433904698279214" lon="10.565704055035438"><ele>177.60000000000002</ele><time>2026-03-24T16:33:49Z</time></trkpt><trkpt lat="43.433857705277546" lon="10.565616052369652"><ele>176.8</ele><time>2026-03-24T16:33:50Z</time></trkpt><trkpt lat="43.43378337753875" lon="10.565558327080417"><ele>176.0</ele><time>2026-03-24T16:33:51Z</time></trkpt><trkpt lat="43.433704118702806" lon="10.565535534183427"><ele>176.0</ele><time>2026-03-24T16:33:52Z</time></trkpt><trkpt lat="43.43363372894079" lon="10.56554699261592"><ele>176.0</ele><time>2026-03-24T16:33:53Z</time></trkpt><trkpt lat="43.433567536806464" lon="10.565592902851131"><ele>176.0</ele><time>2026-03-24T16:33:54Z</time></trkpt><trkpt lat="43.433494783782336" lon="10.56564190579649"><ele>176.0</ele><time>2026-03-24T16:33:55Z</time></trkpt><trkpt lat="43.43342729324418" lon="10.565692341459721"><ele>176.0</ele><time>2026-03-24T16:33:56Z</time></trkpt><trkpt lat="43.433360837147035" lon="10.565744530424094"><ele>176.0</ele><time>2026-03-24T16:33:57Z</time></trkpt><trkpt lat="43.433284762924856" lon="10.565804266480322"><ele>176.0</ele><time>2026-03-24T16:33:58Z</time></trkpt><trkpt lat="43.433204775122746" lon="10.565863703752076"><ele>176.0</ele><time>2026-03-24T16:33:59Z</time></trkpt><trkpt lat="43.433118948855075" lon="10.565933819684254"><ele>176.0</ele><time>2026-03-24T16:34:00Z</time></trkpt><trkpt lat="43.43303374095974" lon="10.566009938727824"><ele>176.0</ele><time>2026-03-24T16:34:01Z</time></trkpt><trkpt lat="43.43294815970487" lon="10.566087475112237"><ele>176.0</ele><time>2026-03-24T16:34:02Z</time></trkpt><trkpt lat="43.43285751658681" lon="10.566167094315924"><ele>176.5</ele><time>2026-03-24T16:34:03Z</time></trkpt><trkpt lat="43.43277289942309" lon="10.566244116834884"><ele>177.0</ele><time>2026-03-24T16:34:04Z</time></trkpt><trkpt lat="43.43268144065621" lon="10.566324936735587"><ele>177.5</ele><time>2026-03-24T16:34:05Z</time></trkpt><trkpt lat="43.432582047478164" lon="10.566420231584068"><ele>178.0</ele><time>2026-03-24T16:34:06Z</time></trkpt><trkpt lat="43.43247305589238" lon="10.566528030442349"><ele>178.0</ele><time>2026-03-24T16:34:07Z</time></trkpt><trkpt lat="43.43235566793663" lon="10.56663357245307"><ele>178.0</ele><time>2026-03-24T16:34:08Z</time></trkpt><trkpt lat="43.43223696516168" lon="10.566739477411163"><ele>178.0</ele><time>2026-03-24T16:34:09Z</time></trkpt><trkpt lat="43.43212478003435" lon="10.566860009278974"><ele>178.0</ele><time>2026-03-24T16:34:10Z</time></trkpt><trkpt lat="43.432056212394755" lon="10.566978056779696"><ele>175.25</ele><time>2026-03-24T16:34:11Z</time></trkpt><trkpt lat="43.43202646815245" lon="10.56713479259415"><ele>172.5</ele><time>2026-03-24T16:34:12Z</time></trkpt><trkpt lat="43.43203032473585" lon="10.567320885662143"><ele>169.75</ele><time>2026-03-24T16:34:13Z</time></trkpt><trkpt lat="43.43207280694633" lon="10.56752584394202"><ele>167.0</ele><time>2026-03-24T16:34:14Z</time></trkpt><trkpt lat="43.432139357325006" lon="10.567762812836863"><ele>170.0</ele><time>2026-03-24T16:34:15Z</time></trkpt><trkpt lat="43.432212219247845" lon="10.56802181539715"><ele>173.0</ele><time>2026-03-24T16:34:16Z</time></trkpt><trkpt lat="43.43229335846331" lon="10.568255729643568"><ele>176.0</ele><time>2026-03-24T16:34:17Z</time></trkpt><trkpt lat="43.432410175583684" lon="10.568477105854727"><ele>172.66666666666666</ele><time>2026-03-24T16:34:18Z</time></trkpt><trkpt lat="43.43253721066912" lon="10.568723030231158"><ele>169.33333333333334</ele><time>2026-03-24T16:34:19Z</time></trkpt><trkpt lat="43.43261473566866" lon="10.56902080895075"><ele>166.0</ele><time>2026-03-24T16:34:20Z</time></trkpt><trkpt lat="43.432702071918435" lon="10.569276981548162"><ele>166.0</ele><time>2026-03-24T16:34:21Z</time></trkpt><trkpt lat="43.43276719674656" lon="10.569507739561729"><ele>166.0</ele><time>2026-03-24T16:34:22Z</time></trkpt><trkpt lat="43.43280504912937" lon="10.569703895850218"><ele>166.0</ele><time>2026-03-24T16:34:23Z</time></trkpt><trkpt lat="43.43285067944064" lon="10.569843305557864"><ele>166.0</ele><time>2026-03-24T16:34:24Z</time></trkpt><trkpt lat="43.432951022935576" lon="10.56995737534094"><ele>169.25</ele><time>2026-03-24T16:34:25Z</time></trkpt><trkpt lat="43.43308173487671" lon="10.570044863606174"><ele>172.5</ele><time>2026-03-24T16:34:26Z</time></trkpt><trkpt lat="43.43316072918744" lon="10.570158951162169"><ele>175.75</ele><time>2026-03-24T16:34:27Z</time></trkpt><trkpt lat="43.43320069126543" lon="10.570309430029306"><ele>179.0</ele><time>2026-03-24T16:34:28Z</time></trkpt><trkpt lat="43.43315526772273" lon="10.570480949031728"><ele>180.33333333333331</ele><time>2026-03-24T16:34:29Z</time></trkpt><trkpt lat="43.43307656010148" lon="10.570645457027725"><ele>181.66666666666666</ele><time>2026-03-24T16:34:30Z</time></trkpt><trkpt lat="43.432961238480296" lon="10.570789176858742"><ele>183.0</ele><time>2026-03-24T16:34:31Z</time></trkpt><trkpt lat="43.432844260958554" lon="10.57096672911321"><ele>180.0</ele><time>2026-03-24T16:34:32Z</time></trkpt><trkpt lat="43.43269015143947" lon="10.571155388398637"><ele>177.0</ele><time>2026-03-24T16:34:33Z</time></trkpt><trkpt lat="43.432531733031425" lon="10.571370401498491"><ele>174.0</ele><time>2026-03-24T16:34:34Z</time></trkpt><trkpt lat="43.43241259562232" lon="10.571531442365067"><ele>174.0</ele><time>2026-03-24T16:34:35Z</time></trkpt><trkpt lat="43.4323128471104" lon="10.571647488577439"><ele>174.0</ele><time>2026-03-24T16:34:36Z</time></trkpt><trkpt lat="43.43223019265194" lon="10.571704659901188"><ele>174.0</ele><time>2026-03-24T16:34:37Z</time></trkpt><trkpt lat="43.432141511013064" lon="10.571669841983649"><ele>174.0</ele><time>2026-03-24T16:34:38Z</time></trkpt><trkpt lat="43.432008981226495" lon="10.571622438421654"><ele>172.5</ele><time>2026-03-24T16:34:39Z</time></trkpt><trkpt lat="43.43187782495741" lon="10.571585603910183"><ele>171.0</ele><time>2026-03-24T16:34:40Z</time></trkpt><trkpt lat="43.43178553831776" lon="10.571543969413504"><ele>169.5</ele><time>2026-03-24T16:34:41Z</time></trkpt><trkpt lat="43.43171840219349" lon="10.57143405279175"><ele>168.0</ele><time>2026-03-24T16:34:42Z</time></trkpt><trkpt lat="43.43170516695165" lon="10.571273795424126"><ele>168.66666666666666</ele><time>2026-03-24T16:34:43Z</time></trkpt><trkpt lat="43.43172910472891" lon="10.57108706769455"><ele>169.33333333333331</ele><time>2026-03-24T16:34:44Z</time></trkpt><trkpt lat="43.431726920317594" lon="10.570868217114343"><ele>170.0</ele><time>2026-03-24T16:34:45Z</time></trkpt><trkpt lat="43.43171296288503" lon="10.57064359874576"><ele>170.0</ele><time>2026-03-24T16:34:46Z</time></trkpt><trkpt lat="43.43165158991269" lon="10.570411673188714"><ele>170.0</ele><time>2026-03-24T16:34:47Z</time></trkpt><trkpt lat="43.43156581804017" lon="10.570178102665004"><ele>170.0</ele><time>2026-03-24T16:34:48Z</time></trkpt><trkpt lat="43.43145487658125" lon="10.569969110642093"><ele>170.66666666666666</ele><time>2026-03-24T16:34:49Z</time></trkpt><trkpt lat="43.43132579855594" lon="10.569743553822574"><ele>171.33333333333334</ele><time>2026-03-24T16:34:50Z</time></trkpt><trkpt lat="43.43125543717684" lon="10.56949572978759"><ele>172.0</ele><time>2026-03-24T16:34:51Z</time></trkpt><trkpt lat="43.431186041415074" lon="10.56930914786979"><ele>172.0</ele><time>2026-03-24T16:34:52Z</time></trkpt><trkpt lat="43.43112938511044" lon="10.569170692895812"><ele>172.0</ele><time>2026-03-24T16:34:53Z</time></trkpt><trkpt lat="43.43102044439993" lon="10.569097170443609"><ele>172.0</ele><time>2026-03-24T16:34:54Z</time></trkpt><trkpt lat="43.43088118874345" lon="10.569097752591109"><ele>172.0</ele><time>2026-03-24T16:34:55Z</time></trkpt><trkpt lat="43.430749915400924" lon="10.569186521762875"><ele>172.0</ele><time>2026-03-24T16:34:56Z</time></trkpt><trkpt lat="43.43060943419283" lon="10.569298796161116"><ele>172.0</ele><time>2026-03-24T16:34:57Z</time></trkpt><trkpt lat="43.43044745812248" lon="10.569326642490193"><ele>172.0</ele><time>2026-03-24T16:34:58Z</time></trkpt><trkpt lat="43.430325538693836" lon="10.569277234063014"><ele>172.5</ele><time>2026-03-24T16:34:59Z</time></trkpt><trkpt lat="43.43026806907705" lon="10.569143963686141"><ele>173.0</ele><time>2026-03-24T16:35:00Z</time></trkpt><trkpt lat="43.430261655097546" lon="10.569002340008668"><ele>173.5</ele><time>2026-03-24T16:35:01Z</time></trkpt><trkpt lat="43.430278656693744" lon="10.56884834026457"><ele>174.0</ele><time>2026-03-24T16:35:02Z</time></trkpt><trkpt lat="43.430278048255886" lon="10.56864224586727"><ele>174.0</ele><time>2026-03-24T16:35:03Z</time></trkpt><trkpt lat="43.43028080377059" lon="10.568441294527933"><ele>174.0</ele><time>2026-03-24T16:35:04Z</time></trkpt><trkpt lat="43.43020588110081" lon="10.568270174274904"><ele>174.0</ele><time>2026-03-24T16:35:05Z</time></trkpt><trkpt lat="43.43007368423261" lon="10.568118150394364"><ele>174.0</ele><time>2026-03-24T16:35:06Z</time></trkpt><trkpt lat="43.42990518909174" lon="10.567968916310083"><ele>174.0</ele><time>2026-03-24T16:35:07Z</time></trkpt><trkpt lat="43.42973202840165" lon="10.567809566896502"><ele>174.0</ele><time>2026-03-24T16:35:08Z</time></trkpt><trkpt lat="43.42955721103884" lon="10.5676711462448"><ele>174.0</ele><time>2026-03-24T16:35:09Z</time></trkpt><trkpt lat="43.42936092835747" lon="10.567597735185084"><ele>174.0</ele><time>2026-03-24T16:35:10Z</time></trkpt><trkpt lat="43.429140327161385" lon="10.567589872114741"><ele>174.0</ele><time>2026-03-24T16:35:11Z</time></trkpt><trkpt lat="43.42894875463284" lon="10.567613547993256"><ele>175.33333333333334</ele><time>2026-03-24T16:35:12Z</time></trkpt><trkpt lat="43.4287622166633" lon="10.567717246633348"><ele>176.66666666666669</ele><time>2026-03-24T16:35:13Z</time></trkpt><trkpt lat="43.42858484497343" lon="10.567872167726495"><ele>178.0</ele><time>2026-03-24T16:35:14Z</time></trkpt><trkpt lat="43.428454957479886" lon="10.567978865455462"><ele>178.0</ele><time>2026-03-24T16:35:15Z</time></trkpt><trkpt lat="43.42836253326682" lon="10.568000407083238"><ele>178.0</ele><time>2026-03-24T16:35:16Z</time></trkpt><trkpt lat="43.428286201933794" lon="10.567947631549975"><ele>178.0</ele><time>2026-03-24T16:35:17Z</time></trkpt><trkpt lat="43.42825600917298" lon="10.567810283325162"><ele>178.0</ele><time>2026-03-24T16:35:18Z</time></trkpt><trkpt lat="43.4282322805877" lon="10.567646751688565"><ele>178.0</ele><time>2026-03-24T16:35:19Z</time></trkpt><trkpt lat="43.428189844281526" lon="10.567443855791078"><ele>178.0</ele><time>2026-03-24T16:35:20Z</time></trkpt><trkpt lat="43.42812847904397" lon="10.567222732356758"><ele>178.0</ele><time>2026-03-24T16:35:21Z</time></trkpt><trkpt lat="43.428017158530444" lon="10.567016183284156"><ele>178.0</ele><time>2026-03-24T16:35:22Z</time></trkpt><trkpt lat="43.427845493284146" lon="10.566837700392856"><ele>180.25</ele><time>2026-03-24T16:35:23.001Z</time></trkpt><trkpt lat="43.4276563154427" lon="10.566761905527706"><ele>182.5</ele><time>2026-03-24T16:35:24.001Z</time></trkpt><trkpt lat="43.427532186728754" lon="10.566667033424162"><ele>184.75</ele><time>2026-03-24T16:35:25.001Z</time></trkpt><trkpt lat="43.427472121558935" lon="10.56657759057262"><ele>187.0</ele><time>2026-03-24T16:35:26.001Z</time></trkpt><trkpt lat="43.42745154516128" lon="10.566487588698196"><ele>187.0</ele><time>2026-03-24T16:35:27.001Z</time></trkpt><trkpt lat="43.42752453128396" lon="10.566387074866107"><ele>187.0</ele><time>2026-03-24T16:35:28.001Z</time></trkpt><trkpt lat="43.42760449457201" lon="10.566363388811025"><ele>187.0</ele><time>2026-03-24T16:35:29.001Z</time></trkpt><trkpt lat="43.42768522480728" lon="10.566325463714833"><ele>187.0</ele><time>2026-03-24T16:35:30.001Z</time></trkpt><trkpt lat="43.42777902750083" lon="10.566257300231971"><ele>187.0</ele><time>2026-03-24T16:35:31.001Z</time></trkpt><trkpt lat="43.4278093919489" lon="10.566137497444046"><ele>187.5</ele><time>2026-03-24T16:35:32.001Z</time></trkpt><trkpt lat="43.42776482334583" lon="10.566009202160057"><ele>188.0</ele><time>2026-03-24T16:35:33.001Z</time></trkpt><trkpt lat="43.42767879117517" lon="10.565890173397127"><ele>188.5</ele><time>2026-03-24T16:35:34.001Z</time></trkpt><trkpt lat="43.427566451678146" lon="10.565745049592941"><ele>189.0</ele><time>2026-03-24T16:35:35.001Z</time></trkpt><trkpt lat="43.42744472204346" lon="10.565583060196262"><ele>189.0</ele><time>2026-03-24T16:35:36.001Z</time></trkpt><trkpt lat="43.427310973671794" lon="10.565413730199714"><ele>189.0</ele><time>2026-03-24T16:35:37.001Z</time></trkpt><trkpt lat="43.427161693647605" lon="10.565227004325664"><ele>189.0</ele><time>2026-03-24T16:35:38.001Z</time></trkpt><trkpt lat="43.42701146035661" lon="10.565057884208736"><ele>190.75</ele><time>2026-03-24T16:35:39Z</time></trkpt><trkpt lat="43.426880860659516" lon="10.564921490623805"><ele>192.5</ele><time>2026-03-24T16:35:40Z</time></trkpt><trkpt lat="43.42676092118713" lon="10.564823235804244"><ele>194.25</ele><time>2026-03-24T16:35:41Z</time></trkpt><trkpt lat="43.42664387392242" lon="10.564766682228036"><ele>196.0</ele><time>2026-03-24T16:35:42Z</time></trkpt><trkpt lat="43.42651582830374" lon="10.564775248603265"><ele>196.0</ele><time>2026-03-24T16:35:43Z</time></trkpt><trkpt lat="43.42638404052026" lon="10.564850139393418"><ele>196.0</ele><time>2026-03-24T16:35:44Z</time></trkpt><trkpt lat="43.42622250118841" lon="10.564922865119483"><ele>196.0</ele><time>2026-03-24T16:35:45Z</time></trkpt><trkpt lat="43.42607796609839" lon="10.56495404175432"><ele>198.33333333333331</ele><time>2026-03-24T16:35:46Z</time></trkpt><trkpt lat="43.42592382086741" lon="10.56489203785406"><ele>200.66666666666669</ele><time>2026-03-24T16:35:47Z</time></trkpt><trkpt lat="43.425751881010214" lon="10.56483026117725"><ele>203.0</ele><time>2026-03-24T16:35:48Z</time></trkpt><trkpt lat="43.42561086361806" lon="10.564840116919711"><ele>203.75</ele><time>2026-03-24T16:35:49Z</time></trkpt><trkpt lat="43.42547766384211" lon="10.564874728227991"><ele>204.5</ele><time>2026-03-24T16:35:50Z</time></trkpt><trkpt lat="43.42539485201975" lon="10.564996142772644"><ele>205.25</ele><time>2026-03-24T16:35:51Z</time></trkpt><trkpt lat="43.42532738750322" lon="10.565104707830196"><ele>206.0</ele><time>2026-03-24T16:35:52Z</time></trkpt><trkpt lat="43.42526744867643" lon="10.565504432271185"><ele>207.5</ele><time>2026-03-24T16:35:53Z</time></trkpt><trkpt lat="43.42525448972919" lon="10.565725247089071"><ele>209.0</ele><time>2026-03-24T16:35:54Z</time></trkpt><trkpt lat="43.42529896427791" lon="10.565876187524644"><ele>210.5</ele><time>2026-03-24T16:35:55Z</time></trkpt><trkpt lat="43.42537805164017" lon="10.566013052194322"><ele>212.0</ele><time>2026-03-24T16:35:56Z</time></trkpt><trkpt lat="43.425433989335836" lon="10.566178703628092"><ele>214.39999999999998</ele><time>2026-03-24T16:35:57Z</time></trkpt><trkpt lat="43.42540950916396" lon="10.566291404712992"><ele>216.79999999999998</ele><time>2026-03-24T16:35:58Z</time></trkpt><trkpt lat="43.42533637732755" lon="10.56640135295466"><ele>219.2</ele><time>2026-03-24T16:35:59Z</time></trkpt><trkpt lat="43.42522102251678" lon="10.56642959961299"><ele>221.6</ele><time>2026-03-24T16:36:00Z</time></trkpt><trkpt lat="43.42510000575706" lon="10.566440915135168"><ele>224.0</ele><time>2026-03-24T16:36:01Z</time></trkpt><trkpt lat="43.424951066652255" lon="10.566377035974506"><ele>224.0</ele><time>2026-03-24T16:36:02Z</time></trkpt><trkpt lat="43.42484336733918" lon="10.566266104531197"><ele>224.0</ele><time>2026-03-24T16:36:03Z</time></trkpt><trkpt lat="43.42472361210523" lon="10.56604244085551"><ele>224.0</ele><time>2026-03-24T16:36:04Z</time></trkpt><trkpt lat="43.42462824507886" lon="10.565821890479267"><ele>225.33333333333334</ele><time>2026-03-24T16:36:05Z</time></trkpt><trkpt lat="43.42455641466703" lon="10.565570731596335"><ele>226.66666666666669</ele><time>2026-03-24T16:36:06Z</time></trkpt><trkpt lat="43.4244896619754" lon="10.56533090223818"><ele>228.0</ele><time>2026-03-24T16:36:07Z</time></trkpt><trkpt lat="43.42444123965451" lon="10.5651535734942"><ele>226.0</ele><time>2026-03-24T16:36:08Z</time></trkpt><trkpt lat="43.42433039473659" lon="10.565024146195338"><ele>224.0</ele><time>2026-03-24T16:36:09Z</time></trkpt><trkpt lat="43.42418526829302" lon="10.564963129828504"><ele>222.0</ele><time>2026-03-24T16:36:10Z</time></trkpt><trkpt lat="43.42404091129987" lon="10.564936898749565"><ele>220.0</ele><time>2026-03-24T16:36:11Z</time></trkpt><trkpt lat="43.423918178327455" lon="10.564989579696526"><ele>220.0</ele><time>2026-03-24T16:36:12Z</time></trkpt><trkpt lat="43.42388708000667" lon="10.565107234312052"><ele>220.0</ele><time>2026-03-24T16:36:13Z</time></trkpt><trkpt lat="43.42388491491799" lon="10.565273945712974"><ele>220.0</ele><time>2026-03-24T16:36:14Z</time></trkpt><trkpt lat="43.4239373314878" lon="10.565413166567698"><ele>220.0</ele><time>2026-03-24T16:36:15Z</time></trkpt><trkpt lat="43.42399468930122" lon="10.565599461205343"><ele>222.66666666666666</ele><time>2026-03-24T16:36:16Z</time></trkpt><trkpt lat="43.42405319606823" lon="10.565862547904484"><ele>225.33333333333331</ele><time>2026-03-24T16:36:17Z</time></trkpt><trkpt lat="43.424134364922764" lon="10.566128391445506"><ele>228.0</ele><time>2026-03-24T16:36:18Z</time></trkpt><trkpt lat="43.424225483301356" lon="10.566315945009256"><ele>228.8</ele><time>2026-03-24T16:36:19Z</time></trkpt><trkpt lat="43.42425358590459" lon="10.56645024574998"><ele>229.60000000000002</ele><time>2026-03-24T16:36:20Z</time></trkpt><trkpt lat="43.42424494908642" lon="10.566576843239616"><ele>230.39999999999998</ele><time>2026-03-24T16:36:21Z</time></trkpt><trkpt lat="43.42418661548364" lon="10.566675883699718"><ele>231.2</ele><time>2026-03-24T16:36:22Z</time></trkpt><trkpt lat="43.42408069110982" lon="10.566682754964903"><ele>232.0</ele><time>2026-03-24T16:36:23Z</time></trkpt><trkpt lat="43.423967895612506" lon="10.56663264426275"><ele>232.0</ele><time>2026-03-24T16:36:24Z</time></trkpt><trkpt lat="43.423874639701346" lon="10.566546377982307"><ele>232.0</ele><time>2026-03-24T16:36:25Z</time></trkpt><trkpt lat="43.423722556676786" lon="10.566489807748953"><ele>232.0</ele><time>2026-03-24T16:36:26Z</time></trkpt><trkpt lat="43.42356072649122" lon="10.566475772809543"><ele>232.0</ele><time>2026-03-24T16:36:27Z</time></trkpt><trkpt lat="43.42338737539831" lon="10.5665503210277"><ele>233.33333333333331</ele><time>2026-03-24T16:36:28Z</time></trkpt><trkpt lat="43.42319929979404" lon="10.566647252860676"><ele>234.66666666666669</ele><time>2026-03-24T16:36:29Z</time></trkpt><trkpt lat="43.423005922156364" lon="10.566702622399527"><ele>236.0</ele><time>2026-03-24T16:36:30Z</time></trkpt><trkpt lat="43.42281942641359" lon="10.566684935080097"><ele>237.66666666666669</ele><time>2026-03-24T16:36:31Z</time></trkpt><trkpt lat="43.422625888770206" lon="10.566607708488059"><ele>239.33333333333331</ele><time>2026-03-24T16:36:32Z</time></trkpt><trkpt lat="43.42241023017212" lon="10.566567817077503"><ele>241.0</ele><time>2026-03-24T16:36:33Z</time></trkpt><trkpt lat="43.422224195461105" lon="10.56653092798887"><ele>241.0</ele><time>2026-03-24T16:36:34Z</time></trkpt><trkpt lat="43.422027832202225" lon="10.56657138849709"><ele>241.0</ele><time>2026-03-24T16:36:35Z</time></trkpt><trkpt lat="43.42183915924816" lon="10.566659171775086"><ele>241.0</ele><time>2026-03-24T16:36:36Z</time></trkpt><trkpt lat="43.421656992538786" lon="10.566802690896811"><ele>241.0</ele><time>2026-03-24T16:36:37Z</time></trkpt><trkpt lat="43.42146164114948" lon="10.566956904486304"><ele>241.0</ele><time>2026-03-24T16:36:38Z</time></trkpt><trkpt lat="43.42131356729221" lon="10.567063934709994"><ele>241.0</ele><time>2026-03-24T16:36:39Z</time></trkpt><trkpt lat="43.42118885261948" lon="10.567172039015508"><ele>247.0</ele><time>2026-03-24T16:36:40Z</time></trkpt><trkpt lat="43.42111311934541" lon="10.5673236233701"><ele>253.0</ele><time>2026-03-24T16:36:41Z</time></trkpt><trkpt lat="43.421107838380294" lon="10.56752029769193"><ele>259.0</ele><time>2026-03-24T16:36:42Z</time></trkpt><trkpt lat="43.42114001290938" lon="10.56770504452586"><ele>265.0</ele><time>2026-03-24T16:36:43Z</time></trkpt><trkpt lat="43.42121201795642" lon="10.56788999091194"><ele>261.66666666666663</ele><time>2026-03-24T16:36:44Z</time></trkpt><trkpt lat="43.421334224193345" lon="10.568080796317407"><ele>258.3333333333333</ele><time>2026-03-24T16:36:45Z</time></trkpt><trkpt lat="43.421513209189946" lon="10.568266264735644"><ele>255.0</ele><time>2026-03-24T16:36:46Z</time></trkpt><trkpt lat="43.42168039786293" lon="10.568357524009572"><ele>255.0</ele><time>2026-03-24T16:36:47Z</time></trkpt><trkpt lat="43.42186305728338" lon="10.568373310733403"><ele>255.0</ele><time>2026-03-24T16:36:48Z</time></trkpt><trkpt lat="43.42203361677769" lon="10.568332781957782"><ele>255.0</ele><time>2026-03-24T16:36:49Z</time></trkpt><trkpt lat="43.42219397502573" lon="10.568299571290371"><ele>254.75</ele><time>2026-03-24T16:36:50Z</time></trkpt><trkpt lat="43.42232151695425" lon="10.568356218341963"><ele>254.5</ele><time>2026-03-24T16:36:51Z</time></trkpt><trkpt lat="43.42242074227583" lon="10.568457760293947"><ele>254.25</ele><time>2026-03-24T16:36:52Z</time></trkpt><trkpt lat="43.422518165574054" lon="10.56862163931301"><ele>254.0</ele><time>2026-03-24T16:36:53Z</time></trkpt><trkpt lat="43.42263909735222" lon="10.568767636886989"><ele>256.33333333333337</ele><time>2026-03-24T16:36:54Z</time></trkpt><trkpt lat="43.42277144430738" lon="10.568859080502504"><ele>258.6666666666667</ele><time>2026-03-24T16:36:55Z</time></trkpt><trkpt lat="43.42294184306456" lon="10.568865222178708"><ele>261.0</ele><time>2026-03-24T16:36:56Z</time></trkpt><trkpt lat="43.42313004176657" lon="10.568855244175905"><ele>261.0</ele><time>2026-03-24T16:36:57Z</time></trkpt><trkpt lat="43.423270160668096" lon="10.568896950406721"><ele>261.0</ele><time>2026-03-24T16:36:58Z</time></trkpt><trkpt lat="43.42337349917507" lon="10.568980349762665"><ele>261.0</ele><time>2026-03-24T16:36:59Z</time></trkpt><trkpt lat="43.423460291463975" lon="10.56911508980645"><ele>261.0</ele><time>2026-03-24T16:37:00Z</time></trkpt><trkpt lat="43.42355858280184" lon="10.569311079922228"><ele>262.6666666666667</ele><time>2026-03-24T16:37:01Z</time></trkpt><trkpt lat="43.42365207020599" lon="10.569539421989429"><ele>264.33333333333337</ele><time>2026-03-24T16:37:02Z</time></trkpt><trkpt lat="43.423758488844996" lon="10.569703275316918"><ele>266.0</ele><time>2026-03-24T16:37:03Z</time></trkpt><trkpt lat="43.423887469577835" lon="10.569790989800662"><ele>266.0</ele><time>2026-03-24T16:37:04Z</time></trkpt><trkpt lat="43.42403876757648" lon="10.569823697773744"><ele>266.0</ele><time>2026-03-24T16:37:05Z</time></trkpt><trkpt lat="43.42422551067655" lon="10.56984212971484"><ele>266.0</ele><time>2026-03-24T16:37:06Z</time></trkpt><trkpt lat="43.42443601512813" lon="10.569867676559896"><ele>266.0</ele><time>2026-03-24T16:37:07Z</time></trkpt><trkpt lat="43.42460833283661" lon="10.569893216298489"><ele>266.0</ele><time>2026-03-24T16:37:08Z</time></trkpt><trkpt lat="43.42473528898548" lon="10.56991437040145"><ele>266.0</ele><time>2026-03-24T16:37:09Z</time></trkpt><trkpt lat="43.4248369522556" lon="10.569949527312588"><ele>266.0</ele><time>2026-03-24T16:37:10Z</time></trkpt><trkpt lat="43.42490902165825" lon="10.57003060546779"><ele>266.25</ele><time>2026-03-24T16:37:11Z</time></trkpt><trkpt lat="43.42495511132901" lon="10.570184586941423"><ele>266.5</ele><time>2026-03-24T16:37:12Z</time></trkpt><trkpt lat="43.424946528230606" lon="10.570360426946532"><ele>266.75</ele><time>2026-03-24T16:37:13Z</time></trkpt><trkpt lat="43.42492582852331" lon="10.570521828115467"><ele>267.0</ele><time>2026-03-24T16:37:14Z</time></trkpt><trkpt lat="43.42475121510714" lon="10.570603649588492"><ele>269.3333333333333</ele><time>2026-03-24T16:37:15Z</time></trkpt><trkpt lat="43.4246132870639" lon="10.5707387562349"><ele>271.66666666666663</ele><time>2026-03-24T16:37:16Z</time></trkpt><trkpt lat="43.424465080345776" lon="10.57091153359504"><ele>274.0</ele><time>2026-03-24T16:37:17Z</time></trkpt><trkpt lat="43.42431432560594" lon="10.571047569432068"><ele>274.0</ele><time>2026-03-24T16:37:18Z</time></trkpt><trkpt lat="43.42411749160847" lon="10.571077742670909"><ele>274.0</ele><time>2026-03-24T16:37:19Z</time></trkpt><trkpt lat="43.42391366238592" lon="10.571097374610927"><ele>274.0</ele><time>2026-03-24T16:37:20Z</time></trkpt><trkpt lat="43.423731078721644" lon="10.570977018675748"><ele>275.66666666666663</ele><time>2026-03-24T16:37:21Z</time></trkpt><trkpt lat="43.42355330863197" lon="10.570947943915968"><ele>277.3333333333333</ele><time>2026-03-24T16:37:22Z</time></trkpt><trkpt lat="43.423361359380465" lon="10.570967736012559"><ele>279.0</ele><time>2026-03-24T16:37:23Z</time></trkpt><trkpt lat="43.42317520400456" lon="10.571035073795867"><ele>279.0</ele><time>2026-03-24T16:37:24Z</time></trkpt><trkpt lat="43.42302081742848" lon="10.571058647572173"><ele>279.0</ele><time>2026-03-24T16:37:25Z</time></trkpt><trkpt lat="43.42290086359026" lon="10.570964968617725"><ele>279.0</ele><time>2026-03-24T16:37:26Z</time></trkpt><trkpt lat="43.422756788647554" lon="10.570879852590272"><ele>281.0</ele><time>2026-03-24T16:37:27Z</time></trkpt><trkpt lat="43.42259470315598" lon="10.570801378044264"><ele>283.0</ele><time>2026-03-24T16:37:28Z</time></trkpt><trkpt lat="43.42245361592063" lon="10.57072124072144"><ele>285.0</ele><time>2026-03-24T16:37:29Z</time></trkpt><trkpt lat="43.42230754826084" lon="10.570729864488008"><ele>285.0</ele><time>2026-03-24T16:37:30Z</time></trkpt><trkpt lat="43.4221594181843" lon="10.570816809217133"><ele>285.0</ele><time>2026-03-24T16:37:31Z</time></trkpt><trkpt lat="43.42202283015537" lon="10.570944739124657"><ele>285.0</ele><time>2026-03-24T16:37:32Z</time></trkpt><trkpt lat="43.421907350982224" lon="10.571065247181028"><ele>288.0</ele><time>2026-03-24T16:37:33Z</time></trkpt><trkpt lat="43.421757749369974" lon="10.57107508025435"><ele>291.0</ele><time>2026-03-24T16:37:34Z</time></trkpt><trkpt lat="43.421590998925026" lon="10.571022823678218"><ele>294.0</ele><time>2026-03-24T16:37:35Z</time></trkpt><trkpt lat="43.4214364750035" lon="10.570916012050423"><ele>297.3333333333333</ele><time>2026-03-24T16:37:36Z</time></trkpt><trkpt lat="43.421289327738776" lon="10.570747445723782"><ele>300.66666666666663</ele><time>2026-03-24T16:37:37Z</time></trkpt><trkpt lat="43.42113229802943" lon="10.570574854561144"><ele>304.0</ele><time>2026-03-24T16:37:38Z</time></trkpt><trkpt lat="43.4209930619917" lon="10.57042703689262"><ele>303.3333333333333</ele><time>2026-03-24T16:37:39Z</time></trkpt><trkpt lat="43.42084089340574" lon="10.570355362689412"><ele>302.6666666666667</ele><time>2026-03-24T16:37:40Z</time></trkpt><trkpt lat="43.42065453114182" lon="10.570331077192034"><ele>302.0</ele><time>2026-03-24T16:37:41Z</time></trkpt><trkpt lat="43.42045541478113" lon="10.57033039125368"><ele>302.0</ele><time>2026-03-24T16:37:42.001Z</time></trkpt><trkpt lat="43.42026309590552" lon="10.570260898729073"><ele>302.0</ele><time>2026-03-24T16:37:43.001Z</time></trkpt><trkpt lat="43.42008190386331" lon="10.570155846008891"><ele>302.0</ele><time>2026-03-24T16:37:44.001Z</time></trkpt><trkpt lat="43.41992850468431" lon="10.569978127207337"><ele>302.0</ele><time>2026-03-24T16:37:45.001Z</time></trkpt><trkpt lat="43.41979246386871" lon="10.569767175944863"><ele>302.0</ele><time>2026-03-24T16:37:46.001Z</time></trkpt><trkpt lat="43.419669748563486" lon="10.56956041644844"><ele>302.0</ele><time>2026-03-24T16:37:47.001Z</time></trkpt><trkpt lat="43.41956044712835" lon="10.569395032752796"><ele>303.5</ele><time>2026-03-24T16:37:48.001Z</time></trkpt><trkpt lat="43.4194695640425" lon="10.569235553303828"><ele>305.0</ele><time>2026-03-24T16:37:49.001Z</time></trkpt><trkpt lat="43.419359877592235" lon="10.569124350828858"><ele>306.5</ele><time>2026-03-24T16:37:50.001Z</time></trkpt><trkpt lat="43.41921912521827" lon="10.569084112388728"><ele>308.0</ele><time>2026-03-24T16:37:51.001Z</time></trkpt><trkpt lat="43.41904823347293" lon="10.569098189035753"><ele>308.0</ele><time>2026-03-24T16:37:52.001Z</time></trkpt><trkpt lat="43.4188582485635" lon="10.569125914314435"><ele>308.0</ele><time>2026-03-24T16:37:53Z</time></trkpt><trkpt lat="43.41869324093811" lon="10.569146082433603"><ele>308.0</ele><time>2026-03-24T16:37:54Z</time></trkpt><trkpt lat="43.41857028790039" lon="10.569209635877796"><ele>308.0</ele><time>2026-03-24T16:37:55Z</time></trkpt><trkpt lat="43.41846978897361" lon="10.569349447815313"><ele>308.0</ele><time>2026-03-24T16:37:56Z</time></trkpt><trkpt lat="43.41838531989067" lon="10.56952942107973"><ele>308.0</ele><time>2026-03-24T16:37:57Z</time></trkpt><trkpt lat="43.418288537973176" lon="10.569640722720655"><ele>308.0</ele><time>2026-03-24T16:37:58Z</time></trkpt><trkpt lat="43.41819715793297" lon="10.569717134818463"><ele>310.5</ele><time>2026-03-24T16:37:59Z</time></trkpt><trkpt lat="43.418074197871526" lon="10.569643993762897"><ele>313.0</ele><time>2026-03-24T16:38:00Z</time></trkpt><trkpt lat="43.417954238354284" lon="10.569528715489579"><ele>315.5</ele><time>2026-03-24T16:38:01Z</time></trkpt><trkpt lat="43.41780226595743" lon="10.569476840797364"><ele>318.0</ele><time>2026-03-24T16:38:02Z</time></trkpt><trkpt lat="43.417646783134245" lon="10.569459518725003"><ele>318.5</ele><time>2026-03-24T16:38:03Z</time></trkpt><trkpt lat="43.41752078680436" lon="10.569400130809095"><ele>319.0</ele><time>2026-03-24T16:38:04Z</time></trkpt><trkpt lat="43.4174281831676" lon="10.569277303803606"><ele>319.5</ele><time>2026-03-24T16:38:05Z</time></trkpt><trkpt lat="43.417393304453164" lon="10.569077987476891"><ele>320.0</ele><time>2026-03-24T16:38:06Z</time></trkpt><trkpt lat="43.417371257266026" lon="10.56883836723367"><ele>319.5</ele><time>2026-03-24T16:38:07Z</time></trkpt><trkpt lat="43.417331752063326" lon="10.568605446070759"><ele>319.0</ele><time>2026-03-24T16:38:08Z</time></trkpt><trkpt lat="43.41728259948921" lon="10.568425058292256"><ele>318.5</ele><time>2026-03-24T16:38:09Z</time></trkpt><trkpt lat="43.417190177854806" lon="10.568299884372907"><ele>318.0</ele><time>2026-03-24T16:38:10Z</time></trkpt><trkpt lat="43.41706061859906" lon="10.568228094838455"><ele>319.6666666666667</ele><time>2026-03-24T16:38:11Z</time></trkpt><trkpt lat="43.41690371702514" lon="10.568221602487913"><ele>321.33333333333337</ele><time>2026-03-24T16:38:12Z</time></trkpt><trkpt lat="43.41672249180034" lon="10.568250572746692"><ele>323.0</ele><time>2026-03-24T16:38:13Z</time></trkpt><trkpt lat="43.41651831614319" lon="10.568267708088923"><ele>323.0</ele><time>2026-03-24T16:38:14Z</time></trkpt><trkpt lat="43.416348715677756" lon="10.568273830984362"><ele>323.0</ele><time>2026-03-24T16:38:15Z</time></trkpt><trkpt lat="43.41621156119318" lon="10.568291787976767"><ele>323.0</ele><time>2026-03-24T16:38:16Z</time></trkpt><trkpt lat="43.416110966042" lon="10.56838520238315"><ele>323.0</ele><time>2026-03-24T16:38:17Z</time></trkpt><trkpt lat="43.41602942135031" lon="10.568537530527204"><ele>322.5</ele><time>2026-03-24T16:38:18Z</time></trkpt><trkpt lat="43.41600226247775" lon="10.568726520987026"><ele>322.0</ele><time>2026-03-24T16:38:19Z</time></trkpt><trkpt lat="43.41604308150514" lon="10.568915538222138"><ele>321.5</ele><time>2026-03-24T16:38:20Z</time></trkpt><trkpt lat="43.41614339129023" lon="10.569071292783352"><ele>321.0</ele><time>2026-03-24T16:38:21Z</time></trkpt><trkpt lat="43.4162916413416" lon="10.56918712733685"><ele>324.6666666666667</ele><time>2026-03-24T16:38:22Z</time></trkpt><trkpt lat="43.416467432773594" lon="10.56928929047612"><ele>328.33333333333337</ele><time>2026-03-24T16:38:23Z</time></trkpt><trkpt lat="43.41660117789165" lon="10.569388209684101"><ele>332.0</ele><time>2026-03-24T16:38:24Z</time></trkpt><trkpt lat="43.41665054734925" lon="10.569532691694972"><ele>333.33333333333337</ele><time>2026-03-24T16:38:25Z</time></trkpt><trkpt lat="43.416681663367235" lon="10.569711355885016"><ele>334.6666666666667</ele><time>2026-03-24T16:38:26Z</time></trkpt><trkpt lat="43.41670430387275" lon="10.569941480451412"><ele>336.0</ele><time>2026-03-24T16:38:27Z</time></trkpt><trkpt lat="43.41672262383269" lon="10.570213082072016"><ele>336.6666666666667</ele><time>2026-03-24T16:38:28Z</time></trkpt><trkpt lat="43.41672297232384" lon="10.570495834077084"><ele>337.33333333333337</ele><time>2026-03-24T16:38:29Z</time></trkpt><trkpt lat="43.41671282851713" lon="10.5707898252952"><ele>338.0</ele><time>2026-03-24T16:38:30Z</time></trkpt><trkpt lat="43.41670229049636" lon="10.571071201713492"><ele>340.33333333333337</ele><time>2026-03-24T16:38:31Z</time></trkpt><trkpt lat="43.41669270803211" lon="10.571322663629758"><ele>342.6666666666667</ele><time>2026-03-24T16:38:32Z</time></trkpt><trkpt lat="43.41664248035918" lon="10.571556897919047"><ele>345.0</ele><time>2026-03-24T16:38:33Z</time></trkpt><trkpt lat="43.41651278438669" lon="10.571744549638167"><ele>345.0</ele><time>2026-03-24T16:38:34Z</time></trkpt><trkpt lat="43.41635356419552" lon="10.571844367450938"><ele>345.0</ele><time>2026-03-24T16:38:35Z</time></trkpt><trkpt lat="43.41621625422499" lon="10.571944118579172"><ele>345.0</ele><time>2026-03-24T16:38:36Z</time></trkpt><trkpt lat="43.41613256261179" lon="10.572032669340034"><ele>345.0</ele><time>2026-03-24T16:38:37Z</time></trkpt><trkpt lat="43.41608511758027" lon="10.572095296100363"><ele>345.4</ele><time>2026-03-24T16:38:38Z</time></trkpt><trkpt lat="43.41597327461288" lon="10.572078273903339"><ele>345.8</ele><time>2026-03-24T16:38:40Z</time></trkpt><trkpt lat="43.415893818480086" lon="10.57220521506151"><ele>346.20000000000005</ele><time>2026-03-24T16:38:42Z</time></trkpt><trkpt lat="43.41586771250355" lon="10.572320816456823"><ele>346.6</ele><time>2026-03-24T16:38:43Z</time></trkpt><trkpt lat="43.41583632369287" lon="10.572436810563978"><ele>347.0</ele><time>2026-03-24T16:38:44Z</time></trkpt><trkpt lat="43.415774834656695" lon="10.572550075955148"><ele>347.0</ele><time>2026-03-24T16:38:45Z</time></trkpt><trkpt lat="43.415677667206424" lon="10.572628918421032"><ele>347.0</ele><time>2026-03-24T16:38:46Z</time></trkpt><trkpt lat="43.41555524083861" lon="10.572693894324606"><ele>347.0</ele><time>2026-03-24T16:38:47Z</time></trkpt><trkpt lat="43.41545522533406" lon="10.57275813958312"><ele>347.0</ele><time>2026-03-24T16:38:48Z</time></trkpt><trkpt lat="43.415373870892374" lon="10.572843105131886"><ele>347.0</ele><time>2026-03-24T16:38:49Z</time></trkpt><trkpt lat="43.415296516308224" lon="10.57295735300087"><ele>347.0</ele><time>2026-03-24T16:38:50Z</time></trkpt><trkpt lat="43.41521624276189" lon="10.573089267503981"><ele>347.0</ele><time>2026-03-24T16:38:51Z</time></trkpt><trkpt lat="43.41513335778404" lon="10.573233818128738"><ele>347.0</ele><time>2026-03-24T16:38:52Z</time></trkpt><trkpt lat="43.41504992820834" lon="10.573369590636233"><ele>347.0</ele><time>2026-03-24T16:38:53Z</time></trkpt><trkpt lat="43.414972869815166" lon="10.573488889311443"><ele>347.0</ele><time>2026-03-24T16:38:54Z</time></trkpt><trkpt lat="43.41489875964929" lon="10.573608950609918"><ele>347.0</ele><time>2026-03-24T16:38:55Z</time></trkpt><trkpt lat="43.41483090042228" lon="10.573710917054216"><ele>347.0</ele><time>2026-03-24T16:38:56Z</time></trkpt><trkpt lat="43.41476417982698" lon="10.573824578975369"><ele>347.0</ele><time>2026-03-24T16:38:58Z</time></trkpt><trkpt lat="43.4147186463969" lon="10.573913081857993"><ele>347.0</ele><time>2026-03-24T16:39:00Z</time></trkpt><trkpt lat="43.41465986864544" lon="10.573973363599844"><ele>347.0</ele><time>2026-03-24T16:39:03Z</time></trkpt><trkpt lat="43.414750031454886" lon="10.573834504404045"><ele>347.0</ele><time>2026-03-24T16:39:16Z</time></trkpt><trkpt lat="43.414822848594476" lon="10.573755839323074"><ele>347.0</ele><time>2026-03-24T16:39:17Z</time></trkpt><trkpt lat="43.4148770683863" lon="10.573640198539922"><ele>347.0</ele><time>2026-03-24T16:39:18Z</time></trkpt><trkpt lat="43.414948318939565" lon="10.573516949827127"><ele>347.0</ele><time>2026-03-24T16:39:19Z</time></trkpt><trkpt lat="43.415037488569936" lon="10.573397986830479"><ele>347.0</ele><time>2026-03-24T16:39:20Z</time></trkpt><trkpt lat="43.41513228927694" lon="10.573270779923996"><ele>347.0</ele><time>2026-03-24T16:39:21Z</time></trkpt><trkpt lat="43.41520595874779" lon="10.573145109345235"><ele>347.0</ele><time>2026-03-24T16:39:22Z</time></trkpt><trkpt lat="43.41529177501702" lon="10.573024122205341"><ele>347.0</ele><time>2026-03-24T16:39:23Z</time></trkpt><trkpt lat="43.41538288491646" lon="10.572893531329777"><ele>347.0</ele><time>2026-03-24T16:39:24Z</time></trkpt><trkpt lat="43.41546516884722" lon="10.57276610318392"><ele>347.0</ele><time>2026-03-24T16:39:25Z</time></trkpt><trkpt lat="43.4155703413663" lon="10.572711295879625"><ele>347.0</ele><time>2026-03-24T16:39:26Z</time></trkpt><trkpt lat="43.41567303620208" lon="10.572642386621226"><ele>347.0</ele><time>2026-03-24T16:39:27Z</time></trkpt><trkpt lat="43.41576898944464" lon="10.572560153161621"><ele>347.0</ele><time>2026-03-24T16:39:28Z</time></trkpt><trkpt lat="43.41585089599472" lon="10.57248406246604"><ele>347.0</ele><time>2026-03-24T16:39:29Z</time></trkpt><trkpt lat="43.415889721389384" lon="10.572375321432986"><ele>347.0</ele><time>2026-03-24T16:39:30Z</time></trkpt><trkpt lat="43.415908456312174" lon="10.572250565849902"><ele>347.0</ele><time>2026-03-24T16:39:31Z</time></trkpt><trkpt lat="43.415929210105894" lon="10.572165471618073"><ele>347.0</ele><time>2026-03-24T16:39:32Z</time></trkpt><trkpt lat="43.41599612019646" lon="10.572094268935384"><ele>347.0</ele><time>2026-03-24T16:39:34Z</time></trkpt><trkpt lat="43.416084253809174" lon="10.572137942145318"><ele>347.0</ele><time>2026-03-24T16:39:36Z</time></trkpt><trkpt lat="43.416086767031054" lon="10.572258810004413"><ele>347.0</ele><time>2026-03-24T16:39:38Z</time></trkpt><trkpt lat="43.416059255548845" lon="10.572359775745063"><ele>347.0</ele><time>2026-03-24T16:39:39Z</time></trkpt><trkpt lat="43.41597530520662" lon="10.572486693908916"><ele>347.0</ele><time>2026-03-24T16:39:40Z</time></trkpt><trkpt lat="43.41594891030381" lon="10.57264810854343"><ele>347.0</ele><time>2026-03-24T16:39:41Z</time></trkpt><trkpt lat="43.415905291732436" lon="10.572792479713058"><ele>347.0</ele><time>2026-03-24T16:39:42Z</time></trkpt><trkpt lat="43.415862966961036" lon="10.572964674802337"><ele>347.0</ele><time>2026-03-24T16:39:43Z</time></trkpt><trkpt lat="43.41581961113532" lon="10.573167798621798"><ele>349.0</ele><time>2026-03-24T16:39:44Z</time></trkpt><trkpt lat="43.41577549068206" lon="10.573391939248145"><ele>351.0</ele><time>2026-03-24T16:39:45Z</time></trkpt><trkpt lat="43.41572828388934" lon="10.573613890296274"><ele>353.0</ele><time>2026-03-24T16:39:46Z</time></trkpt><trkpt lat="43.415685270753954" lon="10.573802161582833"><ele>353.75</ele><time>2026-03-24T16:39:47Z</time></trkpt><trkpt lat="43.41561547631073" lon="10.573948480527301"><ele>354.5</ele><time>2026-03-24T16:39:48.001Z</time></trkpt><trkpt lat="43.41551633408106" lon="10.574082280193972"><ele>355.25</ele><time>2026-03-24T16:39:49.001Z</time></trkpt><trkpt lat="43.41539589642966" lon="10.574176411098092"><ele>356.0</ele><time>2026-03-24T16:39:50.001Z</time></trkpt><trkpt lat="43.41530378364459" lon="10.574291313439012"><ele>356.0</ele><time>2026-03-24T16:39:51.001Z</time></trkpt><trkpt lat="43.41520567565409" lon="10.574377269467153"><ele>356.0</ele><time>2026-03-24T16:39:52.001Z</time></trkpt><trkpt lat="43.415111990848324" lon="10.574466766941782"><ele>356.0</ele><time>2026-03-24T16:39:53.001Z</time></trkpt><trkpt lat="43.415023773548604" lon="10.57457403152225"><ele>356.0</ele><time>2026-03-24T16:39:54.001Z</time></trkpt><trkpt lat="43.41495104315567" lon="10.574709870569901"><ele>358.0</ele><time>2026-03-24T16:39:55.001Z</time></trkpt><trkpt lat="43.41489795523236" lon="10.574870410678503"><ele>360.0</ele><time>2026-03-24T16:39:56.001Z</time></trkpt><trkpt lat="43.4148557489219" lon="10.575040632199611"><ele>362.0</ele><time>2026-03-24T16:39:57.001Z</time></trkpt><trkpt lat="43.41478803724453" lon="10.575196269835796"><ele>364.0</ele><time>2026-03-24T16:39:58.001Z</time></trkpt><trkpt lat="43.41469990571924" lon="10.575332111138183"><ele>365.75</ele><time>2026-03-24T16:39:59.001Z</time></trkpt><trkpt lat="43.414590452984136" lon="10.575444287945798"><ele>367.5</ele><time>2026-03-24T16:40:00.001Z</time></trkpt><trkpt lat="43.41447524108976" lon="10.575558254325486"><ele>369.25</ele><time>2026-03-24T16:40:01.001Z</time></trkpt><trkpt lat="43.414350173062644" lon="10.57563786150105"><ele>371.0</ele><time>2026-03-24T16:40:02Z</time></trkpt><trkpt lat="43.4142233839481" lon="10.575726795186497"><ele>371.0</ele><time>2026-03-24T16:40:03Z</time></trkpt><trkpt lat="43.41410697095458" lon="10.575827984743103"><ele>371.0</ele><time>2026-03-24T16:40:04Z</time></trkpt><trkpt lat="43.41401001953179" lon="10.575946414348607"><ele>371.0</ele><time>2026-03-24T16:40:05Z</time></trkpt><trkpt lat="43.413930270386004" lon="10.576069380152608"><ele>371.0</ele><time>2026-03-24T16:40:06Z</time></trkpt><trkpt lat="43.41383096398108" lon="10.576165923440549"><ele>371.25</ele><time>2026-03-24T16:40:07Z</time></trkpt><trkpt lat="43.413732190190956" lon="10.576235231432362"><ele>371.5</ele><time>2026-03-24T16:40:08Z</time></trkpt><trkpt lat="43.41362816436071" lon="10.576296407373562"><ele>371.75</ele><time>2026-03-24T16:40:09Z</time></trkpt><trkpt lat="43.41351470726693" lon="10.576368099231864"><ele>372.0</ele><time>2026-03-24T16:40:10Z</time></trkpt><trkpt lat="43.41341088072272" lon="10.57644420515797"><ele>372.0</ele><time>2026-03-24T16:40:11Z</time></trkpt><trkpt lat="43.41330559724116" lon="10.57650998218524"><ele>372.0</ele><time>2026-03-24T16:40:12Z</time></trkpt><trkpt lat="43.41320130572436" lon="10.576559686620653"><ele>372.0</ele><time>2026-03-24T16:40:13Z</time></trkpt><trkpt lat="43.413090396119465" lon="10.576596349906103"><ele>372.0</ele><time>2026-03-24T16:40:14Z</time></trkpt><trkpt lat="43.41298978503013" lon="10.576602032578558"><ele>372.0</ele><time>2026-03-24T16:40:15Z</time></trkpt><trkpt lat="43.412896520039745" lon="10.576589449724866"><ele>372.40000000000003</ele><time>2026-03-24T16:40:16Z</time></trkpt><trkpt lat="43.41282540050351" lon="10.576578180782025"><ele>372.8</ele><time>2026-03-24T16:40:17Z</time></trkpt><trkpt lat="43.41269986564687" lon="10.576636203529027"><ele>373.2</ele><time>2026-03-24T16:40:19Z</time></trkpt><trkpt lat="43.41262711152833" lon="10.576661545762175"><ele>373.6</ele><time>2026-03-24T16:40:21Z</time></trkpt><trkpt lat="43.41259941032323" lon="10.576767834613923"><ele>374.0</ele><time>2026-03-24T16:40:52Z</time></trkpt><trkpt lat="43.412513805320856" lon="10.576806474677914"><ele>374.0</ele><time>2026-03-24T16:40:54Z</time></trkpt><trkpt lat="43.41243497060252" lon="10.576826540311353"><ele>374.0</ele><time>2026-03-24T16:40:55Z</time></trkpt><trkpt lat="43.41236911799124" lon="10.576882473307455"><ele>374.0</ele><time>2026-03-24T16:40:56Z</time></trkpt><trkpt lat="43.412305667837224" lon="10.576948505601052"><ele>374.0</ele><time>2026-03-24T16:40:57Z</time></trkpt><trkpt lat="43.412235622752426" lon="10.577036411606157"><ele>374.0</ele><time>2026-03-24T16:40:58Z</time></trkpt><trkpt lat="43.41216696074146" lon="10.577146415986661"><ele>374.0</ele><time>2026-03-24T16:40:59Z</time></trkpt><trkpt lat="43.412090692583845" lon="10.577262766296013"><ele>373.5</ele><time>2026-03-24T16:41:00Z</time></trkpt><trkpt lat="43.412016391515024" lon="10.577374899838855"><ele>373.0</ele><time>2026-03-24T16:41:01Z</time></trkpt><trkpt lat="43.41193013261616" lon="10.577500493090358"><ele>372.5</ele><time>2026-03-24T16:41:02Z</time></trkpt><trkpt lat="43.4118459308746" lon="10.577637447393109"><ele>372.0</ele><time>2026-03-24T16:41:03Z</time></trkpt><trkpt lat="43.41176580822485" lon="10.57778621288731"><ele>373.75</ele><time>2026-03-24T16:41:04Z</time></trkpt><trkpt lat="43.4116948865669" lon="10.577943036726559"><ele>375.5</ele><time>2026-03-24T16:41:05Z</time></trkpt><trkpt lat="43.41163663157413" lon="10.578109131800845"><ele>377.25</ele><time>2026-03-24T16:41:06Z</time></trkpt><trkpt lat="43.411573449076265" lon="10.578283010062721"><ele>379.0</ele><time>2026-03-24T16:41:07Z</time></trkpt><trkpt lat="43.41149858605963" lon="10.578418327760227"><ele>379.0</ele><time>2026-03-24T16:41:08Z</time></trkpt><trkpt lat="43.411402736133944" lon="10.578515308842892"><ele>379.0</ele><time>2026-03-24T16:41:09Z</time></trkpt><trkpt lat="43.411287020317154" lon="10.578600960168778"><ele>379.0</ele><time>2026-03-24T16:41:10Z</time></trkpt><trkpt lat="43.4111808918968" lon="10.578678047122958"><ele>379.0</ele><time>2026-03-24T16:41:11Z</time></trkpt><trkpt lat="43.411081148123635" lon="10.578737158719056"><ele>379.79999999999995</ele><time>2026-03-24T16:41:12Z</time></trkpt><trkpt lat="43.410978422374725" lon="10.578773218342326"><ele>380.59999999999997</ele><time>2026-03-24T16:41:13Z</time></trkpt><trkpt lat="43.41086742593087" lon="10.578766326229333"><ele>381.4</ele><time>2026-03-24T16:41:14Z</time></trkpt><trkpt lat="43.410765134927516" lon="10.578739203946187"><ele>382.2</ele><time>2026-03-24T16:41:15Z</time></trkpt><trkpt lat="43.410688858964384" lon="10.578649667090847"><ele>383.0</ele><time>2026-03-24T16:41:16Z</time></trkpt><trkpt lat="43.410583238814695" lon="10.57856697135314"><ele>381.75</ele><time>2026-03-24T16:41:17Z</time></trkpt><trkpt lat="43.4104618467554" lon="10.578529112833278"><ele>380.5</ele><time>2026-03-24T16:41:18Z</time></trkpt><trkpt lat="43.410343028959296" lon="10.578484702688968"><ele>379.25</ele><time>2026-03-24T16:41:19Z</time></trkpt><trkpt lat="43.410215504655305" lon="10.578457846166472"><ele>378.0</ele><time>2026-03-24T16:41:20Z</time></trkpt><trkpt lat="43.41010725933128" lon="10.578435533956275"><ele>378.0</ele><time>2026-03-24T16:41:21Z</time></trkpt><trkpt lat="43.409991946625226" lon="10.578436879837948"><ele>378.0</ele><time>2026-03-24T16:41:22Z</time></trkpt><trkpt lat="43.40985933055832" lon="10.578445518292904"><ele>378.0</ele><time>2026-03-24T16:41:23Z</time></trkpt><trkpt lat="43.409704102304524" lon="10.578463290148832"><ele>378.0</ele><time>2026-03-24T16:41:24Z</time></trkpt><trkpt lat="43.40954562328765" lon="10.578467355059232"><ele>379.3333333333333</ele><time>2026-03-24T16:41:25Z</time></trkpt><trkpt lat="43.409380123458234" lon="10.578466360909037"><ele>380.66666666666663</ele><time>2026-03-24T16:41:26Z</time></trkpt><trkpt lat="43.409203045580306" lon="10.578460645242897"><ele>382.0</ele><time>2026-03-24T16:41:27Z</time></trkpt><trkpt lat="43.40904898318296" lon="10.578451536756019"><ele>382.0</ele><time>2026-03-24T16:41:28Z</time></trkpt><trkpt lat="43.40889980533349" lon="10.578440606002477"><ele>382.0</ele><time>2026-03-24T16:41:29Z</time></trkpt><trkpt lat="43.408739850603965" lon="10.578452325349861"><ele>382.0</ele><time>2026-03-24T16:41:30Z</time></trkpt><trkpt lat="43.40857150620042" lon="10.578469017492003"><ele>381.66666666666663</ele><time>2026-03-24T16:41:31Z</time></trkpt><trkpt lat="43.40840099857858" lon="10.578477549339699"><ele>381.3333333333333</ele><time>2026-03-24T16:41:32Z</time></trkpt><trkpt lat="43.408243524929304" lon="10.578484515253852"><ele>381.0</ele><time>2026-03-24T16:41:33Z</time></trkpt><trkpt lat="43.40808158962635" lon="10.578488661701346"><ele>381.25</ele><time>2026-03-24T16:41:34Z</time></trkpt><trkpt lat="43.40792753870647" lon="10.578497477277306"><ele>381.5</ele><time>2026-03-24T16:41:35Z</time></trkpt><trkpt lat="43.407780908386755" lon="10.578506707967696"><ele>381.75</ele><time>2026-03-24T16:41:36Z</time></trkpt><trkpt lat="43.4076428606761" lon="10.578508090838817"><ele>382.0</ele><time>2026-03-24T16:41:37Z</time></trkpt><trkpt lat="43.40751038670901" lon="10.578475150907426"><ele>382.0</ele><time>2026-03-24T16:41:38Z</time></trkpt><trkpt lat="43.40737432775162" lon="10.578383668114435"><ele>382.0</ele><time>2026-03-24T16:41:39Z</time></trkpt><trkpt lat="43.40725390322311" lon="10.578216314442829"><ele>382.0</ele><time>2026-03-24T16:41:40Z</time></trkpt><trkpt lat="43.40713307353912" lon="10.578044931204436"><ele>383.66666666666663</ele><time>2026-03-24T16:41:41Z</time></trkpt><trkpt lat="43.4070570403397" lon="10.577864820209712"><ele>385.3333333333333</ele><time>2026-03-24T16:41:42Z</time></trkpt><trkpt lat="43.407003253309945" lon="10.577641304486125"><ele>387.0</ele><time>2026-03-24T16:41:43Z</time></trkpt><trkpt lat="43.40696210336" lon="10.577389932602076"><ele>387.0</ele><time>2026-03-24T16:41:44Z</time></trkpt><trkpt lat="43.40689223304164" lon="10.577181976381324"><ele>387.0</ele><time>2026-03-24T16:41:45Z</time></trkpt><trkpt lat="43.40677774832762" lon="10.577016889490965"><ele>387.0</ele><time>2026-03-24T16:41:46Z</time></trkpt><trkpt lat="43.406622689765065" lon="10.57686489132756"><ele>388.66666666666663</ele><time>2026-03-24T16:41:47Z</time></trkpt><trkpt lat="43.40644343761166" lon="10.5767132588935"><ele>390.3333333333333</ele><time>2026-03-24T16:41:48Z</time></trkpt><trkpt lat="43.406293300382906" lon="10.576546979540256"><ele>392.0</ele><time>2026-03-24T16:41:49Z</time></trkpt><trkpt lat="43.406170492403604" lon="10.576334068378774"><ele>389.0</ele><time>2026-03-24T16:41:50Z</time></trkpt><trkpt lat="43.406037557177505" lon="10.576137215265105"><ele>386.0</ele><time>2026-03-24T16:41:51Z</time></trkpt><trkpt lat="43.40590789200351" lon="10.575954218549464"><ele>383.0</ele><time>2026-03-24T16:41:52Z</time></trkpt><trkpt lat="43.40575037441704" lon="10.575773491951127"><ele>383.0</ele><time>2026-03-24T16:41:53Z</time></trkpt><trkpt lat="43.40561662606466" lon="10.575564142659195"><ele>383.0</ele><time>2026-03-24T16:41:54Z</time></trkpt><trkpt lat="43.405544960361944" lon="10.575337454969592"><ele>383.0</ele><time>2026-03-24T16:41:55Z</time></trkpt><trkpt lat="43.40545810750273" lon="10.57515882689956"><ele>383.25</ele><time>2026-03-24T16:41:56Z</time></trkpt><trkpt lat="43.40536309555308" lon="10.575026304666501"><ele>383.5</ele><time>2026-03-24T16:41:57Z</time></trkpt><trkpt lat="43.40523974976418" lon="10.574970515797173"><ele>383.75</ele><time>2026-03-24T16:41:58Z</time></trkpt><trkpt lat="43.405115407944365" lon="10.574995349365262"><ele>384.0</ele><time>2026-03-24T16:41:59Z</time></trkpt><trkpt lat="43.40501251249002" lon="10.575083704504452"><ele>384.0</ele><time>2026-03-24T16:42:00Z</time></trkpt><trkpt lat="43.40492165469166" lon="10.57521237014016"><ele>384.0</ele><time>2026-03-24T16:42:01Z</time></trkpt><trkpt lat="43.40481587065058" lon="10.575367965456353"><ele>384.0</ele><time>2026-03-24T16:42:02.001Z</time></trkpt><trkpt lat="43.40469710732745" lon="10.575523230012704"><ele>384.0</ele><time>2026-03-24T16:42:03Z</time></trkpt><trkpt lat="43.404581373955224" lon="10.575606306840937"><ele>385.2</ele><time>2026-03-24T16:42:04Z</time></trkpt><trkpt lat="43.404500686376025" lon="10.575686377098853"><ele>386.4</ele><time>2026-03-24T16:42:05Z</time></trkpt><trkpt lat="43.40441275073968" lon="10.57564246172855"><ele>387.6</ele><time>2026-03-24T16:42:06Z</time></trkpt><trkpt lat="43.40434393447459" lon="10.57556022811674"><ele>388.8</ele><time>2026-03-24T16:42:07Z</time></trkpt><trkpt lat="43.40428004641744" lon="10.575426089121832"><ele>390.0</ele><time>2026-03-24T16:42:08Z</time></trkpt><trkpt lat="43.404226744811815" lon="10.575250297619137"><ele>390.0</ele><time>2026-03-24T16:42:09Z</time></trkpt><trkpt lat="43.40414940420832" lon="10.575036576165601"><ele>390.0</ele><time>2026-03-24T16:42:10Z</time></trkpt><trkpt lat="43.404086331475845" lon="10.574784173329151"><ele>390.0</ele><time>2026-03-24T16:42:11Z</time></trkpt><trkpt lat="43.40401220418926" lon="10.574527782843743"><ele>388.0</ele><time>2026-03-24T16:42:12Z</time></trkpt><trkpt lat="43.40392433209551" lon="10.574254719467469"><ele>386.0</ele><time>2026-03-24T16:42:13Z</time></trkpt><trkpt lat="43.40383085277231" lon="10.57401002398317"><ele>384.0</ele><time>2026-03-24T16:42:14Z</time></trkpt><trkpt lat="43.40372874045002" lon="10.573800797175867"><ele>387.0</ele><time>2026-03-24T16:42:15Z</time></trkpt><trkpt lat="43.40368549070315" lon="10.573585627629196"><ele>390.0</ele><time>2026-03-24T16:42:16Z</time></trkpt><trkpt lat="43.40369325263568" lon="10.573349089620567"><ele>393.0</ele><time>2026-03-24T16:42:17Z</time></trkpt><trkpt lat="43.40374824590177" lon="10.573103724584588"><ele>389.3333333333333</ele><time>2026-03-24T16:42:18Z</time></trkpt><trkpt lat="43.40383819548023" lon="10.572867483224167"><ele>385.66666666666663</ele><time>2026-03-24T16:42:19Z</time></trkpt><trkpt lat="43.403911355045" lon="10.572654226403117"><ele>382.0</ele><time>2026-03-24T16:42:20Z</time></trkpt><trkpt lat="43.40398227325382" lon="10.572467735022357"><ele>382.0</ele><time>2026-03-24T16:42:21Z</time></trkpt><trkpt lat="43.404027287308516" lon="10.57227930148762"><ele>382.0</ele><time>2026-03-24T16:42:22Z</time></trkpt><trkpt lat="43.40401117106431" lon="10.572086325425701"><ele>382.0</ele><time>2026-03-24T16:42:23Z</time></trkpt><trkpt lat="43.403948121614896" lon="10.571890308390898"><ele>382.0</ele><time>2026-03-24T16:42:24Z</time></trkpt><trkpt lat="43.40384821195728" lon="10.57171678501563"><ele>384.0</ele><time>2026-03-24T16:42:25Z</time></trkpt><trkpt lat="43.4037125057996" lon="10.571596268877826"><ele>386.0</ele><time>2026-03-24T16:42:26Z</time></trkpt><trkpt lat="43.403548424307495" lon="10.571541715693746"><ele>388.0</ele><time>2026-03-24T16:42:27Z</time></trkpt><trkpt lat="43.40335896011448" lon="10.571526191150962"><ele>388.0</ele><time>2026-03-24T16:42:28Z</time></trkpt><trkpt lat="43.403185685342955" lon="10.571486524258187"><ele>388.0</ele><time>2026-03-24T16:42:29Z</time></trkpt><trkpt lat="43.40306210830447" lon="10.571352124975313"><ele>388.0</ele><time>2026-03-24T16:42:30Z</time></trkpt><trkpt lat="43.402968946051246" lon="10.571185417927566"><ele>387.6666666666667</ele><time>2026-03-24T16:42:31Z</time></trkpt><trkpt lat="43.40290804881925" lon="10.570972787406996"><ele>387.33333333333337</ele><time>2026-03-24T16:42:32Z</time></trkpt><trkpt lat="43.40283491332184" lon="10.570774514144599"><ele>387.0</ele><time>2026-03-24T16:42:33Z</time></trkpt><trkpt lat="43.4027424474106" lon="10.570638233251431"><ele>387.0</ele><time>2026-03-24T16:42:34Z</time></trkpt><trkpt lat="43.40261283126445" lon="10.570593134216594"><ele>387.0</ele><time>2026-03-24T16:42:35Z</time></trkpt><trkpt lat="43.40248526778977" lon="10.57063785917672"><ele>387.0</ele><time>2026-03-24T16:42:36Z</time></trkpt><trkpt lat="43.40237295822443" lon="10.570760226750593"><ele>387.0</ele><time>2026-03-24T16:42:37Z</time></trkpt><trkpt lat="43.40226678906715" lon="10.57093822497128"><ele>385.6666666666667</ele><time>2026-03-24T16:42:38Z</time></trkpt><trkpt lat="43.40215045337931" lon="10.571117361195526"><ele>384.33333333333337</ele><time>2026-03-24T16:42:39Z</time></trkpt><trkpt lat="43.40201596463255" lon="10.571183647304165"><ele>383.0</ele><time>2026-03-24T16:42:40Z</time></trkpt><trkpt lat="43.40187154590605" lon="10.57116289200233"><ele>383.0</ele><time>2026-03-24T16:42:41Z</time></trkpt><trkpt lat="43.40170782833764" lon="10.571100094549909"><ele>383.0</ele><time>2026-03-24T16:42:42Z</time></trkpt><trkpt lat="43.40154492984875" lon="10.57099667357399"><ele>383.0</ele><time>2026-03-24T16:42:43Z</time></trkpt><trkpt lat="43.40139204750255" lon="10.5709299922525"><ele>381.75</ele><time>2026-03-24T16:42:44Z</time></trkpt><trkpt lat="43.40124701509681" lon="10.57091562619928"><ele>380.5</ele><time>2026-03-24T16:42:45Z</time></trkpt><trkpt lat="43.40110393539569" lon="10.570977913737716"><ele>379.25</ele><time>2026-03-24T16:42:46Z</time></trkpt><trkpt lat="43.401000295888934" lon="10.571124196719433"><ele>378.0</ele><time>2026-03-24T16:42:47Z</time></trkpt><trkpt lat="43.400915084172695" lon="10.571317181615557"><ele>377.3333333333333</ele><time>2026-03-24T16:42:48Z</time></trkpt><trkpt lat="43.40080773372583" lon="10.571547889894862"><ele>376.66666666666663</ele><time>2026-03-24T16:42:49Z</time></trkpt><trkpt lat="43.400635472419" lon="10.57171384197774"><ele>376.0</ele><time>2026-03-24T16:42:50Z</time></trkpt><trkpt lat="43.40045558552144" lon="10.571865090037727"><ele>376.0</ele><time>2026-03-24T16:42:51Z</time></trkpt><trkpt lat="43.40030380327744" lon="10.57201367360176"><ele>376.0</ele><time>2026-03-24T16:42:52Z</time></trkpt><trkpt lat="43.40016992887409" lon="10.572137956097723"><ele>376.0</ele><time>2026-03-24T16:42:53Z</time></trkpt><trkpt lat="43.400051441638986" lon="10.572307533900688"><ele>379.66666666666663</ele><time>2026-03-24T16:42:54Z</time></trkpt><trkpt lat="43.39995139455822" lon="10.572534321308675"><ele>383.3333333333333</ele><time>2026-03-24T16:42:55Z</time></trkpt><trkpt lat="43.39986051820335" lon="10.572796659700494"><ele>387.0</ele><time>2026-03-24T16:42:56Z</time></trkpt><trkpt lat="43.39973284792431" lon="10.57302984905596"><ele>387.0</ele><time>2026-03-24T16:42:57Z</time></trkpt><trkpt lat="43.39958644235915" lon="10.573210949767441"><ele>387.0</ele><time>2026-03-24T16:42:58Z</time></trkpt><trkpt lat="43.39942524489619" lon="10.573352781086411"><ele>387.0</ele><time>2026-03-24T16:42:59Z</time></trkpt><trkpt lat="43.39924352613186" lon="10.573436753425025"><ele>387.0</ele><time>2026-03-24T16:43:00Z</time></trkpt><trkpt lat="43.39904172377242" lon="10.573510270100892"><ele>387.0</ele><time>2026-03-24T16:43:01Z</time></trkpt><trkpt lat="43.39880977111757" lon="10.573551151773353"><ele>387.0</ele><time>2026-03-24T16:43:02Z</time></trkpt><trkpt lat="43.39858351301818" lon="10.573596755845639"><ele>386.33333333333337</ele><time>2026-03-24T16:43:03Z</time></trkpt><trkpt lat="43.39837818279995" lon="10.573651440630375"><ele>385.6666666666667</ele><time>2026-03-24T16:43:04Z</time></trkpt><trkpt lat="43.398193570158874" lon="10.573691776112488"><ele>385.0</ele><time>2026-03-24T16:43:05Z</time></trkpt><trkpt lat="43.39803626288151" lon="10.573666318443596"><ele>386.6666666666667</ele><time>2026-03-24T16:43:06Z</time></trkpt><trkpt lat="43.397885509473866" lon="10.573627800852302"><ele>388.33333333333337</ele><time>2026-03-24T16:43:07Z</time></trkpt><trkpt lat="43.39777494415837" lon="10.57344690228944"><ele>390.0</ele><time>2026-03-24T16:43:08Z</time></trkpt><trkpt lat="43.3976421158271" lon="10.573285655763769"><ele>390.0</ele><time>2026-03-24T16:43:09Z</time></trkpt><trkpt lat="43.39751686506296" lon="10.57311860893699"><ele>390.0</ele><time>2026-03-24T16:43:10Z</time></trkpt><trkpt lat="43.397343704774144" lon="10.573006180198425"><ele>390.0</ele><time>2026-03-24T16:43:11Z</time></trkpt><trkpt lat="43.39714185140941" lon="10.57296045564958"><ele>394.0</ele><time>2026-03-24T16:43:12Z</time></trkpt><trkpt lat="43.39690950965865" lon="10.572918621966094"><ele>398.0</ele><time>2026-03-24T16:43:13Z</time></trkpt><trkpt lat="43.39667946707454" lon="10.572872466538165"><ele>391.5</ele><time>2026-03-24T16:43:14Z</time></trkpt><trkpt lat="43.39644140305017" lon="10.572805125032422"><ele>385.0</ele><time>2026-03-24T16:43:15Z</time></trkpt><trkpt lat="43.396177561964556" lon="10.572754669493841"><ele>385.0</ele><time>2026-03-24T16:43:16Z</time></trkpt><trkpt lat="43.39592401104701" lon="10.572688369967809"><ele>385.0</ele><time>2026-03-24T16:43:17Z</time></trkpt><trkpt lat="43.39566630522427" lon="10.572688537562616"><ele>384.0</ele><time>2026-03-24T16:43:18Z</time></trkpt><trkpt lat="43.39544016305585" lon="10.572737671401619"><ele>383.0</ele><time>2026-03-24T16:43:19Z</time></trkpt><trkpt lat="43.39519287280819" lon="10.572818769752361"><ele>383.0</ele><time>2026-03-24T16:43:20Z</time></trkpt><trkpt lat="43.39512669984226" lon="10.572836879707301"><ele>383.0</ele><time>2026-03-24T16:43:21Z</time></trkpt><trkpt lat="43.394918047025236" lon="10.572978843536449"><ele>383.0</ele><time>2026-03-24T16:43:22Z</time></trkpt><trkpt lat="43.394647329634836" lon="10.573089431092482"><ele>387.0</ele><time>2026-03-24T16:43:23Z</time></trkpt><trkpt lat="43.39438629331604" lon="10.573219127673388"><ele>391.0</ele><time>2026-03-24T16:43:24Z</time></trkpt><trkpt lat="43.394141733407565" lon="10.573361065022816"><ele>391.0</ele><time>2026-03-24T16:43:25Z</time></trkpt><trkpt lat="43.39390538101622" lon="10.573509642964964"><ele>391.0</ele><time>2026-03-24T16:43:26Z</time></trkpt><trkpt lat="43.393684429173426" lon="10.573678034002176"><ele>392.5</ele><time>2026-03-24T16:43:27Z</time></trkpt><trkpt lat="43.39347337977746" lon="10.573848500711616"><ele>394.0</ele><time>2026-03-24T16:43:28Z</time></trkpt><trkpt lat="43.393279169182996" lon="10.574006912945478"><ele>394.0</ele><time>2026-03-24T16:43:29Z</time></trkpt><trkpt lat="43.393108015191125" lon="10.574142276261734"><ele>394.0</ele><time>2026-03-24T16:43:30Z</time></trkpt><trkpt lat="43.39296217429611" lon="10.574288630947649"><ele>394.0</ele><time>2026-03-24T16:43:31Z</time></trkpt><trkpt lat="43.392840644878554" lon="10.574469513850056"><ele>393.0</ele><time>2026-03-24T16:43:32Z</time></trkpt><trkpt lat="43.39276632337802" lon="10.574688337042447"><ele>392.0</ele><time>2026-03-24T16:43:33Z</time></trkpt><trkpt lat="43.39267530252444" lon="10.574943925707222"><ele>391.0</ele><time>2026-03-24T16:43:34Z</time></trkpt><trkpt lat="43.39260196223192" lon="10.575188146225313"><ele>391.0</ele><time>2026-03-24T16:43:35Z</time></trkpt><trkpt lat="43.39247831546582" lon="10.575348657870984"><ele>391.0</ele><time>2026-03-24T16:43:36Z</time></trkpt><trkpt lat="43.392345654395214" lon="10.575447646993409"><ele>391.0</ele><time>2026-03-24T16:43:37Z</time></trkpt><trkpt lat="43.392190080274894" lon="10.57551772520345"><ele>393.6666666666667</ele><time>2026-03-24T16:43:38Z</time></trkpt><trkpt lat="43.39202233370954" lon="10.575528125321084"><ele>396.33333333333337</ele><time>2026-03-24T16:43:39Z</time></trkpt><trkpt lat="43.39185973454959" lon="10.57551973318885"><ele>399.0</ele><time>2026-03-24T16:43:40Z</time></trkpt><trkpt lat="43.391734835310935" lon="10.575500917197655"><ele>399.0</ele><time>2026-03-24T16:43:41Z</time></trkpt><trkpt lat="43.39165894968245" lon="10.575386056910423"><ele>399.0</ele><time>2026-03-24T16:43:42Z</time></trkpt><trkpt lat="43.39158779558852" lon="10.575167256652684"><ele>399.0</ele><time>2026-03-24T16:43:43Z</time></trkpt><trkpt lat="43.39151203626038" lon="10.57494906000404"><ele>398.0</ele><time>2026-03-24T16:43:44Z</time></trkpt><trkpt lat="43.391416657858095" lon="10.574715406047943"><ele>397.0</ele><time>2026-03-24T16:43:45Z</time></trkpt><trkpt lat="43.3913014655258" lon="10.5744947124906"><ele>396.0</ele><time>2026-03-24T16:43:46Z</time></trkpt><trkpt lat="43.39124135510919" lon="10.574237559291191"><ele>397.0</ele><time>2026-03-24T16:43:47Z</time></trkpt><trkpt lat="43.39120001401231" lon="10.573966827838515"><ele>398.0</ele><time>2026-03-24T16:43:48Z</time></trkpt><trkpt lat="43.3911584063788" lon="10.573716375959481"><ele>399.0</ele><time>2026-03-24T16:43:49Z</time></trkpt><trkpt lat="43.391141892636576" lon="10.573522713707343"><ele>399.0</ele><time>2026-03-24T16:43:50Z</time></trkpt><trkpt lat="43.39110460890463" lon="10.57332915245535"><ele>399.0</ele><time>2026-03-24T16:43:51Z</time></trkpt><trkpt lat="43.39106087353445" lon="10.57318040675785"><ele>399.0</ele><time>2026-03-24T16:43:52Z</time></trkpt><trkpt lat="43.390979906789305" lon="10.573074520735632"><ele>399.0</ele><time>2026-03-24T16:43:53Z</time></trkpt><trkpt lat="43.39086162678757" lon="10.57301958425636"><ele>399.0</ele><time>2026-03-24T16:43:54Z</time></trkpt><trkpt lat="43.39073007151597" lon="10.573038749244635"><ele>399.0</ele><time>2026-03-24T16:43:55Z</time></trkpt><trkpt lat="43.390592164895125" lon="10.573118770256244"><ele>399.0</ele><time>2026-03-24T16:43:56Z</time></trkpt><trkpt lat="43.39043274122636" lon="10.573208943989947"><ele>398.33333333333337</ele><time>2026-03-24T16:43:57Z</time></trkpt><trkpt lat="43.3902500092826" lon="10.573290615651237"><ele>397.6666666666667</ele><time>2026-03-24T16:43:58Z</time></trkpt><trkpt lat="43.39006016847889" lon="10.573299758987"><ele>397.0</ele><time>2026-03-24T16:43:59Z</time></trkpt><trkpt lat="43.389899880101304" lon="10.57335290076382"><ele>397.0</ele><time>2026-03-24T16:44:00Z</time></trkpt><trkpt lat="43.38975869658923" lon="10.573414480605033"><ele>397.0</ele><time>2026-03-24T16:44:01Z</time></trkpt><trkpt lat="43.38964158696208" lon="10.573557119979135"><ele>397.0</ele><time>2026-03-24T16:44:02Z</time></trkpt><trkpt lat="43.389569322235495" lon="10.573754709355248"><ele>393.6666666666667</ele><time>2026-03-24T16:44:03Z</time></trkpt><trkpt lat="43.38952542296678" lon="10.573987795141301"><ele>390.33333333333337</ele><time>2026-03-24T16:44:04Z</time></trkpt><trkpt lat="43.389463938458334" lon="10.57422615717611"><ele>387.0</ele><time>2026-03-24T16:44:05Z</time></trkpt><trkpt lat="43.38932832606202" lon="10.57440087332331"><ele>390.0</ele><time>2026-03-24T16:44:06Z</time></trkpt><trkpt lat="43.38917169431847" lon="10.574583661790367"><ele>393.0</ele><time>2026-03-24T16:44:07Z</time></trkpt><trkpt lat="43.389017495228494" lon="10.574763346190581"><ele>396.0</ele><time>2026-03-24T16:44:08Z</time></trkpt><trkpt lat="43.38889301599211" lon="10.574913125243182"><ele>392.33333333333337</ele><time>2026-03-24T16:44:09Z</time></trkpt><trkpt lat="43.388744181584265" lon="10.57495960866854"><ele>388.6666666666667</ele><time>2026-03-24T16:44:10Z</time></trkpt><trkpt lat="43.388564820660285" lon="10.574976626840167"><ele>385.0</ele><time>2026-03-24T16:44:11Z</time></trkpt><trkpt lat="43.38835788137549" lon="10.57497767141483"><ele>385.0</ele><time>2026-03-24T16:44:12Z</time></trkpt><trkpt lat="43.38812358688037" lon="10.574992355658418"><ele>385.0</ele><time>2026-03-24T16:44:13Z</time></trkpt><trkpt lat="43.38789507658917" lon="10.574994609538882"><ele>386.0</ele><time>2026-03-24T16:44:14Z</time></trkpt><trkpt lat="43.387695980528996" lon="10.574965466473312"><ele>387.0</ele><time>2026-03-24T16:44:15Z</time></trkpt><trkpt lat="43.38751600701048" lon="10.574900585475328"><ele>388.0</ele><time>2026-03-24T16:44:16Z</time></trkpt><trkpt lat="43.387310907129326" lon="10.574808289128567"><ele>390.0</ele><time>2026-03-24T16:44:17Z</time></trkpt><trkpt lat="43.38708117103185" lon="10.574716923785992"><ele>392.0</ele><time>2026-03-24T16:44:18Z</time></trkpt><trkpt lat="43.38683783686165" lon="10.574630040431119"><ele>392.0</ele><time>2026-03-24T16:44:19Z</time></trkpt><trkpt lat="43.38661917336616" lon="10.574553446025316"><ele>392.0</ele><time>2026-03-24T16:44:20Z</time></trkpt><trkpt lat="43.38643295449328" lon="10.574485559849514"><ele>392.0</ele><time>2026-03-24T16:44:21Z</time></trkpt><trkpt lat="43.38628146461611" lon="10.574431952796036"><ele>387.66666666666663</ele><time>2026-03-24T16:44:22Z</time></trkpt><trkpt lat="43.386126482866295" lon="10.574419756368265"><ele>383.3333333333333</ele><time>2026-03-24T16:44:23Z</time></trkpt><trkpt lat="43.385971868062676" lon="10.574491362739105"><ele>379.0</ele><time>2026-03-24T16:44:24Z</time></trkpt><trkpt lat="43.38581491960952" lon="10.574631521350865"><ele>379.0</ele><time>2026-03-24T16:44:25Z</time></trkpt><trkpt lat="43.38564377670581" lon="10.574801276378189"><ele>379.0</ele><time>2026-03-24T16:44:26Z</time></trkpt><trkpt lat="43.38546485075457" lon="10.575005636006267"><ele>379.0</ele><time>2026-03-24T16:44:27Z</time></trkpt><trkpt lat="43.385297075887024" lon="10.575242002313056"><ele>378.0</ele><time>2026-03-24T16:44:28Z</time></trkpt><trkpt lat="43.3851541692178" lon="10.575481944117232"><ele>377.0</ele><time>2026-03-24T16:44:29Z</time></trkpt><trkpt lat="43.38499881459922" lon="10.575660566267903"><ele>376.0</ele><time>2026-03-24T16:44:30Z</time></trkpt><trkpt lat="43.38484908765667" lon="10.575798006450242"><ele>376.0</ele><time>2026-03-24T16:44:31Z</time></trkpt><trkpt lat="43.38471217082798" lon="10.57587910136585"><ele>376.0</ele><time>2026-03-24T16:44:32Z</time></trkpt><trkpt lat="43.38457325018514" lon="10.5759060848226"><ele>376.0</ele><time>2026-03-24T16:44:33Z</time></trkpt><trkpt lat="43.384446153653585" lon="10.575835132433419"><ele>376.0</ele><time>2026-03-24T16:44:34Z</time></trkpt><trkpt lat="43.38433084510396" lon="10.57570436253837"><ele>372.75</ele><time>2026-03-24T16:44:35Z</time></trkpt><trkpt lat="43.38419670628947" lon="10.575596150473615"><ele>369.5</ele><time>2026-03-24T16:44:36Z</time></trkpt><trkpt lat="43.384057954039534" lon="10.575526774834444"><ele>366.25</ele><time>2026-03-24T16:44:37Z</time></trkpt><trkpt lat="43.38391838198048" lon="10.57552195755039"><ele>363.0</ele><time>2026-03-24T16:44:38Z</time></trkpt><trkpt lat="43.38381301058629" lon="10.57557947855751"><ele>359.0</ele><time>2026-03-24T16:44:39Z</time></trkpt><trkpt lat="43.38373929162233" lon="10.57569675290809"><ele>355.0</ele><time>2026-03-24T16:44:40Z</time></trkpt><trkpt lat="43.38369955423703" lon="10.57586031777744"><ele>351.0</ele><time>2026-03-24T16:44:41Z</time></trkpt><trkpt lat="43.383691898630794" lon="10.576061117568452"><ele>347.0</ele><time>2026-03-24T16:44:42Z</time></trkpt><trkpt lat="43.38372062330569" lon="10.57629686396145"><ele>346.0</ele><time>2026-03-24T16:44:43Z</time></trkpt><trkpt lat="43.383796301820745" lon="10.576501551491486"><ele>345.0</ele><time>2026-03-24T16:44:44Z</time></trkpt><trkpt lat="43.38390534228902" lon="10.576706762295617"><ele>344.0</ele><time>2026-03-24T16:44:45Z</time></trkpt><trkpt lat="43.383967010804774" lon="10.576905529406158"><ele>343.0</ele><time>2026-03-24T16:44:46Z</time></trkpt><trkpt lat="43.38395423829347" lon="10.577162995778828"><ele>342.0</ele><time>2026-03-24T16:44:47Z</time></trkpt><trkpt lat="43.38392036537394" lon="10.57743789164151"><ele>341.0</ele><time>2026-03-24T16:44:48Z</time></trkpt><trkpt lat="43.383840476903636" lon="10.577713163972456"><ele>342.6666666666667</ele><time>2026-03-24T16:44:49Z</time></trkpt><trkpt lat="43.383739900371864" lon="10.577928018081737"><ele>344.3333333333333</ele><time>2026-03-24T16:44:50Z</time></trkpt><trkpt lat="43.38363350867384" lon="10.578077225207092"><ele>346.0</ele><time>2026-03-24T16:44:51Z</time></trkpt><trkpt lat="43.38345959255811" lon="10.578296752288418"><ele>346.0</ele><time>2026-03-24T16:44:52Z</time></trkpt><trkpt lat="43.383330085779136" lon="10.578571009774658"><ele>346.0</ele><time>2026-03-24T16:44:53Z</time></trkpt><trkpt lat="43.38320467981047" lon="10.578818197914563"><ele>344.3333333333333</ele><time>2026-03-24T16:44:54Z</time></trkpt><trkpt lat="43.38312504041565" lon="10.579038261820488"><ele>342.6666666666667</ele><time>2026-03-24T16:44:55Z</time></trkpt><trkpt lat="43.382992103274525" lon="10.57921997619399"><ele>341.0</ele><time>2026-03-24T16:44:56Z</time></trkpt><trkpt lat="43.38282711320835" lon="10.579393318329167"><ele>346.5</ele><time>2026-03-24T16:44:57Z</time></trkpt><trkpt lat="43.38263702197824" lon="10.579591338279581"><ele>352.0</ele><time>2026-03-24T16:44:58Z</time></trkpt><trkpt lat="43.382429023309896" lon="10.579808491583762"><ele>352.0</ele><time>2026-03-24T16:44:59Z</time></trkpt><trkpt lat="43.38223365708164" lon="10.580013756923456"><ele>352.0</ele><time>2026-03-24T16:45:00Z</time></trkpt><trkpt lat="43.38205640953835" lon="10.580225905020464"><ele>349.5</ele><time>2026-03-24T16:45:01Z</time></trkpt><trkpt lat="43.38187478916132" lon="10.58041822258529"><ele>347.0</ele><time>2026-03-24T16:45:02Z</time></trkpt><trkpt lat="43.38171810639609" lon="10.580636080160097"><ele>347.0</ele><time>2026-03-24T16:45:03Z</time></trkpt><trkpt lat="43.38159707803831" lon="10.58082609083414"><ele>347.0</ele><time>2026-03-24T16:45:04Z</time></trkpt><trkpt lat="43.381502414871704" lon="10.580964721305838"><ele>347.0</ele><time>2026-03-24T16:45:05Z</time></trkpt><trkpt lat="43.38143961669335" lon="10.581104573449148"><ele>347.0</ele><time>2026-03-24T16:45:06Z</time></trkpt><trkpt lat="43.381437837707345" lon="10.581304816398319"><ele>346.6666666666667</ele><time>2026-03-24T16:45:07Z</time></trkpt><trkpt lat="43.38148482503003" lon="10.581501436967562"><ele>346.3333333333333</ele><time>2026-03-24T16:45:08Z</time></trkpt><trkpt lat="43.38154870352219" lon="10.581722622380166"><ele>346.0</ele><time>2026-03-24T16:45:09Z</time></trkpt><trkpt lat="43.38161203639196" lon="10.581990221248688"><ele>344.0</ele><time>2026-03-24T16:45:10Z</time></trkpt><trkpt lat="43.38168604573065" lon="10.582211403102988"><ele>342.0</ele><time>2026-03-24T16:45:11Z</time></trkpt><trkpt lat="43.38175229522725" lon="10.582391701047086"><ele>340.0</ele><time>2026-03-24T16:45:12Z</time></trkpt><trkpt lat="43.38183864993116" lon="10.582537312166052"><ele>340.0</ele><time>2026-03-24T16:45:13Z</time></trkpt><trkpt lat="43.38193373159633" lon="10.582647783067802"><ele>340.0</ele><time>2026-03-24T16:45:14Z</time></trkpt><trkpt lat="43.38204026998101" lon="10.582717895677057"><ele>340.0</ele><time>2026-03-24T16:45:15Z</time></trkpt><trkpt lat="43.38216332230801" lon="10.582778571330934"><ele>340.0</ele><time>2026-03-24T16:45:16Z</time></trkpt><trkpt lat="43.38228555862406" lon="10.582836094883174"><ele>340.0</ele><time>2026-03-24T16:45:17Z</time></trkpt><trkpt lat="43.382403485405646" lon="10.582912807929764"><ele>340.0</ele><time>2026-03-24T16:45:18Z</time></trkpt><trkpt lat="43.382516129964536" lon="10.583013777110638"><ele>340.0</ele><time>2026-03-24T16:45:19Z</time></trkpt><trkpt lat="43.38262249612914" lon="10.583127942647254"><ele>340.0</ele><time>2026-03-24T16:45:20Z</time></trkpt><trkpt lat="43.38270110030805" lon="10.58328461639825"><ele>340.0</ele><time>2026-03-24T16:45:21Z</time></trkpt><trkpt lat="43.382786915968786" lon="10.583451178806078"><ele>340.0</ele><time>2026-03-24T16:45:22Z</time></trkpt><trkpt lat="43.38284500197144" lon="10.583644433517705"><ele>340.0</ele><time>2026-03-24T16:45:23Z</time></trkpt><trkpt lat="43.38287952802312" lon="10.583855680819333"><ele>338.0</ele><time>2026-03-24T16:45:24Z</time></trkpt><trkpt lat="43.38287792406936" lon="10.584110328135973"><ele>336.0</ele><time>2026-03-24T16:45:25Z</time></trkpt><trkpt lat="43.382921400070956" lon="10.58436929534782"><ele>334.0</ele><time>2026-03-24T16:45:26Z</time></trkpt><trkpt lat="43.38300192020985" lon="10.584639828356579"><ele>343.0</ele><time>2026-03-24T16:45:27Z</time></trkpt><trkpt lat="43.38309903631477" lon="10.58493921214397"><ele>352.0</ele><time>2026-03-24T16:45:28Z</time></trkpt><trkpt lat="43.38312555209518" lon="10.585260845212646"><ele>350.3333333333333</ele><time>2026-03-24T16:45:29Z</time></trkpt><trkpt lat="43.38318191192266" lon="10.58551599024376"><ele>348.6666666666667</ele><time>2026-03-24T16:45:30Z</time></trkpt><trkpt lat="43.383224765866906" lon="10.585789574162161"><ele>347.0</ele><time>2026-03-24T16:45:31Z</time></trkpt><trkpt lat="43.3832052469692" lon="10.586026693095421"><ele>346.0</ele><time>2026-03-24T16:45:32Z</time></trkpt><trkpt lat="43.38314241127408" lon="10.586270950556294"><ele>345.0</ele><time>2026-03-24T16:45:33Z</time></trkpt><trkpt lat="43.383099149482995" lon="10.586515369852311"><ele>344.0</ele><time>2026-03-24T16:45:34Z</time></trkpt><trkpt lat="43.38307118294432" lon="10.586745769921501"><ele>343.0</ele><time>2026-03-24T16:45:35Z</time></trkpt><trkpt lat="43.383100652873104" lon="10.587018811930665"><ele>342.0</ele><time>2026-03-24T16:45:36Z</time></trkpt><trkpt lat="43.383165303952524" lon="10.587318635945133"><ele>341.0</ele><time>2026-03-24T16:45:37Z</time></trkpt><trkpt lat="43.38322965739107" lon="10.58761846257774"><ele>338.6666666666667</ele><time>2026-03-24T16:45:38Z</time></trkpt><trkpt lat="43.38329608173503" lon="10.587880258642182"><ele>336.3333333333333</ele><time>2026-03-24T16:45:39Z</time></trkpt><trkpt lat="43.383382766995155" lon="10.588130923589533"><ele>334.0</ele><time>2026-03-24T16:45:40Z</time></trkpt><trkpt lat="43.383510559681675" lon="10.588391462539446"><ele>334.0</ele><time>2026-03-24T16:45:41Z</time></trkpt><trkpt lat="43.38358125117352" lon="10.588652692946507"><ele>334.0</ele><time>2026-03-24T16:45:42Z</time></trkpt><trkpt lat="43.38361206762387" lon="10.58891610217353"><ele>334.0</ele><time>2026-03-24T16:45:43Z</time></trkpt><trkpt lat="43.38365446270813" lon="10.589160031119327"><ele>332.66666666666663</ele><time>2026-03-24T16:45:44Z</time></trkpt><trkpt lat="43.38370940836591" lon="10.589374149334054"><ele>331.3333333333333</ele><time>2026-03-24T16:45:45Z</time></trkpt><trkpt lat="43.38379936495623" lon="10.58954583671377"><ele>330.0</ele><time>2026-03-24T16:45:46Z</time></trkpt><trkpt lat="43.38392427866016" lon="10.589723995004585"><ele>330.0</ele><time>2026-03-24T16:45:47Z</time></trkpt><trkpt lat="43.384075645592844" lon="10.589921427889305"><ele>330.0</ele><time>2026-03-24T16:45:48Z</time></trkpt><trkpt lat="43.38422414728712" lon="10.590146652621968"><ele>330.0</ele><time>2026-03-24T16:45:49Z</time></trkpt><trkpt lat="43.38432847345001" lon="10.590413719289948"><ele>327.6666666666667</ele><time>2026-03-24T16:45:50Z</time></trkpt><trkpt lat="43.38443655393982" lon="10.590680221891798"><ele>325.33333333333337</ele><time>2026-03-24T16:45:51Z</time></trkpt><trkpt lat="43.38451201283569" lon="10.590937523653226"><ele>323.0</ele><time>2026-03-24T16:45:52Z</time></trkpt><trkpt lat="43.3845813368571" lon="10.591163244502297"><ele>323.6666666666667</ele><time>2026-03-24T16:45:53Z</time></trkpt><trkpt lat="43.38467349788301" lon="10.591354505719613"><ele>324.3333333333333</ele><time>2026-03-24T16:45:54Z</time></trkpt><trkpt lat="43.38482756112537" lon="10.591525634337797"><ele>325.0</ele><time>2026-03-24T16:45:55Z</time></trkpt><trkpt lat="43.38503266963779" lon="10.591659070240476"><ele>325.0</ele><time>2026-03-24T16:45:56Z</time></trkpt><trkpt lat="43.38525848012739" lon="10.591746333189267"><ele>325.0</ele><time>2026-03-24T16:45:57Z</time></trkpt><trkpt lat="43.3854732872072" lon="10.591762313007274"><ele>327.0</ele><time>2026-03-24T16:45:58Z</time></trkpt><trkpt lat="43.38566612964937" lon="10.59174456908084"><ele>329.0</ele><time>2026-03-24T16:45:59Z</time></trkpt><trkpt lat="43.385822409253414" lon="10.59174994807271"><ele>331.0</ele><time>2026-03-24T16:46:00Z</time></trkpt><trkpt lat="43.385959060311436" lon="10.591829211443748"><ele>331.0</ele><time>2026-03-24T16:46:01Z</time></trkpt><trkpt lat="43.38607057085267" lon="10.591983700077925"><ele>331.0</ele><time>2026-03-24T16:46:02Z</time></trkpt><trkpt lat="43.38611790191796" lon="10.592209067278676"><ele>331.0</ele><time>2026-03-24T16:46:03Z</time></trkpt><trkpt lat="43.386159479552546" lon="10.59245488693073"><ele>327.66666666666663</ele><time>2026-03-24T16:46:04Z</time></trkpt><trkpt lat="43.386171797105696" lon="10.592740868349011"><ele>324.3333333333333</ele><time>2026-03-24T16:46:05Z</time></trkpt><trkpt lat="43.38618240365861" lon="10.593032623291846"><ele>321.0</ele><time>2026-03-24T16:46:06Z</time></trkpt><trkpt lat="43.38618858578761" lon="10.59327443654159"><ele>320.25</ele><time>2026-03-24T16:46:07Z</time></trkpt><trkpt lat="43.38620877987728" lon="10.593457654208622"><ele>319.5</ele><time>2026-03-24T16:46:08Z</time></trkpt><trkpt lat="43.386272155370186" lon="10.593622995978993"><ele>318.75</ele><time>2026-03-24T16:46:09Z</time></trkpt><trkpt lat="43.386393488069736" lon="10.59374530652304"><ele>318.0</ele><time>2026-03-24T16:46:10Z</time></trkpt><trkpt lat="43.386564874291096" lon="10.593836636176452"><ele>318.0</ele><time>2026-03-24T16:46:11Z</time></trkpt><trkpt lat="43.386757582781954" lon="10.593950773458934"><ele>318.0</ele><time>2026-03-24T16:46:12Z</time></trkpt><trkpt lat="43.386937686837044" lon="10.594150020200455"><ele>318.0</ele><time>2026-03-24T16:46:13Z</time></trkpt><trkpt lat="43.38713440988271" lon="10.594262243884607"><ele>318.6666666666667</ele><time>2026-03-24T16:46:14Z</time></trkpt><trkpt lat="43.38730399359025" lon="10.594390787928203"><ele>319.33333333333337</ele><time>2026-03-24T16:46:15Z</time></trkpt><trkpt lat="43.387437864708915" lon="10.594525330011852"><ele>320.0</ele><time>2026-03-24T16:46:16Z</time></trkpt><trkpt lat="43.38754673802335" lon="10.59466226260326"><ele>320.0</ele><time>2026-03-24T16:46:17Z</time></trkpt><trkpt lat="43.387638389726916" lon="10.5947835785489"><ele>320.0</ele><time>2026-03-24T16:46:18Z</time></trkpt><trkpt lat="43.387699489953114" lon="10.594885847570403"><ele>320.0</ele><time>2026-03-24T16:46:19Z</time></trkpt><trkpt lat="43.38774970905283" lon="10.594985833665646"><ele>320.0</ele><time>2026-03-24T16:46:20Z</time></trkpt><trkpt lat="43.38769800049015" lon="10.595108678133887"><ele>320.0</ele><time>2026-03-24T16:46:21Z</time></trkpt><trkpt lat="43.38766965575056" lon="10.595225827965468"><ele>320.0</ele><time>2026-03-24T16:46:22Z</time></trkpt><trkpt lat="43.38755016153237" lon="10.595261443896698"><ele>320.0</ele><time>2026-03-24T16:46:23Z</time></trkpt><trkpt lat="43.38740814371443" lon="10.595336368003835"><ele>320.0</ele><time>2026-03-24T16:46:24Z</time></trkpt><trkpt lat="43.38724191632504" lon="10.595442900900345"><ele>315.0</ele><time>2026-03-24T16:46:25Z</time></trkpt><trkpt lat="43.38709085697431" lon="10.595554658150053"><ele>310.0</ele><time>2026-03-24T16:46:26Z</time></trkpt><trkpt lat="43.386983334011504" lon="10.595702899700626"><ele>305.0</ele><time>2026-03-24T16:46:27Z</time></trkpt><trkpt lat="43.386928870779606" lon="10.595917294972784"><ele>306.6666666666667</ele><time>2026-03-24T16:46:28Z</time></trkpt><trkpt lat="43.38688757698933" lon="10.596193918240427"><ele>308.3333333333333</ele><time>2026-03-24T16:46:29Z</time></trkpt><trkpt lat="43.386837956642296" lon="10.596506062348189"><ele>310.0</ele><time>2026-03-24T16:46:30Z</time></trkpt><trkpt lat="43.386775460319946" lon="10.596817744115874"><ele>312.0</ele><time>2026-03-24T16:46:31Z</time></trkpt><trkpt lat="43.38673113435262" lon="10.597142375416578"><ele>314.0</ele><time>2026-03-24T16:46:32Z</time></trkpt><trkpt lat="43.38666115374473" lon="10.597472573003897"><ele>314.0</ele><time>2026-03-24T16:46:33Z</time></trkpt><trkpt lat="43.38660762617525" lon="10.597792998093595"><ele>314.0</ele><time>2026-03-24T16:46:34Z</time></trkpt><trkpt lat="43.38658281327096" lon="10.598129038858003"><ele>314.5</ele><time>2026-03-24T16:46:35Z</time></trkpt><trkpt lat="43.38660689787972" lon="10.598452226903119"><ele>315.0</ele><time>2026-03-24T16:46:36Z</time></trkpt><trkpt lat="43.3866778343318" lon="10.598782545353396"><ele>313.6666666666667</ele><time>2026-03-24T16:46:37Z</time></trkpt><trkpt lat="43.3867584606271" lon="10.599080877751678"><ele>312.33333333333337</ele><time>2026-03-24T16:46:38Z</time></trkpt><trkpt lat="43.38681651727134" lon="10.5993329825694"><ele>311.0</ele><time>2026-03-24T16:46:39Z</time></trkpt><trkpt lat="43.38683033948979" lon="10.599534784589434"><ele>311.0</ele><time>2026-03-24T16:46:40Z</time></trkpt><trkpt lat="43.3868292491929" lon="10.599688680942773"><ele>311.0</ele><time>2026-03-24T16:46:41Z</time></trkpt><trkpt lat="43.386814231893744" lon="10.599812144566346"><ele>311.0</ele><time>2026-03-24T16:46:42Z</time></trkpt><trkpt lat="43.38678434087836" lon="10.599909632221433"><ele>311.0</ele><time>2026-03-24T16:46:43Z</time></trkpt><trkpt lat="43.386670550346395" lon="10.59996165308768"><ele>311.0</ele><time>2026-03-24T16:46:44Z</time></trkpt><trkpt lat="43.38653578264482" lon="10.600063623220091"><ele>311.0</ele><time>2026-03-24T16:46:45Z</time></trkpt><trkpt lat="43.38638691159676" lon="10.600206132773165"><ele>311.0</ele><time>2026-03-24T16:46:46Z</time></trkpt><trkpt lat="43.38621132545156" lon="10.600364553947108"><ele>311.0</ele><time>2026-03-24T16:46:47Z</time></trkpt><trkpt lat="43.38601864455747" lon="10.600529795520353"><ele>312.0</ele><time>2026-03-24T16:46:48Z</time></trkpt><trkpt lat="43.38581256573962" lon="10.600705330225168"><ele>313.0</ele><time>2026-03-24T16:46:49Z</time></trkpt><trkpt lat="43.38559996041258" lon="10.600894775766271"><ele>310.5</ele><time>2026-03-24T16:46:50Z</time></trkpt><trkpt lat="43.38538148157159" lon="10.601110820207408"><ele>308.0</ele><time>2026-03-24T16:46:51Z</time></trkpt><trkpt lat="43.385186795241594" lon="10.601350937163978"><ele>308.0</ele><time>2026-03-24T16:46:52Z</time></trkpt><trkpt lat="43.38501640771838" lon="10.601621149988251"><ele>308.0</ele><time>2026-03-24T16:46:53Z</time></trkpt><trkpt lat="43.384889738184604" lon="10.60189198360519"><ele>305.0</ele><time>2026-03-24T16:46:54Z</time></trkpt><trkpt lat="43.38473033158248" lon="10.602104499181028"><ele>302.0</ele><time>2026-03-24T16:46:55Z</time></trkpt><trkpt lat="43.38453660353345" lon="10.602311389662379"><ele>302.0</ele><time>2026-03-24T16:46:56Z</time></trkpt><trkpt lat="43.38432545991871" lon="10.602554510222172"><ele>302.0</ele><time>2026-03-24T16:46:57Z</time></trkpt><trkpt lat="43.38410213881756" lon="10.602783558810723"><ele>300.5</ele><time>2026-03-24T16:46:58Z</time></trkpt><trkpt lat="43.383889429387125" lon="10.603027940653067"><ele>299.0</ele><time>2026-03-24T16:46:59Z</time></trkpt><trkpt lat="43.38371550151464" lon="10.603265946949033"><ele>299.0</ele><time>2026-03-24T16:47:00Z</time></trkpt><trkpt lat="43.38356384792018" lon="10.603497257729252"><ele>299.0</ele><time>2026-03-24T16:47:01Z</time></trkpt><trkpt lat="43.38341890434134" lon="10.603700991781395"><ele>299.0</ele><time>2026-03-24T16:47:02Z</time></trkpt><trkpt lat="43.38328734782227" lon="10.603867545111024"><ele>300.33333333333337</ele><time>2026-03-24T16:47:03Z</time></trkpt><trkpt lat="43.3831440000507" lon="10.603983844171385"><ele>301.6666666666667</ele><time>2026-03-24T16:47:04Z</time></trkpt><trkpt lat="43.38297572066678" lon="10.603975470722222"><ele>303.0</ele><time>2026-03-24T16:47:05Z</time></trkpt><trkpt lat="43.38276698637446" lon="10.603957467391236"><ele>303.0</ele><time>2026-03-24T16:47:06Z</time></trkpt><trkpt lat="43.38252784983924" lon="10.60394837508784"><ele>303.0</ele><time>2026-03-24T16:47:07Z</time></trkpt><trkpt lat="43.382305823423536" lon="10.603955413089906"><ele>302.6666666666667</ele><time>2026-03-24T16:47:08Z</time></trkpt><trkpt lat="43.3820984194017" lon="10.603981795617818"><ele>302.33333333333337</ele><time>2026-03-24T16:47:09Z</time></trkpt><trkpt lat="43.381907086916726" lon="10.603923387893198"><ele>302.0</ele><time>2026-03-24T16:47:10Z</time></trkpt><trkpt lat="43.38171707138768" lon="10.603831332441484"><ele>297.6666666666667</ele><time>2026-03-24T16:47:11Z</time></trkpt><trkpt lat="43.38155085696868" lon="10.603640015196868"><ele>293.3333333333333</ele><time>2026-03-24T16:47:12Z</time></trkpt><trkpt lat="43.3813615421313" lon="10.60345440513736"><ele>289.0</ele><time>2026-03-24T16:47:13Z</time></trkpt><trkpt lat="43.38115390039415" lon="10.603346445450171"><ele>289.0</ele><time>2026-03-24T16:47:14Z</time></trkpt><trkpt lat="43.380976366021194" lon="10.603276376586049"><ele>289.0</ele><time>2026-03-24T16:47:15Z</time></trkpt><trkpt lat="43.380837855169084" lon="10.603179535761733"><ele>289.0</ele><time>2026-03-24T16:47:16Z</time></trkpt><trkpt lat="43.38075565714456" lon="10.602986868338391"><ele>290.0</ele><time>2026-03-24T16:47:17Z</time></trkpt><trkpt lat="43.38069058669058" lon="10.602732463895759"><ele>291.0</ele><time>2026-03-24T16:47:18Z</time></trkpt><trkpt lat="43.38058112227966" lon="10.602440152266789"><ele>292.0</ele><time>2026-03-24T16:47:19Z</time></trkpt><trkpt lat="43.38042899218153" lon="10.60215801008498"><ele>289.5</ele><time>2026-03-24T16:47:20Z</time></trkpt><trkpt lat="43.38027373898659" lon="10.601872075766678"><ele>287.0</ele><time>2026-03-24T16:47:21Z</time></trkpt><trkpt lat="43.38012230448013" lon="10.601554976797157"><ele>287.0</ele><time>2026-03-24T16:47:22Z</time></trkpt><trkpt lat="43.38001295955723" lon="10.601268632350466"><ele>287.0</ele><time>2026-03-24T16:47:23Z</time></trkpt><trkpt lat="43.37992497097106" lon="10.601021191399715"><ele>287.0</ele><time>2026-03-24T16:47:24Z</time></trkpt><trkpt lat="43.37983771545918" lon="10.600796774986414"><ele>284.33333333333337</ele><time>2026-03-24T16:47:25Z</time></trkpt><trkpt lat="43.37973460096132" lon="10.600627728455423"><ele>281.6666666666667</ele><time>2026-03-24T16:47:26Z</time></trkpt><trkpt lat="43.37959348069289" lon="10.600542603994882"><ele>279.0</ele><time>2026-03-24T16:47:27Z</time></trkpt><trkpt lat="43.37940973567138" lon="10.600533560358713"><ele>279.0</ele><time>2026-03-24T16:47:28Z</time></trkpt><trkpt lat="43.37919335371518" lon="10.60054946239904"><ele>279.0</ele><time>2026-03-24T16:47:29Z</time></trkpt><trkpt lat="43.37895477580973" lon="10.600547039793575"><ele>282.5</ele><time>2026-03-24T16:47:30Z</time></trkpt><trkpt lat="43.378728453094126" lon="10.600439717366875"><ele>286.0</ele><time>2026-03-24T16:47:31Z</time></trkpt><trkpt lat="43.37853043733497" lon="10.600297853106984"><ele>277.5</ele><time>2026-03-24T16:47:32Z</time></trkpt><trkpt lat="43.37832583060707" lon="10.600097206640894"><ele>269.0</ele><time>2026-03-24T16:47:33Z</time></trkpt><trkpt lat="43.37814485787194" lon="10.599931425505204"><ele>270.33333333333337</ele><time>2026-03-24T16:47:34Z</time></trkpt><trkpt lat="43.37798762556183" lon="10.599846728678973"><ele>271.6666666666667</ele><time>2026-03-24T16:47:35Z</time></trkpt><trkpt lat="43.37780439532786" lon="10.599802224579614"><ele>273.0</ele><time>2026-03-24T16:47:36Z</time></trkpt><trkpt lat="43.377567774073796" lon="10.599787065843662"><ele>273.0</ele><time>2026-03-24T16:47:37Z</time></trkpt><trkpt lat="43.37732854661254" lon="10.599785662238101"><ele>273.0</ele><time>2026-03-24T16:47:38Z</time></trkpt><trkpt lat="43.37706420275526" lon="10.599765774308288"><ele>272.5</ele><time>2026-03-24T16:47:39Z</time></trkpt><trkpt lat="43.37680564409198" lon="10.599762096864545"><ele>272.0</ele><time>2026-03-24T16:47:40Z</time></trkpt><trkpt lat="43.376543933008165" lon="10.599761434958323"><ele>277.0</ele><time>2026-03-24T16:47:41Z</time></trkpt><trkpt lat="43.37630774689195" lon="10.599698048562292"><ele>282.0</ele><time>2026-03-24T16:47:42Z</time></trkpt><trkpt lat="43.37608196448142" lon="10.59951867647814"><ele>274.0</ele><time>2026-03-24T16:47:43Z</time></trkpt><trkpt lat="43.37583016399738" lon="10.599386125472272"><ele>266.0</ele><time>2026-03-24T16:47:44Z</time></trkpt><trkpt lat="43.37559227848535" lon="10.599233668633497"><ele>269.5</ele><time>2026-03-24T16:47:45Z</time></trkpt><trkpt lat="43.37537314901236" lon="10.599095149121043"><ele>273.0</ele><time>2026-03-24T16:47:46Z</time></trkpt><trkpt lat="43.375177062534995" lon="10.59898812346356"><ele>273.0</ele><time>2026-03-24T16:47:47Z</time></trkpt><trkpt lat="43.3749666458573" lon="10.598905001940274"><ele>273.0</ele><time>2026-03-24T16:47:48Z</time></trkpt><trkpt lat="43.37475560006437" lon="10.598885693831509"><ele>273.0</ele><time>2026-03-24T16:47:49Z</time></trkpt><trkpt lat="43.37457560836048" lon="10.598873200058748"><ele>273.6666666666667</ele><time>2026-03-24T16:47:50Z</time></trkpt><trkpt lat="43.374451156261316" lon="10.598743578140674"><ele>274.33333333333337</ele><time>2026-03-24T16:47:51Z</time></trkpt><trkpt lat="43.37430004137633" lon="10.59860479749797"><ele>275.0</ele><time>2026-03-24T16:47:52Z</time></trkpt><trkpt lat="43.37412497421893" lon="10.598507835706071"><ele>272.5</ele><time>2026-03-24T16:47:53Z</time></trkpt><trkpt lat="43.37398171871425" lon="10.598455040408046"><ele>270.0</ele><time>2026-03-24T16:47:54Z</time></trkpt><trkpt lat="43.37389980261446" lon="10.59848338962088"><ele>267.5</ele><time>2026-03-24T16:47:55Z</time></trkpt><trkpt lat="43.37380905489751" lon="10.598576230873007"><ele>265.0</ele><time>2026-03-24T16:47:56Z</time></trkpt><trkpt lat="43.37372783629681" lon="10.598741244041504"><ele>265.0</ele><time>2026-03-24T16:47:57Z</time></trkpt><trkpt lat="43.373651982628004" lon="10.59893828005524"><ele>265.0</ele><time>2026-03-24T16:47:58Z</time></trkpt><trkpt lat="43.37354613341303" lon="10.599114230602805"><ele>265.0</ele><time>2026-03-24T16:47:59Z</time></trkpt><trkpt lat="43.373385188138926" lon="10.599209011424373"><ele>265.0</ele><time>2026-03-24T16:48:00Z</time></trkpt><trkpt lat="43.373222709420695" lon="10.599266442767782"><ele>265.0</ele><time>2026-03-24T16:48:01Z</time></trkpt><trkpt lat="43.373063461662625" lon="10.59919456284783"><ele>265.0</ele><time>2026-03-24T16:48:02Z</time></trkpt><trkpt lat="43.37287983879041" lon="10.599101554722097"><ele>264.3333333333333</ele><time>2026-03-24T16:48:03Z</time></trkpt><trkpt lat="43.37269117785611" lon="10.598988990169353"><ele>263.6666666666667</ele><time>2026-03-24T16:48:04Z</time></trkpt><trkpt lat="43.372516281798184" lon="10.598871298603662"><ele>263.0</ele><time>2026-03-24T16:48:05Z</time></trkpt><trkpt lat="43.37237607580613" lon="10.598737057730249"><ele>261.0</ele><time>2026-03-24T16:48:06Z</time></trkpt><trkpt lat="43.37226742597448" lon="10.598574248276549"><ele>259.0</ele><time>2026-03-24T16:48:07Z</time></trkpt><trkpt lat="43.37221202989752" lon="10.598364374873004"><ele>257.0</ele><time>2026-03-24T16:48:08Z</time></trkpt><trkpt lat="43.3721990627566" lon="10.59812900488528"><ele>257.0</ele><time>2026-03-24T16:48:09Z</time></trkpt><trkpt lat="43.372198232931666" lon="10.597864157416847"><ele>257.0</ele><time>2026-03-24T16:48:10Z</time></trkpt><trkpt lat="43.372165450604385" lon="10.597631960964643"><ele>257.0</ele><time>2026-03-24T16:48:11Z</time></trkpt><trkpt lat="43.372090585635" lon="10.597443198613696"><ele>256.5</ele><time>2026-03-24T16:48:12Z</time></trkpt><trkpt lat="43.37200056221749" lon="10.597322058765416"><ele>256.0</ele><time>2026-03-24T16:48:13Z</time></trkpt><trkpt lat="43.371902256227166" lon="10.597269763741405"><ele>255.5</ele><time>2026-03-24T16:48:14Z</time></trkpt><trkpt lat="43.371797589155264" lon="10.597275340763098"><ele>255.0</ele><time>2026-03-24T16:48:15Z</time></trkpt><trkpt lat="43.371693255269555" lon="10.59742077815758"><ele>255.0</ele><time>2026-03-24T16:48:16Z</time></trkpt><trkpt lat="43.37159739481669" lon="10.597601699743416"><ele>255.0</ele><time>2026-03-24T16:48:17Z</time></trkpt><trkpt lat="43.37152255398908" lon="10.597791499396811"><ele>255.0</ele><time>2026-03-24T16:48:18Z</time></trkpt><trkpt lat="43.37148964544838" lon="10.59795325349058"><ele>255.0</ele><time>2026-03-24T16:48:19Z</time></trkpt><trkpt lat="43.37151875771259" lon="10.598112880144228"><ele>255.0</ele><time>2026-03-24T16:48:20Z</time></trkpt><trkpt lat="43.37159259483693" lon="10.5982948609814"><ele>255.0</ele><time>2026-03-24T16:48:21Z</time></trkpt><trkpt lat="43.37163893855639" lon="10.598520892847096"><ele>255.0</ele><time>2026-03-24T16:48:22Z</time></trkpt><trkpt lat="43.37164184900067" lon="10.598753695765817"><ele>254.66666666666669</ele><time>2026-03-24T16:48:23Z</time></trkpt><trkpt lat="43.37160684280817" lon="10.598976907759967"><ele>254.33333333333334</ele><time>2026-03-24T16:48:24Z</time></trkpt><trkpt lat="43.37152712837743" lon="10.5991598732125"><ele>254.0</ele><time>2026-03-24T16:48:25Z</time></trkpt><trkpt lat="43.371395456645864" lon="10.599312256007778"><ele>249.5</ele><time>2026-03-24T16:48:26Z</time></trkpt><trkpt lat="43.37127790299985" lon="10.59946144236864"><ele>245.0</ele><time>2026-03-24T16:48:27Z</time></trkpt><trkpt lat="43.37121076651083" lon="10.599629154377574"><ele>240.5</ele><time>2026-03-24T16:48:28Z</time></trkpt><trkpt lat="43.37117662728665" lon="10.599819726143178"><ele>236.0</ele><time>2026-03-24T16:48:29Z</time></trkpt><trkpt lat="43.37117644546217" lon="10.600069302248295"><ele>236.33333333333334</ele><time>2026-03-24T16:48:30Z</time></trkpt><trkpt lat="43.37118281831224" lon="10.600356001423489"><ele>236.66666666666669</ele><time>2026-03-24T16:48:31Z</time></trkpt><trkpt lat="43.371151345984536" lon="10.600650860957424"><ele>237.0</ele><time>2026-03-24T16:48:32Z</time></trkpt><trkpt lat="43.37114267947545" lon="10.600928060945849"><ele>237.0</ele><time>2026-03-24T16:48:33Z</time></trkpt><trkpt lat="43.37111234825783" lon="10.6011513809159"><ele>237.0</ele><time>2026-03-24T16:48:34Z</time></trkpt><trkpt lat="43.37107818855212" lon="10.601339876137029"><ele>237.0</ele><time>2026-03-24T16:48:35Z</time></trkpt><trkpt lat="43.370980100702994" lon="10.601481030728852"><ele>237.0</ele><time>2026-03-24T16:48:36Z</time></trkpt><trkpt lat="43.370816730685206" lon="10.601597515857968"><ele>237.0</ele><time>2026-03-24T16:48:37Z</time></trkpt><trkpt lat="43.37065337145035" lon="10.601786466443874"><ele>237.0</ele><time>2026-03-24T16:48:38Z</time></trkpt><trkpt lat="43.37045472068851" lon="10.601859715502608"><ele>237.0</ele><time>2026-03-24T16:48:39Z</time></trkpt><trkpt lat="43.37027310755547" lon="10.60194427642835"><ele>239.33333333333331</ele><time>2026-03-24T16:48:40Z</time></trkpt><trkpt lat="43.37010553912505" lon="10.602013911573588"><ele>241.66666666666666</ele><time>2026-03-24T16:48:41Z</time></trkpt><trkpt lat="43.36995707485351" lon="10.602102201585804"><ele>244.0</ele><time>2026-03-24T16:48:42Z</time></trkpt><trkpt lat="43.369816179797354" lon="10.602184106842264"><ele>240.33333333333331</ele><time>2026-03-24T16:48:43Z</time></trkpt><trkpt lat="43.3696728648373" lon="10.602279555961783"><ele>236.66666666666669</ele><time>2026-03-24T16:48:44Z</time></trkpt><trkpt lat="43.36953035456346" lon="10.602425058349754"><ele>233.0</ele><time>2026-03-24T16:48:45Z</time></trkpt><trkpt lat="43.36941341367277" lon="10.602610981889303"><ele>233.0</ele><time>2026-03-24T16:48:46Z</time></trkpt><trkpt lat="43.36928957426684" lon="10.60273420287473"><ele>233.0</ele><time>2026-03-24T16:48:47Z</time></trkpt><trkpt lat="43.369192747993004" lon="10.602839622892292"><ele>233.0</ele><time>2026-03-24T16:48:48Z</time></trkpt><trkpt lat="43.36908916178919" lon="10.602880007744051"><ele>233.0</ele><time>2026-03-24T16:48:49Z</time></trkpt><trkpt lat="43.3690101060033" lon="10.602896517539037"><ele>232.5</ele><time>2026-03-24T16:48:50Z</time></trkpt><trkpt lat="43.368923235006385" lon="10.602923260725696"><ele>232.0</ele><time>2026-03-24T16:48:52Z</time></trkpt><trkpt lat="43.36902484116158" lon="10.60311498433083"><ele>231.5</ele><time>2026-03-24T16:48:55Z</time></trkpt><trkpt lat="43.36910011527436" lon="10.603170091748234"><ele>231.0</ele><time>2026-03-24T16:48:56Z</time></trkpt><trkpt lat="43.3691985676208" lon="10.603265242578281"><ele>231.0</ele><time>2026-03-24T16:48:57Z</time></trkpt><trkpt lat="43.36929092483463" lon="10.603364554321129"><ele>231.0</ele><time>2026-03-24T16:48:58Z</time></trkpt><trkpt lat="43.36938232219634" lon="10.603500089780962"><ele>231.0</ele><time>2026-03-24T16:48:59Z</time></trkpt><trkpt lat="43.369469635227965" lon="10.603671995998258"><ele>231.0</ele><time>2026-03-24T16:49:00Z</time></trkpt><trkpt lat="43.36956314716523" lon="10.603828479068003"><ele>233.5</ele><time>2026-03-24T16:49:01Z</time></trkpt><trkpt lat="43.36963654363138" lon="10.603982075790512"><ele>236.0</ele><time>2026-03-24T16:49:02Z</time></trkpt><trkpt lat="43.36970514219015" lon="10.604133890358442"><ele>238.5</ele><time>2026-03-24T16:49:03Z</time></trkpt><trkpt lat="43.3697921865984" lon="10.604299534493464"><ele>241.0</ele><time>2026-03-24T16:49:04Z</time></trkpt><trkpt lat="43.369907874145746" lon="10.604456172446206"><ele>235.0</ele><time>2026-03-24T16:49:05Z</time></trkpt><trkpt lat="43.37006258331723" lon="10.604594882758708"><ele>229.0</ele><time>2026-03-24T16:49:06Z</time></trkpt><trkpt lat="43.37020720799924" lon="10.6047146063063"><ele>223.0</ele><time>2026-03-24T16:49:07Z</time></trkpt><trkpt lat="43.37036389322235" lon="10.60483321950224"><ele>227.66666666666666</ele><time>2026-03-24T16:49:08Z</time></trkpt><trkpt lat="43.37053948926035" lon="10.6049281254357"><ele>232.33333333333331</ele><time>2026-03-24T16:49:09Z</time></trkpt><trkpt lat="43.370733480300615" lon="10.605034047099236"><ele>237.0</ele><time>2026-03-24T16:49:10Z</time></trkpt><trkpt lat="43.370920038629976" lon="10.60514673471217"><ele>237.0</ele><time>2026-03-24T16:49:11Z</time></trkpt><trkpt lat="43.37108041092562" lon="10.605233622522851"><ele>237.0</ele><time>2026-03-24T16:49:12Z</time></trkpt><trkpt lat="43.37122660457241" lon="10.605318883449515"><ele>237.0</ele><time>2026-03-24T16:49:13Z</time></trkpt><trkpt lat="43.37136043556479" lon="10.605426204518643"><ele>236.75</ele><time>2026-03-24T16:49:14Z</time></trkpt><trkpt lat="43.37145699526384" lon="10.605601304709321"><ele>236.5</ele><time>2026-03-24T16:49:15Z</time></trkpt><trkpt lat="43.371525895024575" lon="10.60578429245419"><ele>236.25</ele><time>2026-03-24T16:49:16Z</time></trkpt><trkpt lat="43.37156265758151" lon="10.60596875159219"><ele>236.0</ele><time>2026-03-24T16:49:17Z</time></trkpt><trkpt lat="43.37158286536654" lon="10.606190108246643"><ele>236.0</ele><time>2026-03-24T16:49:18Z</time></trkpt><trkpt lat="43.37161539321796" lon="10.606426452970895"><ele>236.0</ele><time>2026-03-24T16:49:19Z</time></trkpt><trkpt lat="43.37164299452843" lon="10.606650605327674"><ele>236.0</ele><time>2026-03-24T16:49:20Z</time></trkpt><trkpt lat="43.371686115088465" lon="10.606867696971204"><ele>234.25</ele><time>2026-03-24T16:49:21Z</time></trkpt><trkpt lat="43.371696115980114" lon="10.607074019779306"><ele>232.5</ele><time>2026-03-24T16:49:22Z</time></trkpt><trkpt lat="43.371668148941296" lon="10.607269769450948"><ele>230.75</ele><time>2026-03-24T16:49:23Z</time></trkpt><trkpt lat="43.37168284316431" lon="10.607449258794308"><ele>229.0</ele><time>2026-03-24T16:49:24Z</time></trkpt><trkpt lat="43.371715280917975" lon="10.607624287209385"><ele>229.0</ele><time>2026-03-24T16:49:25Z</time></trkpt><trkpt lat="43.371795142010605" lon="10.607803792387818"><ele>229.0</ele><time>2026-03-24T16:49:26Z</time></trkpt><trkpt lat="43.371870449512784" lon="10.60798484334227"><ele>229.0</ele><time>2026-03-24T16:49:27Z</time></trkpt><trkpt lat="43.371893102637515" lon="10.608168634056188"><ele>229.0</ele><time>2026-03-24T16:49:28Z</time></trkpt><trkpt lat="43.371878681051705" lon="10.608339780300883"><ele>228.6</ele><time>2026-03-24T16:49:29Z</time></trkpt><trkpt lat="43.371846471065645" lon="10.60851565923117"><ele>228.2</ele><time>2026-03-24T16:49:30Z</time></trkpt><trkpt lat="43.37181222335109" lon="10.608658273264966"><ele>227.79999999999998</ele><time>2026-03-24T16:49:31Z</time></trkpt><trkpt lat="43.37179680888931" lon="10.608766469412377"><ele>227.39999999999998</ele><time>2026-03-24T16:49:32Z</time></trkpt><trkpt lat="43.37172047501602" lon="10.608806017466463"><ele>227.0</ele><time>2026-03-24T16:49:33Z</time></trkpt><trkpt lat="43.371663233750795" lon="10.608853868549147"><ele>227.0</ele><time>2026-03-24T16:49:34Z</time></trkpt><trkpt lat="43.37160069825914" lon="10.608811453211432"><ele>227.0</ele><time>2026-03-24T16:49:35Z</time></trkpt><trkpt lat="43.371537026000176" lon="10.608694475513573"><ele>227.0</ele><time>2026-03-24T16:49:36Z</time></trkpt><trkpt lat="43.3714352517482" lon="10.608607324065371"><ele>227.0</ele><time>2026-03-24T16:49:37Z</time></trkpt><trkpt lat="43.37133878706175" lon="10.608542383240351"><ele>227.0</ele><time>2026-03-24T16:49:38Z</time></trkpt><trkpt lat="43.37121481410676" lon="10.608532093464548"><ele>228.0</ele><time>2026-03-24T16:49:39Z</time></trkpt><trkpt lat="43.37108423143784" lon="10.608577710355434"><ele>229.0</ele><time>2026-03-24T16:49:40Z</time></trkpt><trkpt lat="43.37091596301742" lon="10.608634264751698"><ele>230.0</ele><time>2026-03-24T16:49:41Z</time></trkpt><trkpt lat="43.370759889949035" lon="10.608697637858768"><ele>230.0</ele><time>2026-03-24T16:49:42Z</time></trkpt><trkpt lat="43.37063445643621" lon="10.60876507979735"><ele>230.0</ele><time>2026-03-24T16:49:43Z</time></trkpt><trkpt lat="43.37052716032601" lon="10.608855303283889"><ele>230.0</ele><time>2026-03-24T16:49:44Z</time></trkpt><trkpt lat="43.37043450744571" lon="10.609031702303238"><ele>230.0</ele><time>2026-03-24T16:49:45Z</time></trkpt><trkpt lat="43.370336689475785" lon="10.609233714453433"><ele>226.33333333333334</ele><time>2026-03-24T16:49:46Z</time></trkpt><trkpt lat="43.370195088016516" lon="10.609383956788502"><ele>222.66666666666669</ele><time>2026-03-24T16:49:47Z</time></trkpt><trkpt lat="43.37001493778827" lon="10.609519568781755"><ele>219.0</ele><time>2026-03-24T16:49:48Z</time></trkpt><trkpt lat="43.3698747808724" lon="10.609677382636184"><ele>219.0</ele><time>2026-03-24T16:49:49Z</time></trkpt><trkpt lat="43.36975022828234" lon="10.609836304836929"><ele>219.0</ele><time>2026-03-24T16:49:50Z</time></trkpt><trkpt lat="43.36963289431665" lon="10.61003843883339"><ele>219.0</ele><time>2026-03-24T16:49:51Z</time></trkpt><trkpt lat="43.36949558891301" lon="10.610260919313403"><ele>217.33333333333331</ele><time>2026-03-24T16:49:52Z</time></trkpt><trkpt lat="43.369351380578124" lon="10.610426372787495"><ele>215.66666666666666</ele><time>2026-03-24T16:49:53Z</time></trkpt><trkpt lat="43.369248142311186" lon="10.610584209555778"><ele>214.0</ele><time>2026-03-24T16:49:54Z</time></trkpt><trkpt lat="43.369145698751325" lon="10.610663985919972"><ele>214.0</ele><time>2026-03-24T16:49:55Z</time></trkpt><trkpt lat="43.36906229272323" lon="10.610746638103585"><ele>214.0</ele><time>2026-03-24T16:49:56Z</time></trkpt><trkpt lat="43.368939210087305" lon="10.610699578458393"><ele>214.0</ele><time>2026-03-24T16:49:57Z</time></trkpt><trkpt lat="43.36878668510804" lon="10.610685106478883"><ele>214.0</ele><time>2026-03-24T16:49:58Z</time></trkpt><trkpt lat="43.368649429560065" lon="10.610682058275382"><ele>213.5</ele><time>2026-03-24T16:49:59Z</time></trkpt><trkpt lat="43.368538800331336" lon="10.610746045987495"><ele>213.0</ele><time>2026-03-24T16:50:00Z</time></trkpt><trkpt lat="43.36842521887406" lon="10.610816056450625"><ele>212.5</ele><time>2026-03-24T16:50:01Z</time></trkpt><trkpt lat="43.36830784006768" lon="10.610789259621336"><ele>212.0</ele><time>2026-03-24T16:50:02Z</time></trkpt><trkpt lat="43.36814646266172" lon="10.610737309661015"><ele>213.0</ele><time>2026-03-24T16:50:03Z</time></trkpt><trkpt lat="43.36797893182211" lon="10.61064754383281"><ele>214.0</ele><time>2026-03-24T16:50:04Z</time></trkpt><trkpt lat="43.367798308863826" lon="10.610574452226988"><ele>215.0</ele><time>2026-03-24T16:50:05Z</time></trkpt><trkpt lat="43.367605617336594" lon="10.610529279055271"><ele>215.0</ele><time>2026-03-24T16:50:06Z</time></trkpt><trkpt lat="43.36742510003557" lon="10.610442885304469"><ele>215.0</ele><time>2026-03-24T16:50:07Z</time></trkpt><trkpt lat="43.36725696341837" lon="10.610382427125682"><ele>215.0</ele><time>2026-03-24T16:50:08Z</time></trkpt><trkpt lat="43.367149636467666" lon="10.610248705942972"><ele>213.0</ele><time>2026-03-24T16:50:09Z</time></trkpt><trkpt lat="43.36704399946026" lon="10.61009027944567"><ele>211.0</ele><time>2026-03-24T16:50:10Z</time></trkpt><trkpt lat="43.36692936795599" lon="10.609986331760066"><ele>209.0</ele><time>2026-03-24T16:50:11Z</time></trkpt><trkpt lat="43.366802898288704" lon="10.609919827747547"><ele>207.0</ele><time>2026-03-24T16:50:12Z</time></trkpt><trkpt lat="43.36663187218582" lon="10.609876766990045"><ele>207.0</ele><time>2026-03-24T16:50:13Z</time></trkpt><trkpt lat="43.36646909910997" lon="10.609832252735162"><ele>207.0</ele><time>2026-03-24T16:50:14Z</time></trkpt><trkpt lat="43.36633293445832" lon="10.609821490636369"><ele>207.0</ele><time>2026-03-24T16:50:15Z</time></trkpt><trkpt lat="43.366185589562335" lon="10.609868350858497"><ele>207.33333333333331</ele><time>2026-03-24T16:50:16Z</time></trkpt><trkpt lat="43.36604290661619" lon="10.609951824310942"><ele>207.66666666666666</ele><time>2026-03-24T16:50:17Z</time></trkpt><trkpt lat="43.36590335349373" lon="10.609977480802046"><ele>208.0</ele><time>2026-03-24T16:50:18Z</time></trkpt><trkpt lat="43.36575303660473" lon="10.609930661703988"><ele>208.0</ele><time>2026-03-24T16:50:19Z</time></trkpt><trkpt lat="43.36557986144547" lon="10.609843307834987"><ele>208.0</ele><time>2026-03-24T16:50:20Z</time></trkpt><trkpt lat="43.3654024017234" lon="10.60977319236955"><ele>208.0</ele><time>2026-03-24T16:50:21Z</time></trkpt><trkpt lat="43.365234138789205" lon="10.609713817530208"><ele>212.66666666666666</ele><time>2026-03-24T16:50:22Z</time></trkpt><trkpt lat="43.36507229573893" lon="10.6096557563983"><ele>217.33333333333331</ele><time>2026-03-24T16:50:23Z</time></trkpt><trkpt lat="43.36491794277896" lon="10.609607369329414"><ele>222.0</ele><time>2026-03-24T16:50:24Z</time></trkpt><trkpt lat="43.364735019653956" lon="10.609609592210829"><ele>223.33333333333331</ele><time>2026-03-24T16:50:25Z</time></trkpt><trkpt lat="43.36453294947109" lon="10.60963062924697"><ele>224.66666666666666</ele><time>2026-03-24T16:50:26Z</time></trkpt><trkpt lat="43.36432604310582" lon="10.609628802252706"><ele>226.0</ele><time>2026-03-24T16:50:27Z</time></trkpt><trkpt lat="43.36412870349511" lon="10.60965047581278"><ele>226.0</ele><time>2026-03-24T16:50:28Z</time></trkpt><trkpt lat="43.363964482621974" lon="10.609637640359946"><ele>226.0</ele><time>2026-03-24T16:50:29Z</time></trkpt><trkpt lat="43.36382747601958" lon="10.60959868325199"><ele>226.0</ele><time>2026-03-24T16:50:30Z</time></trkpt><trkpt lat="43.36373060275939" lon="10.609527988318378"><ele>226.0</ele><time>2026-03-24T16:50:31Z</time></trkpt><trkpt lat="43.3636271676965" lon="10.60956317509927"><ele>224.25</ele><time>2026-03-24T16:50:32Z</time></trkpt><trkpt lat="43.36353568523596" lon="10.609642823855458"><ele>222.5</ele><time>2026-03-24T16:50:33Z</time></trkpt><trkpt lat="43.36344619470178" lon="10.609753898362111"><ele>220.75</ele><time>2026-03-24T16:50:34Z</time></trkpt><trkpt lat="43.36338242960853" lon="10.60988337126233"><ele>219.0</ele><time>2026-03-24T16:50:35Z</time></trkpt><trkpt lat="43.363387234018006" lon="10.610070809160282"><ele>219.0</ele><time>2026-03-24T16:50:36Z</time></trkpt><trkpt lat="43.36333116835636" lon="10.610263715745452"><ele>219.0</ele><time>2026-03-24T16:50:37Z</time></trkpt><trkpt lat="43.36327620345241" lon="10.610397828377698"><ele>219.0</ele><time>2026-03-24T16:50:38Z</time></trkpt><trkpt lat="43.36319768965057" lon="10.610467422707544"><ele>219.0</ele><time>2026-03-24T16:50:39Z</time></trkpt><trkpt lat="43.36310932749411" lon="10.610410892697793"><ele>220.25</ele><time>2026-03-24T16:50:40Z</time></trkpt><trkpt lat="43.36300420023643" lon="10.61034784851045"><ele>221.5</ele><time>2026-03-24T16:50:41Z</time></trkpt><trkpt lat="43.362867060677345" lon="10.610314666878423"><ele>222.75</ele><time>2026-03-24T16:50:42Z</time></trkpt><trkpt lat="43.3627114231808" lon="10.61032189691781"><ele>224.0</ele><time>2026-03-24T16:50:43Z</time></trkpt><trkpt lat="43.362543731324166" lon="10.610364139989715"><ele>224.0</ele><time>2026-03-24T16:50:44Z</time></trkpt><trkpt lat="43.362376563951145" lon="10.610444712687293"><ele>224.0</ele><time>2026-03-24T16:50:45Z</time></trkpt><trkpt lat="43.362215838874846" lon="10.610541771859216"><ele>224.0</ele><time>2026-03-24T16:50:46Z</time></trkpt><trkpt lat="43.362059975612055" lon="10.61060883266935"><ele>221.0</ele><time>2026-03-24T16:50:47Z</time></trkpt><trkpt lat="43.36189248226608" lon="10.610688346617907"><ele>218.0</ele><time>2026-03-24T16:50:48Z</time></trkpt><trkpt lat="43.36171470899695" lon="10.610776478511736"><ele>215.0</ele><time>2026-03-24T16:50:49Z</time></trkpt><trkpt lat="43.361555396996486" lon="10.610862140986859"><ele>215.0</ele><time>2026-03-24T16:50:50Z</time></trkpt><trkpt lat="43.36140462321752" lon="10.61091426050279"><ele>215.0</ele><time>2026-03-24T16:50:51Z</time></trkpt><trkpt lat="43.36123998961053" lon="10.610944034842372"><ele>215.0</ele><time>2026-03-24T16:50:52Z</time></trkpt><trkpt lat="43.36105159846094" lon="10.610954077315737"><ele>213.0</ele><time>2026-03-24T16:50:53Z</time></trkpt><trkpt lat="43.36084970038167" lon="10.610941186260295"><ele>211.0</ele><time>2026-03-24T16:50:54Z</time></trkpt><trkpt lat="43.36065791425831" lon="10.610954767452178"><ele>209.0</ele><time>2026-03-24T16:50:55Z</time></trkpt><trkpt lat="43.36047324303883" lon="10.610971680122542"><ele>204.0</ele><time>2026-03-24T16:50:56Z</time></trkpt><trkpt lat="43.360263510211034" lon="10.611041602352072"><ele>199.0</ele><time>2026-03-24T16:50:57Z</time></trkpt><trkpt lat="43.360044845533196" lon="10.611133239366824"><ele>194.0</ele><time>2026-03-24T16:50:58Z</time></trkpt><trkpt lat="43.35983943657118" lon="10.611223333522968"><ele>194.0</ele><time>2026-03-24T16:50:59Z</time></trkpt><trkpt lat="43.359641384938655" lon="10.611303661096"><ele>194.0</ele><time>2026-03-24T16:51:00Z</time></trkpt><trkpt lat="43.35944616983602" lon="10.611321538397616"><ele>194.0</ele><time>2026-03-24T16:51:01Z</time></trkpt><trkpt lat="43.35926661636375" lon="10.611330094222104"><ele>194.0</ele><time>2026-03-24T16:51:02Z</time></trkpt><trkpt lat="43.359086670022194" lon="10.611309607658514"><ele>194.0</ele><time>2026-03-24T16:51:03Z</time></trkpt><trkpt lat="43.358914310483655" lon="10.61126922945606"><ele>194.0</ele><time>2026-03-24T16:51:04Z</time></trkpt><trkpt lat="43.35873384717535" lon="10.611247314985366"><ele>194.25</ele><time>2026-03-24T16:51:05Z</time></trkpt><trkpt lat="43.35856685939842" lon="10.611219185125972"><ele>194.5</ele><time>2026-03-24T16:51:06Z</time></trkpt><trkpt lat="43.35841490851096" lon="10.611209750202741"><ele>194.75</ele><time>2026-03-24T16:51:07Z</time></trkpt><trkpt lat="43.3582869860137" lon="10.611225015370309"><ele>195.0</ele><time>2026-03-24T16:51:08Z</time></trkpt><trkpt lat="43.35817434324946" lon="10.611269633094572"><ele>195.66666666666669</ele><time>2026-03-24T16:51:09Z</time></trkpt><trkpt lat="43.358034022319984" lon="10.611364150515884"><ele>196.33333333333334</ele><time>2026-03-24T16:51:10Z</time></trkpt><trkpt lat="43.35785809783743" lon="10.611443199132557"><ele>197.0</ele><time>2026-03-24T16:51:11Z</time></trkpt><trkpt lat="43.357690808825204" lon="10.61149017021704"><ele>197.0</ele><time>2026-03-24T16:51:12Z</time></trkpt><trkpt lat="43.35750511889094" lon="10.611515368133436"><ele>197.0</ele><time>2026-03-24T16:51:13Z</time></trkpt><trkpt lat="43.35730755591685" lon="10.611563057844224"><ele>197.0</ele><time>2026-03-24T16:51:14Z</time></trkpt><trkpt lat="43.35710530278092" lon="10.611611299541348"><ele>195.0</ele><time>2026-03-24T16:51:15Z</time></trkpt><trkpt lat="43.35689865046492" lon="10.611621184483662"><ele>193.0</ele><time>2026-03-24T16:51:16Z</time></trkpt><trkpt lat="43.356669668596325" lon="10.611618391716966"><ele>191.0</ele><time>2026-03-24T16:51:17Z</time></trkpt><trkpt lat="43.35642618836263" lon="10.611594219352273"><ele>190.0</ele><time>2026-03-24T16:51:18Z</time></trkpt><trkpt lat="43.35616667618267" lon="10.61159167750745"><ele>189.0</ele><time>2026-03-24T16:51:19Z</time></trkpt><trkpt lat="43.355936061567874" lon="10.611577866138578"><ele>189.0</ele><time>2026-03-24T16:51:20Z</time></trkpt><trkpt lat="43.35571706158453" lon="10.611560219450508"><ele>189.0</ele><time>2026-03-24T16:51:21Z</time></trkpt><trkpt lat="43.35550364086363" lon="10.611532693572423"><ele>189.0</ele><time>2026-03-24T16:51:22Z</time></trkpt><trkpt lat="43.3553115031377" lon="10.611497351506802"><ele>188.66666666666666</ele><time>2026-03-24T16:51:23Z</time></trkpt><trkpt lat="43.35512635728178" lon="10.611485567640788"><ele>188.33333333333331</ele><time>2026-03-24T16:51:24Z</time></trkpt><trkpt lat="43.35496460978106" lon="10.611474412932433"><ele>188.0</ele><time>2026-03-24T16:51:25Z</time></trkpt><trkpt lat="43.3548254961861" lon="10.611498078494257"><ele>186.0</ele><time>2026-03-24T16:51:26Z</time></trkpt><trkpt lat="43.354689078409464" lon="10.611477021923353"><ele>184.0</ele><time>2026-03-24T16:51:27Z</time></trkpt><trkpt lat="43.35454288037453" lon="10.611414164536821"><ele>182.0</ele><time>2026-03-24T16:51:28Z</time></trkpt><trkpt lat="43.35436147759893" lon="10.611340188995955"><ele>182.0</ele><time>2026-03-24T16:51:29Z</time></trkpt><trkpt lat="43.35414695173098" lon="10.611266988780306"><ele>182.0</ele><time>2026-03-24T16:51:30Z</time></trkpt><trkpt lat="43.35394207394835" lon="10.611181208285227"><ele>182.0</ele><time>2026-03-24T16:51:31Z</time></trkpt><trkpt lat="43.35375723911062" lon="10.611090594685907"><ele>178.0</ele><time>2026-03-24T16:51:32Z</time></trkpt><trkpt lat="43.35358382443826" lon="10.611005474383576"><ele>174.0</ele><time>2026-03-24T16:51:33Z</time></trkpt><trkpt lat="43.35341144960507" lon="10.610941121943116"><ele>170.0</ele><time>2026-03-24T16:51:34Z</time></trkpt><trkpt lat="43.353250019350845" lon="10.610863198545422"><ele>170.0</ele><time>2026-03-24T16:51:35Z</time></trkpt><trkpt lat="43.35308743669544" lon="10.610839661446507"><ele>170.0</ele><time>2026-03-24T16:51:36Z</time></trkpt><trkpt lat="43.35292741692092" lon="10.610797682662472"><ele>170.0</ele><time>2026-03-24T16:51:37Z</time></trkpt><trkpt lat="43.352779928568296" lon="10.610692132678327"><ele>169.0</ele><time>2026-03-24T16:51:38Z</time></trkpt><trkpt lat="43.35262291013181" lon="10.610572488003426"><ele>168.0</ele><time>2026-03-24T16:51:39Z</time></trkpt><trkpt lat="43.35247599772541" lon="10.610494787035865"><ele>167.0</ele><time>2026-03-24T16:51:40Z</time></trkpt><trkpt lat="43.352320945372405" lon="10.61043099936707"><ele>166.0</ele><time>2026-03-24T16:51:41Z</time></trkpt><trkpt lat="43.352167953794186" lon="10.610389172637241"><ele>165.0</ele><time>2026-03-24T16:51:42Z</time></trkpt><trkpt lat="43.35204055746213" lon="10.610313329873373"><ele>164.0</ele><time>2026-03-24T16:51:43Z</time></trkpt><trkpt lat="43.35192151792614" lon="10.610243603709517"><ele>163.0</ele><time>2026-03-24T16:51:44Z</time></trkpt><trkpt lat="43.351809286227365" lon="10.61013092559747"><ele>163.0</ele><time>2026-03-24T16:51:45Z</time></trkpt><trkpt lat="43.351668981826485" lon="10.610056037032436"><ele>163.0</ele><time>2026-03-24T16:51:46Z</time></trkpt><trkpt lat="43.35153882146903" lon="10.610020130234059"><ele>163.0</ele><time>2026-03-24T16:51:47Z</time></trkpt><trkpt lat="43.35140616606612" lon="10.610047227319372"><ele>163.0</ele><time>2026-03-24T16:51:48Z</time></trkpt><trkpt lat="43.351256847448106" lon="10.610106161612693"><ele>162.0</ele><time>2026-03-24T16:51:49Z</time></trkpt><trkpt lat="43.35109329925491" lon="10.61018568364066"><ele>161.0</ele><time>2026-03-24T16:51:50Z</time></trkpt><trkpt lat="43.35094551998542" lon="10.610266231918043"><ele>160.0</ele><time>2026-03-24T16:51:51Z</time></trkpt><trkpt lat="43.35080876257342" lon="10.610342323746334"><ele>158.25</ele><time>2026-03-24T16:51:52Z</time></trkpt><trkpt lat="43.35066900333466" lon="10.610395721969795"><ele>156.5</ele><time>2026-03-24T16:51:53Z</time></trkpt><trkpt lat="43.3505508936012" lon="10.610496804411882"><ele>154.75</ele><time>2026-03-24T16:51:54Z</time></trkpt><trkpt lat="43.3504296038078" lon="10.610542123956252"><ele>153.0</ele><time>2026-03-24T16:51:55Z</time></trkpt><trkpt lat="43.35031663017299" lon="10.61056536471714"><ele>152.20000000000002</ele><time>2026-03-24T16:51:56Z</time></trkpt><trkpt lat="43.35020471740142" lon="10.61052895990725"><ele>151.4</ele><time>2026-03-24T16:51:57Z</time></trkpt><trkpt lat="43.35009142576637" lon="10.61053434549281"><ele>150.60000000000002</ele><time>2026-03-24T16:51:58Z</time></trkpt><trkpt lat="43.34999844422553" lon="10.61055803842072"><ele>149.8</ele><time>2026-03-24T16:51:59Z</time></trkpt><trkpt lat="43.34993057719445" lon="10.610657964978161"><ele>149.0</ele><time>2026-03-24T16:52:00Z</time></trkpt><trkpt lat="43.34988248716091" lon="10.610790012721042"><ele>149.0</ele><time>2026-03-24T16:52:01Z</time></trkpt><trkpt lat="43.34982398400449" lon="10.61093345219812"><ele>149.0</ele><time>2026-03-24T16:52:02Z</time></trkpt><trkpt lat="43.34975918894425" lon="10.611053337715633"><ele>149.0</ele><time>2026-03-24T16:52:03Z</time></trkpt><trkpt lat="43.34970351845327" lon="10.611160548483682"><ele>149.0</ele><time>2026-03-24T16:52:04Z</time></trkpt><trkpt lat="43.349648783775876" lon="10.611276029125579"><ele>149.0</ele><time>2026-03-24T16:52:05Z</time></trkpt><trkpt lat="43.34958808514054" lon="10.611419377062315"><ele>144.5</ele><time>2026-03-24T16:52:06Z</time></trkpt><trkpt lat="43.34952076300598" lon="10.611559522213536"><ele>140.0</ele><time>2026-03-24T16:52:07Z</time></trkpt><trkpt lat="43.3494492755497" lon="10.611698030403053"><ele>135.5</ele><time>2026-03-24T16:52:08Z</time></trkpt><trkpt lat="43.3493727801278" lon="10.611864098888159"><ele>131.0</ele><time>2026-03-24T16:52:09Z</time></trkpt><trkpt lat="43.34929503931723" lon="10.612022358221704"><ele>129.0</ele><time>2026-03-24T16:52:10Z</time></trkpt><trkpt lat="43.349223656396006" lon="10.612163506806374"><ele>127.0</ele><time>2026-03-24T16:52:11Z</time></trkpt><trkpt lat="43.349154160492894" lon="10.61229920459393"><ele>125.0</ele><time>2026-03-24T16:52:12Z</time></trkpt><trkpt lat="43.349084023723734" lon="10.612435574174972"><ele>123.0</ele><time>2026-03-24T16:52:13Z</time></trkpt><trkpt lat="43.34901381215292" lon="10.612573748400209"><ele>123.0</ele><time>2026-03-24T16:52:14Z</time></trkpt><trkpt lat="43.348947613414836" lon="10.612716525790086"><ele>123.0</ele><time>2026-03-24T16:52:15Z</time></trkpt><trkpt lat="43.348888339256" lon="10.612865311123647"><ele>123.0</ele><time>2026-03-24T16:52:16Z</time></trkpt><trkpt lat="43.348838250068916" lon="10.613018727384441"><ele>123.0</ele><time>2026-03-24T16:52:17Z</time></trkpt><trkpt lat="43.348796128299156" lon="10.613176343834827"><ele>119.0</ele><time>2026-03-24T16:52:18Z</time></trkpt><trkpt lat="43.34876188631921" lon="10.613335443980086"><ele>115.0</ele><time>2026-03-24T16:52:19Z</time></trkpt><trkpt lat="43.34873080388751" lon="10.613503179455734"><ele>111.0</ele><time>2026-03-24T16:52:20Z</time></trkpt><trkpt lat="43.348688350709246" lon="10.613696885186997"><ele>107.0</ele><time>2026-03-24T16:52:21Z</time></trkpt><trkpt lat="43.34859940164017" lon="10.613886608528858"><ele>107.0</ele><time>2026-03-24T16:52:22Z</time></trkpt><trkpt lat="43.348493644771175" lon="10.614099873589922"><ele>107.0</ele><time>2026-03-24T16:52:23Z</time></trkpt><trkpt lat="43.348405237542416" lon="10.614336652494936"><ele>107.0</ele><time>2026-03-24T16:52:24Z</time></trkpt><trkpt lat="43.348318432036955" lon="10.614534648806174"><ele>107.33333333333333</ele><time>2026-03-24T16:52:25Z</time></trkpt><trkpt lat="43.34823834762582" lon="10.614735104393157"><ele>107.66666666666666</ele><time>2026-03-24T16:52:26Z</time></trkpt><trkpt lat="43.34813771080383" lon="10.614935735232036"><ele>108.0</ele><time>2026-03-24T16:52:27Z</time></trkpt><trkpt lat="43.348037166026664" lon="10.615132519120802"><ele>103.66666666666667</ele><time>2026-03-24T16:52:28Z</time></trkpt><trkpt lat="43.34793339797478" lon="10.61531067231532"><ele>99.33333333333334</ele><time>2026-03-24T16:52:29Z</time></trkpt><trkpt lat="43.347845618542706" lon="10.615488763168637"><ele>95.0</ele><time>2026-03-24T16:52:30Z</time></trkpt><trkpt lat="43.34776145129455" lon="10.615655962854845"><ele>95.0</ele><time>2026-03-24T16:52:31Z</time></trkpt><trkpt lat="43.347697608841884" lon="10.615825298240706"><ele>95.0</ele><time>2026-03-24T16:52:32Z</time></trkpt><trkpt lat="43.347631183406946" lon="10.615983428131416"><ele>95.0</ele><time>2026-03-24T16:52:33Z</time></trkpt><trkpt lat="43.34755188257397" lon="10.616131437306363"><ele>95.0</ele><time>2026-03-24T16:52:34Z</time></trkpt><trkpt lat="43.347483924237494" lon="10.61629539651006"><ele>95.0</ele><time>2026-03-24T16:52:35Z</time></trkpt><trkpt lat="43.34743689168645" lon="10.616459613732463"><ele>95.0</ele><time>2026-03-24T16:52:36Z</time></trkpt><trkpt lat="43.34740159850679" lon="10.616584532963243"><ele>95.0</ele><time>2026-03-24T16:52:37Z</time></trkpt><trkpt lat="43.347381519172856" lon="10.616671856317272"><ele>95.0</ele><time>2026-03-24T16:52:38Z</time></trkpt><trkpt lat="43.34741553297466" lon="10.616840796719579"><ele>95.0</ele><time>2026-03-24T16:52:40Z</time></trkpt><trkpt lat="43.34748367148351" lon="10.616909210372627"><ele>92.75</ele><time>2026-03-24T16:52:41Z</time></trkpt><trkpt lat="43.34755696084056" lon="10.616995591693565"><ele>90.5</ele><time>2026-03-24T16:52:42Z</time></trkpt><trkpt lat="43.34758096415568" lon="10.617153435122258"><ele>88.25</ele><time>2026-03-24T16:52:43Z</time></trkpt><trkpt lat="43.34757006070543" lon="10.617360506087246"><ele>86.0</ele><time>2026-03-24T16:52:44Z</time></trkpt><trkpt lat="43.34758427943082" lon="10.617598487016846"><ele>83.0</ele><time>2026-03-24T16:52:45Z</time></trkpt><trkpt lat="43.34760242115033" lon="10.6178344347615"><ele>80.0</ele><time>2026-03-24T16:52:46Z</time></trkpt><trkpt lat="43.34762283464476" lon="10.618057715654299"><ele>77.0</ele><time>2026-03-24T16:52:47Z</time></trkpt><trkpt lat="43.3476464226375" lon="10.618268967416528"><ele>77.0</ele><time>2026-03-24T16:52:48Z</time></trkpt><trkpt lat="43.34762855149467" lon="10.618453242188247"><ele>77.0</ele><time>2026-03-24T16:52:49Z</time></trkpt><trkpt lat="43.347589519975564" lon="10.618597712718065"><ele>77.0</ele><time>2026-03-24T16:52:50Z</time></trkpt><trkpt lat="43.347514981070745" lon="10.618693237475254"><ele>77.0</ele><time>2026-03-24T16:52:51Z</time></trkpt><trkpt lat="43.347474306548186" lon="10.618839763237201"><ele>75.0</ele><time>2026-03-24T16:52:53Z</time></trkpt><trkpt lat="43.34753252022951" lon="10.618945090539725"><ele>73.0</ele><time>2026-03-24T16:52:54Z</time></trkpt><trkpt lat="43.347608969110674" lon="10.619035951708275"><ele>71.0</ele><time>2026-03-24T16:52:55Z</time></trkpt><trkpt lat="43.34769026210233" lon="10.61914443796283"><ele>69.0</ele><time>2026-03-24T16:52:56Z</time></trkpt><trkpt lat="43.3477528037437" lon="10.619294806801813"><ele>67.0</ele><time>2026-03-24T16:52:57Z</time></trkpt><trkpt lat="43.34777073018305" lon="10.619491705544696"><ele>64.0</ele><time>2026-03-24T16:52:58Z</time></trkpt><trkpt lat="43.347810109479546" lon="10.619695825912475"><ele>61.0</ele><time>2026-03-24T16:52:59Z</time></trkpt><trkpt lat="43.34785367374067" lon="10.619873299654667"><ele>58.0</ele><time>2026-03-24T16:53:00Z</time></trkpt><trkpt lat="43.34788406562587" lon="10.620043191615144"><ele>55.0</ele><time>2026-03-24T16:53:01Z</time></trkpt><trkpt lat="43.34788314414202" lon="10.62021522671504"><ele>53.5</ele><time>2026-03-24T16:53:02Z</time></trkpt><trkpt lat="43.347869976788395" lon="10.620406813362427"><ele>52.0</ele><time>2026-03-24T16:53:03Z</time></trkpt><trkpt lat="43.34783650175128" lon="10.620605723209692"><ele>50.5</ele><time>2026-03-24T16:53:04Z</time></trkpt><trkpt lat="43.34778894775148" lon="10.620796157853388"><ele>49.0</ele><time>2026-03-24T16:53:05Z</time></trkpt><trkpt lat="43.34776835473959" lon="10.620984836358154"><ele>46.0</ele><time>2026-03-24T16:53:06Z</time></trkpt><trkpt lat="43.34775365522987" lon="10.621166761983766"><ele>43.0</ele><time>2026-03-24T16:53:07Z</time></trkpt><trkpt lat="43.3477387433413" lon="10.621335681324702"><ele>40.0</ele><time>2026-03-24T16:53:08Z</time></trkpt><trkpt lat="43.347714928008294" lon="10.62149086398979"><ele>37.0</ele><time>2026-03-24T16:53:09Z</time></trkpt><trkpt lat="43.347713834976396" lon="10.621661539573656"><ele>37.0</ele><time>2026-03-24T16:53:10Z</time></trkpt><trkpt lat="43.34775201723672" lon="10.62185765875464"><ele>37.0</ele><time>2026-03-24T16:53:11Z</time></trkpt><trkpt lat="43.3478070489658" lon="10.622057802746907"><ele>37.0</ele><time>2026-03-24T16:53:12Z</time></trkpt><trkpt lat="43.34784454835159" lon="10.622265213470124"><ele>36.25</ele><time>2026-03-24T16:53:13Z</time></trkpt><trkpt lat="43.34784844835539" lon="10.622450948063168"><ele>35.5</ele><time>2026-03-24T16:53:14Z</time></trkpt><trkpt lat="43.34781043052335" lon="10.622621623712764"><ele>34.75</ele><time>2026-03-24T16:53:15Z</time></trkpt><trkpt lat="43.34779192955156" lon="10.622796536845359"><ele>34.0</ele><time>2026-03-24T16:53:16Z</time></trkpt><trkpt lat="43.34780630830491" lon="10.622985438112023"><ele>33.8</ele><time>2026-03-24T16:53:17Z</time></trkpt><trkpt lat="43.34779823002052" lon="10.623146286379272"><ele>33.599999999999994</ele><time>2026-03-24T16:53:18Z</time></trkpt><trkpt lat="43.34778499247904" lon="10.623290517313437"><ele>33.4</ele><time>2026-03-24T16:53:19Z</time></trkpt><trkpt lat="43.34776807324366" lon="10.623390127618856"><ele>33.199999999999996</ele><time>2026-03-24T16:53:20Z</time></trkpt><trkpt lat="43.34776731981534" lon="10.623480387505948"><ele>33.0</ele><time>2026-03-24T16:53:22Z</time></trkpt><trkpt lat="43.34781073932191" lon="10.623605936638278"><ele>33.0</ele><time>2026-03-24T16:53:27Z</time></trkpt><trkpt lat="43.347873757595984" lon="10.623715189993357"><ele>33.0</ele><time>2026-03-24T16:53:28Z</time></trkpt><trkpt lat="43.347965418044026" lon="10.62382995802291"><ele>33.0</ele><time>2026-03-24T16:53:29Z</time></trkpt><trkpt lat="43.34807011151615" lon="10.623966934557542"><ele>33.0</ele><time>2026-03-24T16:53:30Z</time></trkpt><trkpt lat="43.34813434839762" lon="10.624078019389248"><ele>33.0</ele><time>2026-03-24T16:53:31Z</time></trkpt><trkpt lat="43.348206282459074" lon="10.624182590921999"><ele>33.0</ele><time>2026-03-24T16:53:32Z</time></trkpt><trkpt lat="43.34826408195342" lon="10.624270828309507"><ele>33.0</ele><time>2026-03-24T16:53:33Z</time></trkpt><trkpt lat="43.348307163494795" lon="10.624342134517754"><ele>33.0</ele><time>2026-03-24T16:53:34Z</time></trkpt><trkpt lat="43.348356341664065" lon="10.624400396261732"><ele>33.0</ele><time>2026-03-24T16:53:36Z</time></trkpt><trkpt lat="43.34845793325557" lon="10.62449486580434"><ele>33.0</ele><time>2026-03-24T16:53:53Z</time></trkpt><trkpt lat="43.348565959407" lon="10.624578374527522"><ele>32.666666666666664</ele><time>2026-03-24T16:53:54Z</time></trkpt><trkpt lat="43.348674096180645" lon="10.624699209822504"><ele>32.33333333333333</ele><time>2026-03-24T16:53:55Z</time></trkpt><trkpt lat="43.34878955159409" lon="10.6248476398937"><ele>32.0</ele><time>2026-03-24T16:53:56Z</time></trkpt><trkpt lat="43.34892454564902" lon="10.625008392200748"><ele>32.0</ele><time>2026-03-24T16:53:57Z</time></trkpt><trkpt lat="43.349074379582746" lon="10.625177754147908"><ele>32.0</ele><time>2026-03-24T16:53:58Z</time></trkpt><trkpt lat="43.349243640511034" lon="10.625349864517515"><ele>32.0</ele><time>2026-03-24T16:53:59Z</time></trkpt><trkpt lat="43.3494297411083" lon="10.625489939569515"><ele>32.0</ele><time>2026-03-24T16:54:00Z</time></trkpt><trkpt lat="43.3496258257458" lon="10.625641447106212"><ele>32.0</ele><time>2026-03-24T16:54:01Z</time></trkpt><trkpt lat="43.34983175572347" lon="10.625755870511705"><ele>32.0</ele><time>2026-03-24T16:54:02Z</time></trkpt><trkpt lat="43.349990187499394" lon="10.625877562144622"><ele>32.75</ele><time>2026-03-24T16:54:03Z</time></trkpt><trkpt lat="43.35012756774284" lon="10.625982169846361"><ele>33.5</ele><time>2026-03-24T16:54:04Z</time></trkpt><trkpt lat="43.350243115011025" lon="10.626051981062496"><ele>34.25</ele><time>2026-03-24T16:54:05Z</time></trkpt><trkpt lat="43.350332382217395" lon="10.62612661190733"><ele>35.0</ele><time>2026-03-24T16:54:06Z</time></trkpt><trkpt lat="43.35037710784456" lon="10.62624410599245"><ele>35.0</ele><time>2026-03-24T16:54:07Z</time></trkpt><trkpt lat="43.3503648834428" lon="10.626410595900552"><ele>35.0</ele><time>2026-03-24T16:54:08Z</time></trkpt><trkpt lat="43.35028662862687" lon="10.62654962565101"><ele>35.0</ele><time>2026-03-24T16:54:09Z</time></trkpt><trkpt lat="43.350197663046536" lon="10.626724710691942"><ele>35.0</ele><time>2026-03-24T16:54:10Z</time></trkpt><trkpt lat="43.35011542957658" lon="10.626933737462869"><ele>35.0</ele><time>2026-03-24T16:54:11Z</time></trkpt><trkpt lat="43.35000456064161" lon="10.627160678906314"><ele>35.0</ele><time>2026-03-24T16:54:12Z</time></trkpt><trkpt lat="43.34988610986297" lon="10.627419084925972"><ele>35.0</ele><time>2026-03-24T16:54:13Z</time></trkpt><trkpt lat="43.34975884613635" lon="10.627706290471382"><ele>34.5</ele><time>2026-03-24T16:54:14Z</time></trkpt><trkpt lat="43.3496157959046" lon="10.628014477590929"><ele>34.0</ele><time>2026-03-24T16:54:15Z</time></trkpt><trkpt lat="43.34946667964913" lon="10.628320929564062"><ele>33.5</ele><time>2026-03-24T16:54:16Z</time></trkpt><trkpt lat="43.34931020633632" lon="10.628646398251643"><ele>33.0</ele><time>2026-03-24T16:54:17Z</time></trkpt><trkpt lat="43.349141461451794" lon="10.628982056385444"><ele>33.0</ele><time>2026-03-24T16:54:18Z</time></trkpt><trkpt lat="43.34896236058457" lon="10.629323913490218"><ele>33.0</ele><time>2026-03-24T16:54:19Z</time></trkpt><trkpt lat="43.348782834611164" lon="10.629672154339344"><ele>31.5</ele><time>2026-03-24T16:54:20Z</time></trkpt><trkpt lat="43.3485998587076" lon="10.630017614439257"><ele>30.0</ele><time>2026-03-24T16:54:21Z</time></trkpt><trkpt lat="43.34840331433818" lon="10.630363137776389"><ele>29.5</ele><time>2026-03-24T16:54:22Z</time></trkpt><trkpt lat="43.34820155204484" lon="10.630710124444722"><ele>29.0</ele><time>2026-03-24T16:54:23Z</time></trkpt><trkpt lat="43.34800080177463" lon="10.631058716127228"><ele>30.5</ele><time>2026-03-24T16:54:24Z</time></trkpt><trkpt lat="43.34779243446876" lon="10.631413404219526"><ele>32.0</ele><time>2026-03-24T16:54:25Z</time></trkpt><trkpt lat="43.34757816923308" lon="10.631764901795087"><ele>33.5</ele><time>2026-03-24T16:54:26Z</time></trkpt><trkpt lat="43.34735776712948" lon="10.632119699576768"><ele>35.0</ele><time>2026-03-24T16:54:27Z</time></trkpt><trkpt lat="43.34712968918326" lon="10.632479161981173"><ele>34.0</ele><time>2026-03-24T16:54:28Z</time></trkpt><trkpt lat="43.34690543291227" lon="10.632841795353839"><ele>33.0</ele><time>2026-03-24T16:54:29Z</time></trkpt><trkpt lat="43.3466739355824" lon="10.633201741665745"><ele>33.0</ele><time>2026-03-24T16:54:30Z</time></trkpt><trkpt lat="43.346446217748685" lon="10.633563294657092"><ele>33.0</ele><time>2026-03-24T16:54:31Z</time></trkpt><trkpt lat="43.34621911801466" lon="10.633927752729205"><ele>31.5</ele><time>2026-03-24T16:54:32Z</time></trkpt><trkpt lat="43.34599422748965" lon="10.63429173125435"><ele>30.0</ele><time>2026-03-24T16:54:33Z</time></trkpt><trkpt lat="43.34577089033254" lon="10.634661072462277"><ele>33.0</ele><time>2026-03-24T16:54:34Z</time></trkpt><trkpt lat="43.345548365728426" lon="10.635036045293894"><ele>36.0</ele><time>2026-03-24T16:54:35Z</time></trkpt><trkpt lat="43.345328392592116" lon="10.635409626266789"><ele>36.0</ele><time>2026-03-24T16:54:36Z</time></trkpt><trkpt lat="43.34510936795759" lon="10.635787244791182"><ele>36.0</ele><time>2026-03-24T16:54:37Z</time></trkpt><trkpt lat="43.344893296687985" lon="10.636168131169294"><ele>31.5</ele><time>2026-03-24T16:54:38Z</time></trkpt><trkpt lat="43.34468335747379" lon="10.63655204392299"><ele>27.0</ele><time>2026-03-24T16:54:39Z</time></trkpt><trkpt lat="43.344483341978524" lon="10.63694739738881"><ele>30.0</ele><time>2026-03-24T16:54:40Z</time></trkpt><trkpt lat="43.344296301983924" lon="10.637357349429143"><ele>33.0</ele><time>2026-03-24T16:54:41Z</time></trkpt><trkpt lat="43.34411763747795" lon="10.637775167939274"><ele>31.0</ele><time>2026-03-24T16:54:42Z</time></trkpt><trkpt lat="43.34393998411073" lon="10.638194217464322"><ele>29.0</ele><time>2026-03-24T16:54:43Z</time></trkpt><trkpt lat="43.343758894527426" lon="10.638597592891573"><ele>31.0</ele><time>2026-03-24T16:54:44Z</time></trkpt><trkpt lat="43.343579658959484" lon="10.638972338877197"><ele>33.0</ele><time>2026-03-24T16:54:45Z</time></trkpt><trkpt lat="43.34335849204551" lon="10.639354976631447"><ele>33.0</ele><time>2026-03-24T16:54:46Z</time></trkpt><trkpt lat="43.34314579380544" lon="10.639654093400095"><ele>33.0</ele><time>2026-03-24T16:54:47Z</time></trkpt><trkpt lat="43.34291466188672" lon="10.639970724272532"><ele>33.0</ele><time>2026-03-24T16:54:48Z</time></trkpt><trkpt lat="43.34268522652443" lon="10.640257934717319"><ele>33.0</ele><time>2026-03-24T16:54:49Z</time></trkpt><trkpt lat="43.34245719074879" lon="10.640533187473439"><ele>32.5</ele><time>2026-03-24T16:54:50Z</time></trkpt><trkpt lat="43.34223450415808" lon="10.640804596935704"><ele>32.0</ele><time>2026-03-24T16:54:51Z</time></trkpt><trkpt lat="43.34201664954075" lon="10.641065604594514"><ele>33.0</ele><time>2026-03-24T16:54:52Z</time></trkpt><trkpt lat="43.34180685373091" lon="10.641311748268786"><ele>34.0</ele><time>2026-03-24T16:54:53Z</time></trkpt><trkpt lat="43.34160203199089" lon="10.64155252484321"><ele>34.0</ele><time>2026-03-24T16:54:54Z</time></trkpt><trkpt lat="43.341402009482984" lon="10.641789898010588"><ele>34.0</ele><time>2026-03-24T16:54:55Z</time></trkpt><trkpt lat="43.34120712922825" lon="10.642024156010864"><ele>32.0</ele><time>2026-03-24T16:54:56Z</time></trkpt><trkpt lat="43.341020946601155" lon="10.642251214074815"><ele>30.0</ele><time>2026-03-24T16:54:57Z</time></trkpt><trkpt lat="43.34084230887953" lon="10.642465649980387"><ele>30.0</ele><time>2026-03-24T16:54:58Z</time></trkpt><trkpt lat="43.34067341044184" lon="10.642673271289436"><ele>30.0</ele><time>2026-03-24T16:54:59Z</time></trkpt><trkpt lat="43.340509407298896" lon="10.64288498534931"><ele>30.333333333333336</ele><time>2026-03-24T16:55:00Z</time></trkpt><trkpt lat="43.340357670397765" lon="10.643105976766591"><ele>30.666666666666668</ele><time>2026-03-24T16:55:01Z</time></trkpt><trkpt lat="43.3402223721673" lon="10.643336328810816"><ele>31.0</ele><time>2026-03-24T16:55:02Z</time></trkpt><trkpt lat="43.340106784946094" lon="10.643583367464855"><ele>31.333333333333336</ele><time>2026-03-24T16:55:03Z</time></trkpt><trkpt lat="43.340002212731456" lon="10.643858387334491"><ele>31.666666666666664</ele><time>2026-03-24T16:55:04Z</time></trkpt><trkpt lat="43.33991590620094" lon="10.644137637574998"><ele>32.0</ele><time>2026-03-24T16:55:05Z</time></trkpt><trkpt lat="43.339845277735336" lon="10.644410978836635"><ele>31.666666666666664</ele><time>2026-03-24T16:55:06Z</time></trkpt><trkpt lat="43.33978008003537" lon="10.64468076366501"><ele>31.333333333333336</ele><time>2026-03-24T16:55:07Z</time></trkpt><trkpt lat="43.3397142180634" lon="10.64495177702064"><ele>31.0</ele><time>2026-03-24T16:55:08Z</time></trkpt><trkpt lat="43.339646622960466" lon="10.645227767998202"><ele>31.0</ele><time>2026-03-24T16:55:09Z</time></trkpt><trkpt lat="43.33957614122254" lon="10.645501583913228"><ele>31.0</ele><time>2026-03-24T16:55:10Z</time></trkpt><trkpt lat="43.33950786144516" lon="10.645793195521183"><ele>31.0</ele><time>2026-03-24T16:55:11Z</time></trkpt><trkpt lat="43.339444123006544" lon="10.646106585912305"><ele>31.5</ele><time>2026-03-24T16:55:12Z</time></trkpt><trkpt lat="43.33937449523083" lon="10.646446238311812"><ele>32.0</ele><time>2026-03-24T16:55:13Z</time></trkpt><trkpt lat="43.339290783502925" lon="10.646795335966802"><ele>32.0</ele><time>2026-03-24T16:55:14Z</time></trkpt><trkpt lat="43.33919353784788" lon="10.647156002477802"><ele>32.0</ele><time>2026-03-24T16:55:15Z</time></trkpt><trkpt lat="43.33909076878884" lon="10.647519894701023"><ele>32.0</ele><time>2026-03-24T16:55:16Z</time></trkpt><trkpt lat="43.33899501819651" lon="10.647889429201937"><ele>32.0</ele><time>2026-03-24T16:55:17Z</time></trkpt><trkpt lat="43.33890359377294" lon="10.648269264711427"><ele>32.0</ele><time>2026-03-24T16:55:18Z</time></trkpt><trkpt lat="43.338800025703506" lon="10.648641026112566"><ele>32.0</ele><time>2026-03-24T16:55:19Z</time></trkpt><trkpt lat="43.33867255724495" lon="10.64901628031575"><ele>32.0</ele><time>2026-03-24T16:55:20Z</time></trkpt><trkpt lat="43.33852515318543" lon="10.649385523810963"><ele>32.0</ele><time>2026-03-24T16:55:21Z</time></trkpt><trkpt lat="43.338361953621444" lon="10.649742516086034"><ele>32.0</ele><time>2026-03-24T16:55:22Z</time></trkpt><trkpt lat="43.33817887517917" lon="10.650091069746885"><ele>32.0</ele><time>2026-03-24T16:55:23Z</time></trkpt><trkpt lat="43.33798089274329" lon="10.650414309765486"><ele>31.5</ele><time>2026-03-24T16:55:24Z</time></trkpt><trkpt lat="43.33778739982391" lon="10.650691568433034"><ele>31.0</ele><time>2026-03-24T16:55:25Z</time></trkpt><trkpt lat="43.337603427013384" lon="10.65094793312575"><ele>31.5</ele><time>2026-03-24T16:55:26Z</time></trkpt><trkpt lat="43.33742031527178" lon="10.651208843531812"><ele>32.0</ele><time>2026-03-24T16:55:27Z</time></trkpt><trkpt lat="43.337245120528614" lon="10.651474513034344"><ele>32.0</ele><time>2026-03-24T16:55:28Z</time></trkpt><trkpt lat="43.33708685658601" lon="10.65171613399162"><ele>32.0</ele><time>2026-03-24T16:55:29Z</time></trkpt><trkpt lat="43.33694609962698" lon="10.651925798108733"><ele>32.0</ele><time>2026-03-24T16:55:30Z</time></trkpt><trkpt lat="43.33681982151997" lon="10.652106307645868"><ele>32.33333333333333</ele><time>2026-03-24T16:55:31Z</time></trkpt><trkpt lat="43.33671308653798" lon="10.652265172832605"><ele>32.666666666666664</ele><time>2026-03-24T16:55:32Z</time></trkpt><trkpt lat="43.33661257541853" lon="10.652409767344935"><ele>33.0</ele><time>2026-03-24T16:55:33Z</time></trkpt><trkpt lat="43.33649132339358" lon="10.652550291663083"><ele>33.0</ele><time>2026-03-24T16:55:34Z</time></trkpt><trkpt lat="43.33635890262529" lon="10.652652136540558"><ele>33.0</ele><time>2026-03-24T16:55:35Z</time></trkpt><trkpt lat="43.336255764569756" lon="10.652787729485988"><ele>33.0</ele><time>2026-03-24T16:55:36Z</time></trkpt><trkpt lat="43.33618222575759" lon="10.652987417456503"><ele>33.0</ele><time>2026-03-24T16:55:37Z</time></trkpt><trkpt lat="43.336092320004575" lon="10.653217796481876"><ele>33.0</ele><time>2026-03-24T16:55:38Z</time></trkpt><trkpt lat="43.335953725052484" lon="10.653444237268374"><ele>33.0</ele><time>2026-03-24T16:55:39Z</time></trkpt><trkpt lat="43.33580282884916" lon="10.653679977970635"><ele>31.5</ele><time>2026-03-24T16:55:40Z</time></trkpt><trkpt lat="43.33565108917056" lon="10.653938421833722"><ele>30.0</ele><time>2026-03-24T16:55:41Z</time></trkpt><trkpt lat="43.33549467535666" lon="10.654212018384683"><ele>31.5</ele><time>2026-03-24T16:55:42Z</time></trkpt><trkpt lat="43.33534073318226" lon="10.654485687677356"><ele>33.0</ele><time>2026-03-24T16:55:43Z</time></trkpt><trkpt lat="43.335179905706894" lon="10.654775510395188"><ele>33.0</ele><time>2026-03-24T16:55:44Z</time></trkpt><trkpt lat="43.335016320713926" lon="10.655076756537662"><ele>33.0</ele><time>2026-03-24T16:55:45Z</time></trkpt><trkpt lat="43.33485348069058" lon="10.655383750849058"><ele>32.0</ele><time>2026-03-24T16:55:46Z</time></trkpt><trkpt lat="43.33469012369942" lon="10.655699778136066"><ele>31.0</ele><time>2026-03-24T16:55:47Z</time></trkpt><trkpt lat="43.33451863611416" lon="10.656020252023463"><ele>32.0</ele><time>2026-03-24T16:55:48Z</time></trkpt><trkpt lat="43.33433723024964" lon="10.656344229710168"><ele>33.0</ele><time>2026-03-24T16:55:49Z</time></trkpt><trkpt lat="43.33415808734582" lon="10.656664075505912"><ele>32.5</ele><time>2026-03-24T16:55:50Z</time></trkpt><trkpt lat="43.33397572663417" lon="10.656996273720596"><ele>32.0</ele><time>2026-03-24T16:55:51Z</time></trkpt><trkpt lat="43.33379031693481" lon="10.657332520249868"><ele>32.0</ele><time>2026-03-24T16:55:52Z</time></trkpt><trkpt lat="43.33360656429045" lon="10.657672997820564"><ele>32.0</ele><time>2026-03-24T16:55:53Z</time></trkpt><trkpt lat="43.33342307694699" lon="10.658014984940028"><ele>32.0</ele><time>2026-03-24T16:55:54Z</time></trkpt><trkpt lat="43.33323695847167" lon="10.65835908573274"><ele>32.0</ele><time>2026-03-24T16:55:55Z</time></trkpt><trkpt lat="43.33305055458688" lon="10.658699417088302"><ele>33.5</ele><time>2026-03-24T16:55:56Z</time></trkpt><trkpt lat="43.33286237374976" lon="10.659039827737965"><ele>35.0</ele><time>2026-03-24T16:55:57Z</time></trkpt><trkpt lat="43.33267425274787" lon="10.65938350299639"><ele>37.0</ele><time>2026-03-24T16:55:58Z</time></trkpt><trkpt lat="43.33248369008471" lon="10.65972388025878"><ele>39.0</ele><time>2026-03-24T16:55:59Z</time></trkpt><trkpt lat="43.33228820824444" lon="10.660058431661676"><ele>37.5</ele><time>2026-03-24T16:56:00Z</time></trkpt><trkpt lat="43.332077586790845" lon="10.660384169568971"><ele>36.0</ele><time>2026-03-24T16:56:01Z</time></trkpt><trkpt lat="43.33185686760037" lon="10.660691724659536"><ele>36.0</ele><time>2026-03-24T16:56:02Z</time></trkpt><trkpt lat="43.33163272690488" lon="10.660933776738192"><ele>36.0</ele><time>2026-03-24T16:56:03Z</time></trkpt><trkpt lat="43.331359933222245" lon="10.661209326801202"><ele>38.0</ele><time>2026-03-24T16:56:04Z</time></trkpt><trkpt lat="43.33107020088381" lon="10.661481139968704"><ele>40.0</ele><time>2026-03-24T16:56:05Z</time></trkpt><trkpt lat="43.33077899210145" lon="10.661702935539045"><ele>39.0</ele><time>2026-03-24T16:56:06Z</time></trkpt><trkpt lat="43.330476210664024" lon="10.661883497598364"><ele>38.0</ele><time>2026-03-24T16:56:07Z</time></trkpt><trkpt lat="43.33016337250762" lon="10.662021643008107"><ele>38.0</ele><time>2026-03-24T16:56:08Z</time></trkpt><trkpt lat="43.329862205722094" lon="10.662158287555066"><ele>38.0</ele><time>2026-03-24T16:56:09Z</time></trkpt><trkpt lat="43.32959652099633" lon="10.662272246195776"><ele>36.5</ele><time>2026-03-24T16:56:10Z</time></trkpt><trkpt lat="43.32935362311566" lon="10.662390382313436"><ele>35.0</ele><time>2026-03-24T16:56:11Z</time></trkpt><trkpt lat="43.329134115883" lon="10.662527125379277"><ele>35.0</ele><time>2026-03-24T16:56:12Z</time></trkpt><trkpt lat="43.32893670124465" lon="10.662712507522313"><ele>35.0</ele><time>2026-03-24T16:56:13Z</time></trkpt><trkpt lat="43.3287603531129" lon="10.662943508762833"><ele>35.0</ele><time>2026-03-24T16:56:14Z</time></trkpt><trkpt lat="43.328619052765795" lon="10.663214333161529"><ele>35.0</ele><time>2026-03-24T16:56:15Z</time></trkpt><trkpt lat="43.3285124264241" lon="10.663523371610005"><ele>35.0</ele><time>2026-03-24T16:56:16Z</time></trkpt><trkpt lat="43.328447691457185" lon="10.66388095143749"><ele>35.0</ele><time>2026-03-24T16:56:17Z</time></trkpt><trkpt lat="43.32842169828106" lon="10.664237291529119"><ele>36.5</ele><time>2026-03-24T16:56:18Z</time></trkpt><trkpt lat="43.32843823308835" lon="10.664566290490477"><ele>38.0</ele><time>2026-03-24T16:56:19Z</time></trkpt><trkpt lat="43.328468929529976" lon="10.664858186962796"><ele>38.0</ele><time>2026-03-24T16:56:20Z</time></trkpt><trkpt lat="43.328493393297464" lon="10.665124695325789"><ele>38.0</ele><time>2026-03-24T16:56:21Z</time></trkpt><trkpt lat="43.32850956675799" lon="10.665378620119979"><ele>38.0</ele><time>2026-03-24T16:56:22Z</time></trkpt><trkpt lat="43.32852454628446" lon="10.665619815485083"><ele>38.0</ele><time>2026-03-24T16:56:23Z</time></trkpt><trkpt lat="43.328543194463904" lon="10.665842269398256"><ele>38.0</ele><time>2026-03-24T16:56:24Z</time></trkpt><trkpt lat="43.32857384886616" lon="10.666065180303047"><ele>38.0</ele><time>2026-03-24T16:56:25Z</time></trkpt><trkpt lat="43.32861119671341" lon="10.666302757256286"><ele>37.666666666666664</ele><time>2026-03-24T16:56:26Z</time></trkpt><trkpt lat="43.328648281009016" lon="10.666552458346997"><ele>37.333333333333336</ele><time>2026-03-24T16:56:27Z</time></trkpt><trkpt lat="43.328684169897905" lon="10.666817026226687"><ele>37.0</ele><time>2026-03-24T16:56:28Z</time></trkpt><trkpt lat="43.328727902397326" lon="10.667100204118565"><ele>37.0</ele><time>2026-03-24T16:56:29Z</time></trkpt><trkpt lat="43.32877895527466" lon="10.667400711272407"><ele>37.0</ele><time>2026-03-24T16:56:30Z</time></trkpt><trkpt lat="43.328830236618714" lon="10.667716871531574"><ele>36.5</ele><time>2026-03-24T16:56:31Z</time></trkpt><trkpt lat="43.32887895486726" lon="10.66802818069433"><ele>36.0</ele><time>2026-03-24T16:56:32Z</time></trkpt><trkpt lat="43.328928073841446" lon="10.668339177830891"><ele>35.333333333333336</ele><time>2026-03-24T16:56:33Z</time></trkpt><trkpt lat="43.32897285012118" lon="10.66863399531746"><ele>34.66666666666667</ele><time>2026-03-24T16:56:34Z</time></trkpt><trkpt lat="43.32901425116108" lon="10.668906804393913"><ele>34.0</ele><time>2026-03-24T16:56:35Z</time></trkpt><trkpt lat="43.32905104783505" lon="10.669161177998024"><ele>34.0</ele><time>2026-03-24T16:56:36Z</time></trkpt><trkpt lat="43.3290838589043" lon="10.669386699624752"><ele>34.0</ele><time>2026-03-24T16:56:37Z</time></trkpt><trkpt lat="43.32912326450373" lon="10.669591323804918"><ele>34.0</ele><time>2026-03-24T16:56:38Z</time></trkpt><trkpt lat="43.329143432596915" lon="10.669792853442788"><ele>34.25</ele><time>2026-03-24T16:56:39Z</time></trkpt><trkpt lat="43.329178850782846" lon="10.669976775261137"><ele>34.5</ele><time>2026-03-24T16:56:40Z</time></trkpt><trkpt lat="43.329131279241686" lon="10.6701446531563"><ele>34.75</ele><time>2026-03-24T16:56:41Z</time></trkpt><trkpt lat="43.329033463223716" lon="10.670310098369562"><ele>35.0</ele><time>2026-03-24T16:56:42Z</time></trkpt><trkpt lat="43.3288930445417" lon="10.670459735599435"><ele>35.33333333333333</ele><time>2026-03-24T16:56:43Z</time></trkpt><trkpt lat="43.32871767668748" lon="10.670557215923088"><ele>35.666666666666664</ele><time>2026-03-24T16:56:44Z</time></trkpt><trkpt lat="43.328532121102214" lon="10.6705963862292"><ele>36.0</ele><time>2026-03-24T16:56:45Z</time></trkpt><trkpt lat="43.32832694502885" lon="10.670576986342008"><ele>36.0</ele><time>2026-03-24T16:56:46Z</time></trkpt><trkpt lat="43.32810315469949" lon="10.670535444548811"><ele>36.0</ele><time>2026-03-24T16:56:47Z</time></trkpt><trkpt lat="43.32786588234971" lon="10.670486328423095"><ele>36.5</ele><time>2026-03-24T16:56:48Z</time></trkpt><trkpt lat="43.32762793047544" lon="10.670443886653558"><ele>37.0</ele><time>2026-03-24T16:56:49Z</time></trkpt><trkpt lat="43.32737068823209" lon="10.670393388912602"><ele>37.5</ele><time>2026-03-24T16:56:50Z</time></trkpt><trkpt lat="43.327101281096695" lon="10.670336050085586"><ele>38.0</ele><time>2026-03-24T16:56:51Z</time></trkpt><trkpt lat="43.326818495626036" lon="10.670277472467676"><ele>37.0</ele><time>2026-03-24T16:56:52Z</time></trkpt><trkpt lat="43.326532098392995" lon="10.670222551615359"><ele>36.0</ele><time>2026-03-24T16:56:53Z</time></trkpt><trkpt lat="43.32627322379544" lon="10.670175312048377"><ele>36.0</ele><time>2026-03-24T16:56:54Z</time></trkpt><trkpt lat="43.32597544717321" lon="10.670113006377536"><ele>36.0</ele><time>2026-03-24T16:56:55Z</time></trkpt><trkpt lat="43.32574111647967" lon="10.670070733725149"><ele>36.0</ele><time>2026-03-24T16:56:56Z</time></trkpt><trkpt lat="43.32551077219007" lon="10.670027983520676"><ele>36.0</ele><time>2026-03-24T16:56:57Z</time></trkpt><trkpt lat="43.325286761537356" lon="10.669984716720919"><ele>36.0</ele><time>2026-03-24T16:56:58Z</time></trkpt><trkpt lat="43.325067119725276" lon="10.669943947008333"><ele>36.0</ele><time>2026-03-24T16:56:59Z</time></trkpt><trkpt lat="43.324841892490056" lon="10.669900901584674"><ele>36.0</ele><time>2026-03-24T16:57:00Z</time></trkpt><trkpt lat="43.32460017771159" lon="10.669859960562686"><ele>36.0</ele><time>2026-03-24T16:57:01Z</time></trkpt><trkpt lat="43.32434013059239" lon="10.669831424780918"><ele>36.0</ele><time>2026-03-24T16:57:02Z</time></trkpt><trkpt lat="43.32406395149375" lon="10.669820286080359"><ele>35.0</ele><time>2026-03-24T16:57:03Z</time></trkpt><trkpt lat="43.32378130788858" lon="10.66982535068671"><ele>34.0</ele><time>2026-03-24T16:57:04Z</time></trkpt><trkpt lat="43.3234864561729" lon="10.669836905488259"><ele>34.0</ele><time>2026-03-24T16:57:05Z</time></trkpt><trkpt lat="43.32317647106194" lon="10.669848790873166"><ele>34.0</ele><time>2026-03-24T16:57:06Z</time></trkpt><trkpt lat="43.32286601927038" lon="10.66985387616319"><ele>35.5</ele><time>2026-03-24T16:57:07Z</time></trkpt><trkpt lat="43.32253899094114" lon="10.66986067165318"><ele>37.0</ele><time>2026-03-24T16:57:08Z</time></trkpt><trkpt lat="43.32220935196979" lon="10.669856172336678"><ele>37.0</ele><time>2026-03-24T16:57:09Z</time></trkpt><trkpt lat="43.32188380436662" lon="10.669851675276755"><ele>37.0</ele><time>2026-03-24T16:57:10Z</time></trkpt><trkpt lat="43.32155067546331" lon="10.669852840563768"><ele>37.0</ele><time>2026-03-24T16:57:11Z</time></trkpt><trkpt lat="43.32121340637955" lon="10.669862578724041"><ele>37.0</ele><time>2026-03-24T16:57:12Z</time></trkpt><trkpt lat="43.32087314860226" lon="10.669883796648186"><ele>37.0</ele><time>2026-03-24T16:57:13Z</time></trkpt><trkpt lat="43.320531835832846" lon="10.669915016426437"><ele>37.0</ele><time>2026-03-24T16:57:14Z</time></trkpt><trkpt lat="43.32019147403362" lon="10.669972435829017"><ele>37.0</ele><time>2026-03-24T16:57:15Z</time></trkpt><trkpt lat="43.31985266177167" lon="10.670054195047173"><ele>37.0</ele><time>2026-03-24T16:57:16Z</time></trkpt><trkpt lat="43.31950699019407" lon="10.670155206540855"><ele>36.5</ele><time>2026-03-24T16:57:17Z</time></trkpt><trkpt lat="43.31917140699512" lon="10.670267708016993"><ele>36.0</ele><time>2026-03-24T16:57:18Z</time></trkpt><trkpt lat="43.31883692483131" lon="10.67040468165254"><ele>36.0</ele><time>2026-03-24T16:57:19Z</time></trkpt><trkpt lat="43.318509257968415" lon="10.670561150820676"><ele>36.0</ele><time>2026-03-24T16:57:20Z</time></trkpt><trkpt lat="43.318184102606104" lon="10.670742909062438"><ele>36.5</ele><time>2026-03-24T16:57:21Z</time></trkpt><trkpt lat="43.317864629383045" lon="10.670939384617254"><ele>37.0</ele><time>2026-03-24T16:57:22Z</time></trkpt><trkpt lat="43.31755049293957" lon="10.67115905187185"><ele>37.5</ele><time>2026-03-24T16:57:23Z</time></trkpt><trkpt lat="43.31724366715698" lon="10.67139330406875"><ele>38.0</ele><time>2026-03-24T16:57:24Z</time></trkpt><trkpt lat="43.316942558718594" lon="10.671643712434205"><ele>38.5</ele><time>2026-03-24T16:57:25Z</time></trkpt><trkpt lat="43.31664336944696" lon="10.671905156659534"><ele>39.0</ele><time>2026-03-24T16:57:26Z</time></trkpt><trkpt lat="43.316350832819175" lon="10.672167960547931"><ele>39.0</ele><time>2026-03-24T16:57:27Z</time></trkpt><trkpt lat="43.316054818558584" lon="10.672431752675458"><ele>39.0</ele><time>2026-03-24T16:57:28Z</time></trkpt><trkpt lat="43.31575798070291" lon="10.672690166815894"><ele>40.0</ele><time>2026-03-24T16:57:29Z</time></trkpt><trkpt lat="43.31546119199824" lon="10.672947816801681"><ele>41.0</ele><time>2026-03-24T16:57:30Z</time></trkpt><trkpt lat="43.31516590072621" lon="10.673207843652559"><ele>41.0</ele><time>2026-03-24T16:57:31Z</time></trkpt><trkpt lat="43.31487278899514" lon="10.67346985607456"><ele>41.0</ele><time>2026-03-24T16:57:32Z</time></trkpt><trkpt lat="43.31458132381677" lon="10.673748583669852"><ele>39.5</ele><time>2026-03-24T16:57:33Z</time></trkpt><trkpt lat="43.31430051057038" lon="10.674044784216138"><ele>38.0</ele><time>2026-03-24T16:57:34Z</time></trkpt><trkpt lat="43.3140295257831" lon="10.674359145319043"><ele>39.5</ele><time>2026-03-24T16:57:35Z</time></trkpt><trkpt lat="43.31376179913389" lon="10.674683134128431"><ele>41.0</ele><time>2026-03-24T16:57:36Z</time></trkpt><trkpt lat="43.313493074799304" lon="10.675001588317949"><ele>40.5</ele><time>2026-03-24T16:57:37Z</time></trkpt><trkpt lat="43.313222680201456" lon="10.675316066786898"><ele>40.0</ele><time>2026-03-24T16:57:38Z</time></trkpt><trkpt lat="43.31295445723596" lon="10.6756307010645"><ele>39.5</ele><time>2026-03-24T16:57:39Z</time></trkpt><trkpt lat="43.31268688752979" lon="10.675949855630394"><ele>39.0</ele><time>2026-03-24T16:57:40Z</time></trkpt><trkpt lat="43.312418131434974" lon="10.676265791008197"><ele>39.0</ele><time>2026-03-24T16:57:41Z</time></trkpt><trkpt lat="43.31214991224033" lon="10.67658247595333"><ele>39.0</ele><time>2026-03-24T16:57:42Z</time></trkpt><trkpt lat="43.311882453591295" lon="10.6769008974988"><ele>38.5</ele><time>2026-03-24T16:57:43Z</time></trkpt><trkpt lat="43.3116140638058" lon="10.677219400209177"><ele>38.0</ele><time>2026-03-24T16:57:44Z</time></trkpt><trkpt lat="43.31134586252208" lon="10.67753422056046"><ele>38.5</ele><time>2026-03-24T16:57:45Z</time></trkpt><trkpt lat="43.31107687204813" lon="10.677850395345192"><ele>39.0</ele><time>2026-03-24T16:57:46Z</time></trkpt><trkpt lat="43.31081088330846" lon="10.678170640757088"><ele>39.0</ele><time>2026-03-24T16:57:47Z</time></trkpt><trkpt lat="43.31054629484566" lon="10.678489147241107"><ele>39.0</ele><time>2026-03-24T16:57:48Z</time></trkpt><trkpt lat="43.310279726508654" lon="10.678808644453392"><ele>39.0</ele><time>2026-03-24T16:57:49Z</time></trkpt><trkpt lat="43.31001373252858" lon="10.679127569779622"><ele>39.0</ele><time>2026-03-24T16:57:50Z</time></trkpt><trkpt lat="43.30974558665272" lon="10.679449465828357"><ele>39.5</ele><time>2026-03-24T16:57:51Z</time></trkpt><trkpt lat="43.30947193713649" lon="10.679743450134403"><ele>40.0</ele><time>2026-03-24T16:57:52Z</time></trkpt><trkpt lat="43.30923299553023" lon="10.680049071314805"><ele>41.0</ele><time>2026-03-24T16:57:53Z</time></trkpt><trkpt lat="43.308978832825844" lon="10.680342228939567"><ele>42.0</ele><time>2026-03-24T16:57:54Z</time></trkpt><trkpt lat="43.30872246310123" lon="10.68064040222079"><ele>42.5</ele><time>2026-03-24T16:57:55Z</time></trkpt><trkpt lat="43.30846385209347" lon="10.680947855352636"><ele>43.0</ele><time>2026-03-24T16:57:56Z</time></trkpt><trkpt lat="43.30821126612846" lon="10.681260177332748"><ele>42.5</ele><time>2026-03-24T16:57:57Z</time></trkpt><trkpt lat="43.307974026662215" lon="10.681595111739739"><ele>42.0</ele><time>2026-03-24T16:57:58Z</time></trkpt><trkpt lat="43.30775380409522" lon="10.681952043288229"><ele>45.5</ele><time>2026-03-24T16:57:59Z</time></trkpt><trkpt lat="43.3075544332257" lon="10.682341066463515"><ele>49.0</ele><time>2026-03-24T16:58:00Z</time></trkpt><trkpt lat="43.30735134719435" lon="10.682721503712767"><ele>46.0</ele><time>2026-03-24T16:58:01Z</time></trkpt><trkpt lat="43.30714380904795" lon="10.683106932349917"><ele>43.0</ele><time>2026-03-24T16:58:02Z</time></trkpt><trkpt lat="43.30694231231701" lon="10.68349845392049"><ele>43.5</ele><time>2026-03-24T16:58:03Z</time></trkpt><trkpt lat="43.30673530068322" lon="10.683888242265446"><ele>44.0</ele><time>2026-03-24T16:58:04Z</time></trkpt><trkpt lat="43.30652440559623" lon="10.68427585191839"><ele>43.5</ele><time>2026-03-24T16:58:05Z</time></trkpt><trkpt lat="43.306312232085624" lon="10.684662506888289"><ele>43.0</ele><time>2026-03-24T16:58:06Z</time></trkpt><trkpt lat="43.30610780496893" lon="10.685052788417662"><ele>44.0</ele><time>2026-03-24T16:58:07Z</time></trkpt><trkpt lat="43.30590214550062" lon="10.685443820134743"><ele>45.0</ele><time>2026-03-24T16:58:08Z</time></trkpt><trkpt lat="43.305666909047865" lon="10.685793664386003"><ele>45.5</ele><time>2026-03-24T16:58:09Z</time></trkpt><trkpt lat="43.30541689324565" lon="10.68612058838283"><ele>46.0</ele><time>2026-03-24T16:58:10Z</time></trkpt><trkpt lat="43.305156294386386" lon="10.686435253198255"><ele>46.0</ele><time>2026-03-24T16:58:11Z</time></trkpt><trkpt lat="43.30487223540446" lon="10.686709872838966"><ele>46.0</ele><time>2026-03-24T16:58:12Z</time></trkpt><trkpt lat="43.30459074444483" lon="10.686997677455704"><ele>47.0</ele><time>2026-03-24T16:58:13Z</time></trkpt><trkpt lat="43.30431296332286" lon="10.687295754512283"><ele>48.0</ele><time>2026-03-24T16:58:14Z</time></trkpt><trkpt lat="43.30403840475336" lon="10.687597119880653"><ele>47.0</ele><time>2026-03-24T16:58:15Z</time></trkpt><trkpt lat="43.30375824055434" lon="10.687895284845629"><ele>46.0</ele><time>2026-03-24T16:58:16Z</time></trkpt><trkpt lat="43.30347451024592" lon="10.68819221346409"><ele>46.0</ele><time>2026-03-24T16:58:17Z</time></trkpt><trkpt lat="43.30319788004884" lon="10.688480739806456"><ele>46.0</ele><time>2026-03-24T16:58:18Z</time></trkpt><trkpt lat="43.30294567325835" lon="10.68874489973325"><ele>46.0</ele><time>2026-03-24T16:58:19Z</time></trkpt><trkpt lat="43.30269645701228" lon="10.689008680131908"><ele>46.0</ele><time>2026-03-24T16:58:20Z</time></trkpt><trkpt lat="43.30244681653878" lon="10.689293127785826"><ele>45.0</ele><time>2026-03-24T16:58:21Z</time></trkpt><trkpt lat="43.30221035320111" lon="10.689614050911468"><ele>44.0</ele><time>2026-03-24T16:58:22Z</time></trkpt><trkpt lat="43.301991854111016" lon="10.68996352038697"><ele>46.0</ele><time>2026-03-24T16:58:23Z</time></trkpt><trkpt lat="43.30177972281202" lon="10.690334029414059"><ele>48.0</ele><time>2026-03-24T16:58:24Z</time></trkpt><trkpt lat="43.30156544671192" lon="10.690699963783302"><ele>48.5</ele><time>2026-03-24T16:58:25Z</time></trkpt><trkpt lat="43.301341709464" lon="10.691059071205245"><ele>49.0</ele><time>2026-03-24T16:58:26Z</time></trkpt><trkpt lat="43.301126664858984" lon="10.691432547222913"><ele>49.0</ele><time>2026-03-24T16:58:27Z</time></trkpt><trkpt lat="43.30090501754094" lon="10.691796001576797"><ele>49.0</ele><time>2026-03-24T16:58:28Z</time></trkpt><trkpt lat="43.30064852616851" lon="10.692113203416215"><ele>48.0</ele><time>2026-03-24T16:58:29Z</time></trkpt><trkpt lat="43.30037055530834" lon="10.692401204163065"><ele>47.0</ele><time>2026-03-24T16:58:30Z</time></trkpt><trkpt lat="43.30008027883686" lon="10.692677280193076"><ele>46.5</ele><time>2026-03-24T16:58:31Z</time></trkpt><trkpt lat="43.29978724397386" lon="10.692940599161757"><ele>46.0</ele><time>2026-03-24T16:58:32Z</time></trkpt><trkpt lat="43.299498793290724" lon="10.693219440582833"><ele>46.0</ele><time>2026-03-24T16:58:33Z</time></trkpt><trkpt lat="43.29920034300531" lon="10.693476359374744"><ele>46.0</ele><time>2026-03-24T16:58:34Z</time></trkpt><trkpt lat="43.2989046788853" lon="10.69373713840328"><ele>46.0</ele><time>2026-03-24T16:58:35Z</time></trkpt><trkpt lat="43.2986122255948" lon="10.694004294522005"><ele>46.0</ele><time>2026-03-24T16:58:36Z</time></trkpt><trkpt lat="43.298318769388445" lon="10.694273446292733"><ele>48.0</ele><time>2026-03-24T16:58:37Z</time></trkpt><trkpt lat="43.29803095278824" lon="10.694534400820075"><ele>50.0</ele><time>2026-03-24T16:58:38Z</time></trkpt><trkpt lat="43.297743368359384" lon="10.694788904831741"><ele>50.0</ele><time>2026-03-24T16:58:39Z</time></trkpt><trkpt lat="43.29745910740215" lon="10.695046974417195"><ele>50.0</ele><time>2026-03-24T16:58:40Z</time></trkpt><trkpt lat="43.29716983253164" lon="10.695305587488477"><ele>50.0</ele><time>2026-03-24T16:58:41Z</time></trkpt><trkpt lat="43.29687664184955" lon="10.695565743750052"><ele>50.0</ele><time>2026-03-24T16:58:42Z</time></trkpt><trkpt lat="43.29658398590582" lon="10.695830575828971"><ele>51.0</ele><time>2026-03-24T16:58:43Z</time></trkpt><trkpt lat="43.29628982209557" lon="10.696100072802828"><ele>52.0</ele><time>2026-03-24T16:58:44Z</time></trkpt><trkpt lat="43.29599766077811" lon="10.696366609097456"><ele>52.0</ele><time>2026-03-24T16:58:45Z</time></trkpt><trkpt lat="43.29570304300927" lon="10.696637187597762"><ele>52.0</ele><time>2026-03-24T16:58:46Z</time></trkpt><trkpt lat="43.295407527881146" lon="10.696903872701036"><ele>51.5</ele><time>2026-03-24T16:58:47Z</time></trkpt><trkpt lat="43.295116529224295" lon="10.697167837516467"><ele>51.0</ele><time>2026-03-24T16:58:48Z</time></trkpt><trkpt lat="43.29482226079323" lon="10.697401423302265"><ele>51.0</ele><time>2026-03-24T16:58:49Z</time></trkpt><trkpt lat="43.29457490733432" lon="10.697643298226648"><ele>51.0</ele><time>2026-03-24T16:58:50Z</time></trkpt><trkpt lat="43.2943344871296" lon="10.697867626643644"><ele>51.0</ele><time>2026-03-24T16:58:51Z</time></trkpt><trkpt lat="43.294100682402544" lon="10.698074103374065"><ele>51.0</ele><time>2026-03-24T16:58:52Z</time></trkpt><trkpt lat="43.2938402447149" lon="10.698287009234237"><ele>51.0</ele><time>2026-03-24T16:58:53Z</time></trkpt><trkpt lat="43.29354775522238" lon="10.69846553067874"><ele>51.0</ele><time>2026-03-24T16:58:54Z</time></trkpt><trkpt lat="43.29333391046942" lon="10.698577292570752"><ele>54.5</ele><time>2026-03-24T16:58:55Z</time></trkpt><trkpt lat="43.29303933047449" lon="10.698714830209175"><ele>58.0</ele><time>2026-03-24T16:58:56Z</time></trkpt><trkpt lat="43.2927433541382" lon="10.69885115312167"><ele>58.0</ele><time>2026-03-24T16:58:57Z</time></trkpt><trkpt lat="43.29244445545941" lon="10.698983394314126"><ele>58.0</ele><time>2026-03-24T16:58:58Z</time></trkpt><trkpt lat="43.29214383595897" lon="10.699120434335342"><ele>55.0</ele><time>2026-03-24T16:58:59Z</time></trkpt><trkpt lat="43.29186461906015" lon="10.699246729795286"><ele>52.0</ele><time>2026-03-24T16:59:00Z</time></trkpt><trkpt lat="43.29155762804429" lon="10.699326930118618"><ele>51.0</ele><time>2026-03-24T16:59:01Z</time></trkpt><trkpt lat="43.29124107077317" lon="10.699349327287054"><ele>50.0</ele><time>2026-03-24T16:59:02Z</time></trkpt><trkpt lat="43.29092366937579" lon="10.699307356555162"><ele>50.0</ele><time>2026-03-24T16:59:03Z</time></trkpt><trkpt lat="43.29059676268563" lon="10.699247935678947"><ele>50.0</ele><time>2026-03-24T16:59:04Z</time></trkpt><trkpt lat="43.2902651231361" lon="10.699210607914758"><ele>51.5</ele><time>2026-03-24T16:59:05Z</time></trkpt><trkpt lat="43.28993287982622" lon="10.699186811390884"><ele>53.0</ele><time>2026-03-24T16:59:06Z</time></trkpt><trkpt lat="43.289600366982754" lon="10.699164879037827"><ele>54.0</ele><time>2026-03-24T16:59:07Z</time></trkpt><trkpt lat="43.28926758361086" lon="10.699150273125332"><ele>55.0</ele><time>2026-03-24T16:59:08Z</time></trkpt><trkpt lat="43.28892920042841" lon="10.699135504500289"><ele>56.0</ele><time>2026-03-24T16:59:09Z</time></trkpt><trkpt lat="43.28859043622191" lon="10.69911459037503"><ele>57.0</ele><time>2026-03-24T16:59:10Z</time></trkpt><trkpt lat="43.28824908873632" lon="10.699077677254447"><ele>57.0</ele><time>2026-03-24T16:59:11Z</time></trkpt><trkpt lat="43.287912242106216" lon="10.699058595171948"><ele>57.0</ele><time>2026-03-24T16:59:12Z</time></trkpt><trkpt lat="43.2876122341365" lon="10.699052562920643"><ele>57.0</ele><time>2026-03-24T16:59:13Z</time></trkpt><trkpt lat="43.287312648299086" lon="10.699092769640203"><ele>57.0</ele><time>2026-03-24T16:59:14Z</time></trkpt><trkpt lat="43.28701545952762" lon="10.699183293174356"><ele>56.5</ele><time>2026-03-24T16:59:15Z</time></trkpt><trkpt lat="43.28671978245836" lon="10.699315080057659"><ele>56.0</ele><time>2026-03-24T16:59:16Z</time></trkpt><trkpt lat="43.2864371605127" lon="10.699502137555177"><ele>57.0</ele><time>2026-03-24T16:59:17Z</time></trkpt><trkpt lat="43.28615917185342" lon="10.699737723363574"><ele>58.0</ele><time>2026-03-24T16:59:18Z</time></trkpt><trkpt lat="43.285876116507694" lon="10.699954572665375"><ele>58.0</ele><time>2026-03-24T16:59:19Z</time></trkpt><trkpt lat="43.28557763427583" lon="10.700147180591173"><ele>58.0</ele><time>2026-03-24T16:59:20Z</time></trkpt><trkpt lat="43.285276763218" lon="10.700343939701742"><ele>58.0</ele><time>2026-03-24T16:59:21Z</time></trkpt><trkpt lat="43.284974283190095" lon="10.700549267239905"><ele>58.0</ele><time>2026-03-24T16:59:22Z</time></trkpt><trkpt lat="43.284677287635915" lon="10.700754968259398"><ele>57.0</ele><time>2026-03-24T16:59:23Z</time></trkpt><trkpt lat="43.28437760845711" lon="10.700963227349321"><ele>56.0</ele><time>2026-03-24T16:59:24Z</time></trkpt><trkpt lat="43.28407110520367" lon="10.701171039511582"><ele>57.5</ele><time>2026-03-24T16:59:25Z</time></trkpt><trkpt lat="43.28376660275979" lon="10.701378003007521"><ele>59.0</ele><time>2026-03-24T16:59:26Z</time></trkpt><trkpt lat="43.283457492664056" lon="10.701584465264796"><ele>59.0</ele><time>2026-03-24T16:59:27Z</time></trkpt><trkpt lat="43.283149869302704" lon="10.701785489213501"><ele>59.0</ele><time>2026-03-24T16:59:28Z</time></trkpt><trkpt lat="43.282871690751854" lon="10.70198519350374"><ele>61.5</ele><time>2026-03-24T16:59:29Z</time></trkpt><trkpt lat="43.28260811913761" lon="10.702229860338921"><ele>64.0</ele><time>2026-03-24T16:59:30Z</time></trkpt><trkpt lat="43.282373751931324" lon="10.702530165599095"><ele>61.5</ele><time>2026-03-24T16:59:31Z</time></trkpt><trkpt lat="43.28213767681634" lon="10.702853014437345"><ele>59.0</ele><time>2026-03-24T16:59:32Z</time></trkpt><trkpt lat="43.28189318082893" lon="10.703166010260226"><ele>59.0</ele><time>2026-03-24T16:59:33Z</time></trkpt><trkpt lat="43.281645305118275" lon="10.703469648910339"><ele>59.0</ele><time>2026-03-24T16:59:34Z</time></trkpt><trkpt lat="43.28139572994867" lon="10.703777498852773"><ele>60.0</ele><time>2026-03-24T16:59:35Z</time></trkpt><trkpt lat="43.28115271371483" lon="10.704083537525879"><ele>61.0</ele><time>2026-03-24T16:59:36Z</time></trkpt><trkpt lat="43.28091308830575" lon="10.704377375763954"><ele>64.0</ele><time>2026-03-24T16:59:37Z</time></trkpt><trkpt lat="43.280646139194396" lon="10.70460955979596"><ele>67.0</ele><time>2026-03-24T16:59:38Z</time></trkpt><trkpt lat="43.28036825098909" lon="10.704800707503152"><ele>67.0</ele><time>2026-03-24T16:59:39Z</time></trkpt><trkpt lat="43.28008137763131" lon="10.704957262120079"><ele>67.0</ele><time>2026-03-24T16:59:40Z</time></trkpt><trkpt lat="43.27979179957189" lon="10.705128114284184"><ele>68.5</ele><time>2026-03-24T16:59:41Z</time></trkpt><trkpt lat="43.27948069959654" lon="10.705281254407291"><ele>70.0</ele><time>2026-03-24T16:59:42Z</time></trkpt><trkpt lat="43.27914464642237" lon="10.705447820010091"><ele>67.0</ele><time>2026-03-24T16:59:43Z</time></trkpt><trkpt lat="43.27885043315676" lon="10.70562338550378"><ele>64.0</ele><time>2026-03-24T16:59:44Z</time></trkpt><trkpt lat="43.27852376417437" lon="10.705795987267486"><ele>64.0</ele><time>2026-03-24T16:59:45Z</time></trkpt><trkpt lat="43.27836676374456" lon="10.705837140320895"><ele>64.0</ele><time>2026-03-24T16:59:46Z</time></trkpt><trkpt lat="43.27811608594726" lon="10.705865309471"><ele>64.0</ele><time>2026-03-24T16:59:47Z</time></trkpt><trkpt lat="43.277860665551316" lon="10.705849489176739"><ele>64.0</ele><time>2026-03-24T16:59:48Z</time></trkpt><trkpt lat="43.27758575644438" lon="10.70578519105585"><ele>64.0</ele><time>2026-03-24T16:59:49Z</time></trkpt><trkpt lat="43.277310594631814" lon="10.705709659069045"><ele>64.5</ele><time>2026-03-24T16:59:50Z</time></trkpt><trkpt lat="43.27701862624838" lon="10.705642925853207"><ele>65.0</ele><time>2026-03-24T16:59:51Z</time></trkpt><trkpt lat="43.27671998906485" lon="10.705559867264684"><ele>71.5</ele><time>2026-03-24T16:59:52Z</time></trkpt><trkpt lat="43.27641171404884" lon="10.70546991222668"><ele>78.0</ele><time>2026-03-24T16:59:53Z</time></trkpt><trkpt lat="43.276103337649026" lon="10.705382548282447"><ele>78.0</ele><time>2026-03-24T16:59:54Z</time></trkpt><trkpt lat="43.27579090972863" lon="10.705300255901701"><ele>78.0</ele><time>2026-03-24T16:59:55Z</time></trkpt><trkpt lat="43.27547367694546" lon="10.705213563323111"><ele>70.0</ele><time>2026-03-24T16:59:56Z</time></trkpt><trkpt lat="43.27515528300856" lon="10.705120501670786"><ele>62.0</ele><time>2026-03-24T16:59:57Z</time></trkpt><trkpt lat="43.27483334460639" lon="10.705035358661963"><ele>64.5</ele><time>2026-03-24T16:59:58Z</time></trkpt><trkpt lat="43.27451171592677" lon="10.704952346914226"><ele>67.0</ele><time>2026-03-24T16:59:59Z</time></trkpt><trkpt lat="43.27421998837969" lon="10.704867918769294"><ele>67.5</ele><time>2026-03-24T17:00:00Z</time></trkpt><trkpt lat="43.27393130806051" lon="10.704793769521807"><ele>68.0</ele><time>2026-03-24T17:00:01Z</time></trkpt><trkpt lat="43.27363671386394" lon="10.704759125565014"><ele>68.0</ele><time>2026-03-24T17:00:02Z</time></trkpt><trkpt lat="43.27334148619515" lon="10.704793607418397"><ele>68.0</ele><time>2026-03-24T17:00:03Z</time></trkpt><trkpt lat="43.27304722561678" lon="10.704900504655757"><ele>66.0</ele><time>2026-03-24T17:00:04Z</time></trkpt><trkpt lat="43.272748678523364" lon="10.705032950531923"><ele>64.0</ele><time>2026-03-24T17:00:05Z</time></trkpt><trkpt lat="43.272445902516246" lon="10.705162079611245"><ele>63.5</ele><time>2026-03-24T17:00:06Z</time></trkpt><trkpt lat="43.27214561385944" lon="10.705285048373328"><ele>63.0</ele><time>2026-03-24T17:00:07Z</time></trkpt><trkpt lat="43.271836787685736" lon="10.70540153451488"><ele>63.0</ele><time>2026-03-24T17:00:08Z</time></trkpt><trkpt lat="43.271526114275055" lon="10.705507952427133"><ele>63.0</ele><time>2026-03-24T17:00:09Z</time></trkpt><trkpt lat="43.2712127874121" lon="10.705618786402834"><ele>63.0</ele><time>2026-03-24T17:00:10Z</time></trkpt><trkpt lat="43.27090224075911" lon="10.705731515553193"><ele>63.0</ele><time>2026-03-24T17:00:11Z</time></trkpt><trkpt lat="43.27058581793574" lon="10.705846865367645"><ele>63.0</ele><time>2026-03-24T17:00:12Z</time></trkpt><trkpt lat="43.27026580197114" lon="10.70595921074768"><ele>63.0</ele><time>2026-03-24T17:00:13Z</time></trkpt><trkpt lat="43.26994456453916" lon="10.706075095234645"><ele>63.0</ele><time>2026-03-24T17:00:14Z</time></trkpt><trkpt lat="43.26962593031036" lon="10.706192713030825"><ele>63.0</ele><time>2026-03-24T17:00:15Z</time></trkpt><trkpt lat="43.26930664603697" lon="10.706304045556617"><ele>63.0</ele><time>2026-03-24T17:00:16Z</time></trkpt><trkpt lat="43.26900182885475" lon="10.706409459527961"><ele>63.0</ele><time>2026-03-24T17:00:17Z</time></trkpt><trkpt lat="43.26871402835773" lon="10.706516740517374"><ele>64.5</ele><time>2026-03-24T17:00:18Z</time></trkpt><trkpt lat="43.268420631655886" lon="10.706624815905965"><ele>66.0</ele><time>2026-03-24T17:00:19Z</time></trkpt><trkpt lat="43.268128402545635" lon="10.7067283421226"><ele>66.0</ele><time>2026-03-24T17:00:20Z</time></trkpt><trkpt lat="43.267870924403546" lon="10.706823775206765"><ele>66.0</ele><time>2026-03-24T17:00:21Z</time></trkpt><trkpt lat="43.26760756964073" lon="10.706874520795651"><ele>66.0</ele><time>2026-03-24T17:00:22Z</time></trkpt><trkpt lat="43.267346754995785" lon="10.706890380510071"><ele>66.0</ele><time>2026-03-24T17:00:23Z</time></trkpt><trkpt lat="43.26707267368087" lon="10.706879174824131"><ele>67.0</ele><time>2026-03-24T17:00:24Z</time></trkpt><trkpt lat="43.26679530346654" lon="10.70682040124506"><ele>68.0</ele><time>2026-03-24T17:00:25Z</time></trkpt><trkpt lat="43.26650192149913" lon="10.706779424635394"><ele>69.0</ele><time>2026-03-24T17:00:26Z</time></trkpt><trkpt lat="43.26619433926536" lon="10.706742109957682"><ele>70.0</ele><time>2026-03-24T17:00:27Z</time></trkpt><trkpt lat="43.2658902854514" lon="10.70670241176321"><ele>69.0</ele><time>2026-03-24T17:00:28Z</time></trkpt><trkpt lat="43.26557777877851" lon="10.706661680926869"><ele>68.0</ele><time>2026-03-24T17:00:29Z</time></trkpt><trkpt lat="43.26525976380404" lon="10.706619639155711"><ele>68.0</ele><time>2026-03-24T17:00:30Z</time></trkpt><trkpt lat="43.2649512968523" lon="10.706575487370428"><ele>68.0</ele><time>2026-03-24T17:00:31Z</time></trkpt><trkpt lat="43.26465635742787" lon="10.706544507037927"><ele>68.5</ele><time>2026-03-24T17:00:32Z</time></trkpt><trkpt lat="43.264370645588606" lon="10.70653959849647"><ele>69.0</ele><time>2026-03-24T17:00:33Z</time></trkpt><trkpt lat="43.264093537388504" lon="10.706582702180226"><ele>70.0</ele><time>2026-03-24T17:00:34Z</time></trkpt><trkpt lat="43.26382737626545" lon="10.706687552465587"><ele>71.0</ele><time>2026-03-24T17:00:35Z</time></trkpt><trkpt lat="43.263587482749195" lon="10.706856741958376"><ele>70.5</ele><time>2026-03-24T17:00:36Z</time></trkpt><trkpt lat="43.26336431789901" lon="10.7070818160265"><ele>70.0</ele><time>2026-03-24T17:00:37Z</time></trkpt><trkpt lat="43.26314168588375" lon="10.707324661331985"><ele>69.5</ele><time>2026-03-24T17:00:38Z</time></trkpt><trkpt lat="43.262891010719216" lon="10.707544281898105"><ele>69.0</ele><time>2026-03-24T17:00:39Z</time></trkpt><trkpt lat="43.262644961571645" lon="10.707782294513125"><ele>69.0</ele><time>2026-03-24T17:00:40Z</time></trkpt><trkpt lat="43.26240110452647" lon="10.708045609030286"><ele>69.0</ele><time>2026-03-24T17:00:41Z</time></trkpt><trkpt lat="43.26214158956705" lon="10.70829502673104"><ele>69.0</ele><time>2026-03-24T17:00:42Z</time></trkpt><trkpt lat="43.26187757922351" lon="10.708550293154126"><ele>69.0</ele><time>2026-03-24T17:00:43Z</time></trkpt><trkpt lat="43.26161566328939" lon="10.708803377463035"><ele>70.5</ele><time>2026-03-24T17:00:44Z</time></trkpt><trkpt lat="43.26132977454868" lon="10.70904162251818"><ele>72.0</ele><time>2026-03-24T17:00:45Z</time></trkpt><trkpt lat="43.261037820627706" lon="10.709242229155617"><ele>74.0</ele><time>2026-03-24T17:00:46Z</time></trkpt><trkpt lat="43.26073288225454" lon="10.709416336409362"><ele>76.0</ele><time>2026-03-24T17:00:47Z</time></trkpt><trkpt lat="43.26042905273645" lon="10.709597762447167"><ele>76.0</ele><time>2026-03-24T17:00:48Z</time></trkpt><trkpt lat="43.26011631742724" lon="10.709767787269593"><ele>76.0</ele><time>2026-03-24T17:00:49Z</time></trkpt><trkpt lat="43.25980449298156" lon="10.709941571777454"><ele>76.0</ele><time>2026-03-24T17:00:50Z</time></trkpt><trkpt lat="43.25950152890186" lon="10.710110969876345"><ele>76.0</ele><time>2026-03-24T17:00:51Z</time></trkpt><trkpt lat="43.25922446026895" lon="10.710255765994834"><ele>76.0</ele><time>2026-03-24T17:00:52Z</time></trkpt><trkpt lat="43.258960214849715" lon="10.71039858899452"><ele>76.0</ele><time>2026-03-24T17:00:53Z</time></trkpt><trkpt lat="43.258684187197815" lon="10.710501341665658"><ele>76.0</ele><time>2026-03-24T17:00:54Z</time></trkpt><trkpt lat="43.258397526351054" lon="10.710533943182103"><ele>76.0</ele><time>2026-03-24T17:00:55Z</time></trkpt><trkpt lat="43.25810488003262" lon="10.710515811850524"><ele>78.0</ele><time>2026-03-24T17:00:56Z</time></trkpt><trkpt lat="43.25781454249005" lon="10.710440613632292"><ele>80.0</ele><time>2026-03-24T17:00:57Z</time></trkpt><trkpt lat="43.257541225471314" lon="10.710300802960225"><ele>78.0</ele><time>2026-03-24T17:00:58Z</time></trkpt><trkpt lat="43.25726552422165" lon="10.710133436888952"><ele>76.0</ele><time>2026-03-24T17:00:59Z</time></trkpt><trkpt lat="43.25698157537295" lon="10.709969162985386"><ele>76.0</ele><time>2026-03-24T17:01:00Z</time></trkpt><trkpt lat="43.256700985791205" lon="10.709786449247426"><ele>76.0</ele><time>2026-03-24T17:01:01Z</time></trkpt><trkpt lat="43.25640817152669" lon="10.70960932929887"><ele>77.0</ele><time>2026-03-24T17:01:02Z</time></trkpt><trkpt lat="43.256115488215116" lon="10.70943715277035"><ele>78.0</ele><time>2026-03-24T17:01:03Z</time></trkpt><trkpt lat="43.255849032292325" lon="10.709284766159888"><ele>81.5</ele><time>2026-03-24T17:01:04Z</time></trkpt><trkpt lat="43.25550805305854" lon="10.709070454457747"><ele>85.0</ele><time>2026-03-24T17:01:05Z</time></trkpt><trkpt lat="43.25520404443057" lon="10.708882869936826"><ele>85.0</ele><time>2026-03-24T17:01:06Z</time></trkpt><trkpt lat="43.254895171996345" lon="10.708693316300677"><ele>85.0</ele><time>2026-03-24T17:01:07Z</time></trkpt><trkpt lat="43.254614923357806" lon="10.70852413327591"><ele>82.0</ele><time>2026-03-24T17:01:08Z</time></trkpt><trkpt lat="43.25434165895368" lon="10.708362008286588"><ele>79.0</ele><time>2026-03-24T17:01:09Z</time></trkpt><trkpt lat="43.25405535519863" lon="10.708219187698802"><ele>79.0</ele><time>2026-03-24T17:01:10Z</time></trkpt><trkpt lat="43.253771876126336" lon="10.708124895641328"><ele>79.0</ele><time>2026-03-24T17:01:11Z</time></trkpt><trkpt lat="43.25348573089536" lon="10.708090448506505"><ele>79.0</ele><time>2026-03-24T17:01:12Z</time></trkpt><trkpt lat="43.25318602139382" lon="10.70810530823957"><ele>79.0</ele><time>2026-03-24T17:01:13Z</time></trkpt><trkpt lat="43.25288120182659" lon="10.708165181501954"><ele>78.5</ele><time>2026-03-24T17:01:14Z</time></trkpt><trkpt lat="43.25257740319752" lon="10.708251250082943"><ele>78.0</ele><time>2026-03-24T17:01:15Z</time></trkpt><trkpt lat="43.25226387493688" lon="10.708336655993593"><ele>78.0</ele><time>2026-03-24T17:01:16Z</time></trkpt><trkpt lat="43.25194989002523" lon="10.708409522607587"><ele>78.0</ele><time>2026-03-24T17:01:17Z</time></trkpt><trkpt lat="43.251646959006436" lon="10.708473977592343"><ele>77.5</ele><time>2026-03-24T17:01:18Z</time></trkpt><trkpt lat="43.25129472932949" lon="10.708544074282953"><ele>77.0</ele><time>2026-03-24T17:01:19Z</time></trkpt><trkpt lat="43.250960748552274" lon="10.708618629862105"><ele>78.0</ele><time>2026-03-24T17:01:20Z</time></trkpt><trkpt lat="43.25062481682703" lon="10.708692194203119"><ele>79.0</ele><time>2026-03-24T17:01:21Z</time></trkpt><trkpt lat="43.250290560144364" lon="10.708770567095504"><ele>80.0</ele><time>2026-03-24T17:01:22Z</time></trkpt><trkpt lat="43.24995260323353" lon="10.708845398936578"><ele>81.0</ele><time>2026-03-24T17:01:23Z</time></trkpt><trkpt lat="43.24961304656474" lon="10.708921156178047"><ele>81.0</ele><time>2026-03-24T17:01:24Z</time></trkpt><trkpt lat="43.24929903881132" lon="10.7089894501817"><ele>81.0</ele><time>2026-03-24T17:01:25Z</time></trkpt><trkpt lat="43.2490051716783" lon="10.709052181178922"><ele>81.0</ele><time>2026-03-24T17:01:26Z</time></trkpt><trkpt lat="43.24871706633049" lon="10.709109511424035"><ele>81.0</ele><time>2026-03-24T17:01:27Z</time></trkpt><trkpt lat="43.24845669328729" lon="10.709161470889141"><ele>81.0</ele><time>2026-03-24T17:01:28Z</time></trkpt><trkpt lat="43.248215156527486" lon="10.709227725930482"><ele>81.0</ele><time>2026-03-24T17:01:29Z</time></trkpt><trkpt lat="43.24796080907009" lon="10.709344165561683"><ele>82.5</ele><time>2026-03-24T17:01:30Z</time></trkpt><trkpt lat="43.2477068490206" lon="10.709515475877494"><ele>84.0</ele><time>2026-03-24T17:01:31Z</time></trkpt><trkpt lat="43.24747039110218" lon="10.709735255171633"><ele>84.5</ele><time>2026-03-24T17:01:32Z</time></trkpt><trkpt lat="43.24725610607839" lon="10.71002428893524"><ele>85.0</ele><time>2026-03-24T17:01:33Z</time></trkpt><trkpt lat="43.2470543774754" lon="10.710346629940608"><ele>85.0</ele><time>2026-03-24T17:01:34Z</time></trkpt><trkpt lat="43.24682273390285" lon="10.71064351032359"><ele>85.0</ele><time>2026-03-24T17:01:35Z</time></trkpt><trkpt lat="43.246605225822336" lon="10.710944300535752"><ele>85.5</ele><time>2026-03-24T17:01:36Z</time></trkpt><trkpt lat="43.24639049430466" lon="10.711270494608739"><ele>86.0</ele><time>2026-03-24T17:01:37Z</time></trkpt><trkpt lat="43.2461713514515" lon="10.711559061518054"><ele>86.0</ele><time>2026-03-24T17:01:38Z</time></trkpt><trkpt lat="43.245949580520765" lon="10.711843074521278"><ele>86.0</ele><time>2026-03-24T17:01:39Z</time></trkpt><trkpt lat="43.24567678586052" lon="10.71205151588182"><ele>86.0</ele><time>2026-03-24T17:01:40Z</time></trkpt><trkpt lat="43.245391362194376" lon="10.712250428030083"><ele>86.0</ele><time>2026-03-24T17:01:41Z</time></trkpt><trkpt lat="43.2451033512691" lon="10.712455665868188"><ele>86.0</ele><time>2026-03-24T17:01:42Z</time></trkpt><trkpt lat="43.24480791873087" lon="10.712654588049231"><ele>86.0</ele><time>2026-03-24T17:01:43Z</time></trkpt><trkpt lat="43.24451559631265" lon="10.712858627628838"><ele>85.0</ele><time>2026-03-24T17:01:44Z</time></trkpt><trkpt lat="43.24422107681669" lon="10.713065106212017"><ele>84.0</ele><time>2026-03-24T17:01:45Z</time></trkpt><trkpt lat="43.24392534112531" lon="10.713278979870118"><ele>84.0</ele><time>2026-03-24T17:01:46Z</time></trkpt><trkpt lat="43.24362511363153" lon="10.713488766504303"><ele>84.0</ele><time>2026-03-24T17:01:47Z</time></trkpt><trkpt lat="43.243323053347076" lon="10.713697354388941"><ele>85.0</ele><time>2026-03-24T17:01:48Z</time></trkpt><trkpt lat="43.24301687624789" lon="10.713909459791441"><ele>86.0</ele><time>2026-03-24T17:01:49Z</time></trkpt><trkpt lat="43.242706925593815" lon="10.71412616940008"><ele>86.0</ele><time>2026-03-24T17:01:50Z</time></trkpt><trkpt lat="43.242405781700846" lon="10.714336085804693"><ele>86.0</ele><time>2026-03-24T17:01:51Z</time></trkpt><trkpt lat="43.24211523912555" lon="10.714531941183388"><ele>87.5</ele><time>2026-03-24T17:01:52Z</time></trkpt><trkpt lat="43.24181894885256" lon="10.714738018354124"><ele>89.0</ele><time>2026-03-24T17:01:53Z</time></trkpt><trkpt lat="43.24152232352894" lon="10.714957369634746"><ele>90.0</ele><time>2026-03-24T17:01:54Z</time></trkpt><trkpt lat="43.241230981928425" lon="10.715199311626794"><ele>91.0</ele><time>2026-03-24T17:01:55Z</time></trkpt><trkpt lat="43.24094573594389" lon="10.715462838127745"><ele>91.0</ele><time>2026-03-24T17:01:56Z</time></trkpt><trkpt lat="43.24066552637922" lon="10.715739821428262"><ele>91.0</ele><time>2026-03-24T17:01:57Z</time></trkpt><trkpt lat="43.24038913216186" lon="10.716021906070832"><ele>91.0</ele><time>2026-03-24T17:01:58Z</time></trkpt><trkpt lat="43.24011542208165" lon="10.716298779947902"><ele>91.0</ele><time>2026-03-24T17:01:59Z</time></trkpt><trkpt lat="43.239865231825505" lon="10.716553066618031"><ele>91.5</ele><time>2026-03-24T17:02:00Z</time></trkpt><trkpt lat="43.23960304366711" lon="10.716750221103172"><ele>92.0</ele><time>2026-03-24T17:02:01Z</time></trkpt><trkpt lat="43.23933624253164" lon="10.716912352711846"><ele>92.0</ele><time>2026-03-24T17:02:02Z</time></trkpt><trkpt lat="43.23904704580688" lon="10.717001937151336"><ele>92.0</ele><time>2026-03-24T17:02:03Z</time></trkpt><trkpt lat="43.23876252038298" lon="10.717022764753597"><ele>92.5</ele><time>2026-03-24T17:02:04Z</time></trkpt><trkpt lat="43.23846522646735" lon="10.717035602664785"><ele>93.0</ele><time>2026-03-24T17:02:05Z</time></trkpt><trkpt lat="43.23815853712589" lon="10.71700604519917"><ele>92.5</ele><time>2026-03-24T17:02:06Z</time></trkpt><trkpt lat="43.237845508537184" lon="10.716990401469191"><ele>92.0</ele><time>2026-03-24T17:02:07Z</time></trkpt><trkpt lat="43.23752451095543" lon="10.716985912046999"><ele>93.0</ele><time>2026-03-24T17:02:08Z</time></trkpt><trkpt lat="43.23719775180527" lon="10.71697072477853"><ele>94.0</ele><time>2026-03-24T17:02:09Z</time></trkpt><trkpt lat="43.23687244235905" lon="10.716967646272064"><ele>94.0</ele><time>2026-03-24T17:02:10Z</time></trkpt><trkpt lat="43.23657042960009" lon="10.716936919477964"><ele>94.0</ele><time>2026-03-24T17:02:11Z</time></trkpt><trkpt lat="43.236298208080655" lon="10.717146548429048"><ele>96.0</ele><time>2026-03-24T17:02:12Z</time></trkpt><trkpt lat="43.236047791527106" lon="10.71734290164795"><ele>98.0</ele><time>2026-03-24T17:02:13Z</time></trkpt><trkpt lat="43.235800809311726" lon="10.71759320597802"><ele>97.0</ele><time>2026-03-24T17:02:14Z</time></trkpt><trkpt lat="43.235547651932066" lon="10.717845209885686"><ele>96.0</ele><time>2026-03-24T17:02:15Z</time></trkpt><trkpt lat="43.23528751536933" lon="10.718094217299175"><ele>96.0</ele><time>2026-03-24T17:02:16Z</time></trkpt><trkpt lat="43.23502335060366" lon="10.718344399796381"><ele>96.0</ele><time>2026-03-24T17:02:17Z</time></trkpt><trkpt lat="43.23475667860389" lon="10.71859481158726"><ele>96.0</ele><time>2026-03-24T17:02:18Z</time></trkpt><trkpt lat="43.23449032101375" lon="10.718852997867955"><ele>96.0</ele><time>2026-03-24T17:02:19Z</time></trkpt><trkpt lat="43.23422388120455" lon="10.719114112075498"><ele>97.5</ele><time>2026-03-24T17:02:20Z</time></trkpt><trkpt lat="43.23396274914869" lon="10.719361395940105"><ele>99.0</ele><time>2026-03-24T17:02:21Z</time></trkpt><trkpt lat="43.233709765866784" lon="10.719596445871817"><ele>99.0</ele><time>2026-03-24T17:02:22Z</time></trkpt><trkpt lat="43.23344319982461" lon="10.719801584495272"><ele>99.0</ele><time>2026-03-24T17:02:23Z</time></trkpt><trkpt lat="43.233149742631795" lon="10.719964377843255"><ele>101.5</ele><time>2026-03-24T17:02:24Z</time></trkpt><trkpt lat="43.23284266179844" lon="10.72007151415798"><ele>104.0</ele><time>2026-03-24T17:02:25Z</time></trkpt><trkpt lat="43.2325327409511" lon="10.72015954215134"><ele>103.5</ele><time>2026-03-24T17:02:26Z</time></trkpt><trkpt lat="43.23222676041742" lon="10.720252304696594"><ele>103.0</ele><time>2026-03-24T17:02:27Z</time></trkpt><trkpt lat="43.2319172962552" lon="10.720305397973245"><ele>103.0</ele><time>2026-03-24T17:02:28Z</time></trkpt><trkpt lat="43.23160037947635" lon="10.720273939448376"><ele>103.0</ele><time>2026-03-24T17:02:29Z</time></trkpt><trkpt lat="43.23128812632722" lon="10.720214126857952"><ele>105.0</ele><time>2026-03-24T17:02:30Z</time></trkpt><trkpt lat="43.2309689582129" lon="10.720152600438063"><ele>107.0</ele><time>2026-03-24T17:02:31Z</time></trkpt><trkpt lat="43.23064538499202" lon="10.720061836984254"><ele>107.5</ele><time>2026-03-24T17:02:32Z</time></trkpt><trkpt lat="43.23031739936816" lon="10.719982161146278"><ele>108.0</ele><time>2026-03-24T17:02:33Z</time></trkpt><trkpt lat="43.229989127234425" lon="10.719912920155496"><ele>107.0</ele><time>2026-03-24T17:02:34Z</time></trkpt><trkpt lat="43.22965694355369" lon="10.719845983284369"><ele>106.0</ele><time>2026-03-24T17:02:35Z</time></trkpt><trkpt lat="43.22934428033635" lon="10.719773951040752"><ele>106.0</ele><time>2026-03-24T17:02:36Z</time></trkpt><trkpt lat="43.22905292656247" lon="10.71963203992295"><ele>106.0</ele><time>2026-03-24T17:02:37Z</time></trkpt><trkpt lat="43.22877065411585" lon="10.719511617151314"><ele>110.5</ele><time>2026-03-24T17:02:38Z</time></trkpt><trkpt lat="43.22852404467812" lon="10.719390067383815"><ele>115.0</ele><time>2026-03-24T17:02:39Z</time></trkpt><trkpt lat="43.228314690638356" lon="10.719305646118702"><ele>114.25</ele><time>2026-03-24T17:02:40Z</time></trkpt><trkpt lat="43.22813580400158" lon="10.71926645009928"><ele>113.5</ele><time>2026-03-24T17:02:41Z</time></trkpt><trkpt lat="43.22799503148993" lon="10.71929316565672"><ele>112.75</ele><time>2026-03-24T17:02:42Z</time></trkpt><trkpt lat="43.22788994383526" lon="10.719382045491491"><ele>112.0</ele><time>2026-03-24T17:02:43Z</time></trkpt><trkpt lat="43.22782191763766" lon="10.719526759863934"><ele>112.0</ele><time>2026-03-24T17:02:44Z</time></trkpt><trkpt lat="43.227732724073476" lon="10.719710807700322"><ele>112.0</ele><time>2026-03-24T17:02:45Z</time></trkpt><trkpt lat="43.22761907874949" lon="10.719847535887808"><ele>112.0</ele><time>2026-03-24T17:02:46Z</time></trkpt><trkpt lat="43.22752319083956" lon="10.719931663599777"><ele>112.0</ele><time>2026-03-24T17:02:47Z</time></trkpt><trkpt lat="43.2273992772218" lon="10.71995076886006"><ele>111.0</ele><time>2026-03-24T17:02:48Z</time></trkpt><trkpt lat="43.22724732328152" lon="10.719904208590219"><ele>110.0</ele><time>2026-03-24T17:02:49Z</time></trkpt><trkpt lat="43.227079087733756" lon="10.7198699710494"><ele>109.0</ele><time>2026-03-24T17:02:50Z</time></trkpt><trkpt lat="43.22693121751757" lon="10.719870390894384"><ele>109.0</ele><time>2026-03-24T17:02:51Z</time></trkpt><trkpt lat="43.226786809512845" lon="10.719980782847577"><ele>109.0</ele><time>2026-03-24T17:02:52Z</time></trkpt><trkpt lat="43.22665748678382" lon="10.72014018501027"><ele>109.0</ele><time>2026-03-24T17:02:53Z</time></trkpt><trkpt lat="43.22659221222622" lon="10.720310664140259"><ele>111.0</ele><time>2026-03-24T17:02:54Z</time></trkpt><trkpt lat="43.22658936585455" lon="10.72049739778748"><ele>113.0</ele><time>2026-03-24T17:02:55Z</time></trkpt><trkpt lat="43.22664077548766" lon="10.720698593071324"><ele>115.0</ele><time>2026-03-24T17:02:56Z</time></trkpt><trkpt lat="43.226718624610875" lon="10.720926742876419"><ele>117.0</ele><time>2026-03-24T17:02:57Z</time></trkpt><trkpt lat="43.2267403271356" lon="10.721154549651867"><ele>119.0</ele><time>2026-03-24T17:02:58Z</time></trkpt><trkpt lat="43.22672956909387" lon="10.721356652603212"><ele>121.0</ele><time>2026-03-24T17:02:59Z</time></trkpt><trkpt lat="43.22666212925031" lon="10.721528072501927"><ele>121.0</ele><time>2026-03-24T17:03:00Z</time></trkpt><trkpt lat="43.22652636186844" lon="10.721682683896155"><ele>121.0</ele><time>2026-03-24T17:03:01Z</time></trkpt><trkpt lat="43.2263696937339" lon="10.72188251236327"><ele>121.0</ele><time>2026-03-24T17:03:02Z</time></trkpt><trkpt lat="43.22620038341864" lon="10.722124137079899"><ele>119.5</ele><time>2026-03-24T17:03:03Z</time></trkpt><trkpt lat="43.226026744024985" lon="10.72235989787269"><ele>118.0</ele><time>2026-03-24T17:03:04Z</time></trkpt><trkpt lat="43.2258446354858" lon="10.72255976963584"><ele>118.0</ele><time>2026-03-24T17:03:05Z</time></trkpt><trkpt lat="43.225659638681876" lon="10.722708664393233"><ele>118.0</ele><time>2026-03-24T17:03:06Z</time></trkpt><trkpt lat="43.22544022820318" lon="10.722812430422248"><ele>118.0</ele><time>2026-03-24T17:03:07Z</time></trkpt><trkpt lat="43.22520878298894" lon="10.72292483022139"><ele>117.0</ele><time>2026-03-24T17:03:08Z</time></trkpt><trkpt lat="43.22499277710853" lon="10.72299560224253"><ele>116.0</ele><time>2026-03-24T17:03:09Z</time></trkpt><trkpt lat="43.22481987780719" lon="10.723081871965395"><ele>115.0</ele><time>2026-03-24T17:03:10Z</time></trkpt><trkpt lat="43.224653708115355" lon="10.723233436251563"><ele>115.0</ele><time>2026-03-24T17:03:11Z</time></trkpt><trkpt lat="43.224491112726135" lon="10.723448388785496"><ele>115.0</ele><time>2026-03-24T17:03:12Z</time></trkpt><trkpt lat="43.22434917947042" lon="10.723669872672316"><ele>115.0</ele><time>2026-03-24T17:03:13Z</time></trkpt><trkpt lat="43.224250971899295" lon="10.723881281794238"><ele>118.33333333333334</ele><time>2026-03-24T17:03:14Z</time></trkpt><trkpt lat="43.22418990940619" lon="10.724123285304708"><ele>121.66666666666666</ele><time>2026-03-24T17:03:15Z</time></trkpt><trkpt lat="43.22418494020538" lon="10.724360151077041"><ele>125.0</ele><time>2026-03-24T17:03:16Z</time></trkpt><trkpt lat="43.22420960936129" lon="10.724555444819954"><ele>127.0</ele><time>2026-03-24T17:03:17Z</time></trkpt><trkpt lat="43.22420798597462" lon="10.724693769247352"><ele>129.0</ele><time>2026-03-24T17:03:18Z</time></trkpt><trkpt lat="43.22415058645595" lon="10.724770475025991"><ele>131.0</ele><time>2026-03-24T17:03:19Z</time></trkpt><trkpt lat="43.22406563830557" lon="10.724783934407977"><ele>133.0</ele><time>2026-03-24T17:03:20Z</time></trkpt><trkpt lat="43.22397083872427" lon="10.724720306929854"><ele>135.0</ele><time>2026-03-24T17:03:21Z</time></trkpt><trkpt lat="43.223874366049415" lon="10.724633198382982"><ele>135.0</ele><time>2026-03-24T17:03:22Z</time></trkpt><trkpt lat="43.22377370901279" lon="10.724637997229307"><ele>135.0</ele><time>2026-03-24T17:03:23Z</time></trkpt><trkpt lat="43.22370090766765" lon="10.724720510296672"><ele>135.0</ele><time>2026-03-24T17:03:24Z</time></trkpt><trkpt lat="43.22362266757607" lon="10.72481063449481"><ele>135.0</ele><time>2026-03-24T17:03:25Z</time></trkpt><trkpt lat="43.22351675828619" lon="10.724890373719088"><ele>135.0</ele><time>2026-03-24T17:03:26Z</time></trkpt><trkpt lat="43.22339582670201" lon="10.72487783177308"><ele>135.0</ele><time>2026-03-24T17:03:27Z</time></trkpt><trkpt lat="43.22329118380761" lon="10.724760248455237"><ele>135.0</ele><time>2026-03-24T17:03:28Z</time></trkpt><trkpt lat="43.22318788824841" lon="10.724716773563395"><ele>135.0</ele><time>2026-03-24T17:03:29Z</time></trkpt><trkpt lat="43.22309290504488" lon="10.724754419380274"><ele>135.0</ele><time>2026-03-24T17:03:30Z</time></trkpt><trkpt lat="43.22302458990591" lon="10.724887515033895"><ele>134.5</ele><time>2026-03-24T17:03:31Z</time></trkpt><trkpt lat="43.22301458060963" lon="10.725058333784803"><ele>134.0</ele><time>2026-03-24T17:03:32Z</time></trkpt><trkpt lat="43.22306415664362" lon="10.725228019082621"><ele>133.5</ele><time>2026-03-24T17:03:33Z</time></trkpt><trkpt lat="43.223093457293984" lon="10.725405785222158"><ele>133.0</ele><time>2026-03-24T17:03:34Z</time></trkpt><trkpt lat="43.22301315077394" lon="10.72554726498117"><ele>133.0</ele><time>2026-03-24T17:03:35Z</time></trkpt><trkpt lat="43.22289883966342" lon="10.725669555243783"><ele>133.0</ele><time>2026-03-24T17:03:36Z</time></trkpt><trkpt lat="43.22283589624995" lon="10.725848676768903"><ele>133.0</ele><time>2026-03-24T17:03:37Z</time></trkpt><trkpt lat="43.22282464780157" lon="10.726070572841817"><ele>136.66666666666669</ele><time>2026-03-24T17:03:38Z</time></trkpt><trkpt lat="43.22286140238253" lon="10.726323299257526"><ele>140.33333333333334</ele><time>2026-03-24T17:03:39Z</time></trkpt><trkpt lat="43.22291022769016" lon="10.72655569147385"><ele>144.0</ele><time>2026-03-24T17:03:40Z</time></trkpt><trkpt lat="43.22295488506956" lon="10.726750236435837"><ele>146.25</ele><time>2026-03-24T17:03:41Z</time></trkpt><trkpt lat="43.223018048737124" lon="10.726922016916062"><ele>148.5</ele><time>2026-03-24T17:03:42Z</time></trkpt><trkpt lat="43.22308135276759" lon="10.72707914591672"><ele>150.75</ele><time>2026-03-24T17:03:43Z</time></trkpt><trkpt lat="43.22313335107889" lon="10.727219262738398"><ele>153.0</ele><time>2026-03-24T17:03:44Z</time></trkpt><trkpt lat="43.223128493571345" lon="10.727378770990708"><ele>153.0</ele><time>2026-03-24T17:03:45Z</time></trkpt><trkpt lat="43.223083521536886" lon="10.727551565622019"><ele>153.0</ele><time>2026-03-24T17:03:46Z</time></trkpt><trkpt lat="43.22302203577697" lon="10.727705113080644"><ele>153.0</ele><time>2026-03-24T17:03:47Z</time></trkpt><trkpt lat="43.22293603775031" lon="10.727855574344646"><ele>153.0</ele><time>2026-03-24T17:03:48Z</time></trkpt><trkpt lat="43.22281096012141" lon="10.72793988291634"><ele>154.5</ele><time>2026-03-24T17:03:49Z</time></trkpt><trkpt lat="43.22268117787288" lon="10.728027657003771"><ele>156.0</ele><time>2026-03-24T17:03:50Z</time></trkpt><trkpt lat="43.22256945678956" lon="10.728124465825076"><ele>157.5</ele><time>2026-03-24T17:03:51Z</time></trkpt><trkpt lat="43.22246486380574" lon="10.728225969944752"><ele>159.0</ele><time>2026-03-24T17:03:52Z</time></trkpt><trkpt lat="43.22237557694272" lon="10.728363045310338"><ele>160.5</ele><time>2026-03-24T17:03:53Z</time></trkpt><trkpt lat="43.22230969133065" lon="10.728514248421405"><ele>162.0</ele><time>2026-03-24T17:03:54Z</time></trkpt><trkpt lat="43.222281323406776" lon="10.72867302033934"><ele>163.5</ele><time>2026-03-24T17:03:55Z</time></trkpt><trkpt lat="43.222286845208565" lon="10.728849306659631"><ele>165.0</ele><time>2026-03-24T17:03:56Z</time></trkpt><trkpt lat="43.222292710981165" lon="10.729022156178507"><ele>165.0</ele><time>2026-03-24T17:03:57Z</time></trkpt><trkpt lat="43.222239292405455" lon="10.729157477687886"><ele>165.0</ele><time>2026-03-24T17:03:58Z</time></trkpt><trkpt lat="43.2221138309917" lon="10.729252341732172"><ele>165.0</ele><time>2026-03-24T17:03:59Z</time></trkpt><trkpt lat="43.22194976270296" lon="10.72935717799998"><ele>165.0</ele><time>2026-03-24T17:04:00Z</time></trkpt><trkpt lat="43.221766491040924" lon="10.729489145972037"><ele>165.5</ele><time>2026-03-24T17:04:01Z</time></trkpt><trkpt lat="43.22159097384912" lon="10.729698491314652"><ele>166.0</ele><time>2026-03-24T17:04:02Z</time></trkpt><trkpt lat="43.22140389190861" lon="10.729888870599732"><ele>166.0</ele><time>2026-03-24T17:04:03Z</time></trkpt><trkpt lat="43.22119593781582" lon="10.730077232509878"><ele>166.0</ele><time>2026-03-24T17:04:04Z</time></trkpt><trkpt lat="43.220992852528866" lon="10.730188116996546"><ele>168.0</ele><time>2026-03-24T17:04:05Z</time></trkpt><trkpt lat="43.22082883776775" lon="10.730389607906798"><ele>170.0</ele><time>2026-03-24T17:04:06Z</time></trkpt><trkpt lat="43.22077506321694" lon="10.730570548769293"><ele>172.0</ele><time>2026-03-24T17:04:08Z</time></trkpt><trkpt lat="43.220802923588344" lon="10.730788747936794"><ele>173.0</ele><time>2026-03-24T17:04:09Z</time></trkpt><trkpt lat="43.22086206238174" lon="10.73110997027134"><ele>174.0</ele><time>2026-03-24T17:04:10Z</time></trkpt><trkpt lat="43.220865557438785" lon="10.731379946645701"><ele>175.0</ele><time>2026-03-24T17:04:11Z</time></trkpt><trkpt lat="43.22088278629061" lon="10.731698197874916"><ele>175.0</ele><time>2026-03-24T17:04:12Z</time></trkpt><trkpt lat="43.220937305814736" lon="10.732020240390423"><ele>175.0</ele><time>2026-03-24T17:04:13Z</time></trkpt><trkpt lat="43.221031399373686" lon="10.73232989701345"><ele>175.0</ele><time>2026-03-24T17:04:14Z</time></trkpt><trkpt lat="43.221121444089434" lon="10.732609782912336"><ele>175.0</ele><time>2026-03-24T17:04:15Z</time></trkpt><trkpt lat="43.221183888389675" lon="10.732804243107585"><ele>175.0</ele><time>2026-03-24T17:04:16Z</time></trkpt><trkpt lat="43.2212297887663" lon="10.732966334980084"><ele>176.25</ele><time>2026-03-24T17:04:17Z</time></trkpt><trkpt lat="43.22124402407234" lon="10.733115031913243"><ele>177.5</ele><time>2026-03-24T17:04:18Z</time></trkpt><trkpt lat="43.22118597168247" lon="10.733252731318832"><ele>178.75</ele><time>2026-03-24T17:04:19Z</time></trkpt><trkpt lat="43.22107085072496" lon="10.733356404638338"><ele>180.0</ele><time>2026-03-24T17:04:20Z</time></trkpt><trkpt lat="43.220946574575144" lon="10.733481302730441"><ele>183.0</ele><time>2026-03-24T17:04:21Z</time></trkpt><trkpt lat="43.22082751293263" lon="10.73365158185786"><ele>186.0</ele><time>2026-03-24T17:04:22Z</time></trkpt><trkpt lat="43.220759229055226" lon="10.733884099981989"><ele>189.0</ele><time>2026-03-24T17:04:23Z</time></trkpt><trkpt lat="43.22074703971575" lon="10.734204715242502"><ele>190.0</ele><time>2026-03-24T17:04:24Z</time></trkpt><trkpt lat="43.22070772902305" lon="10.73448709054948"><ele>191.0</ele><time>2026-03-24T17:04:25Z</time></trkpt><trkpt lat="43.22062577210027" lon="10.734744842624572"><ele>192.0</ele><time>2026-03-24T17:04:26Z</time></trkpt><trkpt lat="43.220541319559665" lon="10.735004625422103"><ele>193.0</ele><time>2026-03-24T17:04:27Z</time></trkpt><trkpt lat="43.22050903788562" lon="10.735225633805557"><ele>194.0</ele><time>2026-03-24T17:04:28Z</time></trkpt><trkpt lat="43.22051851607086" lon="10.735352016829417"><ele>195.0</ele><time>2026-03-24T17:04:29Z</time></trkpt><trkpt lat="43.22048042171624" lon="10.735498326616534"><ele>196.0</ele><time>2026-03-24T17:04:30Z</time></trkpt><trkpt lat="43.22037823734445" lon="10.735561756627375"><ele>196.0</ele><time>2026-03-24T17:04:31Z</time></trkpt><trkpt lat="43.220307956538825" lon="10.735634288704908"><ele>196.0</ele><time>2026-03-24T17:04:32Z</time></trkpt><trkpt lat="43.22020510128888" lon="10.735490695780381"><ele>196.0</ele><time>2026-03-24T17:04:33Z</time></trkpt><trkpt lat="43.220058708282934" lon="10.734986898189192"><ele>194.66666666666666</ele><time>2026-03-24T17:04:35Z</time></trkpt><trkpt lat="43.21995963309379" lon="10.734810908644642"><ele>193.33333333333331</ele><time>2026-03-24T17:04:36Z</time></trkpt><trkpt lat="43.21981684116473" lon="10.734650944487697"><ele>192.0</ele><time>2026-03-24T17:04:37Z</time></trkpt><trkpt lat="43.219644431736945" lon="10.734592050230098"><ele>197.0</ele><time>2026-03-24T17:04:38Z</time></trkpt><trkpt lat="43.21941652836111" lon="10.734539160515173"><ele>202.0</ele><time>2026-03-24T17:04:39Z</time></trkpt><trkpt lat="43.21918113935942" lon="10.734478581268425"><ele>201.0</ele><time>2026-03-24T17:04:40Z</time></trkpt><trkpt lat="43.218956166309404" lon="10.734420697083074"><ele>200.0</ele><time>2026-03-24T17:04:41Z</time></trkpt><trkpt lat="43.218698497457254" lon="10.734354981334583"><ele>200.0</ele><time>2026-03-24T17:04:42Z</time></trkpt><trkpt lat="43.21845096018794" lon="10.734208275287614"><ele>200.0</ele><time>2026-03-24T17:04:43Z</time></trkpt><trkpt lat="43.218259497961796" lon="10.73404874089639"><ele>202.0</ele><time>2026-03-24T17:04:44Z</time></trkpt><trkpt lat="43.21809777693826" lon="10.7338364994026"><ele>204.0</ele><time>2026-03-24T17:04:45Z</time></trkpt><trkpt lat="43.21795762847549" lon="10.733658633339825"><ele>206.0</ele><time>2026-03-24T17:04:46Z</time></trkpt><trkpt lat="43.21783535090353" lon="10.733523209739696"><ele>206.0</ele><time>2026-03-24T17:04:47Z</time></trkpt><trkpt lat="43.217704136000805" lon="10.733467307463261"><ele>206.0</ele><time>2026-03-24T17:04:48Z</time></trkpt><trkpt lat="43.21759992489531" lon="10.733387711183143"><ele>206.0</ele><time>2026-03-24T17:04:49Z</time></trkpt><trkpt lat="43.21756165464088" lon="10.733197594726102"><ele>206.0</ele><time>2026-03-24T17:04:50Z</time></trkpt><trkpt lat="43.21758105634465" lon="10.732997003636347"><ele>206.0</ele><time>2026-03-24T17:04:51Z</time></trkpt><trkpt lat="43.217574079618075" lon="10.732762602382218"><ele>206.0</ele><time>2026-03-24T17:04:52Z</time></trkpt><trkpt lat="43.21755185041439" lon="10.732549352506211"><ele>206.0</ele><time>2026-03-24T17:04:53Z</time></trkpt><trkpt lat="43.217444143377875" lon="10.732373528134241"><ele>207.33333333333334</ele><time>2026-03-24T17:04:54Z</time></trkpt><trkpt lat="43.21733832936034" lon="10.732196100633631"><ele>208.66666666666669</ele><time>2026-03-24T17:04:55Z</time></trkpt><trkpt lat="43.217180291614056" lon="10.7320796844634"><ele>210.0</ele><time>2026-03-24T17:04:56Z</time></trkpt><trkpt lat="43.216999194584474" lon="10.732004844664681"><ele>210.0</ele><time>2026-03-24T17:04:57Z</time></trkpt><trkpt lat="43.21683102658126" lon="10.73199315412113"><ele>210.0</ele><time>2026-03-24T17:04:58Z</time></trkpt><trkpt lat="43.21664542423667" lon="10.732054027385011"><ele>210.0</ele><time>2026-03-24T17:04:59Z</time></trkpt><trkpt lat="43.21642871842675" lon="10.73214478188536"><ele>208.33333333333331</ele><time>2026-03-24T17:05:00Z</time></trkpt><trkpt lat="43.21622313043612" lon="10.732230169845712"><ele>206.66666666666666</ele><time>2026-03-24T17:05:01Z</time></trkpt><trkpt lat="43.216031361393455" lon="10.732194401764747"><ele>205.0</ele><time>2026-03-24T17:05:02Z</time></trkpt><trkpt lat="43.215865429688805" lon="10.732130497702713"><ele>205.0</ele><time>2026-03-24T17:05:03Z</time></trkpt><trkpt lat="43.21574200918582" lon="10.731976771927938"><ele>205.0</ele><time>2026-03-24T17:05:04Z</time></trkpt><trkpt lat="43.215648834211855" lon="10.73177922474666"><ele>205.0</ele><time>2026-03-24T17:05:05Z</time></trkpt><trkpt lat="43.21552184670733" lon="10.73157970057049"><ele>205.0</ele><time>2026-03-24T17:05:06Z</time></trkpt><trkpt lat="43.21542805120662" lon="10.731394410813962"><ele>205.0</ele><time>2026-03-24T17:05:07Z</time></trkpt><trkpt lat="43.215306152321176" lon="10.731328694117234"><ele>205.0</ele><time>2026-03-24T17:05:08Z</time></trkpt><trkpt lat="43.21518095560011" lon="10.731361802862924"><ele>205.0</ele><time>2026-03-24T17:05:09Z</time></trkpt><trkpt lat="43.21503779488788" lon="10.731444556380552"><ele>205.0</ele><time>2026-03-24T17:05:10Z</time></trkpt><trkpt lat="43.214856471148806" lon="10.731542452402996"><ele>205.0</ele><time>2026-03-24T17:05:11Z</time></trkpt><trkpt lat="43.21465218191284" lon="10.731636889602155"><ele>205.0</ele><time>2026-03-24T17:05:12Z</time></trkpt><trkpt lat="43.214484456646574" lon="10.731684148196845"><ele>203.0</ele><time>2026-03-24T17:05:13Z</time></trkpt><trkpt lat="43.21433744992873" lon="10.731780225883547"><ele>201.0</ele><time>2026-03-24T17:05:14Z</time></trkpt><trkpt lat="43.21419952614721" lon="10.731981155975346"><ele>199.0</ele><time>2026-03-24T17:05:15Z</time></trkpt><trkpt lat="43.21409050361888" lon="10.732242150967991"><ele>202.0</ele><time>2026-03-24T17:05:16Z</time></trkpt><trkpt lat="43.21399991876912" lon="10.732507904215788"><ele>205.0</ele><time>2026-03-24T17:05:17Z</time></trkpt><trkpt lat="43.21386591087886" lon="10.732685496105045"><ele>208.0</ele><time>2026-03-24T17:05:18Z</time></trkpt><trkpt lat="43.2137211149087" lon="10.73281629301154"><ele>211.33333333333331</ele><time>2026-03-24T17:05:19Z</time></trkpt><trkpt lat="43.213567148989604" lon="10.732888409017269"><ele>214.66666666666669</ele><time>2026-03-24T17:05:20Z</time></trkpt><trkpt lat="43.21341636218966" lon="10.732870783640625"><ele>218.0</ele><time>2026-03-24T17:05:21Z</time></trkpt><trkpt lat="43.21328453884209" lon="10.732820899388003"><ele>216.5</ele><time>2026-03-24T17:05:22Z</time></trkpt><trkpt lat="43.213040715053516" lon="10.732617284103698"><ele>215.0</ele><time>2026-03-24T17:05:23Z</time></trkpt><trkpt lat="43.21287713591711" lon="10.732419695164124"><ele>215.0</ele><time>2026-03-24T17:05:24Z</time></trkpt><trkpt lat="43.21274604516366" lon="10.73223889355497"><ele>215.0</ele><time>2026-03-24T17:05:25Z</time></trkpt><trkpt lat="43.2126180665346" lon="10.732161441012646"><ele>215.0</ele><time>2026-03-24T17:05:26Z</time></trkpt><trkpt lat="43.21242725025276" lon="10.732089105644782"><ele>218.0</ele><time>2026-03-24T17:05:27Z</time></trkpt><trkpt lat="43.21221467459394" lon="10.732085156635788"><ele>221.0</ele><time>2026-03-24T17:05:28Z</time></trkpt><trkpt lat="43.21195712449363" lon="10.732088054295929"><ele>221.0</ele><time>2026-03-24T17:05:29Z</time></trkpt><trkpt lat="43.21169956745468" lon="10.732121652628097"><ele>221.0</ele><time>2026-03-24T17:05:30Z</time></trkpt><trkpt lat="43.21141301846316" lon="10.732158533550463"><ele>220.5</ele><time>2026-03-24T17:05:31Z</time></trkpt><trkpt lat="43.21113368079397" lon="10.732211455831143"><ele>220.0</ele><time>2026-03-24T17:05:32Z</time></trkpt><trkpt lat="43.21087127006056" lon="10.732262183968716"><ele>219.5</ele><time>2026-03-24T17:05:33Z</time></trkpt><trkpt lat="43.21061947067233" lon="10.732317776837494"><ele>219.0</ele><time>2026-03-24T17:05:34Z</time></trkpt><trkpt lat="43.21036064752451" lon="10.732404650106139"><ele>219.0</ele><time>2026-03-24T17:05:35Z</time></trkpt><trkpt lat="43.21008785804196" lon="10.73251433213405"><ele>219.0</ele><time>2026-03-24T17:05:36Z</time></trkpt><trkpt lat="43.20981289691781" lon="10.732635654939788"><ele>226.5</ele><time>2026-03-24T17:05:37Z</time></trkpt><trkpt lat="43.20954036946432" lon="10.73274514920112"><ele>234.0</ele><time>2026-03-24T17:05:38Z</time></trkpt><trkpt lat="43.209305521074164" lon="10.73284516027738"><ele>234.0</ele><time>2026-03-24T17:05:39Z</time></trkpt><trkpt lat="43.20910601258438" lon="10.732924756683257"><ele>234.0</ele><time>2026-03-24T17:05:40Z</time></trkpt><trkpt lat="43.20891448056774" lon="10.732978180296097"><ele>234.0</ele><time>2026-03-24T17:05:41Z</time></trkpt><trkpt lat="43.20869548827157" lon="10.732968823747624"><ele>238.5</ele><time>2026-03-24T17:05:42Z</time></trkpt><trkpt lat="43.20846926208111" lon="10.732885478119934"><ele>243.0</ele><time>2026-03-24T17:05:43Z</time></trkpt><trkpt lat="43.20823640690897" lon="10.732759624282497"><ele>233.66666666666669</ele><time>2026-03-24T17:05:44Z</time></trkpt><trkpt lat="43.20804076625247" lon="10.732655056785008"><ele>224.33333333333334</ele><time>2026-03-24T17:05:45Z</time></trkpt><trkpt lat="43.20785093370457" lon="10.732579028817359"><ele>215.0</ele><time>2026-03-24T17:05:46Z</time></trkpt><trkpt lat="43.20769323497216" lon="10.732497595659696"><ele>215.0</ele><time>2026-03-24T17:05:47Z</time></trkpt><trkpt lat="43.20756870786956" lon="10.732433828283867"><ele>215.0</ele><time>2026-03-24T17:05:48Z</time></trkpt><trkpt lat="43.20745964595527" lon="10.73242425179923"><ele>215.0</ele><time>2026-03-24T17:05:49Z</time></trkpt><trkpt lat="43.20735268487403" lon="10.732490035403941"><ele>215.0</ele><time>2026-03-24T17:05:50Z</time></trkpt><trkpt lat="43.20729124180719" lon="10.732627758791937"><ele>217.0</ele><time>2026-03-24T17:05:51Z</time></trkpt><trkpt lat="43.207281759392224" lon="10.732817407649172"><ele>219.0</ele><time>2026-03-24T17:05:52Z</time></trkpt><trkpt lat="43.20730325815097" lon="10.733044411090248"><ele>221.0</ele><time>2026-03-24T17:05:53Z</time></trkpt><trkpt lat="43.20729054593219" lon="10.73329188771426"><ele>221.0</ele><time>2026-03-24T17:05:54Z</time></trkpt><trkpt lat="43.20726875714441" lon="10.733546532035193"><ele>221.0</ele><time>2026-03-24T17:05:55Z</time></trkpt><trkpt lat="43.20724113508759" lon="10.733754517080639"><ele>221.0</ele><time>2026-03-24T17:05:56Z</time></trkpt><trkpt lat="43.20720358453684" lon="10.733916745854758"><ele>226.5</ele><time>2026-03-24T17:05:57Z</time></trkpt><trkpt lat="43.20715162458894" lon="10.73405023707189"><ele>232.0</ele><time>2026-03-24T17:05:58Z</time></trkpt><trkpt lat="43.20702831043721" lon="10.734059783822017"><ele>237.5</ele><time>2026-03-24T17:05:59Z</time></trkpt><trkpt lat="43.20693044582294" lon="10.734028427239455"><ele>243.0</ele><time>2026-03-24T17:06:00Z</time></trkpt><trkpt lat="43.206872039261114" lon="10.733862275606956"><ele>243.0</ele><time>2026-03-24T17:06:01Z</time></trkpt><trkpt lat="43.20679774986594" lon="10.733682674403166"><ele>243.0</ele><time>2026-03-24T17:06:02Z</time></trkpt><trkpt lat="43.206729799923046" lon="10.733463271994623"><ele>243.0</ele><time>2026-03-24T17:06:03Z</time></trkpt><trkpt lat="43.206631354541656" lon="10.733267822314199"><ele>239.33333333333331</ele><time>2026-03-24T17:06:04Z</time></trkpt><trkpt lat="43.20648493527227" lon="10.733074891163204"><ele>235.66666666666666</ele><time>2026-03-24T17:06:05Z</time></trkpt><trkpt lat="43.206323471868416" lon="10.732954477825462"><ele>232.0</ele><time>2026-03-24T17:06:06Z</time></trkpt><trkpt lat="43.20619434699332" lon="10.732908905773884"><ele>232.0</ele><time>2026-03-24T17:06:07Z</time></trkpt><trkpt lat="43.20607759499181" lon="10.73293256648526"><ele>232.0</ele><time>2026-03-24T17:06:08Z</time></trkpt><trkpt lat="43.2059428530155" lon="10.733016078964855"><ele>232.0</ele><time>2026-03-24T17:06:09Z</time></trkpt><trkpt lat="43.20581177141561" lon="10.733183607571284"><ele>232.0</ele><time>2026-03-24T17:06:10Z</time></trkpt><trkpt lat="43.20566858353691" lon="10.733383635045456"><ele>234.0</ele><time>2026-03-24T17:06:11Z</time></trkpt><trkpt lat="43.20550808599084" lon="10.733586641788246"><ele>236.0</ele><time>2026-03-24T17:06:12Z</time></trkpt><trkpt lat="43.20533360822716" lon="10.733794746961452"><ele>238.0</ele><time>2026-03-24T17:06:13Z</time></trkpt><trkpt lat="43.20514268069228" lon="10.734000904914632"><ele>238.0</ele><time>2026-03-24T17:06:14Z</time></trkpt><trkpt lat="43.204938572117946" lon="10.734181606659877"><ele>238.0</ele><time>2026-03-24T17:06:15Z</time></trkpt><trkpt lat="43.20472851094772" lon="10.734351473714934"><ele>244.0</ele><time>2026-03-24T17:06:16Z</time></trkpt><trkpt lat="43.204492473491136" lon="10.73449670156943"><ele>250.0</ele><time>2026-03-24T17:06:17Z</time></trkpt><trkpt lat="43.20424308036101" lon="10.734568397790587"><ele>250.5</ele><time>2026-03-24T17:06:18Z</time></trkpt><trkpt lat="43.20397484096279" lon="10.734618324314939"><ele>251.0</ele><time>2026-03-24T17:06:19Z</time></trkpt><trkpt lat="43.20371338119841" lon="10.734668072036353"><ele>251.0</ele><time>2026-03-24T17:06:20Z</time></trkpt><trkpt lat="43.20344462223927" lon="10.73473475780772"><ele>251.0</ele><time>2026-03-24T17:06:21Z</time></trkpt><trkpt lat="43.20317079596864" lon="10.734796400601052"><ele>252.0</ele><time>2026-03-24T17:06:22Z</time></trkpt><trkpt lat="43.20290799276238" lon="10.734855253908155"><ele>253.0</ele><time>2026-03-24T17:06:23Z</time></trkpt><trkpt lat="43.20268735511607" lon="10.734901788275947"><ele>253.0</ele><time>2026-03-24T17:06:24Z</time></trkpt><trkpt lat="43.2025118352802" lon="10.734949393574942"><ele>253.0</ele><time>2026-03-24T17:06:25Z</time></trkpt><trkpt lat="43.20235599816474" lon="10.735035882531886"><ele>253.0</ele><time>2026-03-24T17:06:26Z</time></trkpt><trkpt lat="43.20222261505145" lon="10.735186650332206"><ele>258.0</ele><time>2026-03-24T17:06:27Z</time></trkpt><trkpt lat="43.20207746984478" lon="10.735384737037545"><ele>263.0</ele><time>2026-03-24T17:06:28Z</time></trkpt><trkpt lat="43.20193224245578" lon="10.73558169982732"><ele>268.0</ele><time>2026-03-24T17:06:29Z</time></trkpt><trkpt lat="43.20181862681395" lon="10.735749098064574"><ele>268.0</ele><time>2026-03-24T17:06:30Z</time></trkpt><trkpt lat="43.201762589625524" lon="10.73593980693719"><ele>268.0</ele><time>2026-03-24T17:06:31Z</time></trkpt><trkpt lat="43.201733220021644" lon="10.736202602981695"><ele>268.0</ele><time>2026-03-24T17:06:32Z</time></trkpt><trkpt lat="43.2017063592573" lon="10.736505896557613"><ele>270.5</ele><time>2026-03-24T17:06:33Z</time></trkpt><trkpt lat="43.201670151921235" lon="10.73680472557008"><ele>273.0</ele><time>2026-03-24T17:06:34Z</time></trkpt><trkpt lat="43.201623229768146" lon="10.737114112258531"><ele>274.0</ele><time>2026-03-24T17:06:35Z</time></trkpt><trkpt lat="43.20157921108082" lon="10.73741459821454"><ele>275.0</ele><time>2026-03-24T17:06:36Z</time></trkpt><trkpt lat="43.20155006709245" lon="10.737660536587061"><ele>276.0</ele><time>2026-03-24T17:06:37Z</time></trkpt><trkpt lat="43.20149520651787" lon="10.737852162624002"><ele>278.75</ele><time>2026-03-24T17:06:38Z</time></trkpt><trkpt lat="43.20143636801334" lon="10.738029331058291"><ele>281.5</ele><time>2026-03-24T17:06:39Z</time></trkpt><trkpt lat="43.20132198417915" lon="10.73812188610894"><ele>284.25</ele><time>2026-03-24T17:06:40Z</time></trkpt><trkpt lat="43.20119947938114" lon="10.738118968055415"><ele>287.0</ele><time>2026-03-24T17:06:41Z</time></trkpt><trkpt lat="43.20108618653471" lon="10.73803781563228"><ele>287.0</ele><time>2026-03-24T17:06:42Z</time></trkpt><trkpt lat="43.201005405295504" lon="10.737899658853802"><ele>287.0</ele><time>2026-03-24T17:06:43Z</time></trkpt><trkpt lat="43.20096568358484" lon="10.737722353173876"><ele>287.0</ele><time>2026-03-24T17:06:44Z</time></trkpt><trkpt lat="43.200905467054504" lon="10.737637783968097"><ele>287.0</ele><time>2026-03-24T17:06:45Z</time></trkpt><trkpt lat="43.20085318770902" lon="10.73757868548656"><ele>287.0</ele><time>2026-03-24T17:06:46Z</time></trkpt><trkpt lat="43.20071645606939" lon="10.737607295249786"><ele>286.0</ele><time>2026-03-24T17:06:47Z</time></trkpt><trkpt lat="43.20056872680344" lon="10.737647862387258"><ele>285.0</ele><time>2026-03-24T17:06:48Z</time></trkpt><trkpt lat="43.20041322842721" lon="10.737652953654905"><ele>284.0</ele><time>2026-03-24T17:06:49Z</time></trkpt><trkpt lat="43.20027877305583" lon="10.737600646312432"><ele>283.0</ele><time>2026-03-24T17:06:50Z</time></trkpt><trkpt lat="43.20018874521325" lon="10.737448032412011"><ele>283.0</ele><time>2026-03-24T17:06:51Z</time></trkpt><trkpt lat="43.20005865356086" lon="10.737302581789232"><ele>283.0</ele><time>2026-03-24T17:06:52Z</time></trkpt><trkpt lat="43.19992912525853" lon="10.737166119665428"><ele>283.0</ele><time>2026-03-24T17:06:53Z</time></trkpt><trkpt lat="43.19980135326035" lon="10.737124134749681"><ele>282.66666666666663</ele><time>2026-03-24T17:06:54Z</time></trkpt><trkpt lat="43.19965452275956" lon="10.737128749711314"><ele>282.3333333333333</ele><time>2026-03-24T17:06:55Z</time></trkpt><trkpt lat="43.19948514513892" lon="10.73720528693218"><ele>282.0</ele><time>2026-03-24T17:06:56Z</time></trkpt><trkpt lat="43.1993108062623" lon="10.737318319497625"><ele>282.0</ele><time>2026-03-24T17:06:57Z</time></trkpt><trkpt lat="43.19913158386936" lon="10.737395804673232"><ele>282.0</ele><time>2026-03-24T17:06:58Z</time></trkpt><trkpt lat="43.19896327080603" lon="10.737472348319951"><ele>282.0</ele><time>2026-03-24T17:06:59Z</time></trkpt><trkpt lat="43.198827285416094" lon="10.73755482504118"><ele>282.2</ele><time>2026-03-24T17:07:00Z</time></trkpt><trkpt lat="43.198693587947986" lon="10.737606335692268"><ele>282.4</ele><time>2026-03-24T17:07:01Z</time></trkpt><trkpt lat="43.198575187183536" lon="10.737650624073714"><ele>282.6</ele><time>2026-03-24T17:07:02Z</time></trkpt><trkpt lat="43.198484591790894" lon="10.737678980181135"><ele>282.8</ele><time>2026-03-24T17:07:03Z</time></trkpt><trkpt lat="43.198420356146656" lon="10.737696906161197"><ele>283.0</ele><time>2026-03-24T17:07:04Z</time></trkpt><trkpt lat="43.19829925417236" lon="10.737754857113549"><ele>283.0</ele><time>2026-03-24T17:07:06Z</time></trkpt><trkpt lat="43.198220628487455" lon="10.737777947033004"><ele>283.0</ele><time>2026-03-24T17:07:07Z</time></trkpt><trkpt lat="43.19811662029703" lon="10.737834191253462"><ele>283.0</ele><time>2026-03-24T17:07:08Z</time></trkpt><trkpt lat="43.19798397268015" lon="10.73785866750198"><ele>283.0</ele><time>2026-03-24T17:07:09Z</time></trkpt><trkpt lat="43.19783177223236" lon="10.737893407453106"><ele>281.66666666666663</ele><time>2026-03-24T17:07:10Z</time></trkpt><trkpt lat="43.197647137890065" lon="10.737916720613702"><ele>280.3333333333333</ele><time>2026-03-24T17:07:11Z</time></trkpt><trkpt lat="43.19742989284234" lon="10.73790702786467"><ele>279.0</ele><time>2026-03-24T17:07:12Z</time></trkpt><trkpt lat="43.19721081732778" lon="10.73787873984178"><ele>279.0</ele><time>2026-03-24T17:07:13Z</time></trkpt><trkpt lat="43.19703970889369" lon="10.737871025808229"><ele>279.0</ele><time>2026-03-24T17:07:14Z</time></trkpt><trkpt lat="43.196910055056385" lon="10.73783216264341"><ele>279.0</ele><time>2026-03-24T17:07:15Z</time></trkpt><trkpt lat="43.19680421619745" lon="10.73776691068733"><ele>279.0</ele><time>2026-03-24T17:07:16Z</time></trkpt><trkpt lat="43.196760369929365" lon="10.737623109781934"><ele>278.0</ele><time>2026-03-24T17:07:17Z</time></trkpt><trkpt lat="43.19672930229749" lon="10.737459111568697"><ele>277.0</ele><time>2026-03-24T17:07:18Z</time></trkpt><trkpt lat="43.19672131034098" lon="10.737249961701275"><ele>276.0</ele><time>2026-03-24T17:07:19Z</time></trkpt><trkpt lat="43.196675754594885" lon="10.737071465402021"><ele>275.0</ele><time>2026-03-24T17:07:20Z</time></trkpt><trkpt lat="43.196579308052236" lon="10.73693689174554"><ele>273.0</ele><time>2026-03-24T17:07:21Z</time></trkpt><trkpt lat="43.19643830113041" lon="10.736864762750175"><ele>271.0</ele><time>2026-03-24T17:07:22Z</time></trkpt><trkpt lat="43.19626057713721" lon="10.736842728176152"><ele>269.0</ele><time>2026-03-24T17:07:23Z</time></trkpt><trkpt lat="43.1960638365224" lon="10.736747632502388"><ele>269.0</ele><time>2026-03-24T17:07:24Z</time></trkpt><trkpt lat="43.195846783226905" lon="10.736659687032665"><ele>269.0</ele><time>2026-03-24T17:07:25Z</time></trkpt><trkpt lat="43.19565534927278" lon="10.736581682952917"><ele>269.0</ele><time>2026-03-24T17:07:26Z</time></trkpt><trkpt lat="43.195489113751535" lon="10.736510424128156"><ele>270.6666666666667</ele><time>2026-03-24T17:07:27Z</time></trkpt><trkpt lat="43.19534923987645" lon="10.736436967895457"><ele>272.3333333333333</ele><time>2026-03-24T17:07:28Z</time></trkpt><trkpt lat="43.19524396642913" lon="10.736287568407048"><ele>274.0</ele><time>2026-03-24T17:07:29Z</time></trkpt><trkpt lat="43.19515172197095" lon="10.736061536060145"><ele>272.0</ele><time>2026-03-24T17:07:30Z</time></trkpt><trkpt lat="43.195040080891204" lon="10.735812993215388"><ele>270.0</ele><time>2026-03-24T17:07:31Z</time></trkpt><trkpt lat="43.194939815712665" lon="10.73554988022454"><ele>268.0</ele><time>2026-03-24T17:07:32Z</time></trkpt><trkpt lat="43.194868868900755" lon="10.735299720108596"><ele>266.0</ele><time>2026-03-24T17:07:33Z</time></trkpt><trkpt lat="43.194866172204996" lon="10.735062925105694"><ele>264.0</ele><time>2026-03-24T17:07:34Z</time></trkpt><trkpt lat="43.19491172762667" lon="10.734864762983145"><ele>262.0</ele><time>2026-03-24T17:07:35Z</time></trkpt><trkpt lat="43.194941664454234" lon="10.734653649575078"><ele>262.0</ele><time>2026-03-24T17:07:36Z</time></trkpt><trkpt lat="43.194963946549066" lon="10.734480839047034"><ele>262.0</ele><time>2026-03-24T17:07:37Z</time></trkpt><trkpt lat="43.19490774587237" lon="10.734320650958669"><ele>262.0</ele><time>2026-03-24T17:07:38Z</time></trkpt><trkpt lat="43.194786626308314" lon="10.734187228294925"><ele>262.0</ele><time>2026-03-24T17:07:39Z</time></trkpt><trkpt lat="43.19462490064622" lon="10.734064228817992"><ele>262.3333333333333</ele><time>2026-03-24T17:07:40Z</time></trkpt><trkpt lat="43.194450020737364" lon="10.733933112998779"><ele>262.6666666666667</ele><time>2026-03-24T17:07:41Z</time></trkpt><trkpt lat="43.19426580355889" lon="10.733779823607476"><ele>263.0</ele><time>2026-03-24T17:07:42Z</time></trkpt><trkpt lat="43.19406826482633" lon="10.73360127822087"><ele>260.0</ele><time>2026-03-24T17:07:43Z</time></trkpt><trkpt lat="43.193894912231336" lon="10.733361553468853"><ele>257.0</ele><time>2026-03-24T17:07:44Z</time></trkpt><trkpt lat="43.19370971617741" lon="10.733129633581676"><ele>257.0</ele><time>2026-03-24T17:07:45Z</time></trkpt><trkpt lat="43.19352864052923" lon="10.732884583433211"><ele>257.0</ele><time>2026-03-24T17:07:46Z</time></trkpt><trkpt lat="43.19334379160773" lon="10.732649205615218"><ele>255.5</ele><time>2026-03-24T17:07:47Z</time></trkpt><trkpt lat="43.19319515014979" lon="10.73239380054719"><ele>254.0</ele><time>2026-03-24T17:07:48Z</time></trkpt><trkpt lat="43.193047679584176" lon="10.732119584346558"><ele>255.5</ele><time>2026-03-24T17:07:49Z</time></trkpt><trkpt lat="43.19292650970644" lon="10.731787901309488"><ele>257.0</ele><time>2026-03-24T17:07:50Z</time></trkpt><trkpt lat="43.192803576132555" lon="10.731451458309245"><ele>257.0</ele><time>2026-03-24T17:07:51Z</time></trkpt><trkpt lat="43.192674056570965" lon="10.731102906642462"><ele>257.0</ele><time>2026-03-24T17:07:52Z</time></trkpt><trkpt lat="43.192594549712574" lon="10.730724455901553"><ele>261.5</ele><time>2026-03-24T17:07:53Z</time></trkpt><trkpt lat="43.19250553278566" lon="10.730359906892042"><ele>266.0</ele><time>2026-03-24T17:07:54Z</time></trkpt><trkpt lat="43.19243537079082" lon="10.729983046724595"><ele>264.5</ele><time>2026-03-24T17:07:55Z</time></trkpt><trkpt lat="43.192369976857954" lon="10.729636268818764"><ele>263.0</ele><time>2026-03-24T17:07:56Z</time></trkpt><trkpt lat="43.19229811867143" lon="10.729322959293672"><ele>263.0</ele><time>2026-03-24T17:07:57Z</time></trkpt><trkpt lat="43.19218939588335" lon="10.729027047838896"><ele>263.0</ele><time>2026-03-24T17:07:58Z</time></trkpt><trkpt lat="43.19203370408544" lon="10.728730595326086"><ele>269.0</ele><time>2026-03-24T17:07:59Z</time></trkpt><trkpt lat="43.19183747317535" lon="10.728470496757026"><ele>275.0</ele><time>2026-03-24T17:08:00Z</time></trkpt><trkpt lat="43.19164833682263" lon="10.728287454385622"><ele>276.33333333333337</ele><time>2026-03-24T17:08:01Z</time></trkpt><trkpt lat="43.19147245365888" lon="10.728191061323678"><ele>277.6666666666667</ele><time>2026-03-24T17:08:02Z</time></trkpt><trkpt lat="43.19128469028032" lon="10.728173659657886"><ele>279.0</ele><time>2026-03-24T17:08:03Z</time></trkpt><trkpt lat="43.19107976456373" lon="10.728233605603165"><ele>279.0</ele><time>2026-03-24T17:08:04Z</time></trkpt><trkpt lat="43.1908583852854" lon="10.728337183488355"><ele>279.0</ele><time>2026-03-24T17:08:05Z</time></trkpt><trkpt lat="43.19062565059444" lon="10.7284494106474"><ele>278.0</ele><time>2026-03-24T17:08:06Z</time></trkpt><trkpt lat="43.190379181746096" lon="10.72855518619366"><ele>277.0</ele><time>2026-03-24T17:08:07Z</time></trkpt><trkpt lat="43.19012983856126" lon="10.728668494016443"><ele>277.0</ele><time>2026-03-24T17:08:08Z</time></trkpt><trkpt lat="43.189915729313995" lon="10.728738447119065"><ele>277.0</ele><time>2026-03-24T17:08:09Z</time></trkpt><trkpt lat="43.189737628544265" lon="10.728776652391694"><ele>277.0</ele><time>2026-03-24T17:08:10Z</time></trkpt><trkpt lat="43.18958008752537" lon="10.728748224370722"><ele>279.0</ele><time>2026-03-24T17:08:11Z</time></trkpt><trkpt lat="43.189445127807545" lon="10.728687108112656"><ele>281.0</ele><time>2026-03-24T17:08:12Z</time></trkpt><trkpt lat="43.18936120152842" lon="10.728592447702042"><ele>283.0</ele><time>2026-03-24T17:08:13Z</time></trkpt><trkpt lat="43.18931108660451" lon="10.72846622033852"><ele>285.0</ele><time>2026-03-24T17:08:14Z</time></trkpt><trkpt lat="43.18932914985339" lon="10.72830002067701"><ele>285.2</ele><time>2026-03-24T17:08:15Z</time></trkpt><trkpt lat="43.18932102284352" lon="10.728163368970254"><ele>285.4</ele><time>2026-03-24T17:08:16Z</time></trkpt><trkpt lat="43.189337619234884" lon="10.728058811155908"><ele>285.6</ele><time>2026-03-24T17:08:17Z</time></trkpt><trkpt lat="43.18935869458828" lon="10.727943826167824"><ele>285.8</ele><time>2026-03-24T17:08:18Z</time></trkpt><trkpt lat="43.1893859657642" lon="10.727813785698935"><ele>286.0</ele><time>2026-03-24T17:08:19Z</time></trkpt><trkpt lat="43.18940705999241" lon="10.727682103969727"><ele>286.8</ele><time>2026-03-24T17:08:20Z</time></trkpt><trkpt lat="43.18939830999844" lon="10.727546311818466"><ele>287.6</ele><time>2026-03-24T17:08:21Z</time></trkpt><trkpt lat="43.18936188423561" lon="10.727423302730063"><ele>288.4</ele><time>2026-03-24T17:08:22Z</time></trkpt><trkpt lat="43.18930331296282" lon="10.727309970249546"><ele>289.2</ele><time>2026-03-24T17:08:23Z</time></trkpt><trkpt lat="43.189232146372916" lon="10.727223284328055"><ele>290.0</ele><time>2026-03-24T17:08:24Z</time></trkpt><trkpt lat="43.18915255340348" lon="10.727156979848653"><ele>290.0</ele><time>2026-03-24T17:08:25.001Z</time></trkpt><trkpt lat="43.18905628211708" lon="10.727135610868773"><ele>290.0</ele><time>2026-03-24T17:08:26Z</time></trkpt><trkpt lat="43.188955414290206" lon="10.727136709111829"><ele>290.0</ele><time>2026-03-24T17:08:27Z</time></trkpt><trkpt lat="43.188864762316065" lon="10.727152621590776"><ele>290.0</ele><time>2026-03-24T17:08:28Z</time></trkpt><trkpt lat="43.188772040981185" lon="10.72719673278817"><ele>290.0</ele><time>2026-03-24T17:08:29Z</time></trkpt><trkpt lat="43.18869698399391" lon="10.72724869080761"><ele>290.33333333333337</ele><time>2026-03-24T17:08:30Z</time></trkpt><trkpt lat="43.18863419889143" lon="10.727271831937117"><ele>290.6666666666667</ele><time>2026-03-24T17:08:31Z</time></trkpt><trkpt lat="43.18855077501087" lon="10.727269672246024"><ele>291.0</ele><time>2026-03-24T17:08:32Z</time></trkpt><trkpt lat="43.188470051386936" lon="10.727220625117317"><ele>291.3333333333333</ele><time>2026-03-24T17:08:33Z</time></trkpt><trkpt lat="43.188425359348095" lon="10.7271316519185"><ele>291.66666666666663</ele><time>2026-03-24T17:08:34Z</time></trkpt><trkpt lat="43.18839573434793" lon="10.727005405124306"><ele>292.0</ele><time>2026-03-24T17:08:35Z</time></trkpt><trkpt lat="43.188378601299426" lon="10.72683096651057"><ele>292.0</ele><time>2026-03-24T17:08:36Z</time></trkpt><trkpt lat="43.1883881182297" lon="10.726613613779232"><ele>292.0</ele><time>2026-03-24T17:08:37Z</time></trkpt><trkpt lat="43.18838679245688" lon="10.726401107483273"><ele>292.0</ele><time>2026-03-24T17:08:38Z</time></trkpt><trkpt lat="43.18838329447203" lon="10.726141775807392"><ele>294.3333333333333</ele><time>2026-03-24T17:08:39Z</time></trkpt><trkpt lat="43.18834788588299" lon="10.7258913067034"><ele>296.6666666666667</ele><time>2026-03-24T17:08:40Z</time></trkpt><trkpt lat="43.188287084175194" lon="10.725675674311026"><ele>299.0</ele><time>2026-03-24T17:08:41Z</time></trkpt><trkpt lat="43.18821245750656" lon="10.72551543303921"><ele>297.75</ele><time>2026-03-24T17:08:42Z</time></trkpt><trkpt lat="43.18813370991155" lon="10.725417139981133"><ele>296.5</ele><time>2026-03-24T17:08:43Z</time></trkpt><trkpt lat="43.18801756179748" lon="10.725359934572063"><ele>295.25</ele><time>2026-03-24T17:08:44Z</time></trkpt><trkpt lat="43.18787691875401" lon="10.725327937797976"><ele>294.0</ele><time>2026-03-24T17:08:45Z</time></trkpt><trkpt lat="43.18771327128824" lon="10.725315912326568"><ele>294.0</ele><time>2026-03-24T17:08:46Z</time></trkpt><trkpt lat="43.18752482851278" lon="10.725368285580256"><ele>294.0</ele><time>2026-03-24T17:08:47Z</time></trkpt><trkpt lat="43.18730883166199" lon="10.725445061763704"><ele>294.0</ele><time>2026-03-24T17:08:48Z</time></trkpt><trkpt lat="43.18707914180404" lon="10.725529058218576"><ele>297.5</ele><time>2026-03-24T17:08:49Z</time></trkpt><trkpt lat="43.186834274888575" lon="10.725613629699751"><ele>301.0</ele><time>2026-03-24T17:08:50Z</time></trkpt><trkpt lat="43.18658673467619" lon="10.725712967185057"><ele>306.66666666666663</ele><time>2026-03-24T17:08:51Z</time></trkpt><trkpt lat="43.18637510104587" lon="10.725859807593173"><ele>312.3333333333333</ele><time>2026-03-24T17:08:52Z</time></trkpt><trkpt lat="43.186213046510474" lon="10.726003693716562"><ele>318.0</ele><time>2026-03-24T17:08:53Z</time></trkpt><trkpt lat="43.18610256883105" lon="10.726156161328456"><ele>318.0</ele><time>2026-03-24T17:08:54Z</time></trkpt><trkpt lat="43.18602988173814" lon="10.726348128484824"><ele>318.0</ele><time>2026-03-24T17:08:55Z</time></trkpt><trkpt lat="43.18611227431523" lon="10.726582474243338"><ele>318.0</ele><time>2026-03-24T17:08:56Z</time></trkpt><trkpt lat="43.1861079751696" lon="10.726788552055673"><ele>312.0</ele><time>2026-03-24T17:08:57Z</time></trkpt><trkpt lat="43.18602087091296" lon="10.726982275515365"><ele>306.0</ele><time>2026-03-24T17:08:58Z</time></trkpt><trkpt lat="43.18589116062047" lon="10.727158426650611"><ele>300.0</ele><time>2026-03-24T17:08:59Z</time></trkpt><trkpt lat="43.185745974558245" lon="10.727346343319173"><ele>304.0</ele><time>2026-03-24T17:09:00Z</time></trkpt><trkpt lat="43.18559190053646" lon="10.72753905756493"><ele>308.0</ele><time>2026-03-24T17:09:01Z</time></trkpt><trkpt lat="43.1855037033555" lon="10.727657041527872"><ele>312.0</ele><time>2026-03-24T17:09:02Z</time></trkpt><trkpt lat="43.185381121012185" lon="10.727639147766887"><ele>312.0</ele><time>2026-03-24T17:09:03Z</time></trkpt><trkpt lat="43.18523137337111" lon="10.727604563260474"><ele>312.0</ele><time>2026-03-24T17:09:04Z</time></trkpt><trkpt lat="43.185049756023986" lon="10.727504046292836"><ele>312.0</ele><time>2026-03-24T17:09:05Z</time></trkpt><trkpt lat="43.18487310907307" lon="10.72738485992785"><ele>314.0</ele><time>2026-03-24T17:09:06Z</time></trkpt><trkpt lat="43.184734828412886" lon="10.727312292606689"><ele>316.0</ele><time>2026-03-24T17:09:07Z</time></trkpt><trkpt lat="43.184611921814245" lon="10.72731816933761"><ele>318.0</ele><time>2026-03-24T17:09:08Z</time></trkpt><trkpt lat="43.18449144685523" lon="10.727416581618176"><ele>320.0</ele><time>2026-03-24T17:09:09Z</time></trkpt><trkpt lat="43.18437570586488" lon="10.727582840863484"><ele>315.25</ele><time>2026-03-24T17:09:10Z</time></trkpt><trkpt lat="43.18427188887291" lon="10.72777015626979"><ele>310.5</ele><time>2026-03-24T17:09:11Z</time></trkpt><trkpt lat="43.184163926592525" lon="10.727862930842473"><ele>305.75</ele><time>2026-03-24T17:09:12Z</time></trkpt><trkpt lat="43.184055177002904" lon="10.727882116823176"><ele>301.0</ele><time>2026-03-24T17:09:13Z</time></trkpt><trkpt lat="43.18392024279162" lon="10.72781563866499"><ele>304.0</ele><time>2026-03-24T17:09:14Z</time></trkpt><trkpt lat="43.18374472449452" lon="10.727716613344798"><ele>307.0</ele><time>2026-03-24T17:09:15Z</time></trkpt><trkpt lat="43.18357463194844" lon="10.727543966289746"><ele>310.0</ele><time>2026-03-24T17:09:16Z</time></trkpt><trkpt lat="43.183437708559815" lon="10.727312938093604"><ele>310.0</ele><time>2026-03-24T17:09:17Z</time></trkpt><trkpt lat="43.183290395917304" lon="10.727075685460996"><ele>310.0</ele><time>2026-03-24T17:09:18Z</time></trkpt><trkpt lat="43.18320043999906" lon="10.726788469401647"><ele>310.66666666666663</ele><time>2026-03-24T17:09:19Z</time></trkpt><trkpt lat="43.18310672537047" lon="10.726515151719324"><ele>311.3333333333333</ele><time>2026-03-24T17:09:20Z</time></trkpt><trkpt lat="43.183028985741274" lon="10.726287108622335"><ele>312.0</ele><time>2026-03-24T17:09:21Z</time></trkpt><trkpt lat="43.18294034589814" lon="10.726132118305818"><ele>312.0</ele><time>2026-03-24T17:09:22Z</time></trkpt><trkpt lat="43.1828467625541" lon="10.726051482649126"><ele>312.0</ele><time>2026-03-24T17:09:23Z</time></trkpt><trkpt lat="43.182721015352904" lon="10.72603381631463"><ele>312.0</ele><time>2026-03-24T17:09:24Z</time></trkpt><trkpt lat="43.18257167676023" lon="10.726112917324933"><ele>312.0</ele><time>2026-03-24T17:09:25Z</time></trkpt><trkpt lat="43.18241940353803" lon="10.726215213199533"><ele>312.3333333333333</ele><time>2026-03-24T17:09:26Z</time></trkpt><trkpt lat="43.18223586978808" lon="10.726215088436112"><ele>312.66666666666663</ele><time>2026-03-24T17:09:27Z</time></trkpt><trkpt lat="43.18202797851476" lon="10.726221224346652"><ele>313.0</ele><time>2026-03-24T17:09:28Z</time></trkpt><trkpt lat="43.181875972804235" lon="10.72620704591694"><ele>313.0</ele><time>2026-03-24T17:09:29Z</time></trkpt><trkpt lat="43.18177158454634" lon="10.72612681733934"><ele>313.0</ele><time>2026-03-24T17:09:30Z</time></trkpt><trkpt lat="43.18167916146593" lon="10.726012517290924"><ele>313.0</ele><time>2026-03-24T17:09:31Z</time></trkpt><trkpt lat="43.18156141952586" lon="10.725888121343626"><ele>313.0</ele><time>2026-03-24T17:09:32Z</time></trkpt><trkpt lat="43.18145974318111" lon="10.72579592777077"><ele>313.75</ele><time>2026-03-24T17:09:33Z</time></trkpt><trkpt lat="43.18135265373549" lon="10.725810181905235"><ele>314.5</ele><time>2026-03-24T17:09:34Z</time></trkpt><trkpt lat="43.181255064045594" lon="10.725903580314812"><ele>315.25</ele><time>2026-03-24T17:09:35Z</time></trkpt><trkpt lat="43.18122331459297" lon="10.726096236972793"><ele>316.0</ele><time>2026-03-24T17:09:36Z</time></trkpt><trkpt lat="43.18121281569006" lon="10.726305666925423"><ele>316.0</ele><time>2026-03-24T17:09:37Z</time></trkpt><trkpt lat="43.18118174816183" lon="10.726478333888522"><ele>316.0</ele><time>2026-03-24T17:09:38Z</time></trkpt><trkpt lat="43.18109865563944" lon="10.72659797108406"><ele>316.0</ele><time>2026-03-24T17:09:39Z</time></trkpt><trkpt lat="43.18099568963944" lon="10.726584349009778"><ele>316.0</ele><time>2026-03-24T17:09:40Z</time></trkpt><trkpt lat="43.18092252995616" lon="10.726480210756124"><ele>316.0</ele><time>2026-03-24T17:09:41Z</time></trkpt><trkpt lat="43.180842100833345" lon="10.726385155897388"><ele>316.0</ele><time>2026-03-24T17:09:42Z</time></trkpt><trkpt lat="43.18074306227828" lon="10.726217019773653"><ele>316.0</ele><time>2026-03-24T17:09:43Z</time></trkpt><trkpt lat="43.180618715793884" lon="10.726029262206962"><ele>316.0</ele><time>2026-03-24T17:09:44Z</time></trkpt><trkpt lat="43.180470289819574" lon="10.725818262649412"><ele>318.0</ele><time>2026-03-24T17:09:45Z</time></trkpt><trkpt lat="43.180326110620136" lon="10.725631600955715"><ele>320.0</ele><time>2026-03-24T17:09:46Z</time></trkpt><trkpt lat="43.18015364825613" lon="10.72544089226897"><ele>322.0</ele><time>2026-03-24T17:09:47Z</time></trkpt><trkpt lat="43.1799493288745" lon="10.725308844660528"><ele>321.3333333333333</ele><time>2026-03-24T17:09:48Z</time></trkpt><trkpt lat="43.179731151307536" lon="10.72525376416225"><ele>320.6666666666667</ele><time>2026-03-24T17:09:49Z</time></trkpt><trkpt lat="43.179507195147906" lon="10.725218752825079"><ele>320.0</ele><time>2026-03-24T17:09:50Z</time></trkpt><trkpt lat="43.179338077948955" lon="10.725144713831627"><ele>321.75</ele><time>2026-03-24T17:09:51Z</time></trkpt><trkpt lat="43.17923222586183" lon="10.725032549261433"><ele>323.5</ele><time>2026-03-24T17:09:52Z</time></trkpt><trkpt lat="43.17912543390113" lon="10.724887121570195"><ele>325.25</ele><time>2026-03-24T17:09:53Z</time></trkpt><trkpt lat="43.17906705922287" lon="10.724687111965538"><ele>327.0</ele><time>2026-03-24T17:09:54Z</time></trkpt><trkpt lat="43.17906381873446" lon="10.724478471484845"><ele>327.6666666666667</ele><time>2026-03-24T17:09:55Z</time></trkpt><trkpt lat="43.179089109591295" lon="10.724249201279926"><ele>328.33333333333337</ele><time>2026-03-24T17:09:56Z</time></trkpt><trkpt lat="43.179138682910015" lon="10.724024744890556"><ele>329.0</ele><time>2026-03-24T17:09:57Z</time></trkpt><trkpt lat="43.17928275568413" lon="10.723864212928836"><ele>329.0</ele><time>2026-03-24T17:09:58Z</time></trkpt><trkpt lat="43.17942277174367" lon="10.723645879571194"><ele>329.0</ele><time>2026-03-24T17:09:59Z</time></trkpt><trkpt lat="43.179583446177304" lon="10.723455814854125"><ele>329.0</ele><time>2026-03-24T17:10:00Z</time></trkpt><trkpt lat="43.1797407820559" lon="10.723250893659444"><ele>333.6666666666667</ele><time>2026-03-24T17:10:01Z</time></trkpt><trkpt lat="43.17985145177688" lon="10.723057152648694"><ele>338.3333333333333</ele><time>2026-03-24T17:10:02Z</time></trkpt><trkpt lat="43.179912881020535" lon="10.722842160870565"><ele>343.0</ele><time>2026-03-24T17:10:03Z</time></trkpt><trkpt lat="43.17992857533472" lon="10.72257228305604"><ele>343.0</ele><time>2026-03-24T17:10:04Z</time></trkpt><trkpt lat="43.17989323224599" lon="10.7222776665432"><ele>343.0</ele><time>2026-03-24T17:10:05Z</time></trkpt><trkpt lat="43.179867469822156" lon="10.721961047910833"><ele>343.0</ele><time>2026-03-24T17:10:06Z</time></trkpt><trkpt lat="43.179857565868744" lon="10.721630274003063"><ele>343.0</ele><time>2026-03-24T17:10:07Z</time></trkpt><trkpt lat="43.179858326992466" lon="10.721298912080288"><ele>339.0</ele><time>2026-03-24T17:10:08Z</time></trkpt><trkpt lat="43.17984960614756" lon="10.721034958716112"><ele>335.0</ele><time>2026-03-24T17:10:09Z</time></trkpt><trkpt lat="43.17983749540002" lon="10.72081917363386"><ele>331.0</ele><time>2026-03-24T17:10:10Z</time></trkpt><trkpt lat="43.17978717945871" lon="10.720632463795312"><ele>331.0</ele><time>2026-03-24T17:10:11Z</time></trkpt><trkpt lat="43.17969003388969" lon="10.720466566920727"><ele>331.0</ele><time>2026-03-24T17:10:12Z</time></trkpt><trkpt lat="43.179526300609545" lon="10.720372446655896"><ele>331.0</ele><time>2026-03-24T17:10:13Z</time></trkpt><trkpt lat="43.17934610305613" lon="10.72023645101995"><ele>333.25</ele><time>2026-03-24T17:10:14Z</time></trkpt><trkpt lat="43.17920475083966" lon="10.720134268258624"><ele>335.5</ele><time>2026-03-24T17:10:15Z</time></trkpt><trkpt lat="43.17910213407247" lon="10.72003951209007"><ele>337.75</ele><time>2026-03-24T17:10:16Z</time></trkpt><trkpt lat="43.17906189130233" lon="10.719888517683342"><ele>340.0</ele><time>2026-03-24T17:10:17Z</time></trkpt><trkpt lat="43.179077214455766" lon="10.719715340355588"><ele>340.0</ele><time>2026-03-24T17:10:18Z</time></trkpt><trkpt lat="43.179161701709475" lon="10.71954086420005"><ele>340.0</ele><time>2026-03-24T17:10:19Z</time></trkpt><trkpt lat="43.17923008804308" lon="10.719321485127658"><ele>340.0</ele><time>2026-03-24T17:10:20Z</time></trkpt><trkpt lat="43.17928805823797" lon="10.719078793388752"><ele>341.66666666666663</ele><time>2026-03-24T17:10:21Z</time></trkpt><trkpt lat="43.17932619331583" lon="10.718797802858736"><ele>343.3333333333333</ele><time>2026-03-24T17:10:22Z</time></trkpt><trkpt lat="43.17933102325075" lon="10.71854871662817"><ele>345.0</ele><time>2026-03-24T17:10:23Z</time></trkpt><trkpt lat="43.17928879588943" lon="10.71834228342479"><ele>346.6666666666667</ele><time>2026-03-24T17:10:24Z</time></trkpt><trkpt lat="43.179188587167594" lon="10.71813701687913"><ele>348.33333333333337</ele><time>2026-03-24T17:10:25Z</time></trkpt><trkpt lat="43.17905327516708" lon="10.71797800860201"><ele>350.0</ele><time>2026-03-24T17:10:26Z</time></trkpt><trkpt lat="43.178915156043914" lon="10.717899864267151"><ele>345.33333333333337</ele><time>2026-03-24T17:10:27Z</time></trkpt><trkpt lat="43.178753670450966" lon="10.717891119521742"><ele>340.6666666666667</ele><time>2026-03-24T17:10:28Z</time></trkpt><trkpt lat="43.178580261903576" lon="10.717916465213126"><ele>336.0</ele><time>2026-03-24T17:10:29Z</time></trkpt><trkpt lat="43.17844694960679" lon="10.717878541980586"><ele>336.0</ele><time>2026-03-24T17:10:30Z</time></trkpt><trkpt lat="43.1783350261213" lon="10.71777921837433"><ele>336.0</ele><time>2026-03-24T17:10:31Z</time></trkpt><trkpt lat="43.178256492431935" lon="10.717590189236546"><ele>336.0</ele><time>2026-03-24T17:10:32Z</time></trkpt><trkpt lat="43.17822688331249" lon="10.717388289462248"><ele>336.0</ele><time>2026-03-24T17:10:33Z</time></trkpt><trkpt lat="43.178184649355565" lon="10.717194767859283"><ele>336.5</ele><time>2026-03-24T17:10:34Z</time></trkpt><trkpt lat="43.17811156950063" lon="10.717076175322857"><ele>337.0</ele><time>2026-03-24T17:10:35Z</time></trkpt><trkpt lat="43.17796830856747" lon="10.717006787383655"><ele>337.5</ele><time>2026-03-24T17:10:36Z</time></trkpt><trkpt lat="43.177808607453784" lon="10.716985080485394"><ele>338.0</ele><time>2026-03-24T17:10:37Z</time></trkpt><trkpt lat="43.17767371720633" lon="10.716897627913209"><ele>341.25</ele><time>2026-03-24T17:10:38Z</time></trkpt><trkpt lat="43.1776078111478" lon="10.716766156514577"><ele>344.5</ele><time>2026-03-24T17:10:39Z</time></trkpt><trkpt lat="43.177587874393225" lon="10.716614525569229"><ele>347.75</ele><time>2026-03-24T17:10:40Z</time></trkpt><trkpt lat="43.177653893562315" lon="10.716462522239702"><ele>351.0</ele><time>2026-03-24T17:10:41Z</time></trkpt><trkpt lat="43.17776576854199" lon="10.716305715871293"><ele>351.0</ele><time>2026-03-24T17:10:42Z</time></trkpt><trkpt lat="43.17788151393287" lon="10.71612051705613"><ele>351.0</ele><time>2026-03-24T17:10:43Z</time></trkpt><trkpt lat="43.17796615727822" lon="10.715924314099897"><ele>351.0</ele><time>2026-03-24T17:10:44Z</time></trkpt><trkpt lat="43.178007474998374" lon="10.715732112443836"><ele>352.25</ele><time>2026-03-24T17:10:45Z</time></trkpt><trkpt lat="43.17800684770792" lon="10.71552644847951"><ele>353.5</ele><time>2026-03-24T17:10:46Z</time></trkpt><trkpt lat="43.17794424469252" lon="10.715338849471745"><ele>354.75</ele><time>2026-03-24T17:10:47Z</time></trkpt><trkpt lat="43.17783004068052" lon="10.715210206817376"><ele>356.0</ele><time>2026-03-24T17:10:48Z</time></trkpt><trkpt lat="43.177687813168305" lon="10.715143370845018"><ele>359.0</ele><time>2026-03-24T17:10:49Z</time></trkpt><trkpt lat="43.17752084994003" lon="10.715091875362951"><ele>362.0</ele><time>2026-03-24T17:10:50Z</time></trkpt><trkpt lat="43.17737027362166" lon="10.715065919917857"><ele>365.0</ele><time>2026-03-24T17:10:51Z</time></trkpt><trkpt lat="43.17724201900946" lon="10.715084266740119"><ele>365.0</ele><time>2026-03-24T17:10:52Z</time></trkpt><trkpt lat="43.17715036778521" lon="10.715153763951268"><ele>365.0</ele><time>2026-03-24T17:10:53Z</time></trkpt><trkpt lat="43.177087096962836" lon="10.7152302880939"><ele>365.0</ele><time>2026-03-24T17:10:54Z</time></trkpt><trkpt lat="43.17700946129524" lon="10.71525606434639"><ele>365.0</ele><time>2026-03-24T17:10:56Z</time></trkpt><trkpt lat="43.17703211470597" lon="10.715150785317153"><ele>365.0</ele><time>2026-03-24T17:11:03Z</time></trkpt><trkpt lat="43.17711284298694" lon="10.715017759252301"><ele>365.0</ele><time>2026-03-24T17:11:05Z</time></trkpt><trkpt lat="43.17715400813099" lon="10.714940564453736"><ele>365.0</ele><time>2026-03-24T17:11:06Z</time></trkpt><trkpt lat="43.17723116620056" lon="10.714816607910405"><ele>365.0</ele><time>2026-03-24T17:11:08Z</time></trkpt><trkpt lat="43.17727850305201" lon="10.71475180715919"><ele>365.0</ele><time>2026-03-24T17:11:09Z</time></trkpt><trkpt lat="43.177332838430274" lon="10.714688987267335"><ele>365.0</ele><time>2026-03-24T17:11:10Z</time></trkpt><trkpt lat="43.17739047462367" lon="10.714626036942008"><ele>365.0</ele><time>2026-03-24T17:11:11Z</time></trkpt><trkpt lat="43.177456987620495" lon="10.714552232775592"><ele>365.1666666666667</ele><time>2026-03-24T17:11:12Z</time></trkpt><trkpt lat="43.17753049937174" lon="10.714479397704407"><ele>365.33333333333337</ele><time>2026-03-24T17:11:13Z</time></trkpt><trkpt lat="43.17759979520924" lon="10.714422659829244"><ele>365.5</ele><time>2026-03-24T17:11:14Z</time></trkpt><trkpt lat="43.17765334558721" lon="10.7143739142698"><ele>365.6666666666667</ele><time>2026-03-24T17:11:15Z</time></trkpt><trkpt lat="43.17772503548165" lon="10.714318406754993"><ele>365.8333333333333</ele><time>2026-03-24T17:11:16Z</time></trkpt><trkpt lat="43.17780091300958" lon="10.714267599245229"><ele>366.0</ele><time>2026-03-24T17:11:17Z</time></trkpt><trkpt lat="43.177870445224464" lon="10.71421473957278"><ele>365.20000000000005</ele><time>2026-03-24T17:11:18Z</time></trkpt><trkpt lat="43.17795312401992" lon="10.71417935608304"><ele>364.40000000000003</ele><time>2026-03-24T17:11:20Z</time></trkpt><trkpt lat="43.177984526239534" lon="10.714095281134849"><ele>363.6</ele><time>2026-03-24T17:11:25Z</time></trkpt><trkpt lat="43.177867616828834" lon="10.714166826203236"><ele>362.8</ele><time>2026-03-24T17:11:27Z</time></trkpt><trkpt lat="43.17778570205808" lon="10.714236876059665"><ele>362.0</ele><time>2026-03-24T17:11:28Z</time></trkpt><trkpt lat="43.1776992105533" lon="10.714297235458945"><ele>362.0</ele><time>2026-03-24T17:11:29Z</time></trkpt><trkpt lat="43.177612650164754" lon="10.714364461381143"><ele>362.0</ele><time>2026-03-24T17:11:30Z</time></trkpt><trkpt lat="43.17752199093798" lon="10.71444238703818"><ele>362.0</ele><time>2026-03-24T17:11:31Z</time></trkpt><trkpt lat="43.17743873077748" lon="10.71450997230688"><ele>362.0</ele><time>2026-03-24T17:11:32Z</time></trkpt><trkpt lat="43.17736890329454" lon="10.714569659843363"><ele>362.0</ele><time>2026-03-24T17:11:33Z</time></trkpt><trkpt lat="43.17730320178912" lon="10.714643945103788"><ele>362.5</ele><time>2026-03-24T17:11:34Z</time></trkpt><trkpt lat="43.17724399172046" lon="10.714726654672857"><ele>363.0</ele><time>2026-03-24T17:11:35Z</time></trkpt><trkpt lat="43.17718527688027" lon="10.714805409563096"><ele>363.5</ele><time>2026-03-24T17:11:36Z</time></trkpt><trkpt lat="43.17712669314853" lon="10.714903191829855"><ele>364.0</ele><time>2026-03-24T17:11:37Z</time></trkpt><trkpt lat="43.17707838121052" lon="10.714985881308841"><ele>364.5</ele><time>2026-03-24T17:11:38Z</time></trkpt><trkpt lat="43.17704174462761" lon="10.71506071540881"><ele>365.0</ele><time>2026-03-24T17:11:39Z</time></trkpt><trkpt lat="43.176984756407265" lon="10.715179252919677"><ele>365.0</ele><time>2026-03-24T17:11:41Z</time></trkpt><trkpt lat="43.1770026272308" lon="10.71530356300155"><ele>365.0</ele><time>2026-03-24T17:11:43Z</time></trkpt><trkpt lat="43.17708399276449" lon="10.71533976753335"><ele>365.0</ele><time>2026-03-24T17:11:44Z</time></trkpt><trkpt lat="43.17715413902699" lon="10.71525798114911"><ele>365.0</ele><time>2026-03-24T17:11:45Z</time></trkpt><trkpt lat="43.17721906317109" lon="10.715179875285616"><ele>365.0</ele><time>2026-03-24T17:11:46Z</time></trkpt><trkpt lat="43.17727887700714" lon="10.715126241714653"><ele>365.0</ele><time>2026-03-24T17:11:47Z</time></trkpt><trkpt lat="43.17735231347251" lon="10.715109367640038"><ele>365.0</ele><time>2026-03-24T17:11:49Z</time></trkpt><trkpt lat="43.17733942244094" lon="10.71521091533174"><ele>365.0</ele><time>2026-03-24T17:11:52Z</time></trkpt><trkpt lat="43.17728323221671" lon="10.715304992917973"><ele>365.0</ele><time>2026-03-24T17:11:53Z</time></trkpt><trkpt lat="43.17721920581235" lon="10.715438031988953"><ele>365.0</ele><time>2026-03-24T17:11:54Z</time></trkpt><trkpt lat="43.17712801806664" lon="10.715565353333876"><ele>365.0</ele><time>2026-03-24T17:11:55Z</time></trkpt><trkpt lat="43.17704156783063" lon="10.715681245759283"><ele>361.5</ele><time>2026-03-24T17:11:56Z</time></trkpt><trkpt lat="43.17692955950709" lon="10.715760571504843"><ele>358.0</ele><time>2026-03-24T17:11:57Z</time></trkpt><trkpt lat="43.17678004870103" lon="10.715747506258065"><ele>354.5</ele><time>2026-03-24T17:11:58Z</time></trkpt><trkpt lat="43.176609549822494" lon="10.715791962843324"><ele>351.0</ele><time>2026-03-24T17:11:59Z</time></trkpt><trkpt lat="43.17642898297421" lon="10.715826185704607"><ele>349.75</ele><time>2026-03-24T17:12:00Z</time></trkpt><trkpt lat="43.17628127417102" lon="10.71585922842061"><ele>348.5</ele><time>2026-03-24T17:12:01Z</time></trkpt><trkpt lat="43.176160612539825" lon="10.715864835302183"><ele>347.25</ele><time>2026-03-24T17:12:02Z</time></trkpt><trkpt lat="43.176050077721584" lon="10.715828218039055"><ele>346.0</ele><time>2026-03-24T17:12:03Z</time></trkpt><trkpt lat="43.17596156820451" lon="10.715710303945702"><ele>346.0</ele><time>2026-03-24T17:12:04Z</time></trkpt><trkpt lat="43.175866394194635" lon="10.715627091297948"><ele>346.0</ele><time>2026-03-24T17:12:05Z</time></trkpt><trkpt lat="43.175807296190236" lon="10.71558719292545"><ele>346.0</ele><time>2026-03-24T17:12:06Z</time></trkpt><trkpt lat="43.175693004305856" lon="10.715710319501978"><ele>346.0</ele><time>2026-03-24T17:12:08Z</time></trkpt><trkpt lat="43.17559502134236" lon="10.715813025128659"><ele>346.0</ele><time>2026-03-24T17:12:09Z</time></trkpt><trkpt lat="43.17545341199481" lon="10.715850816401634"><ele>343.0</ele><time>2026-03-24T17:12:10Z</time></trkpt><trkpt lat="43.17532526339531" lon="10.715925579400936"><ele>340.0</ele><time>2026-03-24T17:12:11Z</time></trkpt><trkpt lat="43.17520644552953" lon="10.716011507865252"><ele>337.0</ele><time>2026-03-24T17:12:12Z</time></trkpt><trkpt lat="43.175114811714124" lon="10.716201395431584"><ele>334.0</ele><time>2026-03-24T17:12:13Z</time></trkpt><trkpt lat="43.17502098316417" lon="10.716368418247162"><ele>334.0</ele><time>2026-03-24T17:12:14Z</time></trkpt><trkpt lat="43.17493149408146" lon="10.716511416398099"><ele>334.0</ele><time>2026-03-24T17:12:15Z</time></trkpt><trkpt lat="43.17485373866722" lon="10.716632817841578"><ele>334.0</ele><time>2026-03-24T17:12:16Z</time></trkpt><trkpt lat="43.17478708866774" lon="10.716739832777419"><ele>334.0</ele><time>2026-03-24T17:12:17Z</time></trkpt><trkpt lat="43.17470238302036" lon="10.716807578130293"><ele>331.0</ele><time>2026-03-24T17:12:18Z</time></trkpt><trkpt lat="43.174605074299926" lon="10.716809487575812"><ele>328.0</ele><time>2026-03-24T17:12:19Z</time></trkpt><trkpt lat="43.174525662532254" lon="10.716732137640324"><ele>325.0</ele><time>2026-03-24T17:12:20Z</time></trkpt><trkpt lat="43.174475133384036" lon="10.71660210259861"><ele>322.0</ele><time>2026-03-24T17:12:21Z</time></trkpt><trkpt lat="43.17444911519866" lon="10.716465380816485"><ele>319.0</ele><time>2026-03-24T17:12:22Z</time></trkpt><trkpt lat="43.174431265748524" lon="10.716324989932524"><ele>319.0</ele><time>2026-03-24T17:12:23Z</time></trkpt><trkpt lat="43.17442914627638" lon="10.716183858588131"><ele>319.0</ele><time>2026-03-24T17:12:24Z</time></trkpt><trkpt lat="43.17444421515158" lon="10.71605289181563"><ele>319.0</ele><time>2026-03-24T17:12:25Z</time></trkpt><trkpt lat="43.174469853665826" lon="10.715931179591452"><ele>319.0</ele><time>2026-03-24T17:12:26Z</time></trkpt><trkpt lat="43.174490773332586" lon="10.715808520763897"><ele>319.0</ele><time>2026-03-24T17:12:27Z</time></trkpt><trkpt lat="43.17451181572927" lon="10.715683196152092"><ele>318.66666666666663</ele><time>2026-03-24T17:12:28Z</time></trkpt><trkpt lat="43.174528628466476" lon="10.715570353806344"><ele>318.3333333333333</ele><time>2026-03-24T17:12:29Z</time></trkpt><trkpt lat="43.17453042378801" lon="10.715457539162953"><ele>318.0</ele><time>2026-03-24T17:12:30Z</time></trkpt><trkpt lat="43.1745169952084" lon="10.715336586408702"><ele>317.6666666666667</ele><time>2026-03-24T17:12:31Z</time></trkpt><trkpt lat="43.174469899182704" lon="10.715231033958329"><ele>317.33333333333337</ele><time>2026-03-24T17:12:32Z</time></trkpt><trkpt lat="43.17439637701081" lon="10.715141470689218"><ele>317.0</ele><time>2026-03-24T17:12:33Z</time></trkpt><trkpt lat="43.174309228019304" lon="10.71510015894451"><ele>315.5</ele><time>2026-03-24T17:12:34Z</time></trkpt><trkpt lat="43.17419611313404" lon="10.715111535365866"><ele>314.0</ele><time>2026-03-24T17:12:35Z</time></trkpt><trkpt lat="43.17406919613256" lon="10.715183404667041"><ele>312.5</ele><time>2026-03-24T17:12:36Z</time></trkpt><trkpt lat="43.17390936388757" lon="10.715271726918013"><ele>311.0</ele><time>2026-03-24T17:12:37Z</time></trkpt><trkpt lat="43.17373539081616" lon="10.715397996206486"><ele>308.33333333333337</ele><time>2026-03-24T17:12:38Z</time></trkpt><trkpt lat="43.173559836032965" lon="10.715514277302118"><ele>305.6666666666667</ele><time>2026-03-24T17:12:39Z</time></trkpt><trkpt lat="43.1733720927369" lon="10.715646244517425"><ele>303.0</ele><time>2026-03-24T17:12:40Z</time></trkpt><trkpt lat="43.17317986426073" lon="10.7157520368138"><ele>300.6666666666667</ele><time>2026-03-24T17:12:41Z</time></trkpt><trkpt lat="43.17298779961785" lon="10.71585470997115"><ele>298.33333333333337</ele><time>2026-03-24T17:12:42Z</time></trkpt><trkpt lat="43.17280260810776" lon="10.715962090736681"><ele>296.0</ele><time>2026-03-24T17:12:43Z</time></trkpt><trkpt lat="43.17262674536347" lon="10.716096089578118"><ele>294.33333333333337</ele><time>2026-03-24T17:12:44Z</time></trkpt><trkpt lat="43.172458951444476" lon="10.716252574769921"><ele>292.6666666666667</ele><time>2026-03-24T17:12:45Z</time></trkpt><trkpt lat="43.17229568152986" lon="10.716435207486668"><ele>291.0</ele><time>2026-03-24T17:12:46Z</time></trkpt><trkpt lat="43.17214304847744" lon="10.71663929946792"><ele>290.0</ele><time>2026-03-24T17:12:47Z</time></trkpt><trkpt lat="43.171985924073546" lon="10.716829459521124"><ele>289.0</ele><time>2026-03-24T17:12:48Z</time></trkpt><trkpt lat="43.17186939326105" lon="10.717042261162046"><ele>288.0</ele><time>2026-03-24T17:12:49Z</time></trkpt><trkpt lat="43.17172953970057" lon="10.717197005564763"><ele>285.6666666666667</ele><time>2026-03-24T17:12:50Z</time></trkpt><trkpt lat="43.171577789194906" lon="10.717332131691188"><ele>283.33333333333337</ele><time>2026-03-24T17:12:51Z</time></trkpt><trkpt lat="43.17142345145789" lon="10.717452751153496"><ele>281.0</ele><time>2026-03-24T17:12:52Z</time></trkpt><trkpt lat="43.17132033238936" lon="10.717526189957956"><ele>280.8</ele><time>2026-03-24T17:12:53Z</time></trkpt><trkpt lat="43.17123771132779" lon="10.71757590087287"><ele>280.6</ele><time>2026-03-24T17:12:54Z</time></trkpt><trkpt lat="43.17115046263678" lon="10.717606012561541"><ele>280.4</ele><time>2026-03-24T17:12:55Z</time></trkpt><trkpt lat="43.171052604808004" lon="10.717541524040938"><ele>280.2</ele><time>2026-03-24T17:12:56Z</time></trkpt><trkpt lat="43.17099487967668" lon="10.71741664543078"><ele>280.0</ele><time>2026-03-24T17:12:57Z</time></trkpt><trkpt lat="43.170990886290376" lon="10.717259279307813"><ele>280.0</ele><time>2026-03-24T17:12:58Z</time></trkpt><trkpt lat="43.17103413356079" lon="10.717092158814674"><ele>280.0</ele><time>2026-03-24T17:12:59Z</time></trkpt><trkpt lat="43.17110573692262" lon="10.716918833319173"><ele>280.0</ele><time>2026-03-24T17:13:00Z</time></trkpt><trkpt lat="43.17120068016198" lon="10.716759868310925"><ele>280.0</ele><time>2026-03-24T17:13:01Z</time></trkpt><trkpt lat="43.1713026807337" lon="10.716611882302104"><ele>278.0</ele><time>2026-03-24T17:13:02Z</time></trkpt><trkpt lat="43.171382279578516" lon="10.716477609335945"><ele>276.0</ele><time>2026-03-24T17:13:03Z</time></trkpt><trkpt lat="43.17140215026465" lon="10.716315778016002"><ele>274.0</ele><time>2026-03-24T17:13:04Z</time></trkpt><trkpt lat="43.1713733806813" lon="10.71612178535553"><ele>272.0</ele><time>2026-03-24T17:13:05Z</time></trkpt><trkpt lat="43.171329969296586" lon="10.715911643423967"><ele>268.6666666666667</ele><time>2026-03-24T17:13:06Z</time></trkpt><trkpt lat="43.171359182457145" lon="10.715713748829847"><ele>265.3333333333333</ele><time>2026-03-24T17:13:07Z</time></trkpt><trkpt lat="43.1714046619639" lon="10.715508814757222"><ele>262.0</ele><time>2026-03-24T17:13:08Z</time></trkpt><trkpt lat="43.17148346122615" lon="10.71531660134214"><ele>260.75</ele><time>2026-03-24T17:13:09Z</time></trkpt><trkpt lat="43.17153549554891" lon="10.715126916801337"><ele>259.5</ele><time>2026-03-24T17:13:10Z</time></trkpt><trkpt lat="43.17155454417404" lon="10.71495022006304"><ele>258.25</ele><time>2026-03-24T17:13:11Z</time></trkpt><trkpt lat="43.171530010844826" lon="10.71475852360794"><ele>257.0</ele><time>2026-03-24T17:13:12Z</time></trkpt><trkpt lat="43.171453430571354" lon="10.714571314806678"><ele>257.0</ele><time>2026-03-24T17:13:13Z</time></trkpt><trkpt lat="43.17135545630898" lon="10.714413645619697"><ele>257.0</ele><time>2026-03-24T17:13:14Z</time></trkpt><trkpt lat="43.17127790960006" lon="10.714294938840473"><ele>257.0</ele><time>2026-03-24T17:13:15Z</time></trkpt><trkpt lat="43.17119900432972" lon="10.714222951500302"><ele>257.0</ele><time>2026-03-24T17:13:16Z</time></trkpt><trkpt lat="43.17108529758827" lon="10.714210003999526"><ele>256.0</ele><time>2026-03-24T17:13:17Z</time></trkpt><trkpt lat="43.170947331940596" lon="10.714265844399186"><ele>255.0</ele><time>2026-03-24T17:13:18Z</time></trkpt><trkpt lat="43.17079145526211" lon="10.714338499850259"><ele>254.0</ele><time>2026-03-24T17:13:19Z</time></trkpt><trkpt lat="43.17060321165847" lon="10.714343955267303"><ele>251.0</ele><time>2026-03-24T17:13:20Z</time></trkpt><trkpt lat="43.170389869015956" lon="10.714343122452943"><ele>248.0</ele><time>2026-03-24T17:13:21Z</time></trkpt><trkpt lat="43.170159411472035" lon="10.714352366874614"><ele>245.0</ele><time>2026-03-24T17:13:22Z</time></trkpt><trkpt lat="43.16992359048514" lon="10.714364894725243"><ele>245.0</ele><time>2026-03-24T17:13:23Z</time></trkpt><trkpt lat="43.16968806318731" lon="10.714391296193634"><ele>245.0</ele><time>2026-03-24T17:13:24Z</time></trkpt><trkpt lat="43.16946627470353" lon="10.714417139036792"><ele>245.0</ele><time>2026-03-24T17:13:25Z</time></trkpt><trkpt lat="43.169259232002304" lon="10.714465853381087"><ele>245.0</ele><time>2026-03-24T17:13:26Z</time></trkpt><trkpt lat="43.16906458491325" lon="10.714545067710388"><ele>245.0</ele><time>2026-03-24T17:13:27Z</time></trkpt><trkpt lat="43.16887845981498" lon="10.714675402379823"><ele>242.5</ele><time>2026-03-24T17:13:28Z</time></trkpt><trkpt lat="43.16868729677052" lon="10.714856144127953"><ele>240.0</ele><time>2026-03-24T17:13:29Z</time></trkpt><trkpt lat="43.168466229702716" lon="10.715042256400697"><ele>240.0</ele><time>2026-03-24T17:13:30Z</time></trkpt><trkpt lat="43.16825051620325" lon="10.715225603574291"><ele>240.0</ele><time>2026-03-24T17:13:31Z</time></trkpt><trkpt lat="43.16804348476901" lon="10.715419679457721"><ele>240.33333333333331</ele><time>2026-03-24T17:13:32Z</time></trkpt><trkpt lat="43.16785254503747" lon="10.715584066207787"><ele>240.66666666666666</ele><time>2026-03-24T17:13:33Z</time></trkpt><trkpt lat="43.16768407909906" lon="10.715727602926869"><ele>241.0</ele><time>2026-03-24T17:13:34Z</time></trkpt><trkpt lat="43.16753220130069" lon="10.715828920559407"><ele>241.0</ele><time>2026-03-24T17:13:35Z</time></trkpt><trkpt lat="43.167408977997255" lon="10.715886363781745"><ele>241.0</ele><time>2026-03-24T17:13:36Z</time></trkpt><trkpt lat="43.16727474446956" lon="10.71588029000496"><ele>241.0</ele><time>2026-03-24T17:13:37Z</time></trkpt><trkpt lat="43.16712211337218" lon="10.715810526664574"><ele>241.0</ele><time>2026-03-24T17:13:38Z</time></trkpt><trkpt lat="43.166932043108524" lon="10.71576750998359"><ele>240.33333333333331</ele><time>2026-03-24T17:13:39Z</time></trkpt><trkpt lat="43.166730619304516" lon="10.715739901765327"><ele>239.66666666666669</ele><time>2026-03-24T17:13:40Z</time></trkpt><trkpt lat="43.16650476003444" lon="10.715768940015154"><ele>239.0</ele><time>2026-03-24T17:13:41Z</time></trkpt><trkpt lat="43.16626270116609" lon="10.715809568918027"><ele>236.5</ele><time>2026-03-24T17:13:42Z</time></trkpt><trkpt lat="43.166009900183795" lon="10.715833974663793"><ele>234.0</ele><time>2026-03-24T17:13:43Z</time></trkpt><trkpt lat="43.16575499529714" lon="10.71585268912819"><ele>232.5</ele><time>2026-03-24T17:13:44Z</time></trkpt><trkpt lat="43.16550570691622" lon="10.71589018500126"><ele>231.0</ele><time>2026-03-24T17:13:45Z</time></trkpt><trkpt lat="43.16526816997868" lon="10.715945323251464"><ele>231.0</ele><time>2026-03-24T17:13:46Z</time></trkpt><trkpt lat="43.16503483939384" lon="10.716008147384295"><ele>231.0</ele><time>2026-03-24T17:13:47Z</time></trkpt><trkpt lat="43.16481428504075" lon="10.716071707064515"><ele>226.5</ele><time>2026-03-24T17:13:48Z</time></trkpt><trkpt lat="43.16458244718934" lon="10.716110450440182"><ele>222.0</ele><time>2026-03-24T17:13:49Z</time></trkpt><trkpt lat="43.1643267503661" lon="10.71612741845841"><ele>222.0</ele><time>2026-03-24T17:13:50Z</time></trkpt><trkpt lat="43.1640877722782" lon="10.716147126459948"><ele>222.0</ele><time>2026-03-24T17:13:51Z</time></trkpt><trkpt lat="43.163866834260716" lon="10.716173833560322"><ele>220.0</ele><time>2026-03-24T17:13:52Z</time></trkpt><trkpt lat="43.163666740774076" lon="10.716173951303492"><ele>218.0</ele><time>2026-03-24T17:13:53Z</time></trkpt><trkpt lat="43.16347771156763" lon="10.71616723051655"><ele>216.0</ele><time>2026-03-24T17:13:54Z</time></trkpt><trkpt lat="43.16329789027222" lon="10.716126580482808"><ele>215.0</ele><time>2026-03-24T17:13:55Z</time></trkpt><trkpt lat="43.16312130674398" lon="10.716063731864695"><ele>214.0</ele><time>2026-03-24T17:13:56Z</time></trkpt><trkpt lat="43.1629309823322" lon="10.716007021782644"><ele>213.0</ele><time>2026-03-24T17:13:57Z</time></trkpt><trkpt lat="43.16275322169477" lon="10.7159388264412"><ele>213.0</ele><time>2026-03-24T17:13:58Z</time></trkpt><trkpt lat="43.162584395562526" lon="10.715895989085668"><ele>213.0</ele><time>2026-03-24T17:13:59Z</time></trkpt><trkpt lat="43.162402116254576" lon="10.715893393219964"><ele>213.0</ele><time>2026-03-24T17:14:00Z</time></trkpt><trkpt lat="43.16222199384074" lon="10.715948327815699"><ele>210.0</ele><time>2026-03-24T17:14:01Z</time></trkpt><trkpt lat="43.16204245420678" lon="10.716046629837583"><ele>207.0</ele><time>2026-03-24T17:14:02Z</time></trkpt><trkpt lat="43.16186859277905" lon="10.716184574958822"><ele>204.0</ele><time>2026-03-24T17:14:03Z</time></trkpt><trkpt lat="43.161709533924984" lon="10.716363161792465"><ele>203.33333333333331</ele><time>2026-03-24T17:14:04Z</time></trkpt><trkpt lat="43.16157228845124" lon="10.716570260891217"><ele>202.66666666666666</ele><time>2026-03-24T17:14:05Z</time></trkpt><trkpt lat="43.16142941639995" lon="10.716744084301082"><ele>202.0</ele><time>2026-03-24T17:14:06Z</time></trkpt><trkpt lat="43.161287740134746" lon="10.7169105145921"><ele>199.0</ele><time>2026-03-24T17:14:07Z</time></trkpt><trkpt lat="43.161121463446406" lon="10.717043694094995"><ele>196.0</ele><time>2026-03-24T17:14:08Z</time></trkpt><trkpt lat="43.16091970756119" lon="10.717151085485419"><ele>193.0</ele><time>2026-03-24T17:14:09Z</time></trkpt><trkpt lat="43.16071025613722" lon="10.71730744572664"><ele>191.5</ele><time>2026-03-24T17:14:10Z</time></trkpt><trkpt lat="43.16049055396995" lon="10.717467923611544"><ele>190.0</ele><time>2026-03-24T17:14:11Z</time></trkpt><trkpt lat="43.16027317051066" lon="10.717659858933002"><ele>185.5</ele><time>2026-03-24T17:14:12Z</time></trkpt><trkpt lat="43.160054251511774" lon="10.71783712070465"><ele>181.0</ele><time>2026-03-24T17:14:13Z</time></trkpt><trkpt lat="43.15984841073433" lon="10.717993362228203"><ele>181.0</ele><time>2026-03-24T17:14:14Z</time></trkpt><trkpt lat="43.15965221380703" lon="10.718142777548206"><ele>181.0</ele><time>2026-03-24T17:14:15Z</time></trkpt><trkpt lat="43.15946962570142" lon="10.718292291054748"><ele>181.0</ele><time>2026-03-24T17:14:16Z</time></trkpt><trkpt lat="43.15930019520388" lon="10.718442469246387"><ele>181.0</ele><time>2026-03-24T17:14:17Z</time></trkpt><trkpt lat="43.15913804733627" lon="10.71856308924032"><ele>181.0</ele><time>2026-03-24T17:14:18Z</time></trkpt><trkpt lat="43.15896265077307" lon="10.718631016783988"><ele>181.0</ele><time>2026-03-24T17:14:19Z</time></trkpt><trkpt lat="43.158749811403005" lon="10.718617149619368"><ele>178.0</ele><time>2026-03-24T17:14:20Z</time></trkpt><trkpt lat="43.15851905312005" lon="10.71862499549226"><ele>175.0</ele><time>2026-03-24T17:14:21Z</time></trkpt><trkpt lat="43.158277929615444" lon="10.718667287430824"><ele>177.5</ele><time>2026-03-24T17:14:22Z</time></trkpt><trkpt lat="43.1580392974105" lon="10.718740594805714"><ele>180.0</ele><time>2026-03-24T17:14:23Z</time></trkpt><trkpt lat="43.15780018123707" lon="10.718858082702212"><ele>180.0</ele><time>2026-03-24T17:14:24Z</time></trkpt><trkpt lat="43.15756634795589" lon="10.718964410555424"><ele>180.0</ele><time>2026-03-24T17:14:25Z</time></trkpt><trkpt lat="43.15735024903256" lon="10.71905740932232"><ele>179.0</ele><time>2026-03-24T17:14:26Z</time></trkpt><trkpt lat="43.1571441663283" lon="10.719161228080795"><ele>178.0</ele><time>2026-03-24T17:14:27Z</time></trkpt><trkpt lat="43.156955173996586" lon="10.719290899871421"><ele>177.0</ele><time>2026-03-24T17:14:28Z</time></trkpt><trkpt lat="43.15678542380554" lon="10.719414848536093"><ele>177.0</ele><time>2026-03-24T17:14:29Z</time></trkpt><trkpt lat="43.15662694856095" lon="10.71951506730701"><ele>177.0</ele><time>2026-03-24T17:14:30Z</time></trkpt><trkpt lat="43.1564807945703" lon="10.71960726417201"><ele>177.0</ele><time>2026-03-24T17:14:31Z</time></trkpt><trkpt lat="43.156352325645386" lon="10.719728934074544"><ele>174.0</ele><time>2026-03-24T17:14:32Z</time></trkpt><trkpt lat="43.15624430256434" lon="10.719911462553636"><ele>171.0</ele><time>2026-03-24T17:14:33Z</time></trkpt><trkpt lat="43.156139634920116" lon="10.720142693882433"><ele>168.0</ele><time>2026-03-24T17:14:34Z</time></trkpt><trkpt lat="43.15602155001985" lon="10.72039234188343"><ele>166.0</ele><time>2026-03-24T17:14:35Z</time></trkpt><trkpt lat="43.15589007151194" lon="10.7206612566118"><ele>164.0</ele><time>2026-03-24T17:14:36Z</time></trkpt><trkpt lat="43.15575214002414" lon="10.720951215488146"><ele>158.5</ele><time>2026-03-24T17:14:37Z</time></trkpt><trkpt lat="43.155589144745505" lon="10.721215501898845"><ele>153.0</ele><time>2026-03-24T17:14:38Z</time></trkpt><trkpt lat="43.15543262816913" lon="10.721486319770314"><ele>153.0</ele><time>2026-03-24T17:14:39Z</time></trkpt><trkpt lat="43.15528911369469" lon="10.72175162890914"><ele>153.0</ele><time>2026-03-24T17:14:40Z</time></trkpt><trkpt lat="43.15514609298463" lon="10.721985560783093"><ele>152.5</ele><time>2026-03-24T17:14:41Z</time></trkpt><trkpt lat="43.15502355972729" lon="10.72217252898541"><ele>152.0</ele><time>2026-03-24T17:14:42Z</time></trkpt><trkpt lat="43.15492460780964" lon="10.722319089886971"><ele>151.5</ele><time>2026-03-24T17:14:43Z</time></trkpt><trkpt lat="43.1548560963487" lon="10.722452501496868"><ele>151.0</ele><time>2026-03-24T17:14:44Z</time></trkpt><trkpt lat="43.15482665433618" lon="10.722603831068412"><ele>149.0</ele><time>2026-03-24T17:14:45Z</time></trkpt><trkpt lat="43.1548523743248" lon="10.722763849483172"><ele>147.0</ele><time>2026-03-24T17:14:46Z</time></trkpt><trkpt lat="43.15494247857808" lon="10.722900672579106"><ele>145.0</ele><time>2026-03-24T17:14:47Z</time></trkpt><trkpt lat="43.155097093545116" lon="10.722939637793012"><ele>143.0</ele><time>2026-03-24T17:14:48Z</time></trkpt><trkpt lat="43.15525731203057" lon="10.722935123102118"><ele>143.0</ele><time>2026-03-24T17:14:49Z</time></trkpt><trkpt lat="43.15543633048344" lon="10.722906339091042"><ele>143.0</ele><time>2026-03-24T17:14:50Z</time></trkpt><trkpt lat="43.155602699587206" lon="10.722886510498924"><ele>143.0</ele><time>2026-03-24T17:14:51Z</time></trkpt><trkpt lat="43.155719713850196" lon="10.722923033289433"><ele>143.0</ele><time>2026-03-24T17:14:52Z</time></trkpt><trkpt lat="43.155802529546214" lon="10.722956908750726"><ele>143.0</ele><time>2026-03-24T17:14:53Z</time></trkpt><trkpt lat="43.155863086426855" lon="10.723032691312147"><ele>143.0</ele><time>2026-03-24T17:14:54Z</time></trkpt><trkpt lat="43.15581930904255" lon="10.723173327395038"><ele>143.0</ele><time>2026-03-24T17:14:55Z</time></trkpt><trkpt lat="43.15577649038871" lon="10.723279347656828"><ele>143.0</ele><time>2026-03-24T17:14:56Z</time></trkpt><trkpt lat="43.155643250428206" lon="10.723316544917155"><ele>143.0</ele><time>2026-03-24T17:14:57Z</time></trkpt><trkpt lat="43.15549804739429" lon="10.723404059625745"><ele>143.0</ele><time>2026-03-24T17:14:58Z</time></trkpt><trkpt lat="43.155321699232395" lon="10.723469047183684"><ele>143.0</ele><time>2026-03-24T17:14:59Z</time></trkpt><trkpt lat="43.155137572805565" lon="10.723557555296212"><ele>138.33333333333331</ele><time>2026-03-24T17:15:00Z</time></trkpt><trkpt lat="43.15495096289503" lon="10.723688646668615"><ele>133.66666666666666</ele><time>2026-03-24T17:15:01Z</time></trkpt><trkpt lat="43.15477560574872" lon="10.723847800654028"><ele>129.0</ele><time>2026-03-24T17:15:02Z</time></trkpt><trkpt lat="43.15462401120429" lon="10.723970516117754"><ele>128.33333333333334</ele><time>2026-03-24T17:15:03Z</time></trkpt><trkpt lat="43.1544751833494" lon="10.723988721093816"><ele>127.66666666666667</ele><time>2026-03-24T17:15:04Z</time></trkpt><trkpt lat="43.1543281611732" lon="10.723943012803781"><ele>127.0</ele><time>2026-03-24T17:15:05Z</time></trkpt><trkpt lat="43.1541474237979" lon="10.723884011647725"><ele>124.0</ele><time>2026-03-24T17:15:06Z</time></trkpt><trkpt lat="43.153986627928866" lon="10.723780735485022"><ele>121.0</ele><time>2026-03-24T17:15:07Z</time></trkpt><trkpt lat="43.15384713051116" lon="10.723717374309853"><ele>118.0</ele><time>2026-03-24T17:15:08Z</time></trkpt><trkpt lat="43.15371684887253" lon="10.723703874964265"><ele>118.0</ele><time>2026-03-24T17:15:09Z</time></trkpt><trkpt lat="43.15358986047284" lon="10.723784443812107"><ele>118.0</ele><time>2026-03-24T17:15:10Z</time></trkpt><trkpt lat="43.15344713319206" lon="10.723934243381935"><ele>118.0</ele><time>2026-03-24T17:15:11Z</time></trkpt><trkpt lat="43.153292066634386" lon="10.724100203495247"><ele>114.33333333333334</ele><time>2026-03-24T17:15:12Z</time></trkpt><trkpt lat="43.15313549184259" lon="10.724208079943024"><ele>110.66666666666666</ele><time>2026-03-24T17:15:13Z</time></trkpt><trkpt lat="43.15299731412959" lon="10.724323161925073"><ele>107.0</ele><time>2026-03-24T17:15:14Z</time></trkpt><trkpt lat="43.1528820652393" lon="10.724448513856377"><ele>107.0</ele><time>2026-03-24T17:15:15Z</time></trkpt><trkpt lat="43.1527695807618" lon="10.724535412560629"><ele>107.0</ele><time>2026-03-24T17:15:16Z</time></trkpt><trkpt lat="43.15265838595589" lon="10.724599297954086"><ele>107.0</ele><time>2026-03-24T17:15:17Z</time></trkpt><trkpt lat="43.15256017952795" lon="10.72467307927975"><ele>107.0</ele><time>2026-03-24T17:15:18Z</time></trkpt><trkpt lat="43.15237802673426" lon="10.724584623296886"><ele>106.0</ele><time>2026-03-24T17:15:19Z</time></trkpt><trkpt lat="43.15219481718467" lon="10.724502038208142"><ele>105.0</ele><time>2026-03-24T17:15:20Z</time></trkpt><trkpt lat="43.15200056843309" lon="10.724406854899758"><ele>104.0</ele><time>2026-03-24T17:15:21Z</time></trkpt><trkpt lat="43.151785382592" lon="10.724351354419557"><ele>104.0</ele><time>2026-03-24T17:15:22Z</time></trkpt><trkpt lat="43.151564067229806" lon="10.724349583705893"><ele>104.0</ele><time>2026-03-24T17:15:23Z</time></trkpt><trkpt lat="43.15132606531818" lon="10.724402628568342"><ele>103.5</ele><time>2026-03-24T17:15:24Z</time></trkpt><trkpt lat="43.15108312024353" lon="10.724454127513347"><ele>103.0</ele><time>2026-03-24T17:15:25Z</time></trkpt><trkpt lat="43.15085800910906" lon="10.72449092247653"><ele>106.66666666666667</ele><time>2026-03-24T17:15:26Z</time></trkpt><trkpt lat="43.15066206653831" lon="10.724524685491348"><ele>110.33333333333334</ele><time>2026-03-24T17:15:27Z</time></trkpt><trkpt lat="43.15048133912421" lon="10.724557873601453"><ele>114.0</ele><time>2026-03-24T17:15:28Z</time></trkpt><trkpt lat="43.15031067940429" lon="10.72460590987734"><ele>114.0</ele><time>2026-03-24T17:15:29Z</time></trkpt><trkpt lat="43.15016808185357" lon="10.724709096143043"><ele>114.0</ele><time>2026-03-24T17:15:30Z</time></trkpt><trkpt lat="43.15006304607856" lon="10.72488250003573"><ele>114.0</ele><time>2026-03-24T17:15:31Z</time></trkpt><trkpt lat="43.149998847922014" lon="10.725104813738248"><ele>111.33333333333334</ele><time>2026-03-24T17:15:32Z</time></trkpt><trkpt lat="43.149962962480004" lon="10.7253749195211"><ele>108.66666666666667</ele><time>2026-03-24T17:15:33Z</time></trkpt><trkpt lat="43.14992905860359" lon="10.725685511233115"><ele>106.0</ele><time>2026-03-24T17:15:34Z</time></trkpt><trkpt lat="43.14988081054127" lon="10.726011089517414"><ele>113.0</ele><time>2026-03-24T17:15:35Z</time></trkpt><trkpt lat="43.14983153172386" lon="10.726342474521921"><ele>120.0</ele><time>2026-03-24T17:15:36Z</time></trkpt><trkpt lat="43.149782797997716" lon="10.726691053184755"><ele>117.0</ele><time>2026-03-24T17:15:37Z</time></trkpt><trkpt lat="43.14973090155113" lon="10.727048476350806"><ele>114.0</ele><time>2026-03-24T17:15:38Z</time></trkpt><trkpt lat="43.14967730338902" lon="10.727420410125026"><ele>111.5</ele><time>2026-03-24T17:15:39Z</time></trkpt><trkpt lat="43.149637744611915" lon="10.727748425586244"><ele>109.0</ele><time>2026-03-24T17:15:40Z</time></trkpt><trkpt lat="43.149604824062564" lon="10.728036022545261"><ele>109.0</ele><time>2026-03-24T17:15:41Z</time></trkpt><trkpt lat="43.14952970225196" lon="10.728275544336833"><ele>109.0</ele><time>2026-03-24T17:15:42Z</time></trkpt><trkpt lat="43.149424972875906" lon="10.728448706003027"><ele>109.0</ele><time>2026-03-24T17:15:43Z</time></trkpt><trkpt lat="43.14928550211429" lon="10.728589763936991"><ele>108.66666666666667</ele><time>2026-03-24T17:15:44Z</time></trkpt><trkpt lat="43.1491008962259" lon="10.728729221947784"><ele>108.33333333333334</ele><time>2026-03-24T17:15:45Z</time></trkpt><trkpt lat="43.14889743819523" lon="10.728900190790577"><ele>108.0</ele><time>2026-03-24T17:15:46Z</time></trkpt><trkpt lat="43.14867676011049" lon="10.729071594401251"><ele>108.0</ele><time>2026-03-24T17:15:47Z</time></trkpt><trkpt lat="43.14844187082973" lon="10.72926578794704"><ele>108.0</ele><time>2026-03-24T17:15:48Z</time></trkpt><trkpt lat="43.14820046246655" lon="10.729464352458816"><ele>108.0</ele><time>2026-03-24T17:15:49Z</time></trkpt><trkpt lat="43.14794343333411" lon="10.729661016670292"><ele>108.0</ele><time>2026-03-24T17:15:50Z</time></trkpt><trkpt lat="43.147686168129745" lon="10.729866877327385"><ele>108.0</ele><time>2026-03-24T17:15:51Z</time></trkpt><trkpt lat="43.14744257859027" lon="10.73009513818017"><ele>108.0</ele><time>2026-03-24T17:15:52Z</time></trkpt><trkpt lat="43.14721113447797" lon="10.73034401583003"><ele>107.0</ele><time>2026-03-24T17:15:53Z</time></trkpt><trkpt lat="43.14699745344447" lon="10.730591347071115"><ele>106.0</ele><time>2026-03-24T17:15:54Z</time></trkpt><trkpt lat="43.14677052642323" lon="10.730826938313752"><ele>107.5</ele><time>2026-03-24T17:15:55Z</time></trkpt><trkpt lat="43.146533368320526" lon="10.730974380956415"><ele>109.0</ele><time>2026-03-24T17:15:56Z</time></trkpt><trkpt lat="43.14629686872357" lon="10.731073278469909"><ele>103.5</ele><time>2026-03-24T17:15:57Z</time></trkpt><trkpt lat="43.14604567813619" lon="10.731146183105258"><ele>98.0</ele><time>2026-03-24T17:15:58Z</time></trkpt><trkpt lat="43.14577938488349" lon="10.731242763831185"><ele>98.5</ele><time>2026-03-24T17:15:59Z</time></trkpt><trkpt lat="43.14550019442223" lon="10.731328093953342"><ele>99.0</ele><time>2026-03-24T17:16:00Z</time></trkpt><trkpt lat="43.14520978301275" lon="10.731417475517667"><ele>99.0</ele><time>2026-03-24T17:16:01Z</time></trkpt><trkpt lat="43.1449169169033" lon="10.731502096423482"><ele>99.0</ele><time>2026-03-24T17:16:02Z</time></trkpt><trkpt lat="43.14461935336954" lon="10.731580034525106"><ele>100.5</ele><time>2026-03-24T17:16:03Z</time></trkpt><trkpt lat="43.144312234566165" lon="10.731595499237173"><ele>102.0</ele><time>2026-03-24T17:16:04Z</time></trkpt><trkpt lat="43.144025720114804" lon="10.731626354260278"><ele>103.0</ele><time>2026-03-24T17:16:05Z</time></trkpt><trkpt lat="43.14378448538572" lon="10.731623536748556"><ele>104.0</ele><time>2026-03-24T17:16:06Z</time></trkpt><trkpt lat="43.14355194666679" lon="10.73164825034887"><ele>104.0</ele><time>2026-03-24T17:16:07Z</time></trkpt><trkpt lat="43.14331214298736" lon="10.7317221805704"><ele>104.0</ele><time>2026-03-24T17:16:08Z</time></trkpt><trkpt lat="43.14307563816677" lon="10.731848483933659"><ele>98.5</ele><time>2026-03-24T17:16:09Z</time></trkpt><trkpt lat="43.142841599700596" lon="10.7319929414918"><ele>93.0</ele><time>2026-03-24T17:16:10Z</time></trkpt><trkpt lat="43.14262114277287" lon="10.732050955074202"><ele>93.0</ele><time>2026-03-24T17:16:11Z</time></trkpt><trkpt lat="43.14241242912756" lon="10.732063267710714"><ele>93.0</ele><time>2026-03-24T17:16:12Z</time></trkpt><trkpt lat="43.142192428570354" lon="10.732025926111744"><ele>93.0</ele><time>2026-03-24T17:16:13Z</time></trkpt><trkpt lat="43.141970554008815" lon="10.73193174604155"><ele>91.5</ele><time>2026-03-24T17:16:14Z</time></trkpt><trkpt lat="43.14174916225977" lon="10.731778658225611"><ele>90.0</ele><time>2026-03-24T17:16:15Z</time></trkpt><trkpt lat="43.14150699854873" lon="10.731616845909858"><ele>90.0</ele><time>2026-03-24T17:16:16Z</time></trkpt><trkpt lat="43.14126260446619" lon="10.73142048763088"><ele>90.0</ele><time>2026-03-24T17:16:17Z</time></trkpt><trkpt lat="43.14100834815473" lon="10.731229328147823"><ele>90.0</ele><time>2026-03-24T17:16:18Z</time></trkpt><trkpt lat="43.14074014562106" lon="10.731031913581752"><ele>90.0</ele><time>2026-03-24T17:16:19Z</time></trkpt><trkpt lat="43.140465372712356" lon="10.730826775199404"><ele>90.0</ele><time>2026-03-24T17:16:20Z</time></trkpt><trkpt lat="43.1401900898441" lon="10.730624871733289"><ele>90.0</ele><time>2026-03-24T17:16:21Z</time></trkpt><trkpt lat="43.13992306781279" lon="10.730428884348095"><ele>89.0</ele><time>2026-03-24T17:16:22Z</time></trkpt><trkpt lat="43.13969255401477" lon="10.730260131330928"><ele>88.0</ele><time>2026-03-24T17:16:23Z</time></trkpt><trkpt lat="43.139482183192634" lon="10.730101244025786"><ele>89.0</ele><time>2026-03-24T17:16:24Z</time></trkpt><trkpt lat="43.13928250893774" lon="10.729955491108896"><ele>90.0</ele><time>2026-03-24T17:16:25Z</time></trkpt><trkpt lat="43.13910019327154" lon="10.72978858651769"><ele>91.0</ele><time>2026-03-24T17:16:26Z</time></trkpt><trkpt lat="43.138943367396664" lon="10.729561393566089"><ele>91.0</ele><time>2026-03-24T17:16:27Z</time></trkpt><trkpt lat="43.13880523734587" lon="10.729284728217316"><ele>91.0</ele><time>2026-03-24T17:16:28Z</time></trkpt><trkpt lat="43.13866703214662" lon="10.729003197345023"><ele>91.0</ele><time>2026-03-24T17:16:29Z</time></trkpt><trkpt lat="43.138501134728735" lon="10.728816480610744"><ele>91.0</ele><time>2026-03-24T17:16:30Z</time></trkpt><trkpt lat="43.13830338842648" lon="10.728679382085927"><ele>91.0</ele><time>2026-03-24T17:16:31Z</time></trkpt><trkpt lat="43.13807304784268" lon="10.728602458326572"><ele>92.0</ele><time>2026-03-24T17:16:32Z</time></trkpt><trkpt lat="43.13784830707165" lon="10.728551741815965"><ele>93.0</ele><time>2026-03-24T17:16:33Z</time></trkpt><trkpt lat="43.13765077080809" lon="10.728497492674858"><ele>94.0</ele><time>2026-03-24T17:16:34Z</time></trkpt><trkpt lat="43.137468992099336" lon="10.728368103611292"><ele>90.0</ele><time>2026-03-24T17:16:35Z</time></trkpt><trkpt lat="43.137289693993" lon="10.728151276863292"><ele>86.0</ele><time>2026-03-24T17:16:36Z</time></trkpt><trkpt lat="43.13711712797362" lon="10.727892327991338"><ele>88.0</ele><time>2026-03-24T17:16:37Z</time></trkpt><trkpt lat="43.136925672847575" lon="10.727621693412399"><ele>90.0</ele><time>2026-03-24T17:16:38Z</time></trkpt><trkpt lat="43.13672547019989" lon="10.727358085650812"><ele>90.0</ele><time>2026-03-24T17:16:39Z</time></trkpt><trkpt lat="43.136513373439044" lon="10.727080745386719"><ele>90.0</ele><time>2026-03-24T17:16:40Z</time></trkpt><trkpt lat="43.13628860246254" lon="10.726777457122466"><ele>90.0</ele><time>2026-03-24T17:16:41Z</time></trkpt><trkpt lat="43.13607803996016" lon="10.726500332679898"><ele>90.0</ele><time>2026-03-24T17:16:42Z</time></trkpt><trkpt lat="43.13585688174271" lon="10.726204437822501"><ele>88.0</ele><time>2026-03-24T17:16:43Z</time></trkpt><trkpt lat="43.13563520531673" lon="10.725917318737197"><ele>86.0</ele><time>2026-03-24T17:16:44Z</time></trkpt><trkpt lat="43.1354052688905" lon="10.725626369316283"><ele>86.0</ele><time>2026-03-24T17:16:45Z</time></trkpt><trkpt lat="43.1351751301455" lon="10.725333234044049"><ele>86.0</ele><time>2026-03-24T17:16:46Z</time></trkpt><trkpt lat="43.13494484870822" lon="10.725040077570142"><ele>85.5</ele><time>2026-03-24T17:16:47Z</time></trkpt><trkpt lat="43.134712341156124" lon="10.724741238751108"><ele>85.0</ele><time>2026-03-24T17:16:48Z</time></trkpt><trkpt lat="43.134484628379354" lon="10.724431270996051"><ele>84.5</ele><time>2026-03-24T17:16:49Z</time></trkpt><trkpt lat="43.134261580096165" lon="10.724099660804901"><ele>84.0</ele><time>2026-03-24T17:16:50Z</time></trkpt><trkpt lat="43.13404901389002" lon="10.723769285608908"><ele>85.5</ele><time>2026-03-24T17:16:51Z</time></trkpt><trkpt lat="43.133840920157525" lon="10.72345039618846"><ele>87.0</ele><time>2026-03-24T17:16:52Z</time></trkpt><trkpt lat="43.133638691068704" lon="10.723148026257293"><ele>87.0</ele><time>2026-03-24T17:16:53Z</time></trkpt><trkpt lat="43.133430998139104" lon="10.72286783537555"><ele>87.0</ele><time>2026-03-24T17:16:54Z</time></trkpt><trkpt lat="43.133211053934" lon="10.722641447920292"><ele>87.5</ele><time>2026-03-24T17:16:55Z</time></trkpt><trkpt lat="43.13296893060762" lon="10.722446694848554"><ele>88.0</ele><time>2026-03-24T17:16:56Z</time></trkpt><trkpt lat="43.132724680034926" lon="10.722269187095463"><ele>88.0</ele><time>2026-03-24T17:16:57Z</time></trkpt><trkpt lat="43.1324953495566" lon="10.72208514974087"><ele>88.0</ele><time>2026-03-24T17:16:58Z</time></trkpt><trkpt lat="43.13226858719681" lon="10.721874959993443"><ele>87.0</ele><time>2026-03-24T17:16:59Z</time></trkpt><trkpt lat="43.13205739112592" lon="10.721621739414811"><ele>86.0</ele><time>2026-03-24T17:17:00Z</time></trkpt><trkpt lat="43.131864199580946" lon="10.72132858636988"><ele>85.5</ele><time>2026-03-24T17:17:01Z</time></trkpt><trkpt lat="43.13167323171067" lon="10.72102152276276"><ele>85.0</ele><time>2026-03-24T17:17:02Z</time></trkpt><trkpt lat="43.13147374935813" lon="10.720721876396757"><ele>85.0</ele><time>2026-03-24T17:17:03Z</time></trkpt><trkpt lat="43.13126423047441" lon="10.720419577099943"><ele>85.0</ele><time>2026-03-24T17:17:04Z</time></trkpt><trkpt lat="43.1310475816379" lon="10.720121924363758"><ele>85.0</ele><time>2026-03-24T17:17:05Z</time></trkpt><trkpt lat="43.130830991816495" lon="10.719844360914006"><ele>85.0</ele><time>2026-03-24T17:17:06Z</time></trkpt><trkpt lat="43.13063516337118" lon="10.719598422287621"><ele>84.5</ele><time>2026-03-24T17:17:07Z</time></trkpt><trkpt lat="43.13043498610097" lon="10.719359801507236"><ele>84.0</ele><time>2026-03-24T17:17:08Z</time></trkpt><trkpt lat="43.13021272118833" lon="10.719136746709928"><ele>84.0</ele><time>2026-03-24T17:17:09Z</time></trkpt><trkpt lat="43.1299751394282" lon="10.718951569066968"><ele>84.0</ele><time>2026-03-24T17:17:10Z</time></trkpt><trkpt lat="43.12971361658979" lon="10.718787871477302"><ele>83.0</ele><time>2026-03-24T17:17:11Z</time></trkpt><trkpt lat="43.12943542395533" lon="10.71864523018169"><ele>82.0</ele><time>2026-03-24T17:17:12Z</time></trkpt><trkpt lat="43.12915092038038" lon="10.718507118966672"><ele>81.0</ele><time>2026-03-24T17:17:13Z</time></trkpt><trkpt lat="43.12886161816801" lon="10.718364237720683"><ele>80.0</ele><time>2026-03-24T17:17:14Z</time></trkpt><trkpt lat="43.12856550070211" lon="10.71821379310422"><ele>80.0</ele><time>2026-03-24T17:17:15Z</time></trkpt><trkpt lat="43.128269072948235" lon="10.718063167417636"><ele>80.0</ele><time>2026-03-24T17:17:16Z</time></trkpt><trkpt lat="43.12796449858827" lon="10.717910215209534"><ele>80.0</ele><time>2026-03-24T17:17:17Z</time></trkpt><trkpt lat="43.12764827909666" lon="10.717730115209207"><ele>80.0</ele><time>2026-03-24T17:17:18Z</time></trkpt><trkpt lat="43.12730733185645" lon="10.71752804681358"><ele>79.0</ele><time>2026-03-24T17:17:19Z</time></trkpt><trkpt lat="43.127068620564394" lon="10.717444286756361"><ele>78.0</ele><time>2026-03-24T17:17:20Z</time></trkpt><trkpt lat="43.12679685403499" lon="10.717318920075842"><ele>77.5</ele><time>2026-03-24T17:17:21Z</time></trkpt><trkpt lat="43.126530863900044" lon="10.717196443466548"><ele>77.0</ele><time>2026-03-24T17:17:22Z</time></trkpt><trkpt lat="43.12628953636281" lon="10.71711357718302"><ele>77.0</ele><time>2026-03-24T17:17:23Z</time></trkpt><trkpt lat="43.126058685048896" lon="10.717064189292845"><ele>77.0</ele><time>2026-03-24T17:17:24Z</time></trkpt><trkpt lat="43.12586029922682" lon="10.717032546996055"><ele>77.0</ele><time>2026-03-24T17:17:25Z</time></trkpt><trkpt lat="43.12568804376979" lon="10.717014755191705"><ele>76.75</ele><time>2026-03-24T17:17:26Z</time></trkpt><trkpt lat="43.125557809663924" lon="10.717004040288224"><ele>76.5</ele><time>2026-03-24T17:17:27Z</time></trkpt><trkpt lat="43.12547264008689" lon="10.717002566944885"><ele>76.25</ele><time>2026-03-24T17:17:28Z</time></trkpt><trkpt lat="43.12537589760719" lon="10.71697744982712"><ele>76.0</ele><time>2026-03-24T17:17:30Z</time></trkpt><trkpt lat="43.12533057496645" lon="10.717245541693275"><ele>76.0</ele><time>2026-03-24T17:17:31Z</time></trkpt><trkpt lat="43.125303886291015" lon="10.717446262085678"><ele>76.0</ele><time>2026-03-24T17:17:32Z</time></trkpt><trkpt lat="43.12527953536904" lon="10.717676728418615"><ele>76.0</ele><time>2026-03-24T17:17:33Z</time></trkpt><trkpt lat="43.12524759821668" lon="10.717937187088674"><ele>76.0</ele><time>2026-03-24T17:17:34Z</time></trkpt><trkpt lat="43.12519666086108" lon="10.718212505109891"><ele>76.0</ele><time>2026-03-24T17:17:35Z</time></trkpt><trkpt lat="43.12514485342094" lon="10.718507940337135"><ele>76.0</ele><time>2026-03-24T17:17:36Z</time></trkpt><trkpt lat="43.1250906730495" lon="10.7188246025453"><ele>76.0</ele><time>2026-03-24T17:17:37Z</time></trkpt><trkpt lat="43.12503211714741" lon="10.719131836632767"><ele>76.0</ele><time>2026-03-24T17:17:38Z</time></trkpt><trkpt lat="43.12498593120762" lon="10.719429403041431"><ele>76.0</ele><time>2026-03-24T17:17:39Z</time></trkpt><trkpt lat="43.124899108687615" lon="10.719687627335619"><ele>76.0</ele><time>2026-03-24T17:17:40Z</time></trkpt><trkpt lat="43.12476457434498" lon="10.719894446925208"><ele>76.0</ele><time>2026-03-24T17:17:41Z</time></trkpt><trkpt lat="43.124606987067295" lon="10.720094887313712"><ele>77.5</ele><time>2026-03-24T17:17:42Z</time></trkpt><trkpt lat="43.1244108551108" lon="10.72025717277803"><ele>79.0</ele><time>2026-03-24T17:17:43Z</time></trkpt><trkpt lat="43.12418002388587" lon="10.720410476941266"><ele>78.0</ele><time>2026-03-24T17:17:44Z</time></trkpt><trkpt lat="43.1239348774353" lon="10.720569587805404"><ele>77.0</ele><time>2026-03-24T17:17:45Z</time></trkpt><trkpt lat="43.123689260030865" lon="10.720731059065061"><ele>77.0</ele><time>2026-03-24T17:17:46Z</time></trkpt><trkpt lat="43.12343886005507" lon="10.72089351536627"><ele>77.0</ele><time>2026-03-24T17:17:47Z</time></trkpt><trkpt lat="43.123188153809366" lon="10.721084513448623"><ele>77.5</ele><time>2026-03-24T17:17:48Z</time></trkpt><trkpt lat="43.12294170615839" lon="10.72124839047659"><ele>78.0</ele><time>2026-03-24T17:17:49Z</time></trkpt><trkpt lat="43.12272030978812" lon="10.721373203139118"><ele>78.0</ele><time>2026-03-24T17:17:50Z</time></trkpt><trkpt lat="43.1225153769937" lon="10.721479128491866"><ele>78.0</ele><time>2026-03-24T17:17:51Z</time></trkpt><trkpt lat="43.122310746778" lon="10.721543532892742"><ele>78.0</ele><time>2026-03-24T17:17:52Z</time></trkpt><trkpt lat="43.12210015353136" lon="10.721555230841417"><ele>80.5</ele><time>2026-03-24T17:17:53Z</time></trkpt><trkpt lat="43.12185871892405" lon="10.721524817289245"><ele>83.0</ele><time>2026-03-24T17:17:54Z</time></trkpt><trkpt lat="43.121596180135505" lon="10.721493071380499"><ele>87.0</ele><time>2026-03-24T17:17:55Z</time></trkpt><trkpt lat="43.12133227689464" lon="10.721424504299517"><ele>91.0</ele><time>2026-03-24T17:17:56Z</time></trkpt><trkpt lat="43.1210572045417" lon="10.72136436349637"><ele>91.0</ele><time>2026-03-24T17:17:57Z</time></trkpt><trkpt lat="43.120796791889795" lon="10.721326674110246"><ele>91.0</ele><time>2026-03-24T17:17:58Z</time></trkpt><trkpt lat="43.120558680722276" lon="10.721261570912436"><ele>93.0</ele><time>2026-03-24T17:17:59Z</time></trkpt><trkpt lat="43.12033479034136" lon="10.721162018264694"><ele>95.0</ele><time>2026-03-24T17:18:00Z</time></trkpt><trkpt lat="43.12010964583019" lon="10.72101057323755"><ele>93.5</ele><time>2026-03-24T17:18:01Z</time></trkpt><trkpt lat="43.11987824004606" lon="10.720828517123119"><ele>92.0</ele><time>2026-03-24T17:18:02Z</time></trkpt><trkpt lat="43.11965635875648" lon="10.72061169210118"><ele>92.0</ele><time>2026-03-24T17:18:03Z</time></trkpt><trkpt lat="43.11942137758856" lon="10.720392768323899"><ele>92.0</ele><time>2026-03-24T17:18:04Z</time></trkpt><trkpt lat="43.119176319645035" lon="10.720175649335731"><ele>91.5</ele><time>2026-03-24T17:18:05Z</time></trkpt><trkpt lat="43.11892982652272" lon="10.71995186508096"><ele>91.0</ele><time>2026-03-24T17:18:06Z</time></trkpt><trkpt lat="43.11869309662269" lon="10.719734272524272"><ele>91.0</ele><time>2026-03-24T17:18:07Z</time></trkpt><trkpt lat="43.118476707138164" lon="10.719527791490327"><ele>91.0</ele><time>2026-03-24T17:18:08Z</time></trkpt><trkpt lat="43.11827950568967" lon="10.71934233698591"><ele>87.66666666666666</ele><time>2026-03-24T17:18:09Z</time></trkpt><trkpt lat="43.11809666594413" lon="10.719189109647496"><ele>84.33333333333333</ele><time>2026-03-24T17:18:10Z</time></trkpt><trkpt lat="43.117907276325035" lon="10.719091688346658"><ele>81.0</ele><time>2026-03-24T17:18:11Z</time></trkpt><trkpt lat="43.11770377987706" lon="10.719082319255957"><ele>81.0</ele><time>2026-03-24T17:18:12Z</time></trkpt><trkpt lat="43.11748961805545" lon="10.719155371383396"><ele>81.0</ele><time>2026-03-24T17:18:13Z</time></trkpt><trkpt lat="43.11727630040806" lon="10.719285131013406"><ele>80.5</ele><time>2026-03-24T17:18:14Z</time></trkpt><trkpt lat="43.11703926145878" lon="10.719437782235264"><ele>80.0</ele><time>2026-03-24T17:18:15Z</time></trkpt><trkpt lat="43.11679277490704" lon="10.719569230427759"><ele>79.5</ele><time>2026-03-24T17:18:16Z</time></trkpt><trkpt lat="43.11653979419304" lon="10.719688386921108"><ele>79.0</ele><time>2026-03-24T17:18:17Z</time></trkpt><trkpt lat="43.11627628681496" lon="10.719791744289688"><ele>79.0</ele><time>2026-03-24T17:18:18Z</time></trkpt><trkpt lat="43.116004963968635" lon="10.7198826472133"><ele>79.0</ele><time>2026-03-24T17:18:19Z</time></trkpt><trkpt lat="43.1157426872484" lon="10.719973164545973"><ele>77.0</ele><time>2026-03-24T17:18:20Z</time></trkpt><trkpt lat="43.115507255491046" lon="10.720064414736244"><ele>75.0</ele><time>2026-03-24T17:18:21Z</time></trkpt><trkpt lat="43.1152556426969" lon="10.720148814132175"><ele>75.0</ele><time>2026-03-24T17:18:22Z</time></trkpt><trkpt lat="43.11498730017011" lon="10.720215942075452"><ele>75.0</ele><time>2026-03-24T17:18:23Z</time></trkpt><trkpt lat="43.11470518441075" lon="10.720257204296807"><ele>81.5</ele><time>2026-03-24T17:18:24Z</time></trkpt><trkpt lat="43.11442250087367" lon="10.720284932441979"><ele>88.0</ele><time>2026-03-24T17:18:25Z</time></trkpt><trkpt lat="43.114135456325286" lon="10.720311910931455"><ele>83.0</ele><time>2026-03-24T17:18:26Z</time></trkpt><trkpt lat="43.1138459225569" lon="10.720350681168938"><ele>78.0</ele><time>2026-03-24T17:18:27Z</time></trkpt><trkpt lat="43.11356834828756" lon="10.72043067737665"><ele>78.0</ele><time>2026-03-24T17:18:28Z</time></trkpt><trkpt lat="43.11332363500952" lon="10.720554741240125"><ele>78.0</ele><time>2026-03-24T17:18:29Z</time></trkpt><trkpt lat="43.11310472068893" lon="10.720731299352495"><ele>76.0</ele><time>2026-03-24T17:18:30Z</time></trkpt><trkpt lat="43.11292699237855" lon="10.720963943358488"><ele>74.0</ele><time>2026-03-24T17:18:31Z</time></trkpt><trkpt lat="43.112780256398935" lon="10.721242999983613"><ele>74.0</ele><time>2026-03-24T17:18:32Z</time></trkpt><trkpt lat="43.1126765591433" lon="10.721555604733652"><ele>74.0</ele><time>2026-03-24T17:18:33Z</time></trkpt><trkpt lat="43.11261849633563" lon="10.72188459125888"><ele>73.0</ele><time>2026-03-24T17:18:34Z</time></trkpt><trkpt lat="43.112597819317" lon="10.722245053997025"><ele>72.0</ele><time>2026-03-24T17:18:35Z</time></trkpt><trkpt lat="43.1125952623563" lon="10.722626979067783"><ele>71.0</ele><time>2026-03-24T17:18:36Z</time></trkpt><trkpt lat="43.112578791815814" lon="10.722977432329193"><ele>70.0</ele><time>2026-03-24T17:18:37Z</time></trkpt><trkpt lat="43.11250626923963" lon="10.723247781264568"><ele>70.0</ele><time>2026-03-24T17:18:38Z</time></trkpt><trkpt lat="43.112408016873104" lon="10.723457063146185"><ele>70.0</ele><time>2026-03-24T17:18:39Z</time></trkpt><trkpt lat="43.11227929139061" lon="10.723622075356758"><ele>70.0</ele><time>2026-03-24T17:18:40Z</time></trkpt><trkpt lat="43.11211800123884" lon="10.723740549203923"><ele>70.0</ele><time>2026-03-24T17:18:41Z</time></trkpt><trkpt lat="43.11192346368155" lon="10.723848771424084"><ele>70.0</ele><time>2026-03-24T17:18:42Z</time></trkpt><trkpt lat="43.11170868825906" lon="10.723978222093912"><ele>70.0</ele><time>2026-03-24T17:18:43Z</time></trkpt><trkpt lat="43.1114817348185" lon="10.724103542248441"><ele>70.0</ele><time>2026-03-24T17:18:44Z</time></trkpt><trkpt lat="43.11124456033842" lon="10.724241129315171"><ele>70.0</ele><time>2026-03-24T17:18:45Z</time></trkpt><trkpt lat="43.11099939721635" lon="10.724381911294707"><ele>70.0</ele><time>2026-03-24T17:18:46Z</time></trkpt><trkpt lat="43.11076834696567" lon="10.724517520487797"><ele>70.0</ele><time>2026-03-24T17:18:47Z</time></trkpt><trkpt lat="43.11053685889639" lon="10.724669316325823"><ele>70.0</ele><time>2026-03-24T17:18:48Z</time></trkpt><trkpt lat="43.11030653754073" lon="10.724854884537551"><ele>70.0</ele><time>2026-03-24T17:18:49Z</time></trkpt><trkpt lat="43.11008352239655" lon="10.725071095776354"><ele>69.0</ele><time>2026-03-24T17:18:50Z</time></trkpt><trkpt lat="43.109871981102664" lon="10.725324889707505"><ele>68.0</ele><time>2026-03-24T17:18:51Z</time></trkpt><trkpt lat="43.1096807090565" lon="10.72560190206412"><ele>68.0</ele><time>2026-03-24T17:18:52Z</time></trkpt><trkpt lat="43.109513304886576" lon="10.725883015519058"><ele>68.0</ele><time>2026-03-24T17:18:53Z</time></trkpt><trkpt lat="43.109371362695285" lon="10.726154233262752"><ele>68.5</ele><time>2026-03-24T17:18:54Z</time></trkpt><trkpt lat="43.10922740969607" lon="10.726419199145454"><ele>69.0</ele><time>2026-03-24T17:18:55Z</time></trkpt><trkpt lat="43.10908536238565" lon="10.726666085463732"><ele>69.66666666666667</ele><time>2026-03-24T17:18:56Z</time></trkpt><trkpt lat="43.10896071268795" lon="10.726880604956515"><ele>70.33333333333334</ele><time>2026-03-24T17:18:57Z</time></trkpt><trkpt lat="43.10886510734498" lon="10.727052060783347"><ele>71.0</ele><time>2026-03-24T17:18:58Z</time></trkpt><trkpt lat="43.10879931109182" lon="10.727165208929737"><ele>72.25</ele><time>2026-03-24T17:18:59Z</time></trkpt><trkpt lat="43.10875111744935" lon="10.727225146852161"><ele>73.5</ele><time>2026-03-24T17:19:00Z</time></trkpt><trkpt lat="43.10856856449911" lon="10.727212368837138"><ele>74.75</ele><time>2026-03-24T17:19:08Z</time></trkpt><trkpt lat="43.1084512053497" lon="10.72714849703193"><ele>76.0</ele><time>2026-03-24T17:19:09Z</time></trkpt><trkpt lat="43.10832471397886" lon="10.727075391123332"><ele>75.66666666666666</ele><time>2026-03-24T17:19:10Z</time></trkpt><trkpt lat="43.1081604068143" lon="10.727002588454537"><ele>75.33333333333333</ele><time>2026-03-24T17:19:11Z</time></trkpt><trkpt lat="43.10797913861635" lon="10.726936653399388"><ele>75.0</ele><time>2026-03-24T17:19:12Z</time></trkpt><trkpt lat="43.10776271666475" lon="10.726872402247746"><ele>73.5</ele><time>2026-03-24T17:19:13Z</time></trkpt><trkpt lat="43.1075384398676" lon="10.726802962023651"><ele>72.0</ele><time>2026-03-24T17:19:14Z</time></trkpt><trkpt lat="43.107302267092564" lon="10.726729245302188"><ele>72.0</ele><time>2026-03-24T17:19:15Z</time></trkpt><trkpt lat="43.107052433508606" lon="10.726654773149463"><ele>72.0</ele><time>2026-03-24T17:19:16Z</time></trkpt><trkpt lat="43.106793556862044" lon="10.72658386698387"><ele>71.5</ele><time>2026-03-24T17:19:17Z</time></trkpt><trkpt lat="43.106527509354116" lon="10.726513344856754"><ele>71.0</ele><time>2026-03-24T17:19:18Z</time></trkpt><trkpt lat="43.106258386543765" lon="10.726441981232242"><ele>71.0</ele><time>2026-03-24T17:19:19Z</time></trkpt><trkpt lat="43.10598162884381" lon="10.726374529292766"><ele>71.0</ele><time>2026-03-24T17:19:20Z</time></trkpt><trkpt lat="43.10569154849522" lon="10.726316972394335"><ele>71.0</ele><time>2026-03-24T17:19:21Z</time></trkpt><trkpt lat="43.10540510809499" lon="10.72626864345947"><ele>71.0</ele><time>2026-03-24T17:19:22Z</time></trkpt><trkpt lat="43.1051131452972" lon="10.726187388920561"><ele>71.5</ele><time>2026-03-24T17:19:23Z</time></trkpt><trkpt lat="43.104822568548066" lon="10.726129200524937"><ele>72.0</ele><time>2026-03-24T17:19:24Z</time></trkpt><trkpt lat="43.10456110908234" lon="10.726065819784159"><ele>68.5</ele><time>2026-03-24T17:19:25Z</time></trkpt><trkpt lat="43.10433402390734" lon="10.726016827035425"><ele>65.0</ele><time>2026-03-24T17:19:26Z</time></trkpt><trkpt lat="43.10411595907622" lon="10.725970238423436"><ele>66.0</ele><time>2026-03-24T17:19:27Z</time></trkpt><trkpt lat="43.103903785482395" lon="10.725926012658727"><ele>67.0</ele><time>2026-03-24T17:19:28Z</time></trkpt><trkpt lat="43.10371124902802" lon="10.72589092001681"><ele>68.0</ele><time>2026-03-24T17:19:29Z</time></trkpt><trkpt lat="43.10349873098709" lon="10.72588033040795"><ele>68.0</ele><time>2026-03-24T17:19:30Z</time></trkpt><trkpt lat="43.10325471539315" lon="10.725880843793874"><ele>68.0</ele><time>2026-03-24T17:19:31Z</time></trkpt><trkpt lat="43.102985200278475" lon="10.725893330574223"><ele>67.5</ele><time>2026-03-24T17:19:32Z</time></trkpt><trkpt lat="43.10270444417895" lon="10.725906338163302"><ele>67.0</ele><time>2026-03-24T17:19:33Z</time></trkpt><trkpt lat="43.10242056361612" lon="10.725930645156293"><ele>66.5</ele><time>2026-03-24T17:19:34Z</time></trkpt><trkpt lat="43.10213137003166" lon="10.725930786727268"><ele>66.0</ele><time>2026-03-24T17:19:35Z</time></trkpt><trkpt lat="43.10183100533543" lon="10.72594443230684"><ele>66.5</ele><time>2026-03-24T17:19:36Z</time></trkpt><trkpt lat="43.10153001926061" lon="10.725957887474063"><ele>67.0</ele><time>2026-03-24T17:19:37Z</time></trkpt><trkpt lat="43.10122568448238" lon="10.725970028488952"><ele>67.0</ele><time>2026-03-24T17:19:38Z</time></trkpt><trkpt lat="43.10091680216533" lon="10.725978574831387"><ele>67.0</ele><time>2026-03-24T17:19:39Z</time></trkpt><trkpt lat="43.10060377912067" lon="10.725985350138604"><ele>70.5</ele><time>2026-03-24T17:19:40Z</time></trkpt><trkpt lat="43.100290068028876" lon="10.725989775817602"><ele>74.0</ele><time>2026-03-24T17:19:41Z</time></trkpt><trkpt lat="43.0999778062781" lon="10.725988541567267"><ele>71.0</ele><time>2026-03-24T17:19:42Z</time></trkpt><trkpt lat="43.099687776414626" lon="10.725972723740263"><ele>68.0</ele><time>2026-03-24T17:19:43Z</time></trkpt><trkpt lat="43.09942083693847" lon="10.725950679909568"><ele>68.0</ele><time>2026-03-24T17:19:44Z</time></trkpt><trkpt lat="43.099165538948526" lon="10.725953172825758"><ele>68.0</ele><time>2026-03-24T17:19:45Z</time></trkpt><trkpt lat="43.098887616113906" lon="10.726007838609489"><ele>67.0</ele><time>2026-03-24T17:19:46Z</time></trkpt><trkpt lat="43.09856117359236" lon="10.726111626649557"><ele>66.0</ele><time>2026-03-24T17:19:47Z</time></trkpt><trkpt lat="43.098267643685304" lon="10.726256601505005"><ele>63.5</ele><time>2026-03-24T17:19:48Z</time></trkpt><trkpt lat="43.097966172762625" lon="10.72640694932832"><ele>61.0</ele><time>2026-03-24T17:19:49Z</time></trkpt><trkpt lat="43.09766142242484" lon="10.726549941847976"><ele>60.5</ele><time>2026-03-24T17:19:50Z</time></trkpt><trkpt lat="43.097358026604454" lon="10.726685240590028"><ele>60.0</ele><time>2026-03-24T17:19:51Z</time></trkpt><trkpt lat="43.09706218069273" lon="10.726819564648377"><ele>61.0</ele><time>2026-03-24T17:19:52Z</time></trkpt><trkpt lat="43.09678765200135" lon="10.726936397662827"><ele>62.0</ele><time>2026-03-24T17:19:53Z</time></trkpt><trkpt lat="43.09653558820059" lon="10.727049527947203"><ele>62.0</ele><time>2026-03-24T17:19:54Z</time></trkpt><trkpt lat="43.09612806663062" lon="10.727232469647076"><ele>62.0</ele><time>2026-03-24T17:19:55Z</time></trkpt><trkpt lat="43.095818513802925" lon="10.72737711054479"><ele>60.0</ele><time>2026-03-24T17:19:56Z</time></trkpt><trkpt lat="43.095509183905456" lon="10.727520421700218"><ele>58.0</ele><time>2026-03-24T17:19:57Z</time></trkpt><trkpt lat="43.095199547715445" lon="10.727665687907473"><ele>59.0</ele><time>2026-03-24T17:19:58Z</time></trkpt><trkpt lat="43.0948875498557" lon="10.727811242064051"><ele>60.0</ele><time>2026-03-24T17:19:59Z</time></trkpt><trkpt lat="43.094576405062675" lon="10.72795364990288"><ele>60.0</ele><time>2026-03-24T17:20:00Z</time></trkpt><trkpt lat="43.09426535782112" lon="10.728093251092496"><ele>60.0</ele><time>2026-03-24T17:20:01Z</time></trkpt><trkpt lat="43.09394970248272" lon="10.728224613397249"><ele>61.5</ele><time>2026-03-24T17:20:02Z</time></trkpt><trkpt lat="43.093632603658854" lon="10.728345650957888"><ele>63.0</ele><time>2026-03-24T17:20:03Z</time></trkpt><trkpt lat="43.09330257616282" lon="10.728432234294214"><ele>61.5</ele><time>2026-03-24T17:20:04Z</time></trkpt><trkpt lat="43.09297167490799" lon="10.728504351135294"><ele>60.0</ele><time>2026-03-24T17:20:05Z</time></trkpt><trkpt lat="43.09264238447751" lon="10.728585497665069"><ele>59.5</ele><time>2026-03-24T17:20:06Z</time></trkpt><trkpt lat="43.0923091924611" lon="10.728678383686248"><ele>59.0</ele><time>2026-03-24T17:20:07Z</time></trkpt><trkpt lat="43.091979193753026" lon="10.728766514294087"><ele>59.0</ele><time>2026-03-24T17:20:08Z</time></trkpt><trkpt lat="43.09164934556297" lon="10.728853090086105"><ele>59.0</ele><time>2026-03-24T17:20:09Z</time></trkpt><trkpt lat="43.09131388568988" lon="10.72893990657915"><ele>59.5</ele><time>2026-03-24T17:20:10Z</time></trkpt><trkpt lat="43.0909806788325" lon="10.729023959902813"><ele>60.0</ele><time>2026-03-24T17:20:11Z</time></trkpt><trkpt lat="43.09065390207934" lon="10.729111080842724"><ele>59.0</ele><time>2026-03-24T17:20:12Z</time></trkpt><trkpt lat="43.090323359246185" lon="10.729203929302011"><ele>58.0</ele><time>2026-03-24T17:20:13Z</time></trkpt><trkpt lat="43.089993321617975" lon="10.729293728016552"><ele>57.5</ele><time>2026-03-24T17:20:14Z</time></trkpt><trkpt lat="43.08966191295772" lon="10.729382586782506"><ele>57.0</ele><time>2026-03-24T17:20:15Z</time></trkpt><trkpt lat="43.089334249373955" lon="10.729468373217781"><ele>56.5</ele><time>2026-03-24T17:20:16Z</time></trkpt><trkpt lat="43.08900881530819" lon="10.729552307813641"><ele>56.0</ele><time>2026-03-24T17:20:17Z</time></trkpt><trkpt lat="43.08868563901127" lon="10.729638552169584"><ele>56.0</ele><time>2026-03-24T17:20:18Z</time></trkpt><trkpt lat="43.0883834174064" lon="10.729719534105103"><ele>56.0</ele><time>2026-03-24T17:20:19Z</time></trkpt><trkpt lat="43.08810079913148" lon="10.729811402826979"><ele>56.0</ele><time>2026-03-24T17:20:20Z</time></trkpt><trkpt lat="43.08782251629273" lon="10.729885700836212"><ele>56.0</ele><time>2026-03-24T17:20:21Z</time></trkpt><trkpt lat="43.0875545581058" lon="10.729857534894096"><ele>56.0</ele><time>2026-03-24T17:20:22Z</time></trkpt><trkpt lat="43.0872763615156" lon="10.729798950788696"><ele>56.0</ele><time>2026-03-24T17:20:23Z</time></trkpt><trkpt lat="43.086985561651" lon="10.72974665028865"><ele>56.0</ele><time>2026-03-24T17:20:24Z</time></trkpt><trkpt lat="43.08668946290645" lon="10.729671477389225"><ele>56.0</ele><time>2026-03-24T17:20:25Z</time></trkpt><trkpt lat="43.086385294695184" lon="10.729611600266436"><ele>56.5</ele><time>2026-03-24T17:20:26Z</time></trkpt><trkpt lat="43.086075539735916" lon="10.729552952173703"><ele>57.0</ele><time>2026-03-24T17:20:27Z</time></trkpt><trkpt lat="43.085763899591804" lon="10.729489348034656"><ele>56.0</ele><time>2026-03-24T17:20:28Z</time></trkpt><trkpt lat="43.08545335695108" lon="10.729419478250472"><ele>55.0</ele><time>2026-03-24T17:20:29Z</time></trkpt><trkpt lat="43.085141616863275" lon="10.729351453625686"><ele>54.0</ele><time>2026-03-24T17:20:30Z</time></trkpt><trkpt lat="43.0848493795318" lon="10.7292890503536"><ele>53.0</ele><time>2026-03-24T17:20:31Z</time></trkpt><trkpt lat="43.08458515786514" lon="10.729235349117616"><ele>53.0</ele><time>2026-03-24T17:20:32Z</time></trkpt><trkpt lat="43.08433775376056" lon="10.729182454718426"><ele>53.0</ele><time>2026-03-24T17:20:33Z</time></trkpt><trkpt lat="43.08410538421488" lon="10.729132037621486"><ele>52.66666666666667</ele><time>2026-03-24T17:20:34Z</time></trkpt><trkpt lat="43.08389844283304" lon="10.729087069683295"><ele>52.33333333333333</ele><time>2026-03-24T17:20:35Z</time></trkpt><trkpt lat="43.08368980773473" lon="10.72901804994347"><ele>52.0</ele><time>2026-03-24T17:20:36Z</time></trkpt><trkpt lat="43.083477190127105" lon="10.728871180871932"><ele>52.0</ele><time>2026-03-24T17:20:37Z</time></trkpt><trkpt lat="43.083277258763225" lon="10.72864119119493"><ele>52.0</ele><time>2026-03-24T17:20:38Z</time></trkpt><trkpt lat="43.0830856608424" lon="10.728363221886593"><ele>51.0</ele><time>2026-03-24T17:20:39Z</time></trkpt><trkpt lat="43.08288373806859" lon="10.728099023816435"><ele>50.0</ele><time>2026-03-24T17:20:40Z</time></trkpt><trkpt lat="43.08267357219821" lon="10.727851689985881"><ele>49.5</ele><time>2026-03-24T17:20:41Z</time></trkpt><trkpt lat="43.08246510948268" lon="10.727595613205779"><ele>49.0</ele><time>2026-03-24T17:20:42Z</time></trkpt><trkpt lat="43.082251700347875" lon="10.727332810227065"><ele>49.0</ele><time>2026-03-24T17:20:43Z</time></trkpt><trkpt lat="43.082017978710205" lon="10.727060793213976"><ele>49.0</ele><time>2026-03-24T17:20:44Z</time></trkpt><trkpt lat="43.08178512006314" lon="10.726780804310305"><ele>49.0</ele><time>2026-03-24T17:20:45Z</time></trkpt><trkpt lat="43.08155084235569" lon="10.72649072012278"><ele>49.0</ele><time>2026-03-24T17:20:46Z</time></trkpt><trkpt lat="43.08132401848271" lon="10.726206902953562"><ele>49.0</ele><time>2026-03-24T17:20:47Z</time></trkpt><trkpt lat="43.081095579897294" lon="10.725922775173002"><ele>49.0</ele><time>2026-03-24T17:20:48Z</time></trkpt><trkpt lat="43.08086281635237" lon="10.725636149500346"><ele>48.5</ele><time>2026-03-24T17:20:49Z</time></trkpt><trkpt lat="43.08063120653593" lon="10.725343192915918"><ele>48.0</ele><time>2026-03-24T17:20:50Z</time></trkpt><trkpt lat="43.080400826714985" lon="10.7250449042762"><ele>48.0</ele><time>2026-03-24T17:20:51Z</time></trkpt><trkpt lat="43.080175909807906" lon="10.724740685911403"><ele>48.0</ele><time>2026-03-24T17:20:52Z</time></trkpt><trkpt lat="43.07994035629766" lon="10.72442919291875"><ele>48.0</ele><time>2026-03-24T17:20:53Z</time></trkpt><trkpt lat="43.07970604001044" lon="10.724130262246533"><ele>48.0</ele><time>2026-03-24T17:20:54Z</time></trkpt><trkpt lat="43.07946061638919" lon="10.723828280793667"><ele>47.5</ele><time>2026-03-24T17:20:55Z</time></trkpt><trkpt lat="43.07921174064322" lon="10.723520096399211"><ele>47.0</ele><time>2026-03-24T17:20:56Z</time></trkpt><trkpt lat="43.078961191060685" lon="10.723205773100917"><ele>47.0</ele><time>2026-03-24T17:20:57Z</time></trkpt><trkpt lat="43.0787073275277" lon="10.722891053679888"><ele>47.0</ele><time>2026-03-24T17:20:58Z</time></trkpt><trkpt lat="43.07845204322365" lon="10.72257565051712"><ele>47.0</ele><time>2026-03-24T17:20:59Z</time></trkpt><trkpt lat="43.07819863712099" lon="10.72225765408649"><ele>47.0</ele><time>2026-03-24T17:21:00Z</time></trkpt><trkpt lat="43.07794675149361" lon="10.721938701368558"><ele>47.0</ele><time>2026-03-24T17:21:01Z</time></trkpt><trkpt lat="43.077691063165176" lon="10.721619322002745"><ele>47.0</ele><time>2026-03-24T17:21:02Z</time></trkpt><trkpt lat="43.07743197816659" lon="10.72130034033861"><ele>46.0</ele><time>2026-03-24T17:21:03Z</time></trkpt><trkpt lat="43.07717128178103" lon="10.72097746013242"><ele>45.0</ele><time>2026-03-24T17:21:04Z</time></trkpt><trkpt lat="43.07691070274188" lon="10.720651679895102"><ele>45.0</ele><time>2026-03-24T17:21:05Z</time></trkpt><trkpt lat="43.07664984542178" lon="10.720328276761382"><ele>45.0</ele><time>2026-03-24T17:21:06Z</time></trkpt><trkpt lat="43.07638681210854" lon="10.720003634343886"><ele>46.0</ele><time>2026-03-24T17:21:07Z</time></trkpt><trkpt lat="43.076125006854745" lon="10.71967908296992"><ele>47.0</ele><time>2026-03-24T17:21:08Z</time></trkpt><trkpt lat="43.07586441151933" lon="10.719355882705244"><ele>46.5</ele><time>2026-03-24T17:21:09Z</time></trkpt><trkpt lat="43.07560477526078" lon="10.71903378588306"><ele>46.0</ele><time>2026-03-24T17:21:10Z</time></trkpt><trkpt lat="43.07534831142689" lon="10.718716337395024"><ele>46.5</ele><time>2026-03-24T17:21:11Z</time></trkpt><trkpt lat="43.075095141033195" lon="10.718402763599636"><ele>47.0</ele><time>2026-03-24T17:21:12Z</time></trkpt><trkpt lat="43.0748484904287" lon="10.718093264355913"><ele>46.0</ele><time>2026-03-24T17:21:13Z</time></trkpt><trkpt lat="43.07460380606238" lon="10.717789368502512"><ele>45.0</ele><time>2026-03-24T17:21:14Z</time></trkpt><trkpt lat="43.07436015418625" lon="10.717489372154153"><ele>45.0</ele><time>2026-03-24T17:21:15Z</time></trkpt><trkpt lat="43.07411786637824" lon="10.717189330331193"><ele>45.0</ele><time>2026-03-24T17:21:16Z</time></trkpt><trkpt lat="43.07387207260935" lon="10.716888750048824"><ele>45.0</ele><time>2026-03-24T17:21:17Z</time></trkpt><trkpt lat="43.07362487979824" lon="10.716579299650117"><ele>45.0</ele><time>2026-03-24T17:21:18Z</time></trkpt><trkpt lat="43.07340061434979" lon="10.716290032589392"><ele>45.0</ele><time>2026-03-24T17:21:19Z</time></trkpt><trkpt lat="43.073186704142095" lon="10.716016051772499"><ele>45.0</ele><time>2026-03-24T17:21:20Z</time></trkpt><trkpt lat="43.07298111072123" lon="10.715764522424873"><ele>45.0</ele><time>2026-03-24T17:21:21Z</time></trkpt><trkpt lat="43.0727878951307" lon="10.715532742525363"><ele>45.0</ele><time>2026-03-24T17:21:22Z</time></trkpt><trkpt lat="43.07261064014652" lon="10.715314330221533"><ele>44.666666666666664</ele><time>2026-03-24T17:21:23Z</time></trkpt><trkpt lat="43.07244559608708" lon="10.715107020110317"><ele>44.33333333333333</ele><time>2026-03-24T17:21:24Z</time></trkpt><trkpt lat="43.07228927094286" lon="10.714910190924694"><ele>44.0</ele><time>2026-03-24T17:21:25Z</time></trkpt><trkpt lat="43.0721442748895" lon="10.714727955772126"><ele>44.0</ele><time>2026-03-24T17:21:26Z</time></trkpt><trkpt lat="43.0720163490262" lon="10.714564745890765"><ele>44.0</ele><time>2026-03-24T17:21:27Z</time></trkpt><trkpt lat="43.07191791421526" lon="10.714426576457017"><ele>44.0</ele><time>2026-03-24T17:21:28Z</time></trkpt><trkpt lat="43.07185200016566" lon="10.71430203971128"><ele>44.0</ele><time>2026-03-24T17:21:29Z</time></trkpt><trkpt lat="43.07180686664868" lon="10.71418979591187"><ele>44.0</ele><time>2026-03-24T17:21:30Z</time></trkpt><trkpt lat="43.07173820894334" lon="10.714110699512746"><ele>44.0</ele><time>2026-03-24T17:21:31Z</time></trkpt><trkpt lat="43.07165441732294" lon="10.714110230803248"><ele>44.0</ele><time>2026-03-24T17:21:32Z</time></trkpt><trkpt lat="43.07157567607257" lon="10.714177094194232"><ele>44.0</ele><time>2026-03-24T17:21:33Z</time></trkpt><trkpt lat="43.07151953110098" lon="10.714300607089077"><ele>44.0</ele><time>2026-03-24T17:21:34Z</time></trkpt><trkpt lat="43.07146776967393" lon="10.714467192324248"><ele>44.0</ele><time>2026-03-24T17:21:35Z</time></trkpt><trkpt lat="43.07138864065409" lon="10.714660582816034"><ele>44.0</ele><time>2026-03-24T17:21:36Z</time></trkpt><trkpt lat="43.071284634993454" lon="10.7148694195534"><ele>44.0</ele><time>2026-03-24T17:21:37Z</time></trkpt><trkpt lat="43.07116681134278" lon="10.71510626300378"><ele>44.0</ele><time>2026-03-24T17:21:38Z</time></trkpt><trkpt lat="43.07104902327975" lon="10.715361493925252"><ele>44.0</ele><time>2026-03-24T17:21:39Z</time></trkpt><trkpt lat="43.07092972829239" lon="10.715630205445686"><ele>44.0</ele><time>2026-03-24T17:21:40Z</time></trkpt><trkpt lat="43.07080348023025" lon="10.715904348970415"><ele>44.0</ele><time>2026-03-24T17:21:41Z</time></trkpt><trkpt lat="43.070665729194346" lon="10.716199480126663"><ele>44.0</ele><time>2026-03-24T17:21:42Z</time></trkpt><trkpt lat="43.07052767916048" lon="10.716492008255486"><ele>44.0</ele><time>2026-03-24T17:21:43Z</time></trkpt><trkpt lat="43.07038454071923" lon="10.716797224565033"><ele>44.0</ele><time>2026-03-24T17:21:44Z</time></trkpt><trkpt lat="43.07023564535916" lon="10.717109245191542"><ele>44.0</ele><time>2026-03-24T17:21:45Z</time></trkpt><trkpt lat="43.07008308063725" lon="10.717436061995935"><ele>44.0</ele><time>2026-03-24T17:21:46Z</time></trkpt><trkpt lat="43.069925161457746" lon="10.717770048971467"><ele>44.0</ele><time>2026-03-24T17:21:47Z</time></trkpt><trkpt lat="43.06974018062565" lon="10.718142697418292"><ele>44.0</ele><time>2026-03-24T17:21:48Z</time></trkpt><trkpt lat="43.06956738065075" lon="10.718502100560915"><ele>44.0</ele><time>2026-03-24T17:21:49Z</time></trkpt><trkpt lat="43.06944929167634" lon="10.71879070297396"><ele>44.0</ele><time>2026-03-24T17:21:50Z</time></trkpt><trkpt lat="43.069293768075305" lon="10.719123713430408"><ele>44.0</ele><time>2026-03-24T17:21:51Z</time></trkpt><trkpt lat="43.069131336170415" lon="10.719465604171686"><ele>44.0</ele><time>2026-03-24T17:21:52Z</time></trkpt><trkpt lat="43.06897004184819" lon="10.71981419579906"><ele>44.0</ele><time>2026-03-24T17:21:53Z</time></trkpt><trkpt lat="43.06880887077653" lon="10.720162923559043"><ele>44.0</ele><time>2026-03-24T17:21:54Z</time></trkpt><trkpt lat="43.06864652141635" lon="10.720507890243205"><ele>44.0</ele><time>2026-03-24T17:21:55Z</time></trkpt><trkpt lat="43.06848792647209" lon="10.720847512320475"><ele>44.5</ele><time>2026-03-24T17:21:56Z</time></trkpt><trkpt lat="43.068341154705095" lon="10.721165821239698"><ele>45.0</ele><time>2026-03-24T17:21:57Z</time></trkpt><trkpt lat="43.06820364485995" lon="10.721464579114285"><ele>45.0</ele><time>2026-03-24T17:21:58Z</time></trkpt><trkpt lat="43.06808186508338" lon="10.72174370930028"><ele>45.0</ele><time>2026-03-24T17:21:59Z</time></trkpt><trkpt lat="43.06795547658473" lon="10.721988991175099"><ele>45.333333333333336</ele><time>2026-03-24T17:22:00Z</time></trkpt><trkpt lat="43.06781195283148" lon="10.722195829367559"><ele>45.66666666666667</ele><time>2026-03-24T17:22:01Z</time></trkpt><trkpt lat="43.06764249761958" lon="10.722343698306812"><ele>46.0</ele><time>2026-03-24T17:22:02Z</time></trkpt><trkpt lat="43.067499555753564" lon="10.722495406265235"><ele>46.0</ele><time>2026-03-24T17:22:03Z</time></trkpt></trkseg></trk></gpx>